<?xml version="1.0" encoding="UTF-8" standalone="no" ?>
<gpx xmlns="http://www.topografix.com/GPX/1/1" xmlns:xsi="http://www.w3.org/2001/XMLSchema-instance" xsi:schemaLocation="http://www.topografix.com/GPX/1/1 http://www.topografix.com/GPX/1/1/gpx.xsd" version="1.1" creator="VisuGPX - https://www.visugpx.com">
  <metadata>
    <name>Bataille </name>
    <desc><![CDATA[Bataille par la Portette ]]></desc>
  </metadata>
  <trk>
    <name><![CDATA[La Bataille par La Croix et la Portette]]></name>
    <trkseg>
      <trkpt lat="45.11568" lon="4.9642">
        <ele>197.33702087402</ele>
        <time>2011-05-25T11:15:27Z</time>
      </trkpt>
      <trkpt lat="45.11567" lon="4.96422">
        <ele>197.22950744629</ele>
        <time>2011-05-25T11:15:34Z</time>
      </trkpt>
      <trkpt lat="45.11567" lon="4.96422">
        <ele>197.22219848633</ele>
        <time>2011-05-25T11:15:35Z</time>
      </trkpt>
      <trkpt lat="45.11562" lon="4.9643">
        <ele>196.70541381836</ele>
        <time>2011-05-25T11:16:00Z</time>
      </trkpt>
      <trkpt lat="45.11567" lon="4.96447">
        <ele>196.24523925781</ele>
        <time>2011-05-25T11:16:05Z</time>
      </trkpt>
      <trkpt lat="45.11573" lon="4.9645">
        <ele>196.36776733398</ele>
        <time>2011-05-25T11:16:08Z</time>
      </trkpt>
      <trkpt lat="45.11575" lon="4.96446">
        <ele>196.61486816406</ele>
        <time>2011-05-25T11:16:11Z</time>
      </trkpt>
      <trkpt lat="45.11576" lon="4.96445">
        <ele>196.67384338379</ele>
        <time>2011-05-25T11:16:12Z</time>
      </trkpt>
      <trkpt lat="45.11576" lon="4.96445">
        <ele>196.70855712891</ele>
        <time>2011-05-25T11:16:14Z</time>
      </trkpt>
      <trkpt lat="45.11577" lon="4.96447">
        <ele>196.65118408203</ele>
        <time>2011-05-25T11:16:33Z</time>
      </trkpt>
      <trkpt lat="45.11578" lon="4.96447">
        <ele>196.69119262695</ele>
        <time>2011-05-25T11:16:34Z</time>
      </trkpt>
      <trkpt lat="45.11578" lon="4.96446">
        <ele>196.69821166992</ele>
        <time>2011-05-25T11:16:35Z</time>
      </trkpt>
      <trkpt lat="45.11579" lon="4.96448">
        <ele>196.71604919434</ele>
        <time>2011-05-25T11:16:40Z</time>
      </trkpt>
      <trkpt lat="45.11583" lon="4.96457">
        <ele>196.50883483887</ele>
        <time>2011-05-25T11:16:45Z</time>
      </trkpt>
      <trkpt lat="45.11583" lon="4.96485">
        <ele>195.53622436523</ele>
        <time>2011-05-25T11:16:52Z</time>
      </trkpt>
      <trkpt lat="45.11583" lon="4.96491">
        <ele>195.27769470215</ele>
        <time>2011-05-25T11:16:56Z</time>
      </trkpt>
      <trkpt lat="45.11583" lon="4.96491">
        <ele>195.27769470215</ele>
        <time>2011-05-25T11:16:57Z</time>
      </trkpt>
      <trkpt lat="45.11581" lon="4.96501">
        <ele>194.89068603516</ele>
        <time>2011-05-25T11:17:07Z</time>
      </trkpt>
      <trkpt lat="45.11587" lon="4.96521">
        <ele>195.14767456055</ele>
        <time>2011-05-25T11:17:12Z</time>
      </trkpt>
      <trkpt lat="45.11599" lon="4.96552">
        <ele>195.38832092285</ele>
        <time>2011-05-25T11:17:18Z</time>
      </trkpt>
      <trkpt lat="45.11607" lon="4.96574">
        <ele>195.38005065918</ele>
        <time>2011-05-25T11:17:22Z</time>
      </trkpt>
      <trkpt lat="45.11626" lon="4.96623">
        <ele>194.79037475586</ele>
        <time>2011-05-25T11:17:30Z</time>
      </trkpt>
      <trkpt lat="45.11637" lon="4.96654">
        <ele>194.25602722168</ele>
        <time>2011-05-25T11:17:35Z</time>
      </trkpt>
      <trkpt lat="45.11654" lon="4.96696">
        <ele>194.59089660644</ele>
        <time>2011-05-25T11:17:42Z</time>
      </trkpt>
      <trkpt lat="45.11665" lon="4.96724">
        <ele>195.35833740234</ele>
        <time>2011-05-25T11:17:47Z</time>
      </trkpt>
      <trkpt lat="45.11692" lon="4.96772">
        <ele>195.91976928711</ele>
        <time>2011-05-25T11:17:56Z</time>
      </trkpt>
      <trkpt lat="45.11718" lon="4.96816">
        <ele>195.50921630859</ele>
        <time>2011-05-25T11:18:04Z</time>
      </trkpt>
      <trkpt lat="45.11725" lon="4.96827">
        <ele>195.3479309082</ele>
        <time>2011-05-25T11:18:06Z</time>
      </trkpt>
      <trkpt lat="45.11733" lon="4.96854">
        <ele>195.55418395996</ele>
        <time>2011-05-25T11:18:10Z</time>
      </trkpt>
      <trkpt lat="45.11748" lon="4.96876">
        <ele>196.00975036621</ele>
        <time>2011-05-25T11:18:14Z</time>
      </trkpt>
      <trkpt lat="45.11769" lon="4.96897">
        <ele>196.68733215332</ele>
        <time>2011-05-25T11:18:19Z</time>
      </trkpt>
      <trkpt lat="45.11818" lon="4.96972">
        <ele>198.07626342773</ele>
        <time>2011-05-25T11:18:32Z</time>
      </trkpt>
      <trkpt lat="45.11852" lon="4.9702">
        <ele>198.38011169434</ele>
        <time>2011-05-25T11:18:41Z</time>
      </trkpt>
      <trkpt lat="45.11872" lon="4.97047">
        <ele>197.84234619141</ele>
        <time>2011-05-25T11:18:46Z</time>
      </trkpt>
      <trkpt lat="45.11882" lon="4.97074">
        <ele>197.36370849609</ele>
        <time>2011-05-25T11:18:50Z</time>
      </trkpt>
      <trkpt lat="45.11882" lon="4.97091">
        <ele>197.11915588379</ele>
        <time>2011-05-25T11:18:52Z</time>
      </trkpt>
      <trkpt lat="45.11876" lon="4.97126">
        <ele>196.78028869629</ele>
        <time>2011-05-25T11:18:56Z</time>
      </trkpt>
      <trkpt lat="45.11878" lon="4.97173">
        <ele>196.57427978516</ele>
        <time>2011-05-25T11:19:01Z</time>
      </trkpt>
      <trkpt lat="45.11895" lon="4.97275">
        <ele>196.26837158203</ele>
        <time>2011-05-25T11:19:12Z</time>
      </trkpt>
      <trkpt lat="45.11911" lon="4.97367">
        <ele>195.96264648438</ele>
        <time>2011-05-25T11:19:22Z</time>
      </trkpt>
      <trkpt lat="45.11927" lon="4.97464">
        <ele>196.33131408691</ele>
        <time>2011-05-25T11:19:33Z</time>
      </trkpt>
      <trkpt lat="45.11943" lon="4.97557">
        <ele>196.69903564453</ele>
        <time>2011-05-25T11:19:44Z</time>
      </trkpt>
      <trkpt lat="45.11952" lon="4.97612">
        <ele>196.62217712402</ele>
        <time>2011-05-25T11:19:51Z</time>
      </trkpt>
      <trkpt lat="45.11963" lon="4.97669">
        <ele>196.26773071289</ele>
        <time>2011-05-25T11:19:58Z</time>
      </trkpt>
      <trkpt lat="45.1198" lon="4.97766">
        <ele>197.80776977539</ele>
        <time>2011-05-25T11:20:09Z</time>
      </trkpt>
      <trkpt lat="45.11995" lon="4.97856">
        <ele>198.27310180664</ele>
        <time>2011-05-25T11:20:19Z</time>
      </trkpt>
      <trkpt lat="45.12012" lon="4.97947">
        <ele>200.12550354004</ele>
        <time>2011-05-25T11:20:30Z</time>
      </trkpt>
      <trkpt lat="45.12023" lon="4.97986">
        <ele>201.24842834473</ele>
        <time>2011-05-25T11:20:35Z</time>
      </trkpt>
      <trkpt lat="45.12043" lon="4.98061">
        <ele>203.13151550293</ele>
        <time>2011-05-25T11:20:45Z</time>
      </trkpt>
      <trkpt lat="45.12057" lon="4.98124">
        <ele>204.9559173584</ele>
        <time>2011-05-25T11:20:53Z</time>
      </trkpt>
      <trkpt lat="45.12067" lon="4.98198">
        <ele>205.75326538086</ele>
        <time>2011-05-25T11:21:02Z</time>
      </trkpt>
      <trkpt lat="45.12065" lon="4.98265">
        <ele>204.7801361084</ele>
        <time>2011-05-25T11:21:10Z</time>
      </trkpt>
      <trkpt lat="45.12061" lon="4.98299">
        <ele>204.25883483887</ele>
        <time>2011-05-25T11:21:14Z</time>
      </trkpt>
      <trkpt lat="45.12047" lon="4.9837">
        <ele>204.44700622559</ele>
        <time>2011-05-25T11:21:23Z</time>
      </trkpt>
      <trkpt lat="45.12045" lon="4.98377">
        <ele>204.59692382812</ele>
        <time>2011-05-25T11:21:24Z</time>
      </trkpt>
      <trkpt lat="45.12028" lon="4.98402">
        <ele>204.98831176758</ele>
        <time>2011-05-25T11:21:29Z</time>
      </trkpt>
      <trkpt lat="45.12017" lon="4.98401">
        <ele>204.82122802734</ele>
        <time>2011-05-25T11:21:31Z</time>
      </trkpt>
      <trkpt lat="45.11998" lon="4.98394">
        <ele>204.40139770508</ele>
        <time>2011-05-25T11:21:34Z</time>
      </trkpt>
      <trkpt lat="45.11972" lon="4.98397">
        <ele>203.69947814941</ele>
        <time>2011-05-25T11:21:38Z</time>
      </trkpt>
      <trkpt lat="45.11956" lon="4.98391">
        <ele>203.13035583496</ele>
        <time>2011-05-25T11:21:41Z</time>
      </trkpt>
      <trkpt lat="45.11946" lon="4.98389">
        <ele>202.82852172852</ele>
        <time>2011-05-25T11:21:44Z</time>
      </trkpt>
      <trkpt lat="45.11945" lon="4.98394">
        <ele>202.84170532227</ele>
        <time>2011-05-25T11:21:47Z</time>
      </trkpt>
      <trkpt lat="45.11945" lon="4.98394">
        <ele>202.8424987793</ele>
        <time>2011-05-25T11:21:48Z</time>
      </trkpt>
      <trkpt lat="45.11951" lon="4.98397">
        <ele>203.03942871094</ele>
        <time>2011-05-25T11:40:16Z</time>
      </trkpt>
      <trkpt lat="45.11952" lon="4.98399">
        <ele>203.09889221191</ele>
        <time>2011-05-25T11:40:18Z</time>
      </trkpt>
      <trkpt lat="45.11962" lon="4.98403">
        <ele>203.44018554688</ele>
        <time>2011-05-25T11:40:22Z</time>
      </trkpt>
      <trkpt lat="45.11976" lon="4.98399">
        <ele>203.82281494141</ele>
        <time>2011-05-25T11:40:26Z</time>
      </trkpt>
      <trkpt lat="45.11985" lon="4.98391">
        <ele>203.9592590332</ele>
        <time>2011-05-25T11:40:29Z</time>
      </trkpt>
      <trkpt lat="45.11993" lon="4.98391">
        <ele>204.17794799805</ele>
        <time>2011-05-25T11:40:31Z</time>
      </trkpt>
      <trkpt lat="45.12014" lon="4.98402">
        <ele>204.81092834473</ele>
        <time>2011-05-25T11:40:37Z</time>
      </trkpt>
      <trkpt lat="45.12027" lon="4.9841">
        <ele>205.15425109863</ele>
        <time>2011-05-25T11:40:41Z</time>
      </trkpt>
      <trkpt lat="45.1203" lon="4.98429">
        <ele>205.3603515625</ele>
        <time>2011-05-25T11:40:46Z</time>
      </trkpt>
      <trkpt lat="45.12024" lon="4.98461">
        <ele>205.28253173828</ele>
        <time>2011-05-25T11:40:52Z</time>
      </trkpt>
      <trkpt lat="45.12019" lon="4.98497">
        <ele>205.23217773438</ele>
        <time>2011-05-25T11:40:58Z</time>
      </trkpt>
      <trkpt lat="45.12017" lon="4.98551">
        <ele>204.45965576172</ele>
        <time>2011-05-25T11:41:05Z</time>
      </trkpt>
      <trkpt lat="45.12017" lon="4.98591">
        <ele>203.94841003418</ele>
        <time>2011-05-25T11:41:10Z</time>
      </trkpt>
      <trkpt lat="45.1202" lon="4.98647">
        <ele>203.6072845459</ele>
        <time>2011-05-25T11:41:17Z</time>
      </trkpt>
      <trkpt lat="45.12033" lon="4.98723">
        <ele>203.37174987793</ele>
        <time>2011-05-25T11:41:26Z</time>
      </trkpt>
      <trkpt lat="45.12051" lon="4.98796">
        <ele>203.72076416016</ele>
        <time>2011-05-25T11:41:35Z</time>
      </trkpt>
      <trkpt lat="45.12071" lon="4.98848">
        <ele>203.72361755371</ele>
        <time>2011-05-25T11:41:42Z</time>
      </trkpt>
      <trkpt lat="45.12095" lon="4.98899">
        <ele>203.70843505859</ele>
        <time>2011-05-25T11:41:49Z</time>
      </trkpt>
      <trkpt lat="45.12131" lon="4.98963">
        <ele>205.52928161621</ele>
        <time>2011-05-25T11:41:59Z</time>
      </trkpt>
      <trkpt lat="45.12162" lon="4.99004">
        <ele>206.78967285156</ele>
        <time>2011-05-25T11:42:07Z</time>
      </trkpt>
      <trkpt lat="45.12201" lon="4.99047">
        <ele>211.12545776367</ele>
        <time>2011-05-25T11:42:17Z</time>
      </trkpt>
      <trkpt lat="45.12205" lon="4.99052">
        <ele>211.51416015625</ele>
        <time>2011-05-25T11:42:18Z</time>
      </trkpt>
      <trkpt lat="45.12216" lon="4.99084">
        <ele>211.93939208984</ele>
        <time>2011-05-25T11:42:23Z</time>
      </trkpt>
      <trkpt lat="45.12214" lon="4.99108">
        <ele>211.54794311523</ele>
        <time>2011-05-25T11:42:26Z</time>
      </trkpt>
      <trkpt lat="45.1219" lon="4.99198">
        <ele>209.46376037598</ele>
        <time>2011-05-25T11:42:36Z</time>
      </trkpt>
      <trkpt lat="45.12172" lon="4.99262">
        <ele>208.38137817383</ele>
        <time>2011-05-25T11:42:43Z</time>
      </trkpt>
      <trkpt lat="45.12149" lon="4.99348">
        <ele>208.54312133789</ele>
        <time>2011-05-25T11:42:53Z</time>
      </trkpt>
      <trkpt lat="45.12131" lon="4.99412">
        <ele>208.65411376953</ele>
        <time>2011-05-25T11:43:01Z</time>
      </trkpt>
      <trkpt lat="45.12109" lon="4.99465">
        <ele>207.56877136231</ele>
        <time>2011-05-25T11:43:08Z</time>
      </trkpt>
      <trkpt lat="45.12082" lon="4.99512">
        <ele>206.99114990234</ele>
        <time>2011-05-25T11:43:15Z</time>
      </trkpt>
      <trkpt lat="45.12047" lon="4.99576">
        <ele>207.35604858398</ele>
        <time>2011-05-25T11:43:25Z</time>
      </trkpt>
      <trkpt lat="45.12012" lon="4.99637">
        <ele>208.03979492188</ele>
        <time>2011-05-25T11:43:34Z</time>
      </trkpt>
      <trkpt lat="45.11971" lon="4.99712">
        <ele>207.70509338379</ele>
        <time>2011-05-25T11:43:44Z</time>
      </trkpt>
      <trkpt lat="45.11926" lon="4.99783">
        <ele>210.35409545898</ele>
        <time>2011-05-25T11:43:54Z</time>
      </trkpt>
      <trkpt lat="45.11898" lon="4.99815">
        <ele>214.91415405273</ele>
        <time>2011-05-25T11:44:00Z</time>
      </trkpt>
      <trkpt lat="45.11863" lon="4.99844">
        <ele>221.25534057617</ele>
        <time>2011-05-25T11:44:08Z</time>
      </trkpt>
      <trkpt lat="45.11835" lon="4.99859">
        <ele>225.93542480469</ele>
        <time>2011-05-25T11:44:14Z</time>
      </trkpt>
      <trkpt lat="45.1179" lon="4.99877">
        <ele>231.38143920898</ele>
        <time>2011-05-25T11:44:24Z</time>
      </trkpt>
      <trkpt lat="45.11752" lon="4.99891">
        <ele>234.74801635742</ele>
        <time>2011-05-25T11:44:33Z</time>
      </trkpt>
      <trkpt lat="45.11707" lon="4.99909">
        <ele>235.82095336914</ele>
        <time>2011-05-25T11:44:44Z</time>
      </trkpt>
      <trkpt lat="45.11673" lon="4.99929">
        <ele>235.61175537109</ele>
        <time>2011-05-25T11:44:52Z</time>
      </trkpt>
      <trkpt lat="45.11635" lon="4.99965">
        <ele>235.93458557129</ele>
        <time>2011-05-25T11:45:02Z</time>
      </trkpt>
      <trkpt lat="45.11602" lon="5.0001">
        <ele>244.55934143066</ele>
        <time>2011-05-25T11:45:12Z</time>
      </trkpt>
      <trkpt lat="45.11569" lon="5.00054">
        <ele>243.60194396973</ele>
        <time>2011-05-25T11:45:21Z</time>
      </trkpt>
      <trkpt lat="45.11529" lon="5.00097">
        <ele>241.98080444336</ele>
        <time>2011-05-25T11:45:30Z</time>
      </trkpt>
      <trkpt lat="45.11485" lon="5.00141">
        <ele>237.51847839356</ele>
        <time>2011-05-25T11:45:39Z</time>
      </trkpt>
      <trkpt lat="45.11447" lon="5.00176">
        <ele>237</ele>
        <time>2011-05-25T11:45:46Z</time>
      </trkpt>
      <trkpt lat="45.11413" lon="5.00208">
        <ele>237</ele>
        <time>2011-05-25T11:45:52Z</time>
      </trkpt>
      <trkpt lat="45.11372" lon="5.00246">
        <ele>237</ele>
        <time>2011-05-25T11:45:59Z</time>
      </trkpt>
      <trkpt lat="45.11305" lon="5.00304">
        <ele>237</ele>
        <time>2011-05-25T11:46:10Z</time>
      </trkpt>
      <trkpt lat="45.11258" lon="5.00333">
        <ele>237.98883056641</ele>
        <time>2011-05-25T11:46:18Z</time>
      </trkpt>
      <trkpt lat="45.11213" lon="5.00356">
        <ele>238</ele>
        <time>2011-05-25T11:46:26Z</time>
      </trkpt>
      <trkpt lat="45.1116" lon="5.00383">
        <ele>239.03498840332</ele>
        <time>2011-05-25T11:46:36Z</time>
      </trkpt>
      <trkpt lat="45.11101" lon="5.00415">
        <ele>244.64460754394</ele>
        <time>2011-05-25T11:46:48Z</time>
      </trkpt>
      <trkpt lat="45.11058" lon="5.00441">
        <ele>249.60218811035</ele>
        <time>2011-05-25T11:46:57Z</time>
      </trkpt>
      <trkpt lat="45.11039" lon="5.00454">
        <ele>251.82691955566</ele>
        <time>2011-05-25T11:47:01Z</time>
      </trkpt>
      <trkpt lat="45.10994" lon="5.00486">
        <ele>258.60284423828</ele>
        <time>2011-05-25T11:47:11Z</time>
      </trkpt>
      <trkpt lat="45.10963" lon="5.00509">
        <ele>263.22525024414</ele>
        <time>2011-05-25T11:47:18Z</time>
      </trkpt>
      <trkpt lat="45.10924" lon="5.00536">
        <ele>267.2727355957</ele>
        <time>2011-05-25T11:47:26Z</time>
      </trkpt>
      <trkpt lat="45.10881" lon="5.00556">
        <ele>270.26028442383</ele>
        <time>2011-05-25T11:47:33Z</time>
      </trkpt>
      <trkpt lat="45.10833" lon="5.00567">
        <ele>269.35174560547</ele>
        <time>2011-05-25T11:47:39Z</time>
      </trkpt>
      <trkpt lat="45.10774" lon="5.00574">
        <ele>265.62658691406</ele>
        <time>2011-05-25T11:47:45Z</time>
      </trkpt>
      <trkpt lat="45.10763" lon="5.00576">
        <ele>264.52795410156</ele>
        <time>2011-05-25T11:47:46Z</time>
      </trkpt>
      <trkpt lat="45.10693" lon="5.00591">
        <ele>256.9104309082</ele>
        <time>2011-05-25T11:47:52Z</time>
      </trkpt>
      <trkpt lat="45.10656" lon="5.00605">
        <ele>254.08085632324</ele>
        <time>2011-05-25T11:47:55Z</time>
      </trkpt>
      <trkpt lat="45.10644" lon="5.00611">
        <ele>252.97155761719</ele>
        <time>2011-05-25T11:47:56Z</time>
      </trkpt>
      <trkpt lat="45.1062" lon="5.00626">
        <ele>245.70576477051</ele>
        <time>2011-05-25T11:47:58Z</time>
      </trkpt>
      <trkpt lat="45.10572" lon="5.00662">
        <ele>238.67361450195</ele>
        <time>2011-05-25T11:48:02Z</time>
      </trkpt>
      <trkpt lat="45.10512" lon="5.00711">
        <ele>228.43142700195</ele>
        <time>2011-05-25T11:48:07Z</time>
      </trkpt>
      <trkpt lat="45.105" lon="5.00721">
        <ele>226.0950012207</ele>
        <time>2011-05-25T11:48:08Z</time>
      </trkpt>
      <trkpt lat="45.10476" lon="5.0074">
        <ele>224.19827270508</ele>
        <time>2011-05-25T11:48:10Z</time>
      </trkpt>
      <trkpt lat="45.10465" lon="5.0075">
        <ele>224</ele>
        <time>2011-05-25T11:48:11Z</time>
      </trkpt>
      <trkpt lat="45.10399" lon="5.00803">
        <ele>226.80181884766</ele>
        <time>2011-05-25T11:48:17Z</time>
      </trkpt>
      <trkpt lat="45.10352" lon="5.0084">
        <ele>229.00848388672</ele>
        <time>2011-05-25T11:48:22Z</time>
      </trkpt>
      <trkpt lat="45.10294" lon="5.00888">
        <ele>231.9334564209</ele>
        <time>2011-05-25T11:48:29Z</time>
      </trkpt>
      <trkpt lat="45.1027" lon="5.00908">
        <ele>233.16937255859</ele>
        <time>2011-05-25T11:48:32Z</time>
      </trkpt>
      <trkpt lat="45.10262" lon="5.00914">
        <ele>233.31643676758</ele>
        <time>2011-05-25T11:48:33Z</time>
      </trkpt>
      <trkpt lat="45.10231" lon="5.00942">
        <ele>233.54330444336</ele>
        <time>2011-05-25T11:48:37Z</time>
      </trkpt>
      <trkpt lat="45.10197" lon="5.00983">
        <ele>233.87310791016</ele>
        <time>2011-05-25T11:48:42Z</time>
      </trkpt>
      <trkpt lat="45.10154" lon="5.01046">
        <ele>233.48602294922</ele>
        <time>2011-05-25T11:48:49Z</time>
      </trkpt>
      <trkpt lat="45.10103" lon="5.01136">
        <ele>227.93943786621</ele>
        <time>2011-05-25T11:48:59Z</time>
      </trkpt>
      <trkpt lat="45.10084" lon="5.01199">
        <ele>229.17456054688</ele>
        <time>2011-05-25T11:49:05Z</time>
      </trkpt>
      <trkpt lat="45.10076" lon="5.01263">
        <ele>230.34785461426</ele>
        <time>2011-05-25T11:49:11Z</time>
      </trkpt>
      <trkpt lat="45.10072" lon="5.01307">
        <ele>230.61149597168</ele>
        <time>2011-05-25T11:49:15Z</time>
      </trkpt>
      <trkpt lat="45.10068" lon="5.01362">
        <ele>231.46345520019</ele>
        <time>2011-05-25T11:49:20Z</time>
      </trkpt>
      <trkpt lat="45.10057" lon="5.0151">
        <ele>234.01409912109</ele>
        <time>2011-05-25T11:49:33Z</time>
      </trkpt>
      <trkpt lat="45.10046" lon="5.01623">
        <ele>235.27742004394</ele>
        <time>2011-05-25T11:49:43Z</time>
      </trkpt>
      <trkpt lat="45.10032" lon="5.01689">
        <ele>236.10848999023</ele>
        <time>2011-05-25T11:49:49Z</time>
      </trkpt>
      <trkpt lat="45.10005" lon="5.01768">
        <ele>236.83193969727</ele>
        <time>2011-05-25T11:49:57Z</time>
      </trkpt>
      <trkpt lat="45.09978" lon="5.01846">
        <ele>236.6721496582</ele>
        <time>2011-05-25T11:50:06Z</time>
      </trkpt>
      <trkpt lat="45.09947" lon="5.01938">
        <ele>237.79444885254</ele>
        <time>2011-05-25T11:50:17Z</time>
      </trkpt>
      <trkpt lat="45.09922" lon="5.02011">
        <ele>238.41363525391</ele>
        <time>2011-05-25T11:50:26Z</time>
      </trkpt>
      <trkpt lat="45.09911" lon="5.02042">
        <ele>239</ele>
        <time>2011-05-25T11:50:30Z</time>
      </trkpt>
      <trkpt lat="45.09888" lon="5.0211">
        <ele>240.92749023438</ele>
        <time>2011-05-25T11:50:39Z</time>
      </trkpt>
      <trkpt lat="45.09867" lon="5.02168">
        <ele>245.07241821289</ele>
        <time>2011-05-25T11:50:47Z</time>
      </trkpt>
      <trkpt lat="45.09852" lon="5.02212">
        <ele>247.24339294434</ele>
        <time>2011-05-25T11:50:53Z</time>
      </trkpt>
      <trkpt lat="45.09843" lon="5.02247">
        <ele>249.80458068848</ele>
        <time>2011-05-25T11:50:58Z</time>
      </trkpt>
      <trkpt lat="45.09843" lon="5.02285">
        <ele>252.35125732422</ele>
        <time>2011-05-25T11:51:03Z</time>
      </trkpt>
      <trkpt lat="45.09862" lon="5.02364">
        <ele>257.40209960938</ele>
        <time>2011-05-25T11:51:14Z</time>
      </trkpt>
      <trkpt lat="45.0988" lon="5.02425">
        <ele>262</ele>
        <time>2011-05-25T11:51:22Z</time>
      </trkpt>
      <trkpt lat="45.0989" lon="5.02452">
        <ele>262</ele>
        <time>2011-05-25T11:51:25Z</time>
      </trkpt>
      <trkpt lat="45.09902" lon="5.02504">
        <ele>261.84860229492</ele>
        <time>2011-05-25T11:51:30Z</time>
      </trkpt>
      <trkpt lat="45.09909" lon="5.02515">
        <ele>261.47094726562</ele>
        <time>2011-05-25T11:51:31Z</time>
      </trkpt>
      <trkpt lat="45.09925" lon="5.02536">
        <ele>261</ele>
        <time>2011-05-25T11:51:33Z</time>
      </trkpt>
      <trkpt lat="45.09961" lon="5.02576">
        <ele>259.22897338867</ele>
        <time>2011-05-25T11:51:37Z</time>
      </trkpt>
      <trkpt lat="45.09972" lon="5.02606">
        <ele>257.18011474609</ele>
        <time>2011-05-25T11:51:39Z</time>
      </trkpt>
      <trkpt lat="45.1" lon="5.02673">
        <ele>249.32797241211</ele>
        <time>2011-05-25T11:51:44Z</time>
      </trkpt>
      <trkpt lat="45.10026" lon="5.02712">
        <ele>241.12471008301</ele>
        <time>2011-05-25T11:51:48Z</time>
      </trkpt>
      <trkpt lat="45.10041" lon="5.02733">
        <ele>238.81115722656</ele>
        <time>2011-05-25T11:51:50Z</time>
      </trkpt>
      <trkpt lat="45.10058" lon="5.02786">
        <ele>236.80763244629</ele>
        <time>2011-05-25T11:51:54Z</time>
      </trkpt>
      <trkpt lat="45.10047" lon="5.02817">
        <ele>236.35820007324</ele>
        <time>2011-05-25T11:51:57Z</time>
      </trkpt>
      <trkpt lat="45.10043" lon="5.02823">
        <ele>236.57792663574</ele>
        <time>2011-05-25T11:51:58Z</time>
      </trkpt>
      <trkpt lat="45.10037" lon="5.0283">
        <ele>236.92811584473</ele>
        <time>2011-05-25T11:52:02Z</time>
      </trkpt>
      <trkpt lat="45.10037" lon="5.0283">
        <ele>236.94184875488</ele>
        <time>2011-05-25T11:52:03Z</time>
      </trkpt>
      <trkpt lat="45.10036" lon="5.0284">
        <ele>236.41311645508</ele>
        <time>2011-05-25T11:52:16Z</time>
      </trkpt>
      <trkpt lat="45.10035" lon="5.02843">
        <ele>236.2882232666</ele>
        <time>2011-05-25T11:52:17Z</time>
      </trkpt>
      <trkpt lat="45.1004" lon="5.02855">
        <ele>235.06172180176</ele>
        <time>2011-05-25T11:52:20Z</time>
      </trkpt>
      <trkpt lat="45.10043" lon="5.02882">
        <ele>233.29348754883</ele>
        <time>2011-05-25T11:52:24Z</time>
      </trkpt>
      <trkpt lat="45.10038" lon="5.02901">
        <ele>232.54901123047</ele>
        <time>2011-05-25T11:52:26Z</time>
      </trkpt>
      <trkpt lat="45.10019" lon="5.0297">
        <ele>227.63629150391</ele>
        <time>2011-05-25T11:52:32Z</time>
      </trkpt>
      <trkpt lat="45.09995" lon="5.03057">
        <ele>220.9201965332</ele>
        <time>2011-05-25T11:52:39Z</time>
      </trkpt>
      <trkpt lat="45.0998" lon="5.03109">
        <ele>223.4186706543</ele>
        <time>2011-05-25T11:52:43Z</time>
      </trkpt>
      <trkpt lat="45.09962" lon="5.03173">
        <ele>225.5936126709</ele>
        <time>2011-05-25T11:52:48Z</time>
      </trkpt>
      <trkpt lat="45.09932" lon="5.03277">
        <ele>220.0110168457</ele>
        <time>2011-05-25T11:52:56Z</time>
      </trkpt>
      <trkpt lat="45.09904" lon="5.03376">
        <ele>219.56127929688</ele>
        <time>2011-05-25T11:53:03Z</time>
      </trkpt>
      <trkpt lat="45.09891" lon="5.03418">
        <ele>219.06689453125</ele>
        <time>2011-05-25T11:53:06Z</time>
      </trkpt>
      <trkpt lat="45.09858" lon="5.03478">
        <ele>216.87213134766</ele>
        <time>2011-05-25T11:53:11Z</time>
      </trkpt>
      <trkpt lat="45.0982" lon="5.03531">
        <ele>215.47171020508</ele>
        <time>2011-05-25T11:53:16Z</time>
      </trkpt>
      <trkpt lat="45.09801" lon="5.03563">
        <ele>213.93267822266</ele>
        <time>2011-05-25T11:53:19Z</time>
      </trkpt>
      <trkpt lat="45.09784" lon="5.0361">
        <ele>214.43051147461</ele>
        <time>2011-05-25T11:53:23Z</time>
      </trkpt>
      <trkpt lat="45.09784" lon="5.03655">
        <ele>216.04067993164</ele>
        <time>2011-05-25T11:53:27Z</time>
      </trkpt>
      <trkpt lat="45.09795" lon="5.03727">
        <ele>218.46142578125</ele>
        <time>2011-05-25T11:53:33Z</time>
      </trkpt>
      <trkpt lat="45.09812" lon="5.03804">
        <ele>216.50035095215</ele>
        <time>2011-05-25T11:53:39Z</time>
      </trkpt>
      <trkpt lat="45.09837" lon="5.03873">
        <ele>215.86004638672</ele>
        <time>2011-05-25T11:53:45Z</time>
      </trkpt>
      <trkpt lat="45.09867" lon="5.03947">
        <ele>215.11587524414</ele>
        <time>2011-05-25T11:53:52Z</time>
      </trkpt>
      <trkpt lat="45.09879" lon="5.03981">
        <ele>214.33996582031</ele>
        <time>2011-05-25T11:53:55Z</time>
      </trkpt>
      <trkpt lat="45.09883" lon="5.0403">
        <ele>214.06588745117</ele>
        <time>2011-05-25T11:53:59Z</time>
      </trkpt>
      <trkpt lat="45.09879" lon="5.04054">
        <ele>214.93276977539</ele>
        <time>2011-05-25T11:54:01Z</time>
      </trkpt>
      <trkpt lat="45.09863" lon="5.04121">
        <ele>217.37469482422</ele>
        <time>2011-05-25T11:54:07Z</time>
      </trkpt>
      <trkpt lat="45.09843" lon="5.04158">
        <ele>218.24632263184</ele>
        <time>2011-05-25T11:54:11Z</time>
      </trkpt>
      <trkpt lat="45.09793" lon="5.04211">
        <ele>219.39544677734</ele>
        <time>2011-05-25T11:54:19Z</time>
      </trkpt>
      <trkpt lat="45.09743" lon="5.04261">
        <ele>219.8399810791</ele>
        <time>2011-05-25T11:54:27Z</time>
      </trkpt>
      <trkpt lat="45.09694" lon="5.04309">
        <ele>220</ele>
        <time>2011-05-25T11:54:35Z</time>
      </trkpt>
      <trkpt lat="45.09668" lon="5.04341">
        <ele>220</ele>
        <time>2011-05-25T11:54:40Z</time>
      </trkpt>
      <trkpt lat="45.0964" lon="5.04406">
        <ele>220</ele>
        <time>2011-05-25T11:54:48Z</time>
      </trkpt>
      <trkpt lat="45.09624" lon="5.04458">
        <ele>220</ele>
        <time>2011-05-25T11:54:54Z</time>
      </trkpt>
      <trkpt lat="45.09616" lon="5.04482">
        <ele>220</ele>
        <time>2011-05-25T11:54:57Z</time>
      </trkpt>
      <trkpt lat="45.09612" lon="5.04504">
        <ele>220</ele>
        <time>2011-05-25T11:55:00Z</time>
      </trkpt>
      <trkpt lat="45.09602" lon="5.0453">
        <ele>220</ele>
        <time>2011-05-25T11:55:04Z</time>
      </trkpt>
      <trkpt lat="45.0958" lon="5.04573">
        <ele>220</ele>
        <time>2011-05-25T11:55:10Z</time>
      </trkpt>
      <trkpt lat="45.09572" lon="5.04586">
        <ele>220</ele>
        <time>2011-05-25T11:55:12Z</time>
      </trkpt>
      <trkpt lat="45.09544" lon="5.04609">
        <ele>220</ele>
        <time>2011-05-25T11:55:17Z</time>
      </trkpt>
      <trkpt lat="45.09497" lon="5.04634">
        <ele>220.21240234375</ele>
        <time>2011-05-25T11:55:24Z</time>
      </trkpt>
      <trkpt lat="45.09456" lon="5.04652">
        <ele>220.61598205566</ele>
        <time>2011-05-25T11:55:30Z</time>
      </trkpt>
      <trkpt lat="45.0943" lon="5.04664">
        <ele>221.2878112793</ele>
        <time>2011-05-25T11:55:34Z</time>
      </trkpt>
      <trkpt lat="45.09393" lon="5.04681">
        <ele>220.94631958008</ele>
        <time>2011-05-25T11:55:39Z</time>
      </trkpt>
      <trkpt lat="45.09341" lon="5.04717">
        <ele>218.71336364746</ele>
        <time>2011-05-25T11:55:46Z</time>
      </trkpt>
      <trkpt lat="45.0931" lon="5.04746">
        <ele>214.73468017578</ele>
        <time>2011-05-25T11:55:51Z</time>
      </trkpt>
      <trkpt lat="45.09301" lon="5.04779">
        <ele>211.33729553223</ele>
        <time>2011-05-25T11:55:55Z</time>
      </trkpt>
      <trkpt lat="45.093" lon="5.04846">
        <ele>206.41098022461</ele>
        <time>2011-05-25T11:56:04Z</time>
      </trkpt>
      <trkpt lat="45.09298" lon="5.04871">
        <ele>204.59066772461</ele>
        <time>2011-05-25T11:56:07Z</time>
      </trkpt>
      <trkpt lat="45.09287" lon="5.04905">
        <ele>201.36572265625</ele>
        <time>2011-05-25T11:56:12Z</time>
      </trkpt>
      <trkpt lat="45.09257" lon="5.0495">
        <ele>200.14314270019</ele>
        <time>2011-05-25T11:56:20Z</time>
      </trkpt>
      <trkpt lat="45.09249" lon="5.04961">
        <ele>200</ele>
        <time>2011-05-25T11:56:22Z</time>
      </trkpt>
      <trkpt lat="45.09237" lon="5.04988">
        <ele>200</ele>
        <time>2011-05-25T11:56:26Z</time>
      </trkpt>
      <trkpt lat="45.09235" lon="5.05004">
        <ele>200.14703369141</ele>
        <time>2011-05-25T11:56:28Z</time>
      </trkpt>
      <trkpt lat="45.0924" lon="5.05044">
        <ele>202.03312683106</ele>
        <time>2011-05-25T11:56:33Z</time>
      </trkpt>
      <trkpt lat="45.09242" lon="5.05052">
        <ele>202.68902587891</ele>
        <time>2011-05-25T11:56:34Z</time>
      </trkpt>
      <trkpt lat="45.09259" lon="5.05095">
        <ele>208.41827392578</ele>
        <time>2011-05-25T11:56:40Z</time>
      </trkpt>
      <trkpt lat="45.09285" lon="5.0515">
        <ele>217.63919067383</ele>
        <time>2011-05-25T11:56:48Z</time>
      </trkpt>
      <trkpt lat="45.09312" lon="5.05195">
        <ele>224.35990905762</ele>
        <time>2011-05-25T11:56:54Z</time>
      </trkpt>
      <trkpt lat="45.09348" lon="5.05257">
        <ele>225.30119323731</ele>
        <time>2011-05-25T11:57:02Z</time>
      </trkpt>
      <trkpt lat="45.09383" lon="5.05318">
        <ele>221.81597900391</ele>
        <time>2011-05-25T11:57:10Z</time>
      </trkpt>
      <trkpt lat="45.0941" lon="5.05385">
        <ele>219.10902404785</ele>
        <time>2011-05-25T11:57:18Z</time>
      </trkpt>
      <trkpt lat="45.09422" lon="5.05439">
        <ele>219.17541503906</ele>
        <time>2011-05-25T11:57:24Z</time>
      </trkpt>
      <trkpt lat="45.09426" lon="5.05492">
        <ele>219.34020996094</ele>
        <time>2011-05-25T11:57:30Z</time>
      </trkpt>
      <trkpt lat="45.09433" lon="5.056">
        <ele>219.58740234375</ele>
        <time>2011-05-25T11:57:42Z</time>
      </trkpt>
      <trkpt lat="45.09428" lon="5.05665">
        <ele>219.39514160156</ele>
        <time>2011-05-25T11:57:49Z</time>
      </trkpt>
      <trkpt lat="45.09417" lon="5.05739">
        <ele>219.01062011719</ele>
        <time>2011-05-25T11:57:56Z</time>
      </trkpt>
      <trkpt lat="45.09399" lon="5.05813">
        <ele>219</ele>
        <time>2011-05-25T11:58:03Z</time>
      </trkpt>
      <trkpt lat="45.09386" lon="5.05863">
        <ele>218.88452148438</ele>
        <time>2011-05-25T11:58:08Z</time>
      </trkpt>
      <trkpt lat="45.09376" lon="5.05922">
        <ele>218.7360534668</ele>
        <time>2011-05-25T11:58:14Z</time>
      </trkpt>
      <trkpt lat="45.09373" lon="5.0595">
        <ele>219.43133544922</ele>
        <time>2011-05-25T11:58:17Z</time>
      </trkpt>
      <trkpt lat="45.09366" lon="5.06029">
        <ele>219.17041015625</ele>
        <time>2011-05-25T11:58:25Z</time>
      </trkpt>
      <trkpt lat="45.09363" lon="5.06118">
        <ele>219.060546875</ele>
        <time>2011-05-25T11:58:34Z</time>
      </trkpt>
      <trkpt lat="45.09365" lon="5.06225">
        <ele>219.15667724609</ele>
        <time>2011-05-25T11:58:45Z</time>
      </trkpt>
      <trkpt lat="45.09367" lon="5.06306">
        <ele>219.22534179688</ele>
        <time>2011-05-25T11:58:54Z</time>
      </trkpt>
      <trkpt lat="45.0937" lon="5.06387">
        <ele>219.30773925781</ele>
        <time>2011-05-25T11:59:03Z</time>
      </trkpt>
      <trkpt lat="45.09375" lon="5.06503">
        <ele>219.5</ele>
        <time>2011-05-25T11:59:16Z</time>
      </trkpt>
      <trkpt lat="45.09378" lon="5.06576">
        <ele>219.60986328125</ele>
        <time>2011-05-25T11:59:24Z</time>
      </trkpt>
      <trkpt lat="45.09371" lon="5.06658">
        <ele>219.34893798828</ele>
        <time>2011-05-25T11:59:33Z</time>
      </trkpt>
      <trkpt lat="45.09364" lon="5.06738">
        <ele>219.08801269531</ele>
        <time>2011-05-25T11:59:42Z</time>
      </trkpt>
      <trkpt lat="45.09365" lon="5.06819">
        <ele>219.15667724609</ele>
        <time>2011-05-25T11:59:51Z</time>
      </trkpt>
      <trkpt lat="45.09371" lon="5.06919">
        <ele>219.36267089844</ele>
        <time>2011-05-25T12:00:02Z</time>
      </trkpt>
      <trkpt lat="45.09376" lon="5.07012">
        <ele>219.54119873047</ele>
        <time>2011-05-25T12:00:13Z</time>
      </trkpt>
      <trkpt lat="45.0938" lon="5.07085">
        <ele>219.67852783203</ele>
        <time>2011-05-25T12:00:22Z</time>
      </trkpt>
      <trkpt lat="45.09382" lon="5.07149">
        <ele>220</ele>
        <time>2011-05-25T12:00:30Z</time>
      </trkpt>
      <trkpt lat="45.09372" lon="5.07185">
        <ele>220</ele>
        <time>2011-05-25T12:00:35Z</time>
      </trkpt>
      <trkpt lat="45.0936" lon="5.07199">
        <ele>219.95068359375</ele>
        <time>2011-05-25T12:00:38Z</time>
      </trkpt>
      <trkpt lat="45.09343" lon="5.07208">
        <ele>219.36016845703</ele>
        <time>2011-05-25T12:00:41Z</time>
      </trkpt>
      <trkpt lat="45.09325" lon="5.07232">
        <ele>218.70098876953</ele>
        <time>2011-05-25T12:00:45Z</time>
      </trkpt>
      <trkpt lat="45.09294" lon="5.07298">
        <ele>217.57489013672</ele>
        <time>2011-05-25T12:00:53Z</time>
      </trkpt>
      <trkpt lat="45.09261" lon="5.07366">
        <ele>218</ele>
        <time>2011-05-25T12:01:01Z</time>
      </trkpt>
      <trkpt lat="45.0923" lon="5.07431">
        <ele>218</ele>
        <time>2011-05-25T12:01:09Z</time>
      </trkpt>
      <trkpt lat="45.09195" lon="5.07506">
        <ele>218.20530700684</ele>
        <time>2011-05-25T12:01:19Z</time>
      </trkpt>
      <trkpt lat="45.09161" lon="5.07579">
        <ele>219</ele>
        <time>2011-05-25T12:01:29Z</time>
      </trkpt>
      <trkpt lat="45.09124" lon="5.07651">
        <ele>219.96865844727</ele>
        <time>2011-05-25T12:01:39Z</time>
      </trkpt>
      <trkpt lat="45.0909" lon="5.07691">
        <ele>224.22790527344</ele>
        <time>2011-05-25T12:01:46Z</time>
      </trkpt>
      <trkpt lat="45.09044" lon="5.07736">
        <ele>228.80253601074</ele>
        <time>2011-05-25T12:01:55Z</time>
      </trkpt>
      <trkpt lat="45.08995" lon="5.07776">
        <ele>233.10446166992</ele>
        <time>2011-05-25T12:02:04Z</time>
      </trkpt>
      <trkpt lat="45.08953" lon="5.07803">
        <ele>235.64619445801</ele>
        <time>2011-05-25T12:02:11Z</time>
      </trkpt>
      <trkpt lat="45.08921" lon="5.07822">
        <ele>237.4543762207</ele>
        <time>2011-05-25T12:02:16Z</time>
      </trkpt>
      <trkpt lat="45.08914" lon="5.07826">
        <ele>237.94540405273</ele>
        <time>2011-05-25T12:02:17Z</time>
      </trkpt>
      <trkpt lat="45.08878" lon="5.07853">
        <ele>240</ele>
        <time>2011-05-25T12:02:22Z</time>
      </trkpt>
      <trkpt lat="45.08852" lon="5.0789">
        <ele>241.62614440918</ele>
        <time>2011-05-25T12:02:26Z</time>
      </trkpt>
      <trkpt lat="45.08836" lon="5.0794">
        <ele>242.85212707519</ele>
        <time>2011-05-25T12:02:30Z</time>
      </trkpt>
      <trkpt lat="45.08831" lon="5.07967">
        <ele>242.72630310059</ele>
        <time>2011-05-25T12:02:32Z</time>
      </trkpt>
      <trkpt lat="45.08813" lon="5.08062">
        <ele>236.92715454102</ele>
        <time>2011-05-25T12:02:39Z</time>
      </trkpt>
      <trkpt lat="45.08805" lon="5.08103">
        <ele>234.27885437012</ele>
        <time>2011-05-25T12:02:42Z</time>
      </trkpt>
      <trkpt lat="45.0879" lon="5.08188">
        <ele>229.78800964356</ele>
        <time>2011-05-25T12:02:48Z</time>
      </trkpt>
      <trkpt lat="45.08778" lon="5.0826">
        <ele>226.65100097656</ele>
        <time>2011-05-25T12:02:53Z</time>
      </trkpt>
      <trkpt lat="45.08763" lon="5.0838">
        <ele>220.78268432617</ele>
        <time>2011-05-25T12:03:01Z</time>
      </trkpt>
      <trkpt lat="45.08752" lon="5.08468">
        <ele>216.22758483887</ele>
        <time>2011-05-25T12:03:07Z</time>
      </trkpt>
      <trkpt lat="45.08738" lon="5.08569">
        <ele>209.93466186523</ele>
        <time>2011-05-25T12:03:14Z</time>
      </trkpt>
      <trkpt lat="45.08735" lon="5.08583">
        <ele>208.93075561523</ele>
        <time>2011-05-25T12:03:15Z</time>
      </trkpt>
      <trkpt lat="45.08733" lon="5.08612">
        <ele>207.13418579102</ele>
        <time>2011-05-25T12:03:17Z</time>
      </trkpt>
      <trkpt lat="45.08719" lon="5.08697">
        <ele>201.70149230957</ele>
        <time>2011-05-25T12:03:23Z</time>
      </trkpt>
      <trkpt lat="45.08698" lon="5.08781">
        <ele>198.88624572754</ele>
        <time>2011-05-25T12:03:29Z</time>
      </trkpt>
      <trkpt lat="45.08669" lon="5.08883">
        <ele>194.36206054688</ele>
        <time>2011-05-25T12:03:36Z</time>
      </trkpt>
      <trkpt lat="45.08644" lon="5.08938">
        <ele>192.40676879883</ele>
        <time>2011-05-25T12:03:40Z</time>
      </trkpt>
      <trkpt lat="45.08636" lon="5.08951">
        <ele>192</ele>
        <time>2011-05-25T12:03:41Z</time>
      </trkpt>
      <trkpt lat="45.08592" lon="5.09047">
        <ele>190.61267089844</ele>
        <time>2011-05-25T12:03:48Z</time>
      </trkpt>
      <trkpt lat="45.08577" lon="5.09104">
        <ele>191.4860534668</ele>
        <time>2011-05-25T12:03:52Z</time>
      </trkpt>
      <trkpt lat="45.08554" lon="5.09197">
        <ele>193.02493286133</ele>
        <time>2011-05-25T12:03:59Z</time>
      </trkpt>
      <trkpt lat="45.08549" lon="5.09209">
        <ele>193.28927612305</ele>
        <time>2011-05-25T12:04:00Z</time>
      </trkpt>
      <trkpt lat="45.0851" lon="5.09271">
        <ele>193.44985961914</ele>
        <time>2011-05-25T12:04:06Z</time>
      </trkpt>
      <trkpt lat="45.08484" lon="5.09312">
        <ele>193.09622192383</ele>
        <time>2011-05-25T12:04:10Z</time>
      </trkpt>
      <trkpt lat="45.08466" lon="5.09377">
        <ele>193.35343933106</ele>
        <time>2011-05-25T12:04:15Z</time>
      </trkpt>
      <trkpt lat="45.08455" lon="5.09475">
        <ele>194.86248779297</ele>
        <time>2011-05-25T12:04:22Z</time>
      </trkpt>
      <trkpt lat="45.08451" lon="5.09539">
        <ele>195.45031738281</ele>
        <time>2011-05-25T12:04:27Z</time>
      </trkpt>
      <trkpt lat="45.08452" lon="5.09552">
        <ele>195.53271484375</ele>
        <time>2011-05-25T12:04:28Z</time>
      </trkpt>
      <trkpt lat="45.08467" lon="5.0961">
        <ele>197.63372802734</ele>
        <time>2011-05-25T12:04:33Z</time>
      </trkpt>
      <trkpt lat="45.08501" lon="5.0969">
        <ele>198.2145690918</ele>
        <time>2011-05-25T12:04:40Z</time>
      </trkpt>
      <trkpt lat="45.0853" lon="5.09764">
        <ele>198.14195251465</ele>
        <time>2011-05-25T12:04:47Z</time>
      </trkpt>
      <trkpt lat="45.08557" lon="5.0985">
        <ele>197.06039428711</ele>
        <time>2011-05-25T12:04:55Z</time>
      </trkpt>
      <trkpt lat="45.08586" lon="5.0996">
        <ele>195.58934020996</ele>
        <time>2011-05-25T12:05:05Z</time>
      </trkpt>
      <trkpt lat="45.08614" lon="5.10064">
        <ele>194.08322143555</ele>
        <time>2011-05-25T12:05:15Z</time>
      </trkpt>
      <trkpt lat="45.08633" lon="5.10149">
        <ele>192.80322265625</ele>
        <time>2011-05-25T12:05:23Z</time>
      </trkpt>
      <trkpt lat="45.08649" lon="5.10227">
        <ele>191.83204650879</ele>
        <time>2011-05-25T12:05:30Z</time>
      </trkpt>
      <trkpt lat="45.0867" lon="5.10308">
        <ele>193.10784912109</ele>
        <time>2011-05-25T12:05:37Z</time>
      </trkpt>
      <trkpt lat="45.08694" lon="5.10387">
        <ele>193.97302246094</ele>
        <time>2011-05-25T12:05:44Z</time>
      </trkpt>
      <trkpt lat="45.08718" lon="5.10475">
        <ele>195.70385742188</ele>
        <time>2011-05-25T12:05:52Z</time>
      </trkpt>
      <trkpt lat="45.0875" lon="5.106">
        <ele>195.99176025391</ele>
        <time>2011-05-25T12:06:03Z</time>
      </trkpt>
      <trkpt lat="45.08772" lon="5.10701">
        <ele>196.78826904297</ele>
        <time>2011-05-25T12:06:12Z</time>
      </trkpt>
      <trkpt lat="45.08778" lon="5.10773">
        <ele>197.00134277344</ele>
        <time>2011-05-25T12:06:18Z</time>
      </trkpt>
      <trkpt lat="45.08781" lon="5.10868">
        <ele>196.11785888672</ele>
        <time>2011-05-25T12:06:26Z</time>
      </trkpt>
      <trkpt lat="45.08788" lon="5.10976">
        <ele>196</ele>
        <time>2011-05-25T12:06:35Z</time>
      </trkpt>
      <trkpt lat="45.08804" lon="5.11069">
        <ele>195.95556640625</ele>
        <time>2011-05-25T12:06:43Z</time>
      </trkpt>
      <trkpt lat="45.08826" lon="5.11197">
        <ele>195.75207519531</ele>
        <time>2011-05-25T12:06:54Z</time>
      </trkpt>
      <trkpt lat="45.08837" lon="5.11311">
        <ele>195</ele>
        <time>2011-05-25T12:07:04Z</time>
      </trkpt>
      <trkpt lat="45.08846" lon="5.11423">
        <ele>195</ele>
        <time>2011-05-25T12:07:14Z</time>
      </trkpt>
      <trkpt lat="45.08857" lon="5.11558">
        <ele>195</ele>
        <time>2011-05-25T12:07:26Z</time>
      </trkpt>
      <trkpt lat="45.08868" lon="5.11695">
        <ele>196</ele>
        <time>2011-05-25T12:07:38Z</time>
      </trkpt>
      <trkpt lat="45.08876" lon="5.11814">
        <ele>196</ele>
        <time>2011-05-25T12:07:48Z</time>
      </trkpt>
      <trkpt lat="45.08883" lon="5.11907">
        <ele>197</ele>
        <time>2011-05-25T12:07:56Z</time>
      </trkpt>
      <trkpt lat="45.08892" lon="5.12036">
        <ele>197.35400390625</ele>
        <time>2011-05-25T12:08:07Z</time>
      </trkpt>
      <trkpt lat="45.08898" lon="5.12141">
        <ele>198</ele>
        <time>2011-05-25T12:08:16Z</time>
      </trkpt>
      <trkpt lat="45.08904" lon="5.12259">
        <ele>199</ele>
        <time>2011-05-25T12:08:26Z</time>
      </trkpt>
      <trkpt lat="45.0891" lon="5.12378">
        <ele>199.91017150879</ele>
        <time>2011-05-25T12:08:37Z</time>
      </trkpt>
      <trkpt lat="45.08912" lon="5.12469">
        <ele>200</ele>
        <time>2011-05-25T12:08:46Z</time>
      </trkpt>
      <trkpt lat="45.08904" lon="5.12528">
        <ele>201.57232666016</ele>
        <time>2011-05-25T12:08:52Z</time>
      </trkpt>
      <trkpt lat="45.08883" lon="5.12596">
        <ele>204.70593261719</ele>
        <time>2011-05-25T12:08:59Z</time>
      </trkpt>
      <trkpt lat="45.08858" lon="5.12677">
        <ele>208.54168701172</ele>
        <time>2011-05-25T12:09:07Z</time>
      </trkpt>
      <trkpt lat="45.08833" lon="5.12758">
        <ele>209.91540527344</ele>
        <time>2011-05-25T12:09:15Z</time>
      </trkpt>
      <trkpt lat="45.08815" lon="5.1283">
        <ele>208.06146240234</ele>
        <time>2011-05-25T12:09:22Z</time>
      </trkpt>
      <trkpt lat="45.08807" lon="5.12878">
        <ele>207.1962890625</ele>
        <time>2011-05-25T12:09:27Z</time>
      </trkpt>
      <trkpt lat="45.08803" lon="5.12906">
        <ele>206.86256408691</ele>
        <time>2011-05-25T12:09:30Z</time>
      </trkpt>
      <trkpt lat="45.08796" lon="5.12965">
        <ele>206.33435058594</ele>
        <time>2011-05-25T12:09:37Z</time>
      </trkpt>
      <trkpt lat="45.08796" lon="5.12993">
        <ele>206.33435058594</ele>
        <time>2011-05-25T12:09:41Z</time>
      </trkpt>
      <trkpt lat="45.08797" lon="5.13008">
        <ele>206.36181640625</ele>
        <time>2011-05-25T12:09:43Z</time>
      </trkpt>
      <trkpt lat="45.08798" lon="5.13022">
        <ele>206.4716796875</ele>
        <time>2011-05-25T12:09:45Z</time>
      </trkpt>
      <trkpt lat="45.08794" lon="5.13058">
        <ele>206.22692871094</ele>
        <time>2011-05-25T12:09:50Z</time>
      </trkpt>
      <trkpt lat="45.08782" lon="5.13116">
        <ele>204.25102233887</ele>
        <time>2011-05-25T12:09:57Z</time>
      </trkpt>
      <trkpt lat="45.0878" lon="5.13123">
        <ele>203.75300598144</ele>
        <time>2011-05-25T12:09:58Z</time>
      </trkpt>
      <trkpt lat="45.08776" lon="5.13151">
        <ele>202.77679443359</ele>
        <time>2011-05-25T12:10:01Z</time>
      </trkpt>
      <trkpt lat="45.08754" lon="5.13194">
        <ele>200.26118469238</ele>
        <time>2011-05-25T12:10:06Z</time>
      </trkpt>
      <trkpt lat="45.08736" lon="5.13228">
        <ele>199.49737548828</ele>
        <time>2011-05-25T12:10:10Z</time>
      </trkpt>
      <trkpt lat="45.08704" lon="5.13299">
        <ele>199</ele>
        <time>2011-05-25T12:10:18Z</time>
      </trkpt>
      <trkpt lat="45.08665" lon="5.13389">
        <ele>199</ele>
        <time>2011-05-25T12:10:28Z</time>
      </trkpt>
      <trkpt lat="45.0864" lon="5.13451">
        <ele>199</ele>
        <time>2011-05-25T12:10:35Z</time>
      </trkpt>
      <trkpt lat="45.08627" lon="5.13474">
        <ele>199</ele>
        <time>2011-05-25T12:10:38Z</time>
      </trkpt>
      <trkpt lat="45.08619" lon="5.13498">
        <ele>199</ele>
        <time>2011-05-25T12:10:41Z</time>
      </trkpt>
      <trkpt lat="45.08588" lon="5.13569">
        <ele>199</ele>
        <time>2011-05-25T12:10:49Z</time>
      </trkpt>
      <trkpt lat="45.08557" lon="5.13619">
        <ele>199</ele>
        <time>2011-05-25T12:10:55Z</time>
      </trkpt>
      <trkpt lat="45.08476" lon="5.13726">
        <ele>199</ele>
        <time>2011-05-25T12:11:09Z</time>
      </trkpt>
      <trkpt lat="45.08406" lon="5.13817">
        <ele>198</ele>
        <time>2011-05-25T12:11:21Z</time>
      </trkpt>
      <trkpt lat="45.08359" lon="5.13887">
        <ele>197.92926025391</ele>
        <time>2011-05-25T12:11:30Z</time>
      </trkpt>
      <trkpt lat="45.08337" lon="5.13947">
        <ele>197.22178649902</ele>
        <time>2011-05-25T12:11:36Z</time>
      </trkpt>
      <trkpt lat="45.08309" lon="5.1404">
        <ele>198</ele>
        <time>2011-05-25T12:11:45Z</time>
      </trkpt>
      <trkpt lat="45.08292" lon="5.14098">
        <ele>198.52600097656</ele>
        <time>2011-05-25T12:11:51Z</time>
      </trkpt>
      <trkpt lat="45.08268" lon="5.1418">
        <ele>199</ele>
        <time>2011-05-25T12:12:00Z</time>
      </trkpt>
      <trkpt lat="45.08253" lon="5.14232">
        <ele>199.07162475586</ele>
        <time>2011-05-25T12:12:06Z</time>
      </trkpt>
      <trkpt lat="45.08227" lon="5.14316">
        <ele>200.71884155273</ele>
        <time>2011-05-25T12:12:16Z</time>
      </trkpt>
      <trkpt lat="45.08207" lon="5.14372">
        <ele>201.44084167481</ele>
        <time>2011-05-25T12:12:23Z</time>
      </trkpt>
      <trkpt lat="45.08189" lon="5.14423">
        <ele>201.00151062012</ele>
        <time>2011-05-25T12:12:29Z</time>
      </trkpt>
      <trkpt lat="45.0817" lon="5.1449">
        <ele>200.90237426758</ele>
        <time>2011-05-25T12:12:37Z</time>
      </trkpt>
      <trkpt lat="45.08155" lon="5.14542">
        <ele>201.09442138672</ele>
        <time>2011-05-25T12:12:43Z</time>
      </trkpt>
      <trkpt lat="45.08129" lon="5.14626">
        <ele>200.29663085938</ele>
        <time>2011-05-25T12:12:51Z</time>
      </trkpt>
      <trkpt lat="45.08101" lon="5.14701">
        <ele>198.63208007812</ele>
        <time>2011-05-25T12:12:58Z</time>
      </trkpt>
      <trkpt lat="45.08069" lon="5.14786">
        <ele>198.49224853516</ele>
        <time>2011-05-25T12:13:06Z</time>
      </trkpt>
      <trkpt lat="45.08047" lon="5.1486">
        <ele>198.32781982422</ele>
        <time>2011-05-25T12:13:13Z</time>
      </trkpt>
      <trkpt lat="45.08022" lon="5.14961">
        <ele>197.47038269043</ele>
        <time>2011-05-25T12:13:23Z</time>
      </trkpt>
      <trkpt lat="45.07995" lon="5.15067">
        <ele>196.81433105469</ele>
        <time>2011-05-25T12:13:34Z</time>
      </trkpt>
      <trkpt lat="45.07982" lon="5.15136">
        <ele>198.29916381836</ele>
        <time>2011-05-25T12:13:41Z</time>
      </trkpt>
      <trkpt lat="45.07973" lon="5.15228">
        <ele>197.24589538574</ele>
        <time>2011-05-25T12:13:49Z</time>
      </trkpt>
      <trkpt lat="45.07961" lon="5.15294">
        <ele>197.79493713379</ele>
        <time>2011-05-25T12:13:55Z</time>
      </trkpt>
      <trkpt lat="45.07934" lon="5.15399">
        <ele>197.61706542969</ele>
        <time>2011-05-25T12:14:05Z</time>
      </trkpt>
      <trkpt lat="45.07911" lon="5.15491">
        <ele>197.58618164062</ele>
        <time>2011-05-25T12:14:14Z</time>
      </trkpt>
      <trkpt lat="45.07891" lon="5.15584">
        <ele>197.13049316406</ele>
        <time>2011-05-25T12:14:22Z</time>
      </trkpt>
      <trkpt lat="45.07869" lon="5.15707">
        <ele>196.53747558594</ele>
        <time>2011-05-25T12:14:32Z</time>
      </trkpt>
      <trkpt lat="45.07844" lon="5.15817">
        <ele>197.01831054688</ele>
        <time>2011-05-25T12:14:41Z</time>
      </trkpt>
      <trkpt lat="45.07813" lon="5.15935">
        <ele>196.6640625</ele>
        <time>2011-05-25T12:14:51Z</time>
      </trkpt>
      <trkpt lat="45.07788" lon="5.16029">
        <ele>195.14581298828</ele>
        <time>2011-05-25T12:14:59Z</time>
      </trkpt>
      <trkpt lat="45.07778" lon="5.16066">
        <ele>195.03329467773</ele>
        <time>2011-05-25T12:15:02Z</time>
      </trkpt>
      <trkpt lat="45.0775" lon="5.16122">
        <ele>193.35134887695</ele>
        <time>2011-05-25T12:15:07Z</time>
      </trkpt>
      <trkpt lat="45.07737" lon="5.16144">
        <ele>192.55145263672</ele>
        <time>2011-05-25T12:15:09Z</time>
      </trkpt>
      <trkpt lat="45.07711" lon="5.16186">
        <ele>191.0295715332</ele>
        <time>2011-05-25T12:15:13Z</time>
      </trkpt>
      <trkpt lat="45.07706" lon="5.16195">
        <ele>190.8095703125</ele>
        <time>2011-05-25T12:15:14Z</time>
      </trkpt>
      <trkpt lat="45.07675" lon="5.16245">
        <ele>190</ele>
        <time>2011-05-25T12:15:20Z</time>
      </trkpt>
      <trkpt lat="45.07666" lon="5.16256">
        <ele>190</ele>
        <time>2011-05-25T12:15:23Z</time>
      </trkpt>
      <trkpt lat="45.07663" lon="5.1626">
        <ele>190</ele>
        <time>2011-05-25T12:15:25Z</time>
      </trkpt>
      <trkpt lat="45.07664" lon="5.16286">
        <ele>189.97709655762</ele>
        <time>2011-05-25T12:15:30Z</time>
      </trkpt>
      <trkpt lat="45.07672" lon="5.16321">
        <ele>189.55978393555</ele>
        <time>2011-05-25T12:15:35Z</time>
      </trkpt>
      <trkpt lat="45.07683" lon="5.16373">
        <ele>189.33772277832</ele>
        <time>2011-05-25T12:15:42Z</time>
      </trkpt>
      <trkpt lat="45.07705" lon="5.16466">
        <ele>189.36358642578</ele>
        <time>2011-05-25T12:15:53Z</time>
      </trkpt>
      <trkpt lat="45.07727" lon="5.16569">
        <ele>190</ele>
        <time>2011-05-25T12:16:04Z</time>
      </trkpt>
      <trkpt lat="45.07735" lon="5.16608">
        <ele>189.54183959961</ele>
        <time>2011-05-25T12:16:08Z</time>
      </trkpt>
      <trkpt lat="45.07756" lon="5.16703">
        <ele>189.23126220703</ele>
        <time>2011-05-25T12:16:17Z</time>
      </trkpt>
      <trkpt lat="45.07777" lon="5.16795">
        <ele>189.95910644531</ele>
        <time>2011-05-25T12:16:25Z</time>
      </trkpt>
      <trkpt lat="45.07803" lon="5.169">
        <ele>187.95048522949</ele>
        <time>2011-05-25T12:16:34Z</time>
      </trkpt>
      <trkpt lat="45.07836" lon="5.17004">
        <ele>186.30432128906</ele>
        <time>2011-05-25T12:16:43Z</time>
      </trkpt>
      <trkpt lat="45.07874" lon="5.17089">
        <ele>187.05227661133</ele>
        <time>2011-05-25T12:16:51Z</time>
      </trkpt>
      <trkpt lat="45.07914" lon="5.17168">
        <ele>186.75112915039</ele>
        <time>2011-05-25T12:16:59Z</time>
      </trkpt>
      <trkpt lat="45.0795" lon="5.17229">
        <ele>186.12896728516</ele>
        <time>2011-05-25T12:17:05Z</time>
      </trkpt>
      <trkpt lat="45.07999" lon="5.17304">
        <ele>187.97419738769</ele>
        <time>2011-05-25T12:17:12Z</time>
      </trkpt>
      <trkpt lat="45.08047" lon="5.1737">
        <ele>189.35021972656</ele>
        <time>2011-05-25T12:17:18Z</time>
      </trkpt>
      <trkpt lat="45.08099" lon="5.17457">
        <ele>189.66694641113</ele>
        <time>2011-05-25T12:17:25Z</time>
      </trkpt>
      <trkpt lat="45.0816" lon="5.17553">
        <ele>179.26591491699</ele>
        <time>2011-05-25T12:17:33Z</time>
      </trkpt>
      <trkpt lat="45.08239" lon="5.17668">
        <ele>174.18212890625</ele>
        <time>2011-05-25T12:17:43Z</time>
      </trkpt>
      <trkpt lat="45.08313" lon="5.17763">
        <ele>181.09690856934</ele>
        <time>2011-05-25T12:17:52Z</time>
      </trkpt>
      <trkpt lat="45.08377" lon="5.17846">
        <ele>194.34982299805</ele>
        <time>2011-05-25T12:18:00Z</time>
      </trkpt>
      <trkpt lat="45.08412" lon="5.17907">
        <ele>185.86473083496</ele>
        <time>2011-05-25T12:18:05Z</time>
      </trkpt>
      <trkpt lat="45.08479" lon="5.18037">
        <ele>180.00184631348</ele>
        <time>2011-05-25T12:18:15Z</time>
      </trkpt>
      <trkpt lat="45.08503" lon="5.18105">
        <ele>174.5710144043</ele>
        <time>2011-05-25T12:18:20Z</time>
      </trkpt>
      <trkpt lat="45.08524" lon="5.18172">
        <ele>173.12747192383</ele>
        <time>2011-05-25T12:18:25Z</time>
      </trkpt>
      <trkpt lat="45.08541" lon="5.18228">
        <ele>170.34967041016</ele>
        <time>2011-05-25T12:18:30Z</time>
      </trkpt>
      <trkpt lat="45.08556" lon="5.18274">
        <ele>168.52407836914</ele>
        <time>2011-05-25T12:18:35Z</time>
      </trkpt>
      <trkpt lat="45.08561" lon="5.1829">
        <ele>167.92893981934</ele>
        <time>2011-05-25T12:18:38Z</time>
      </trkpt>
      <trkpt lat="45.08561" lon="5.18294">
        <ele>167.50236511231</ele>
        <time>2011-05-25T12:18:40Z</time>
      </trkpt>
      <trkpt lat="45.08562" lon="5.18295">
        <ele>167.5383605957</ele>
        <time>2011-05-25T12:18:42Z</time>
      </trkpt>
      <trkpt lat="45.08563" lon="5.183">
        <ele>167.13011169434</ele>
        <time>2011-05-25T12:19:23Z</time>
      </trkpt>
      <trkpt lat="45.08563" lon="5.18303">
        <ele>166.53646850586</ele>
        <time>2011-05-25T12:19:24Z</time>
      </trkpt>
      <trkpt lat="45.08561" lon="5.18312">
        <ele>164.79887390137</ele>
        <time>2011-05-25T12:19:26Z</time>
      </trkpt>
      <trkpt lat="45.08549" lon="5.18322">
        <ele>160.94108581543</ele>
        <time>2011-05-25T12:19:29Z</time>
      </trkpt>
      <trkpt lat="45.08513" lon="5.1833">
        <ele>156.24536132812</ele>
        <time>2011-05-25T12:19:36Z</time>
      </trkpt>
      <trkpt lat="45.08466" lon="5.18342">
        <ele>153</ele>
        <time>2011-05-25T12:19:44Z</time>
      </trkpt>
      <trkpt lat="45.08427" lon="5.18352">
        <ele>153</ele>
        <time>2011-05-25T12:19:50Z</time>
      </trkpt>
      <trkpt lat="45.08414" lon="5.18355">
        <ele>153</ele>
        <time>2011-05-25T12:19:52Z</time>
      </trkpt>
      <trkpt lat="45.0839" lon="5.18342">
        <ele>153</ele>
        <time>2011-05-25T12:19:56Z</time>
      </trkpt>
      <trkpt lat="45.08385" lon="5.18335">
        <ele>153.12316894531</ele>
        <time>2011-05-25T12:19:57Z</time>
      </trkpt>
      <trkpt lat="45.08363" lon="5.18295">
        <ele>153.58198547363</ele>
        <time>2011-05-25T12:20:03Z</time>
      </trkpt>
      <trkpt lat="45.08349" lon="5.18268">
        <ele>153.7081451416</ele>
        <time>2011-05-25T12:20:07Z</time>
      </trkpt>
      <trkpt lat="45.08323" lon="5.18209">
        <ele>154.05732727051</ele>
        <time>2011-05-25T12:20:15Z</time>
      </trkpt>
      <trkpt lat="45.08293" lon="5.18149">
        <ele>155.08798217773</ele>
        <time>2011-05-25T12:20:23Z</time>
      </trkpt>
      <trkpt lat="45.08254" lon="5.18088">
        <ele>155.99270629883</ele>
        <time>2011-05-25T12:20:31Z</time>
      </trkpt>
      <trkpt lat="45.08218" lon="5.18036">
        <ele>155.63873291016</ele>
        <time>2011-05-25T12:20:38Z</time>
      </trkpt>
      <trkpt lat="45.08188" lon="5.18009">
        <ele>156.54690551758</ele>
        <time>2011-05-25T12:20:43Z</time>
      </trkpt>
      <trkpt lat="45.0815" lon="5.17991">
        <ele>156.53684997559</ele>
        <time>2011-05-25T12:20:49Z</time>
      </trkpt>
      <trkpt lat="45.08112" lon="5.17976">
        <ele>157.11589050293</ele>
        <time>2011-05-25T12:20:56Z</time>
      </trkpt>
      <trkpt lat="45.08076" lon="5.17962">
        <ele>157.37457275391</ele>
        <time>2011-05-25T12:21:04Z</time>
      </trkpt>
      <trkpt lat="45.08053" lon="5.17952">
        <ele>157.37417602539</ele>
        <time>2011-05-25T12:21:10Z</time>
      </trkpt>
      <trkpt lat="45.08017" lon="5.17934">
        <ele>158.02304077148</ele>
        <time>2011-05-25T12:21:19Z</time>
      </trkpt>
      <trkpt lat="45.07992" lon="5.17922">
        <ele>158.4951171875</ele>
        <time>2011-05-25T12:21:25Z</time>
      </trkpt>
      <trkpt lat="45.07987" lon="5.1792">
        <ele>158.59811401367</ele>
        <time>2011-05-25T12:21:26Z</time>
      </trkpt>
      <trkpt lat="45.07949" lon="5.17904">
        <ele>158.94189453125</ele>
        <time>2011-05-25T12:21:34Z</time>
      </trkpt>
      <trkpt lat="45.07906" lon="5.17887">
        <ele>159.34906005859</ele>
        <time>2011-05-25T12:21:41Z</time>
      </trkpt>
      <trkpt lat="45.07858" lon="5.1787">
        <ele>160.89881896973</ele>
        <time>2011-05-25T12:21:48Z</time>
      </trkpt>
      <trkpt lat="45.07816" lon="5.17857">
        <ele>162.35981750488</ele>
        <time>2011-05-25T12:21:54Z</time>
      </trkpt>
      <trkpt lat="45.07809" lon="5.17856">
        <ele>162.48341369629</ele>
        <time>2011-05-25T12:21:55Z</time>
      </trkpt>
      <trkpt lat="45.07778" lon="5.17858">
        <ele>163.75370788574</ele>
        <time>2011-05-25T12:22:00Z</time>
      </trkpt>
      <trkpt lat="45.07768" lon="5.17864">
        <ele>164.46722412109</ele>
        <time>2011-05-25T12:22:03Z</time>
      </trkpt>
      <trkpt lat="45.07769" lon="5.17871">
        <ele>164.67149353027</ele>
        <time>2011-05-25T12:22:06Z</time>
      </trkpt>
      <trkpt lat="45.07771" lon="5.17869">
        <ele>164.53416442871</ele>
        <time>2011-05-25T12:22:07Z</time>
      </trkpt>
      <trkpt lat="45.07776" lon="5.17864">
        <ele>164.18397521973</ele>
        <time>2011-05-25T12:22:09Z</time>
      </trkpt>
      <trkpt lat="45.07788" lon="5.17874">
        <ele>164.26521301269</ele>
        <time>2011-05-25T12:22:12Z</time>
      </trkpt>
      <trkpt lat="45.0779" lon="5.17879">
        <ele>164.48301696777</ele>
        <time>2011-05-25T12:22:13Z</time>
      </trkpt>
      <trkpt lat="45.07798" lon="5.17913">
        <ele>167.00379943848</ele>
        <time>2011-05-25T12:22:20Z</time>
      </trkpt>
      <trkpt lat="45.07805" lon="5.17949">
        <ele>169.33551025391</ele>
        <time>2011-05-25T12:22:27Z</time>
      </trkpt>
      <trkpt lat="45.07812" lon="5.17991">
        <ele>172.09301757812</ele>
        <time>2011-05-25T12:22:35Z</time>
      </trkpt>
      <trkpt lat="45.07814" lon="5.18017">
        <ele>173.91949462891</ele>
        <time>2011-05-25T12:22:40Z</time>
      </trkpt>
      <trkpt lat="45.07809" lon="5.18061">
        <ele>177.2497253418</ele>
        <time>2011-05-25T12:22:47Z</time>
      </trkpt>
      <trkpt lat="45.07806" lon="5.18086">
        <ele>179.10739135742</ele>
        <time>2011-05-25T12:22:51Z</time>
      </trkpt>
      <trkpt lat="45.07804" lon="5.18114">
        <ele>180.0866394043</ele>
        <time>2011-05-25T12:22:55Z</time>
      </trkpt>
      <trkpt lat="45.078" lon="5.18153">
        <ele>181.50456237793</ele>
        <time>2011-05-25T12:23:01Z</time>
      </trkpt>
      <trkpt lat="45.07794" lon="5.18202">
        <ele>182.26924133301</ele>
        <time>2011-05-25T12:23:09Z</time>
      </trkpt>
      <trkpt lat="45.07788" lon="5.18243">
        <ele>183.7626953125</ele>
        <time>2011-05-25T12:23:16Z</time>
      </trkpt>
      <trkpt lat="45.07782" lon="5.1829">
        <ele>185.36448669434</ele>
        <time>2011-05-25T12:23:23Z</time>
      </trkpt>
      <trkpt lat="45.07772" lon="5.1835">
        <ele>186.82046508789</ele>
        <time>2011-05-25T12:23:32Z</time>
      </trkpt>
      <trkpt lat="45.07764" lon="5.184">
        <ele>188.41722106934</ele>
        <time>2011-05-25T12:23:39Z</time>
      </trkpt>
      <trkpt lat="45.07753" lon="5.18452">
        <ele>190</ele>
        <time>2011-05-25T12:23:46Z</time>
      </trkpt>
      <trkpt lat="45.07743" lon="5.18508">
        <ele>190</ele>
        <time>2011-05-25T12:23:53Z</time>
      </trkpt>
      <trkpt lat="45.07738" lon="5.18567">
        <ele>190</ele>
        <time>2011-05-25T12:24:00Z</time>
      </trkpt>
      <trkpt lat="45.07736" lon="5.18596">
        <ele>190</ele>
        <time>2011-05-25T12:24:04Z</time>
      </trkpt>
      <trkpt lat="45.07727" lon="5.18627">
        <ele>190</ele>
        <time>2011-05-25T12:24:09Z</time>
      </trkpt>
      <trkpt lat="45.0773" lon="5.18646">
        <ele>190</ele>
        <time>2011-05-25T12:24:12Z</time>
      </trkpt>
      <trkpt lat="45.07747" lon="5.18705">
        <ele>190</ele>
        <time>2011-05-25T12:24:20Z</time>
      </trkpt>
      <trkpt lat="45.07749" lon="5.1872">
        <ele>190</ele>
        <time>2011-05-25T12:24:22Z</time>
      </trkpt>
      <trkpt lat="45.07755" lon="5.18784">
        <ele>190</ele>
        <time>2011-05-25T12:24:30Z</time>
      </trkpt>
      <trkpt lat="45.07751" lon="5.18848">
        <ele>190</ele>
        <time>2011-05-25T12:24:38Z</time>
      </trkpt>
      <trkpt lat="45.0774" lon="5.18921">
        <ele>190</ele>
        <time>2011-05-25T12:24:47Z</time>
      </trkpt>
      <trkpt lat="45.07722" lon="5.19006">
        <ele>190</ele>
        <time>2011-05-25T12:24:57Z</time>
      </trkpt>
      <trkpt lat="45.07705" lon="5.19112">
        <ele>190</ele>
        <time>2011-05-25T12:25:09Z</time>
      </trkpt>
      <trkpt lat="45.077" lon="5.19213">
        <ele>190</ele>
        <time>2011-05-25T12:25:20Z</time>
      </trkpt>
      <trkpt lat="45.07698" lon="5.19297">
        <ele>190</ele>
        <time>2011-05-25T12:25:29Z</time>
      </trkpt>
      <trkpt lat="45.07697" lon="5.19324">
        <ele>190</ele>
        <time>2011-05-25T12:25:32Z</time>
      </trkpt>
      <trkpt lat="45.07685" lon="5.19375">
        <ele>190</ele>
        <time>2011-05-25T12:25:38Z</time>
      </trkpt>
      <trkpt lat="45.07684" lon="5.19383">
        <ele>190</ele>
        <time>2011-05-25T12:25:39Z</time>
      </trkpt>
      <trkpt lat="45.07683" lon="5.19436">
        <ele>190</ele>
        <time>2011-05-25T12:25:45Z</time>
      </trkpt>
      <trkpt lat="45.07687" lon="5.19482">
        <ele>190</ele>
        <time>2011-05-25T12:25:50Z</time>
      </trkpt>
      <trkpt lat="45.07692" lon="5.19519">
        <ele>190</ele>
        <time>2011-05-25T12:25:54Z</time>
      </trkpt>
      <trkpt lat="45.07706" lon="5.19551">
        <ele>190</ele>
        <time>2011-05-25T12:25:58Z</time>
      </trkpt>
      <trkpt lat="45.07725" lon="5.1958">
        <ele>190</ele>
        <time>2011-05-25T12:26:02Z</time>
      </trkpt>
      <trkpt lat="45.07737" lon="5.19616">
        <ele>190</ele>
        <time>2011-05-25T12:26:06Z</time>
      </trkpt>
      <trkpt lat="45.07737" lon="5.19626">
        <ele>190</ele>
        <time>2011-05-25T12:26:07Z</time>
      </trkpt>
      <trkpt lat="45.07738" lon="5.19689">
        <ele>190</ele>
        <time>2011-05-25T12:26:14Z</time>
      </trkpt>
      <trkpt lat="45.0773" lon="5.19733">
        <ele>190</ele>
        <time>2011-05-25T12:26:19Z</time>
      </trkpt>
      <trkpt lat="45.07727" lon="5.19741">
        <ele>190</ele>
        <time>2011-05-25T12:26:20Z</time>
      </trkpt>
      <trkpt lat="45.07697" lon="5.19816">
        <ele>190</ele>
        <time>2011-05-25T12:26:29Z</time>
      </trkpt>
      <trkpt lat="45.07682" lon="5.19889">
        <ele>190</ele>
        <time>2011-05-25T12:26:37Z</time>
      </trkpt>
      <trkpt lat="45.07681" lon="5.19927">
        <ele>190</ele>
        <time>2011-05-25T12:26:41Z</time>
      </trkpt>
      <trkpt lat="45.07692" lon="5.1997">
        <ele>190</ele>
        <time>2011-05-25T12:26:46Z</time>
      </trkpt>
      <trkpt lat="45.07705" lon="5.20013">
        <ele>190</ele>
        <time>2011-05-25T12:26:51Z</time>
      </trkpt>
      <trkpt lat="45.07703" lon="5.20032">
        <ele>190</ele>
        <time>2011-05-25T12:26:53Z</time>
      </trkpt>
      <trkpt lat="45.07685" lon="5.20113">
        <ele>190</ele>
        <time>2011-05-25T12:27:02Z</time>
      </trkpt>
      <trkpt lat="45.07664" lon="5.20168">
        <ele>190</ele>
        <time>2011-05-25T12:27:09Z</time>
      </trkpt>
      <trkpt lat="45.07634" lon="5.20242">
        <ele>190</ele>
        <time>2011-05-25T12:27:18Z</time>
      </trkpt>
      <trkpt lat="45.07601" lon="5.20325">
        <ele>190</ele>
        <time>2011-05-25T12:27:27Z</time>
      </trkpt>
      <trkpt lat="45.07565" lon="5.2041">
        <ele>190</ele>
        <time>2011-05-25T12:27:36Z</time>
      </trkpt>
      <trkpt lat="45.07558" lon="5.20428">
        <ele>190</ele>
        <time>2011-05-25T12:27:38Z</time>
      </trkpt>
      <trkpt lat="45.07556" lon="5.20458">
        <ele>190</ele>
        <time>2011-05-25T12:27:41Z</time>
      </trkpt>
      <trkpt lat="45.07564" lon="5.20475">
        <ele>190.07537841797</ele>
        <time>2011-05-25T12:27:43Z</time>
      </trkpt>
      <trkpt lat="45.07619" lon="5.20541">
        <ele>191</ele>
        <time>2011-05-25T12:27:53Z</time>
      </trkpt>
      <trkpt lat="45.07671" lon="5.20603">
        <ele>190</ele>
        <time>2011-05-25T12:28:03Z</time>
      </trkpt>
      <trkpt lat="45.07709" lon="5.20662">
        <ele>190</ele>
        <time>2011-05-25T12:28:11Z</time>
      </trkpt>
      <trkpt lat="45.07742" lon="5.20699">
        <ele>190</ele>
        <time>2011-05-25T12:28:17Z</time>
      </trkpt>
      <trkpt lat="45.07779" lon="5.20723">
        <ele>190</ele>
        <time>2011-05-25T12:28:23Z</time>
      </trkpt>
      <trkpt lat="45.07816" lon="5.2075">
        <ele>190</ele>
        <time>2011-05-25T12:28:29Z</time>
      </trkpt>
      <trkpt lat="45.07854" lon="5.20793">
        <ele>190</ele>
        <time>2011-05-25T12:28:36Z</time>
      </trkpt>
      <trkpt lat="45.07899" lon="5.20845">
        <ele>190</ele>
        <time>2011-05-25T12:28:44Z</time>
      </trkpt>
      <trkpt lat="45.07947" lon="5.20896">
        <ele>190</ele>
        <time>2011-05-25T12:28:52Z</time>
      </trkpt>
      <trkpt lat="45.08003" lon="5.20937">
        <ele>190</ele>
        <time>2011-05-25T12:29:00Z</time>
      </trkpt>
      <trkpt lat="45.08069" lon="5.20976">
        <ele>189.43878173828</ele>
        <time>2011-05-25T12:29:09Z</time>
      </trkpt>
      <trkpt lat="45.08091" lon="5.20988">
        <ele>187.26541137695</ele>
        <time>2011-05-25T12:29:12Z</time>
      </trkpt>
      <trkpt lat="45.08106" lon="5.2101">
        <ele>183.99855041504</ele>
        <time>2011-05-25T12:29:15Z</time>
      </trkpt>
      <trkpt lat="45.08104" lon="5.21029">
        <ele>182.94032287598</ele>
        <time>2011-05-25T12:29:17Z</time>
      </trkpt>
      <trkpt lat="45.08101" lon="5.21037">
        <ele>183.12571716309</ele>
        <time>2011-05-25T12:29:18Z</time>
      </trkpt>
      <trkpt lat="45.0807" lon="5.21117">
        <ele>184.64320373535</ele>
        <time>2011-05-25T12:29:27Z</time>
      </trkpt>
      <trkpt lat="45.08054" lon="5.21161">
        <ele>185.42224121094</ele>
        <time>2011-05-25T12:29:32Z</time>
      </trkpt>
      <trkpt lat="45.08029" lon="5.21191">
        <ele>189.70373535156</ele>
        <time>2011-05-25T12:29:37Z</time>
      </trkpt>
      <trkpt lat="45.07997" lon="5.21222">
        <ele>190</ele>
        <time>2011-05-25T12:29:43Z</time>
      </trkpt>
      <trkpt lat="45.07964" lon="5.2126">
        <ele>190</ele>
        <time>2011-05-25T12:29:50Z</time>
      </trkpt>
      <trkpt lat="45.07955" lon="5.21271">
        <ele>190</ele>
        <time>2011-05-25T12:29:52Z</time>
      </trkpt>
      <trkpt lat="45.07938" lon="5.21298">
        <ele>190</ele>
        <time>2011-05-25T12:29:56Z</time>
      </trkpt>
      <trkpt lat="45.07912" lon="5.2134">
        <ele>190</ele>
        <time>2011-05-25T12:30:02Z</time>
      </trkpt>
      <trkpt lat="45.07882" lon="5.21391">
        <ele>190</ele>
        <time>2011-05-25T12:30:09Z</time>
      </trkpt>
      <trkpt lat="45.07849" lon="5.21415">
        <ele>190</ele>
        <time>2011-05-25T12:30:14Z</time>
      </trkpt>
      <trkpt lat="45.07801" lon="5.21443">
        <ele>190.14825439453</ele>
        <time>2011-05-25T12:30:20Z</time>
      </trkpt>
      <trkpt lat="45.07756" lon="5.21473">
        <ele>192</ele>
        <time>2011-05-25T12:30:26Z</time>
      </trkpt>
      <trkpt lat="45.07697" lon="5.21516">
        <ele>192</ele>
        <time>2011-05-25T12:30:35Z</time>
      </trkpt>
      <trkpt lat="45.07619" lon="5.21564">
        <ele>193</ele>
        <time>2011-05-25T12:30:47Z</time>
      </trkpt>
      <trkpt lat="45.07557" lon="5.21604">
        <ele>193</ele>
        <time>2011-05-25T12:30:57Z</time>
      </trkpt>
      <trkpt lat="45.07508" lon="5.21639">
        <ele>193.69512939453</ele>
        <time>2011-05-25T12:31:05Z</time>
      </trkpt>
      <trkpt lat="45.07467" lon="5.21675">
        <ele>194</ele>
        <time>2011-05-25T12:31:12Z</time>
      </trkpt>
      <trkpt lat="45.07436" lon="5.21696">
        <ele>193.95959472656</ele>
        <time>2011-05-25T12:31:17Z</time>
      </trkpt>
      <trkpt lat="45.07379" lon="5.21708">
        <ele>194</ele>
        <time>2011-05-25T12:31:25Z</time>
      </trkpt>
      <trkpt lat="45.07301" lon="5.21723">
        <ele>194</ele>
        <time>2011-05-25T12:31:36Z</time>
      </trkpt>
      <trkpt lat="45.07237" lon="5.21734">
        <ele>194</ele>
        <time>2011-05-25T12:31:45Z</time>
      </trkpt>
      <trkpt lat="45.07168" lon="5.21742">
        <ele>195</ele>
        <time>2011-05-25T12:31:55Z</time>
      </trkpt>
      <trkpt lat="45.071" lon="5.21745">
        <ele>195</ele>
        <time>2011-05-25T12:32:05Z</time>
      </trkpt>
      <trkpt lat="45.07035" lon="5.21753">
        <ele>196</ele>
        <time>2011-05-25T12:32:14Z</time>
      </trkpt>
      <trkpt lat="45.06993" lon="5.21759">
        <ele>196</ele>
        <time>2011-05-25T12:32:20Z</time>
      </trkpt>
      <trkpt lat="45.06942" lon="5.21784">
        <ele>196.08850097656</ele>
        <time>2011-05-25T12:32:28Z</time>
      </trkpt>
      <trkpt lat="45.06914" lon="5.21807">
        <ele>196.94102478027</ele>
        <time>2011-05-25T12:32:33Z</time>
      </trkpt>
      <trkpt lat="45.06902" lon="5.21834">
        <ele>196</ele>
        <time>2011-05-25T12:32:37Z</time>
      </trkpt>
      <trkpt lat="45.06901" lon="5.21842">
        <ele>196</ele>
        <time>2011-05-25T12:32:38Z</time>
      </trkpt>
      <trkpt lat="45.06897" lon="5.21911">
        <ele>196</ele>
        <time>2011-05-25T12:32:46Z</time>
      </trkpt>
      <trkpt lat="45.06894" lon="5.21991">
        <ele>196</ele>
        <time>2011-05-25T12:32:55Z</time>
      </trkpt>
      <trkpt lat="45.06886" lon="5.22053">
        <ele>195.00762939453</ele>
        <time>2011-05-25T12:33:02Z</time>
      </trkpt>
      <trkpt lat="45.06871" lon="5.22126">
        <ele>195</ele>
        <time>2011-05-25T12:33:10Z</time>
      </trkpt>
      <trkpt lat="45.0685" lon="5.22218">
        <ele>195</ele>
        <time>2011-05-25T12:33:20Z</time>
      </trkpt>
      <trkpt lat="45.06825" lon="5.22321">
        <ele>194</ele>
        <time>2011-05-25T12:33:31Z</time>
      </trkpt>
      <trkpt lat="45.0681" lon="5.22404">
        <ele>194</ele>
        <time>2011-05-25T12:33:40Z</time>
      </trkpt>
      <trkpt lat="45.06805" lon="5.22481">
        <ele>193.68270874023</ele>
        <time>2011-05-25T12:33:48Z</time>
      </trkpt>
      <trkpt lat="45.06799" lon="5.2258">
        <ele>193</ele>
        <time>2011-05-25T12:33:58Z</time>
      </trkpt>
      <trkpt lat="45.06789" lon="5.22699">
        <ele>192.59539794922</ele>
        <time>2011-05-25T12:34:10Z</time>
      </trkpt>
      <trkpt lat="45.0678" lon="5.22807">
        <ele>192</ele>
        <time>2011-05-25T12:34:21Z</time>
      </trkpt>
      <trkpt lat="45.06769" lon="5.22876">
        <ele>192</ele>
        <time>2011-05-25T12:34:28Z</time>
      </trkpt>
      <trkpt lat="45.0674" lon="5.2296">
        <ele>192</ele>
        <time>2011-05-25T12:34:37Z</time>
      </trkpt>
      <trkpt lat="45.06713" lon="5.23042">
        <ele>192</ele>
        <time>2011-05-25T12:34:46Z</time>
      </trkpt>
      <trkpt lat="45.0669" lon="5.23129">
        <ele>192</ele>
        <time>2011-05-25T12:34:55Z</time>
      </trkpt>
      <trkpt lat="45.06683" lon="5.23158">
        <ele>192</ele>
        <time>2011-05-25T12:34:58Z</time>
      </trkpt>
      <trkpt lat="45.06663" lon="5.23194">
        <ele>192</ele>
        <time>2011-05-25T12:35:03Z</time>
      </trkpt>
      <trkpt lat="45.06653" lon="5.23205">
        <ele>192</ele>
        <time>2011-05-25T12:35:05Z</time>
      </trkpt>
      <trkpt lat="45.06644" lon="5.23216">
        <ele>192</ele>
        <time>2011-05-25T12:35:07Z</time>
      </trkpt>
      <trkpt lat="45.06625" lon="5.23226">
        <ele>192.48681640625</ele>
        <time>2011-05-25T12:35:11Z</time>
      </trkpt>
      <trkpt lat="45.06616" lon="5.23226">
        <ele>192.83013916016</ele>
        <time>2011-05-25T12:35:14Z</time>
      </trkpt>
      <trkpt lat="45.06614" lon="5.23227">
        <ele>192.91253662109</ele>
        <time>2011-05-25T12:35:18Z</time>
      </trkpt>
      <trkpt lat="45.06608" lon="5.23228">
        <ele>193.33001708984</ele>
        <time>2011-05-25T12:35:28Z</time>
      </trkpt>
      <trkpt lat="45.06606" lon="5.23231">
        <ele>193.50576782227</ele>
        <time>2011-05-25T12:35:29Z</time>
      </trkpt>
      <trkpt lat="45.06603" lon="5.23255">
        <ele>193.56665039062</ele>
        <time>2011-05-25T12:35:34Z</time>
      </trkpt>
      <trkpt lat="45.06603" lon="5.23289">
        <ele>193.56665039062</ele>
        <time>2011-05-25T12:35:39Z</time>
      </trkpt>
      <trkpt lat="45.06603" lon="5.23353">
        <ele>193.0842590332</ele>
        <time>2011-05-25T12:35:46Z</time>
      </trkpt>
      <trkpt lat="45.06605" lon="5.23437">
        <ele>192.68518066406</ele>
        <time>2011-05-25T12:35:54Z</time>
      </trkpt>
      <trkpt lat="45.06605" lon="5.23517">
        <ele>192.68518066406</ele>
        <time>2011-05-25T12:36:01Z</time>
      </trkpt>
      <trkpt lat="45.06604" lon="5.23528">
        <ele>192.80877685547</ele>
        <time>2011-05-25T12:36:02Z</time>
      </trkpt>
      <trkpt lat="45.06589" lon="5.23588">
        <ele>194.06787109375</ele>
        <time>2011-05-25T12:36:07Z</time>
      </trkpt>
      <trkpt lat="45.06577" lon="5.23609">
        <ele>193.82620239258</ele>
        <time>2011-05-25T12:36:09Z</time>
      </trkpt>
      <trkpt lat="45.06564" lon="5.23628">
        <ele>194.45809936523</ele>
        <time>2011-05-25T12:36:11Z</time>
      </trkpt>
      <trkpt lat="45.06548" lon="5.23674">
        <ele>194.55938720703</ele>
        <time>2011-05-25T12:36:15Z</time>
      </trkpt>
      <trkpt lat="45.06547" lon="5.23728">
        <ele>192.68313598633</ele>
        <time>2011-05-25T12:36:19Z</time>
      </trkpt>
      <trkpt lat="45.06551" lon="5.23743">
        <ele>191.73211669922</ele>
        <time>2011-05-25T12:36:20Z</time>
      </trkpt>
      <trkpt lat="45.06559" lon="5.23787">
        <ele>189.54116821289</ele>
        <time>2011-05-25T12:36:23Z</time>
      </trkpt>
      <trkpt lat="45.06561" lon="5.23859">
        <ele>188.12077331543</ele>
        <time>2011-05-25T12:36:28Z</time>
      </trkpt>
      <trkpt lat="45.06555" lon="5.23962">
        <ele>187.068359375</ele>
        <time>2011-05-25T12:36:35Z</time>
      </trkpt>
      <trkpt lat="45.06551" lon="5.24055">
        <ele>186.02198791504</ele>
        <time>2011-05-25T12:36:42Z</time>
      </trkpt>
      <trkpt lat="45.06538" lon="5.24092">
        <ele>185.35551452637</ele>
        <time>2011-05-25T12:36:46Z</time>
      </trkpt>
      <trkpt lat="45.06524" lon="5.24102">
        <ele>186.39297485352</ele>
        <time>2011-05-25T12:36:48Z</time>
      </trkpt>
      <trkpt lat="45.06464" lon="5.24139">
        <ele>195.06860351562</ele>
        <time>2011-05-25T12:36:57Z</time>
      </trkpt>
      <trkpt lat="45.06408" lon="5.24174">
        <ele>200.61470031738</ele>
        <time>2011-05-25T12:37:06Z</time>
      </trkpt>
      <trkpt lat="45.06332" lon="5.24221">
        <ele>201.13819885254</ele>
        <time>2011-05-25T12:37:18Z</time>
      </trkpt>
      <trkpt lat="45.06292" lon="5.24243">
        <ele>204.95933532715</ele>
        <time>2011-05-25T12:37:24Z</time>
      </trkpt>
      <trkpt lat="45.06243" lon="5.24249">
        <ele>213.13368225098</ele>
        <time>2011-05-25T12:37:30Z</time>
      </trkpt>
      <trkpt lat="45.06187" lon="5.24259">
        <ele>215.28894042969</ele>
        <time>2011-05-25T12:37:37Z</time>
      </trkpt>
      <trkpt lat="45.06127" lon="5.24268">
        <ele>226.7063293457</ele>
        <time>2011-05-25T12:37:44Z</time>
      </trkpt>
      <trkpt lat="45.06075" lon="5.24273">
        <ele>240.73861694336</ele>
        <time>2011-05-25T12:37:50Z</time>
      </trkpt>
      <trkpt lat="45.06044" lon="5.24292">
        <ele>236.14991760254</ele>
        <time>2011-05-25T12:37:54Z</time>
      </trkpt>
      <trkpt lat="45.06032" lon="5.24306">
        <ele>229.18522644043</ele>
        <time>2011-05-25T12:37:56Z</time>
      </trkpt>
      <trkpt lat="45.06009" lon="5.2434">
        <ele>208.8352355957</ele>
        <time>2011-05-25T12:38:00Z</time>
      </trkpt>
      <trkpt lat="45.05981" lon="5.24397">
        <ele>194.13661193848</ele>
        <time>2011-05-25T12:38:05Z</time>
      </trkpt>
      <trkpt lat="45.05978" lon="5.24444">
        <ele>182.23271179199</ele>
        <time>2011-05-25T12:38:09Z</time>
      </trkpt>
      <trkpt lat="45.05976" lon="5.24532">
        <ele>172.11773681641</ele>
        <time>2011-05-25T12:38:16Z</time>
      </trkpt>
      <trkpt lat="45.05977" lon="5.24546">
        <ele>171.82934570312</ele>
        <time>2011-05-25T12:38:17Z</time>
      </trkpt>
      <trkpt lat="45.05992" lon="5.24637">
        <ele>167.70068359375</ele>
        <time>2011-05-25T12:38:24Z</time>
      </trkpt>
      <trkpt lat="45.05997" lon="5.24662">
        <ele>166.54071044922</ele>
        <time>2011-05-25T12:38:26Z</time>
      </trkpt>
      <trkpt lat="45.06021" lon="5.24691">
        <ele>163.01391601562</ele>
        <time>2011-05-25T12:38:30Z</time>
      </trkpt>
      <trkpt lat="45.06042" lon="5.24703">
        <ele>161.61045837402</ele>
        <time>2011-05-25T12:38:33Z</time>
      </trkpt>
      <trkpt lat="45.06052" lon="5.24722">
        <ele>161.22729492188</ele>
        <time>2011-05-25T12:38:35Z</time>
      </trkpt>
      <trkpt lat="45.06055" lon="5.24758">
        <ele>161.29466247559</ele>
        <time>2011-05-25T12:38:38Z</time>
      </trkpt>
      <trkpt lat="45.06046" lon="5.24801">
        <ele>162.33337402344</ele>
        <time>2011-05-25T12:38:42Z</time>
      </trkpt>
      <trkpt lat="45.06012" lon="5.24887">
        <ele>164.7080078125</ele>
        <time>2011-05-25T12:38:50Z</time>
      </trkpt>
      <trkpt lat="45.05989" lon="5.24933">
        <ele>167.17993164062</ele>
        <time>2011-05-25T12:38:55Z</time>
      </trkpt>
      <trkpt lat="45.05965" lon="5.24967">
        <ele>168.46011352539</ele>
        <time>2011-05-25T12:39:00Z</time>
      </trkpt>
      <trkpt lat="45.05954" lon="5.24979">
        <ele>168.64300537109</ele>
        <time>2011-05-25T12:39:02Z</time>
      </trkpt>
      <trkpt lat="45.05922" lon="5.25005">
        <ele>171.66265869141</ele>
        <time>2011-05-25T12:39:08Z</time>
      </trkpt>
      <trkpt lat="45.05912" lon="5.25014">
        <ele>172.70294189453</ele>
        <time>2011-05-25T12:39:10Z</time>
      </trkpt>
      <trkpt lat="45.05876" lon="5.25048">
        <ele>176.15145874023</ele>
        <time>2011-05-25T12:39:18Z</time>
      </trkpt>
      <trkpt lat="45.05859" lon="5.25065">
        <ele>178.50595092773</ele>
        <time>2011-05-25T12:39:22Z</time>
      </trkpt>
      <trkpt lat="45.05837" lon="5.25102">
        <ele>180.74548339844</ele>
        <time>2011-05-25T12:39:28Z</time>
      </trkpt>
      <trkpt lat="45.05833" lon="5.25134">
        <ele>181.02014160156</ele>
        <time>2011-05-25T12:39:32Z</time>
      </trkpt>
      <trkpt lat="45.0583" lon="5.25157">
        <ele>181.18077087402</ele>
        <time>2011-05-25T12:39:35Z</time>
      </trkpt>
      <trkpt lat="45.05828" lon="5.25166">
        <ele>181.18154907227</ele>
        <time>2011-05-25T12:39:36Z</time>
      </trkpt>
      <trkpt lat="45.05825" lon="5.25235">
        <ele>180.29846191406</ele>
        <time>2011-05-25T12:39:44Z</time>
      </trkpt>
      <trkpt lat="45.05826" lon="5.25261">
        <ele>179.8708190918</ele>
        <time>2011-05-25T12:39:47Z</time>
      </trkpt>
      <trkpt lat="45.05832" lon="5.25319">
        <ele>179.03753662109</ele>
        <time>2011-05-25T12:39:53Z</time>
      </trkpt>
      <trkpt lat="45.05835" lon="5.25389">
        <ele>178.765625</ele>
        <time>2011-05-25T12:39:59Z</time>
      </trkpt>
      <trkpt lat="45.05836" lon="5.25427">
        <ele>179.01773071289</ele>
        <time>2011-05-25T12:40:02Z</time>
      </trkpt>
      <trkpt lat="45.05824" lon="5.25473">
        <ele>180.33966064453</ele>
        <time>2011-05-25T12:40:06Z</time>
      </trkpt>
      <trkpt lat="45.05794" lon="5.25545">
        <ele>181.84912109375</ele>
        <time>2011-05-25T12:40:13Z</time>
      </trkpt>
      <trkpt lat="45.05774" lon="5.25595">
        <ele>182.87117004394</ele>
        <time>2011-05-25T12:40:19Z</time>
      </trkpt>
      <trkpt lat="45.05759" lon="5.25637">
        <ele>184.27389526367</ele>
        <time>2011-05-25T12:40:25Z</time>
      </trkpt>
      <trkpt lat="45.05755" lon="5.25676">
        <ele>185.80895996094</ele>
        <time>2011-05-25T12:40:31Z</time>
      </trkpt>
      <trkpt lat="45.05758" lon="5.25747">
        <ele>187.51261901856</ele>
        <time>2011-05-25T12:40:42Z</time>
      </trkpt>
      <trkpt lat="45.05753" lon="5.25769">
        <ele>189.22927856445</ele>
        <time>2011-05-25T12:40:46Z</time>
      </trkpt>
      <trkpt lat="45.05745" lon="5.25768">
        <ele>190.00051879883</ele>
        <time>2011-05-25T12:40:48Z</time>
      </trkpt>
      <trkpt lat="45.05741" lon="5.25754">
        <ele>189.80310058594</ele>
        <time>2011-05-25T12:40:51Z</time>
      </trkpt>
      <trkpt lat="45.05737" lon="5.25702">
        <ele>188.17231750488</ele>
        <time>2011-05-25T12:41:00Z</time>
      </trkpt>
      <trkpt lat="45.05727" lon="5.25665">
        <ele>187.52536010742</ele>
        <time>2011-05-25T12:41:07Z</time>
      </trkpt>
      <trkpt lat="45.05707" lon="5.25638">
        <ele>187.63403320312</ele>
        <time>2011-05-25T12:41:14Z</time>
      </trkpt>
      <trkpt lat="45.05696" lon="5.2563">
        <ele>188.84031677246</ele>
        <time>2011-05-25T12:41:17Z</time>
      </trkpt>
      <trkpt lat="45.05668" lon="5.25621">
        <ele>190.91284179688</ele>
        <time>2011-05-25T12:41:24Z</time>
      </trkpt>
      <trkpt lat="45.05635" lon="5.25618">
        <ele>192.30236816406</ele>
        <time>2011-05-25T12:41:32Z</time>
      </trkpt>
      <trkpt lat="45.05606" lon="5.2562">
        <ele>194.32751464844</ele>
        <time>2011-05-25T12:41:39Z</time>
      </trkpt>
      <trkpt lat="45.05598" lon="5.25622">
        <ele>194.78231811523</ele>
        <time>2011-05-25T12:41:41Z</time>
      </trkpt>
      <trkpt lat="45.05567" lon="5.2564">
        <ele>195.63946533203</ele>
        <time>2011-05-25T12:41:49Z</time>
      </trkpt>
      <trkpt lat="45.05537" lon="5.2567">
        <ele>197.66680908203</ele>
        <time>2011-05-25T12:41:58Z</time>
      </trkpt>
      <trkpt lat="45.05515" lon="5.25697">
        <ele>198</ele>
        <time>2011-05-25T12:42:05Z</time>
      </trkpt>
      <trkpt lat="45.05483" lon="5.25736">
        <ele>198.50280761719</ele>
        <time>2011-05-25T12:42:15Z</time>
      </trkpt>
      <trkpt lat="45.05449" lon="5.25783">
        <ele>199</ele>
        <time>2011-05-25T12:42:26Z</time>
      </trkpt>
      <trkpt lat="45.05436" lon="5.25818">
        <ele>199</ele>
        <time>2011-05-25T12:42:32Z</time>
      </trkpt>
      <trkpt lat="45.05429" lon="5.25872">
        <ele>200</ele>
        <time>2011-05-25T12:42:40Z</time>
      </trkpt>
      <trkpt lat="45.05423" lon="5.25945">
        <ele>200</ele>
        <time>2011-05-25T12:42:50Z</time>
      </trkpt>
      <trkpt lat="45.05414" lon="5.25996">
        <ele>200</ele>
        <time>2011-05-25T12:42:57Z</time>
      </trkpt>
      <trkpt lat="45.05399" lon="5.2606">
        <ele>200</ele>
        <time>2011-05-25T12:43:06Z</time>
      </trkpt>
      <trkpt lat="45.05382" lon="5.261">
        <ele>200</ele>
        <time>2011-05-25T12:43:12Z</time>
      </trkpt>
      <trkpt lat="45.05353" lon="5.26147">
        <ele>200</ele>
        <time>2011-05-25T12:43:20Z</time>
      </trkpt>
      <trkpt lat="45.0533" lon="5.26188">
        <ele>200.68322753906</ele>
        <time>2011-05-25T12:43:27Z</time>
      </trkpt>
      <trkpt lat="45.05325" lon="5.26223">
        <ele>203.72589111328</ele>
        <time>2011-05-25T12:43:32Z</time>
      </trkpt>
      <trkpt lat="45.05328" lon="5.26282">
        <ele>210.28172302246</ele>
        <time>2011-05-25T12:43:40Z</time>
      </trkpt>
      <trkpt lat="45.05337" lon="5.26341">
        <ele>216.58699035644</ele>
        <time>2011-05-25T12:43:48Z</time>
      </trkpt>
      <trkpt lat="45.05345" lon="5.26401">
        <ele>220</ele>
        <time>2011-05-25T12:43:56Z</time>
      </trkpt>
      <trkpt lat="45.05351" lon="5.26461">
        <ele>220</ele>
        <time>2011-05-25T12:44:04Z</time>
      </trkpt>
      <trkpt lat="45.05345" lon="5.2652">
        <ele>220</ele>
        <time>2011-05-25T12:44:12Z</time>
      </trkpt>
      <trkpt lat="45.05338" lon="5.2654">
        <ele>220</ele>
        <time>2011-05-25T12:44:15Z</time>
      </trkpt>
      <trkpt lat="45.0532" lon="5.26568">
        <ele>220</ele>
        <time>2011-05-25T12:44:20Z</time>
      </trkpt>
      <trkpt lat="45.05275" lon="5.26609">
        <ele>220</ele>
        <time>2011-05-25T12:44:30Z</time>
      </trkpt>
      <trkpt lat="45.05238" lon="5.26641">
        <ele>220</ele>
        <time>2011-05-25T12:44:38Z</time>
      </trkpt>
      <trkpt lat="45.05228" lon="5.2665">
        <ele>220</ele>
        <time>2011-05-25T12:44:40Z</time>
      </trkpt>
      <trkpt lat="45.05197" lon="5.26684">
        <ele>220</ele>
        <time>2011-05-25T12:44:47Z</time>
      </trkpt>
      <trkpt lat="45.05188" lon="5.26695">
        <ele>220</ele>
        <time>2011-05-25T12:44:49Z</time>
      </trkpt>
      <trkpt lat="45.05149" lon="5.26738">
        <ele>220</ele>
        <time>2011-05-25T12:44:57Z</time>
      </trkpt>
      <trkpt lat="45.05122" lon="5.26771">
        <ele>220</ele>
        <time>2011-05-25T12:45:03Z</time>
      </trkpt>
      <trkpt lat="45.05083" lon="5.26825">
        <ele>220</ele>
        <time>2011-05-25T12:45:12Z</time>
      </trkpt>
      <trkpt lat="45.05075" lon="5.26866">
        <ele>220.5947265625</ele>
        <time>2011-05-25T12:45:17Z</time>
      </trkpt>
      <trkpt lat="45.0508" lon="5.26901">
        <ele>220.21020507812</ele>
        <time>2011-05-25T12:45:21Z</time>
      </trkpt>
      <trkpt lat="45.05101" lon="5.26967">
        <ele>219.36352539062</ele>
        <time>2011-05-25T12:45:29Z</time>
      </trkpt>
      <trkpt lat="45.05108" lon="5.27017">
        <ele>219.11633300781</ele>
        <time>2011-05-25T12:45:35Z</time>
      </trkpt>
      <trkpt lat="45.05105" lon="5.27067">
        <ele>219.63110351562</ele>
        <time>2011-05-25T12:45:41Z</time>
      </trkpt>
      <trkpt lat="45.05094" lon="5.27133">
        <ele>222.28790283203</ele>
        <time>2011-05-25T12:45:49Z</time>
      </trkpt>
      <trkpt lat="45.05083" lon="5.27181">
        <ele>224.53967285156</ele>
        <time>2011-05-25T12:45:55Z</time>
      </trkpt>
      <trkpt lat="45.0507" lon="5.27243">
        <ele>227.85403442383</ele>
        <time>2011-05-25T12:46:03Z</time>
      </trkpt>
      <trkpt lat="45.05067" lon="5.27294">
        <ele>229.39276123047</ele>
        <time>2011-05-25T12:46:09Z</time>
      </trkpt>
      <trkpt lat="45.05066" lon="5.27354">
        <ele>228.77436828613</ele>
        <time>2011-05-25T12:46:15Z</time>
      </trkpt>
      <trkpt lat="45.05066" lon="5.27434">
        <ele>226.42182922363</ele>
        <time>2011-05-25T12:46:22Z</time>
      </trkpt>
      <trkpt lat="45.05071" lon="5.27504">
        <ele>223.74029541016</ele>
        <time>2011-05-25T12:46:28Z</time>
      </trkpt>
      <trkpt lat="45.05075" lon="5.27537">
        <ele>222.56726074219</ele>
        <time>2011-05-25T12:46:31Z</time>
      </trkpt>
      <trkpt lat="45.05093" lon="5.27576">
        <ele>221.24963378906</ele>
        <time>2011-05-25T12:46:35Z</time>
      </trkpt>
      <trkpt lat="45.05135" lon="5.2762">
        <ele>213.6520690918</ele>
        <time>2011-05-25T12:46:41Z</time>
      </trkpt>
      <trkpt lat="45.05161" lon="5.27641">
        <ele>204.33201599121</ele>
        <time>2011-05-25T12:46:44Z</time>
      </trkpt>
      <trkpt lat="45.05206" lon="5.27694">
        <ele>198.02020263672</ele>
        <time>2011-05-25T12:46:50Z</time>
      </trkpt>
      <trkpt lat="45.05228" lon="5.2772">
        <ele>198</ele>
        <time>2011-05-25T12:46:53Z</time>
      </trkpt>
      <trkpt lat="45.05259" lon="5.27739">
        <ele>198.61087036133</ele>
        <time>2011-05-25T12:46:57Z</time>
      </trkpt>
      <trkpt lat="45.05283" lon="5.27734">
        <ele>198.41346740723</ele>
        <time>2011-05-25T12:47:00Z</time>
      </trkpt>
      <trkpt lat="45.05289" lon="5.2773">
        <ele>198.28300476074</ele>
        <time>2011-05-25T12:47:01Z</time>
      </trkpt>
      <trkpt lat="45.05328" lon="5.27705">
        <ele>198</ele>
        <time>2011-05-25T12:47:07Z</time>
      </trkpt>
      <trkpt lat="45.05345" lon="5.27693">
        <ele>197.95091247559</ele>
        <time>2011-05-25T12:47:10Z</time>
      </trkpt>
      <trkpt lat="45.05376" lon="5.27688">
        <ele>197.77581787109</ele>
        <time>2011-05-25T12:47:15Z</time>
      </trkpt>
      <trkpt lat="45.05389" lon="5.27693">
        <ele>197.95091247559</ele>
        <time>2011-05-25T12:47:17Z</time>
      </trkpt>
      <trkpt lat="45.05438" lon="5.27728">
        <ele>197.43453979492</ele>
        <time>2011-05-25T12:47:25Z</time>
      </trkpt>
      <trkpt lat="45.05488" lon="5.27769">
        <ele>197.49993896484</ele>
        <time>2011-05-25T12:47:33Z</time>
      </trkpt>
      <trkpt lat="45.05493" lon="5.27776">
        <ele>198.06469726562</ele>
        <time>2011-05-25T12:47:34Z</time>
      </trkpt>
      <trkpt lat="45.05511" lon="5.27819">
        <ele>200.47763061523</ele>
        <time>2011-05-25T12:47:39Z</time>
      </trkpt>
      <trkpt lat="45.05513" lon="5.27828">
        <ele>200.8123626709</ele>
        <time>2011-05-25T12:47:40Z</time>
      </trkpt>
      <trkpt lat="45.05516" lon="5.27894">
        <ele>203.61199951172</ele>
        <time>2011-05-25T12:47:47Z</time>
      </trkpt>
      <trkpt lat="45.05515" lon="5.27958">
        <ele>205.94830322266</ele>
        <time>2011-05-25T12:47:54Z</time>
      </trkpt>
      <trkpt lat="45.05515" lon="5.28035">
        <ele>209.21829223633</ele>
        <time>2011-05-25T12:48:02Z</time>
      </trkpt>
      <trkpt lat="45.05513" lon="5.28132">
        <ele>212.43788146973</ele>
        <time>2011-05-25T12:48:12Z</time>
      </trkpt>
      <trkpt lat="45.05513" lon="5.28211">
        <ele>212.54571533203</ele>
        <time>2011-05-25T12:48:20Z</time>
      </trkpt>
      <trkpt lat="45.05514" lon="5.28299">
        <ele>212.85896301269</ele>
        <time>2011-05-25T12:48:29Z</time>
      </trkpt>
      <trkpt lat="45.05515" lon="5.28349">
        <ele>212.9541015625</ele>
        <time>2011-05-25T12:48:35Z</time>
      </trkpt>
      <trkpt lat="45.05515" lon="5.28387">
        <ele>212.9541015625</ele>
        <time>2011-05-25T12:48:40Z</time>
      </trkpt>
      <trkpt lat="45.05515" lon="5.28417">
        <ele>212.92663574219</ele>
        <time>2011-05-25T12:48:44Z</time>
      </trkpt>
      <trkpt lat="45.05511" lon="5.28481">
        <ele>213.173828125</ele>
        <time>2011-05-25T12:48:52Z</time>
      </trkpt>
      <trkpt lat="45.05507" lon="5.28541">
        <ele>213.47595214844</ele>
        <time>2011-05-25T12:48:59Z</time>
      </trkpt>
      <trkpt lat="45.05502" lon="5.28585">
        <ele>213.88793945312</ele>
        <time>2011-05-25T12:49:04Z</time>
      </trkpt>
      <trkpt lat="45.05491" lon="5.28609">
        <ele>214.31475830078</ele>
        <time>2011-05-25T12:49:07Z</time>
      </trkpt>
      <trkpt lat="45.0548" lon="5.28643">
        <ele>214.71301269531</ele>
        <time>2011-05-25T12:49:11Z</time>
      </trkpt>
      <trkpt lat="45.05473" lon="5.28659">
        <ele>214.98767089844</ele>
        <time>2011-05-25T12:49:13Z</time>
      </trkpt>
      <trkpt lat="45.05451" lon="5.28693">
        <ele>215.75671386719</ele>
        <time>2011-05-25T12:49:18Z</time>
      </trkpt>
      <trkpt lat="45.05418" lon="5.28764">
        <ele>217.40254211426</ele>
        <time>2011-05-25T12:49:28Z</time>
      </trkpt>
      <trkpt lat="45.05378" lon="5.28859">
        <ele>218.40716552734</ele>
        <time>2011-05-25T12:49:42Z</time>
      </trkpt>
      <trkpt lat="45.05349" lon="5.28927">
        <ele>218.45086669922</ele>
        <time>2011-05-25T12:49:52Z</time>
      </trkpt>
      <trkpt lat="45.05318" lon="5.28997">
        <ele>218.05101013184</ele>
        <time>2011-05-25T12:50:02Z</time>
      </trkpt>
      <trkpt lat="45.05289" lon="5.29066">
        <ele>218.60693359375</ele>
        <time>2011-05-25T12:50:11Z</time>
      </trkpt>
      <trkpt lat="45.05247" lon="5.2916">
        <ele>221.00251770019</ele>
        <time>2011-05-25T12:50:23Z</time>
      </trkpt>
      <trkpt lat="45.05215" lon="5.29219">
        <ele>223.5436706543</ele>
        <time>2011-05-25T12:50:31Z</time>
      </trkpt>
      <trkpt lat="45.05183" lon="5.29252">
        <ele>224.76985168457</ele>
        <time>2011-05-25T12:50:37Z</time>
      </trkpt>
      <trkpt lat="45.05133" lon="5.29291">
        <ele>226.71301269531</ele>
        <time>2011-05-25T12:50:46Z</time>
      </trkpt>
      <trkpt lat="45.0507" lon="5.29337">
        <ele>228.37561035156</ele>
        <time>2011-05-25T12:50:57Z</time>
      </trkpt>
      <trkpt lat="45.05007" lon="5.29381">
        <ele>229.08676147461</ele>
        <time>2011-05-25T12:51:08Z</time>
      </trkpt>
      <trkpt lat="45.04951" lon="5.29422">
        <ele>229.54328918457</ele>
        <time>2011-05-25T12:51:18Z</time>
      </trkpt>
      <trkpt lat="45.04906" lon="5.29457">
        <ele>232.19815063477</ele>
        <time>2011-05-25T12:51:26Z</time>
      </trkpt>
      <trkpt lat="45.04901" lon="5.29461">
        <ele>232.45220947266</ele>
        <time>2011-05-25T12:51:27Z</time>
      </trkpt>
      <trkpt lat="45.04881" lon="5.29486">
        <ele>232.92132568359</ele>
        <time>2011-05-25T12:51:31Z</time>
      </trkpt>
      <trkpt lat="45.04839" lon="5.2952">
        <ele>234.99609375</ele>
        <time>2011-05-25T12:51:38Z</time>
      </trkpt>
      <trkpt lat="45.04832" lon="5.29524">
        <ele>235.58746337891</ele>
        <time>2011-05-25T12:51:39Z</time>
      </trkpt>
      <trkpt lat="45.04806" lon="5.29534">
        <ele>240.64331054688</ele>
        <time>2011-05-25T12:51:43Z</time>
      </trkpt>
      <trkpt lat="45.04766" lon="5.2956">
        <ele>243.10815429688</ele>
        <time>2011-05-25T12:51:50Z</time>
      </trkpt>
      <trkpt lat="45.04707" lon="5.29602">
        <ele>244.00393676758</ele>
        <time>2011-05-25T12:52:01Z</time>
      </trkpt>
      <trkpt lat="45.04658" lon="5.29639">
        <ele>242.37739562988</ele>
        <time>2011-05-25T12:52:10Z</time>
      </trkpt>
      <trkpt lat="45.04623" lon="5.29664">
        <ele>241.98086547852</ele>
        <time>2011-05-25T12:52:16Z</time>
      </trkpt>
      <trkpt lat="45.04576" lon="5.29699">
        <ele>239.85188293457</ele>
        <time>2011-05-25T12:52:24Z</time>
      </trkpt>
      <trkpt lat="45.04541" lon="5.29725">
        <ele>237.73129272461</ele>
        <time>2011-05-25T12:52:30Z</time>
      </trkpt>
      <trkpt lat="45.04508" lon="5.29738">
        <ele>237.39169311523</ele>
        <time>2011-05-25T12:52:35Z</time>
      </trkpt>
      <trkpt lat="45.04457" lon="5.29746">
        <ele>236.9133605957</ele>
        <time>2011-05-25T12:52:41Z</time>
      </trkpt>
      <trkpt lat="45.04393" lon="5.29752">
        <ele>229.05117797852</ele>
        <time>2011-05-25T12:52:49Z</time>
      </trkpt>
      <trkpt lat="45.04341" lon="5.29742">
        <ele>231.04911804199</ele>
        <time>2011-05-25T12:52:56Z</time>
      </trkpt>
      <trkpt lat="45.04277" lon="5.29729">
        <ele>237.32113647461</ele>
        <time>2011-05-25T12:53:05Z</time>
      </trkpt>
      <trkpt lat="45.04219" lon="5.29716">
        <ele>240.27192687988</ele>
        <time>2011-05-25T12:53:14Z</time>
      </trkpt>
      <trkpt lat="45.04177" lon="5.2971">
        <ele>241.11296081543</ele>
        <time>2011-05-25T12:53:21Z</time>
      </trkpt>
      <trkpt lat="45.0415" lon="5.29707">
        <ele>239.43011474609</ele>
        <time>2011-05-25T12:53:26Z</time>
      </trkpt>
      <trkpt lat="45.04111" lon="5.29705">
        <ele>240.15209960938</ele>
        <time>2011-05-25T12:53:33Z</time>
      </trkpt>
      <trkpt lat="45.04075" lon="5.29705">
        <ele>241.77133178711</ele>
        <time>2011-05-25T12:53:39Z</time>
      </trkpt>
      <trkpt lat="45.0403" lon="5.29709">
        <ele>242.37742614746</ele>
        <time>2011-05-25T12:53:47Z</time>
      </trkpt>
      <trkpt lat="45.03987" lon="5.29714">
        <ele>241.73217773438</ele>
        <time>2011-05-25T12:53:55Z</time>
      </trkpt>
      <trkpt lat="45.0395" lon="5.29718">
        <ele>242.43783569336</ele>
        <time>2011-05-25T12:54:02Z</time>
      </trkpt>
      <trkpt lat="45.03912" lon="5.29722">
        <ele>242.33239746094</ele>
        <time>2011-05-25T12:54:08Z</time>
      </trkpt>
      <trkpt lat="45.03847" lon="5.29728">
        <ele>243.18411254883</ele>
        <time>2011-05-25T12:54:17Z</time>
      </trkpt>
      <trkpt lat="45.03791" lon="5.29733">
        <ele>242.46340942383</ele>
        <time>2011-05-25T12:54:25Z</time>
      </trkpt>
      <trkpt lat="45.03742" lon="5.29737">
        <ele>238.82067871094</ele>
        <time>2011-05-25T12:54:33Z</time>
      </trkpt>
      <trkpt lat="45.03708" lon="5.29726">
        <ele>236.52267456055</ele>
        <time>2011-05-25T12:54:39Z</time>
      </trkpt>
      <trkpt lat="45.03682" lon="5.29705">
        <ele>237.96141052246</ele>
        <time>2011-05-25T12:54:44Z</time>
      </trkpt>
      <trkpt lat="45.03645" lon="5.29663">
        <ele>242.88442993164</ele>
        <time>2011-05-25T12:54:51Z</time>
      </trkpt>
      <trkpt lat="45.03591" lon="5.296">
        <ele>244.24060058594</ele>
        <time>2011-05-25T12:55:01Z</time>
      </trkpt>
      <trkpt lat="45.03539" lon="5.29534">
        <ele>242.33518981934</ele>
        <time>2011-05-25T12:55:11Z</time>
      </trkpt>
      <trkpt lat="45.03511" lon="5.29479">
        <ele>243.19721984863</ele>
        <time>2011-05-25T12:55:17Z</time>
      </trkpt>
      <trkpt lat="45.03471" lon="5.29394">
        <ele>244.26972961426</ele>
        <time>2011-05-25T12:55:25Z</time>
      </trkpt>
      <trkpt lat="45.03466" lon="5.29384">
        <ele>244.67333984375</ele>
        <time>2011-05-25T12:55:26Z</time>
      </trkpt>
      <trkpt lat="45.03437" lon="5.29352">
        <ele>244.41081237793</ele>
        <time>2011-05-25T12:55:30Z</time>
      </trkpt>
      <trkpt lat="45.03407" lon="5.29326">
        <ele>244.310546875</ele>
        <time>2011-05-25T12:55:34Z</time>
      </trkpt>
      <trkpt lat="45.03337" lon="5.29268">
        <ele>242.40118408203</ele>
        <time>2011-05-25T12:55:44Z</time>
      </trkpt>
      <trkpt lat="45.03281" lon="5.29222">
        <ele>234.65948486328</ele>
        <time>2011-05-25T12:55:53Z</time>
      </trkpt>
      <trkpt lat="45.03262" lon="5.29207">
        <ele>232.87202453613</ele>
        <time>2011-05-25T12:55:56Z</time>
      </trkpt>
      <trkpt lat="45.03215" lon="5.29169">
        <ele>231.94450378418</ele>
        <time>2011-05-25T12:56:03Z</time>
      </trkpt>
      <trkpt lat="45.03158" lon="5.29123">
        <ele>230.76016235352</ele>
        <time>2011-05-25T12:56:11Z</time>
      </trkpt>
      <trkpt lat="45.03107" lon="5.29073">
        <ele>232.94995117188</ele>
        <time>2011-05-25T12:56:19Z</time>
      </trkpt>
      <trkpt lat="45.03041" lon="5.29006">
        <ele>236.26098632812</ele>
        <time>2011-05-25T12:56:30Z</time>
      </trkpt>
      <trkpt lat="45.02975" lon="5.28948">
        <ele>237.63670349121</ele>
        <time>2011-05-25T12:56:40Z</time>
      </trkpt>
      <trkpt lat="45.02968" lon="5.28944">
        <ele>237.68057250977</ele>
        <time>2011-05-25T12:56:41Z</time>
      </trkpt>
      <trkpt lat="45.02925" lon="5.28935">
        <ele>236.29859924316</ele>
        <time>2011-05-25T12:56:46Z</time>
      </trkpt>
      <trkpt lat="45.02916" lon="5.28936">
        <ele>235.64128112793</ele>
        <time>2011-05-25T12:56:47Z</time>
      </trkpt>
      <trkpt lat="45.02858" lon="5.28947">
        <ele>220</ele>
        <time>2011-05-25T12:56:53Z</time>
      </trkpt>
      <trkpt lat="45.02804" lon="5.28934">
        <ele>220</ele>
        <time>2011-05-25T12:56:58Z</time>
      </trkpt>
      <trkpt lat="45.02773" lon="5.28915">
        <ele>220</ele>
        <time>2011-05-25T12:57:01Z</time>
      </trkpt>
      <trkpt lat="45.02703" lon="5.28854">
        <ele>227.16445922852</ele>
        <time>2011-05-25T12:57:09Z</time>
      </trkpt>
      <trkpt lat="45.02644" lon="5.28801">
        <ele>238.92529296875</ele>
        <time>2011-05-25T12:57:17Z</time>
      </trkpt>
      <trkpt lat="45.02608" lon="5.28782">
        <ele>239.43907165527</ele>
        <time>2011-05-25T12:57:22Z</time>
      </trkpt>
      <trkpt lat="45.02601" lon="5.28778">
        <ele>239.94207763672</ele>
        <time>2011-05-25T12:57:23Z</time>
      </trkpt>
      <trkpt lat="45.02575" lon="5.28779">
        <ele>239.54475402832</ele>
        <time>2011-05-25T12:57:27Z</time>
      </trkpt>
      <trkpt lat="45.02544" lon="5.28778">
        <ele>238.93173217773</ele>
        <time>2011-05-25T12:57:32Z</time>
      </trkpt>
      <trkpt lat="45.02526" lon="5.28763">
        <ele>241.05242919922</ele>
        <time>2011-05-25T12:57:35Z</time>
      </trkpt>
      <trkpt lat="45.02511" lon="5.28736">
        <ele>243.86218261719</ele>
        <time>2011-05-25T12:57:38Z</time>
      </trkpt>
      <trkpt lat="45.02486" lon="5.28689">
        <ele>250.81768798828</ele>
        <time>2011-05-25T12:57:43Z</time>
      </trkpt>
      <trkpt lat="45.02452" lon="5.28662">
        <ele>255.66998291016</ele>
        <time>2011-05-25T12:57:48Z</time>
      </trkpt>
      <trkpt lat="45.0242" lon="5.28662">
        <ele>255.60131835938</ele>
        <time>2011-05-25T12:57:52Z</time>
      </trkpt>
      <trkpt lat="45.02399" lon="5.28674">
        <ele>251.7991027832</ele>
        <time>2011-05-25T12:57:55Z</time>
      </trkpt>
      <trkpt lat="45.02363" lon="5.28709">
        <ele>243.94984436035</ele>
        <time>2011-05-25T12:58:01Z</time>
      </trkpt>
      <trkpt lat="45.0233" lon="5.28755">
        <ele>241.47796630859</ele>
        <time>2011-05-25T12:58:08Z</time>
      </trkpt>
      <trkpt lat="45.02312" lon="5.28793">
        <ele>237.91299438477</ele>
        <time>2011-05-25T12:58:13Z</time>
      </trkpt>
      <trkpt lat="45.0229" lon="5.28808">
        <ele>236.61743164062</ele>
        <time>2011-05-25T12:58:17Z</time>
      </trkpt>
      <trkpt lat="45.0225" lon="5.28807">
        <ele>238.6676940918</ele>
        <time>2011-05-25T12:58:24Z</time>
      </trkpt>
      <trkpt lat="45.02244" lon="5.28806">
        <ele>238.8307800293</ele>
        <time>2011-05-25T12:58:25Z</time>
      </trkpt>
      <trkpt lat="45.02201" lon="5.28804">
        <ele>239.15963745117</ele>
        <time>2011-05-25T12:58:32Z</time>
      </trkpt>
      <trkpt lat="45.02154" lon="5.28804">
        <ele>239.07524108887</ele>
        <time>2011-05-25T12:58:39Z</time>
      </trkpt>
      <trkpt lat="45.02121" lon="5.28814">
        <ele>238.68463134766</ele>
        <time>2011-05-25T12:58:44Z</time>
      </trkpt>
      <trkpt lat="45.02104" lon="5.28821">
        <ele>238.44430541992</ele>
        <time>2011-05-25T12:58:47Z</time>
      </trkpt>
      <trkpt lat="45.02081" lon="5.28821">
        <ele>238.451171875</ele>
        <time>2011-05-25T12:58:52Z</time>
      </trkpt>
      <trkpt lat="45.02049" lon="5.28796">
        <ele>239.33694458008</ele>
        <time>2011-05-25T12:58:59Z</time>
      </trkpt>
      <trkpt lat="45.02012" lon="5.28764">
        <ele>240</ele>
        <time>2011-05-25T12:59:06Z</time>
      </trkpt>
      <trkpt lat="45.01992" lon="5.28745">
        <ele>240</ele>
        <time>2011-05-25T12:59:10Z</time>
      </trkpt>
      <trkpt lat="45.01968" lon="5.28739">
        <ele>240</ele>
        <time>2011-05-25T12:59:14Z</time>
      </trkpt>
      <trkpt lat="45.01928" lon="5.28746">
        <ele>240</ele>
        <time>2011-05-25T12:59:21Z</time>
      </trkpt>
      <trkpt lat="45.01918" lon="5.28749">
        <ele>240</ele>
        <time>2011-05-25T12:59:23Z</time>
      </trkpt>
      <trkpt lat="45.01875" lon="5.28763">
        <ele>240</ele>
        <time>2011-05-25T12:59:31Z</time>
      </trkpt>
      <trkpt lat="45.01858" lon="5.28768">
        <ele>240</ele>
        <time>2011-05-25T12:59:34Z</time>
      </trkpt>
      <trkpt lat="45.01819" lon="5.28793">
        <ele>239.45883178711</ele>
        <time>2011-05-25T12:59:42Z</time>
      </trkpt>
      <trkpt lat="45.01815" lon="5.28797">
        <ele>239.31463623047</ele>
        <time>2011-05-25T12:59:43Z</time>
      </trkpt>
      <trkpt lat="45.01801" lon="5.28825">
        <ele>238.31384277344</ele>
        <time>2011-05-25T12:59:48Z</time>
      </trkpt>
      <trkpt lat="45.01798" lon="5.28836">
        <ele>238</ele>
        <time>2011-05-25T12:59:50Z</time>
      </trkpt>
      <trkpt lat="45.01794" lon="5.28888">
        <ele>238</ele>
        <time>2011-05-25T12:59:59Z</time>
      </trkpt>
      <trkpt lat="45.01793" lon="5.2891">
        <ele>238</ele>
        <time>2011-05-25T13:00:03Z</time>
      </trkpt>
      <trkpt lat="45.01792" lon="5.28925">
        <ele>238</ele>
        <time>2011-05-25T13:00:06Z</time>
      </trkpt>
      <trkpt lat="45.01789" lon="5.28934">
        <ele>238</ele>
        <time>2011-05-25T13:00:08Z</time>
      </trkpt>
      <trkpt lat="45.01772" lon="5.28934">
        <ele>238</ele>
        <time>2011-05-25T13:00:12Z</time>
      </trkpt>
      <trkpt lat="45.01742" lon="5.28921">
        <ele>238</ele>
        <time>2011-05-25T13:00:18Z</time>
      </trkpt>
      <trkpt lat="45.01713" lon="5.28905">
        <ele>238</ele>
        <time>2011-05-25T13:00:23Z</time>
      </trkpt>
      <trkpt lat="45.01701" lon="5.28901">
        <ele>238</ele>
        <time>2011-05-25T13:00:25Z</time>
      </trkpt>
      <trkpt lat="45.01643" lon="5.28876">
        <ele>238</ele>
        <time>2011-05-25T13:00:35Z</time>
      </trkpt>
      <trkpt lat="45.01608" lon="5.2886">
        <ele>238</ele>
        <time>2011-05-25T13:00:41Z</time>
      </trkpt>
      <trkpt lat="45.01572" lon="5.28844">
        <ele>238</ele>
        <time>2011-05-25T13:00:47Z</time>
      </trkpt>
      <trkpt lat="45.0153" lon="5.28833">
        <ele>238.01171875</ele>
        <time>2011-05-25T13:00:54Z</time>
      </trkpt>
      <trkpt lat="45.0149" lon="5.28832">
        <ele>238.06321716309</ele>
        <time>2011-05-25T13:01:00Z</time>
      </trkpt>
      <trkpt lat="45.01448" lon="5.28833">
        <ele>238.00828552246</ele>
        <time>2011-05-25T13:01:07Z</time>
      </trkpt>
      <trkpt lat="45.01406" lon="5.28842">
        <ele>238</ele>
        <time>2011-05-25T13:01:14Z</time>
      </trkpt>
      <trkpt lat="45.01361" lon="5.2885">
        <ele>238</ele>
        <time>2011-05-25T13:01:21Z</time>
      </trkpt>
      <trkpt lat="45.01329" lon="5.28852">
        <ele>238.11010742188</ele>
        <time>2011-05-25T13:01:26Z</time>
      </trkpt>
      <trkpt lat="45.01286" lon="5.28837">
        <ele>238.845703125</ele>
        <time>2011-05-25T13:01:33Z</time>
      </trkpt>
      <trkpt lat="45.01259" lon="5.2884">
        <ele>239.89627075195</ele>
        <time>2011-05-25T13:01:38Z</time>
      </trkpt>
      <trkpt lat="45.01255" lon="5.28852">
        <ele>240.51081848144</ele>
        <time>2011-05-25T13:01:41Z</time>
      </trkpt>
      <trkpt lat="45.01261" lon="5.28868">
        <ele>241.38845825195</ele>
        <time>2011-05-25T13:01:44Z</time>
      </trkpt>
      <trkpt lat="45.01264" lon="5.28874">
        <ele>241.89314270019</ele>
        <time>2011-05-25T13:01:45Z</time>
      </trkpt>
      <trkpt lat="45.0128" lon="5.28911">
        <ele>244.42489624023</ele>
        <time>2011-05-25T13:01:51Z</time>
      </trkpt>
      <trkpt lat="45.01288" lon="5.28931">
        <ele>245.84375</ele>
        <time>2011-05-25T13:01:54Z</time>
      </trkpt>
      <trkpt lat="45.01308" lon="5.28979">
        <ele>249.10501098633</ele>
        <time>2011-05-25T13:02:01Z</time>
      </trkpt>
      <trkpt lat="45.0133" lon="5.29028">
        <ele>251.21354675293</ele>
        <time>2011-05-25T13:02:08Z</time>
      </trkpt>
      <trkpt lat="45.01336" lon="5.2904">
        <ele>251.80128479004</ele>
        <time>2011-05-25T13:02:10Z</time>
      </trkpt>
      <trkpt lat="45.01343" lon="5.29059">
        <ele>252.97860717773</ele>
        <time>2011-05-25T13:02:13Z</time>
      </trkpt>
      <trkpt lat="45.01342" lon="5.29083">
        <ele>255.63934326172</ele>
        <time>2011-05-25T13:02:17Z</time>
      </trkpt>
      <trkpt lat="45.01332" lon="5.29093">
        <ele>256.72894287109</ele>
        <time>2011-05-25T13:02:20Z</time>
      </trkpt>
      <trkpt lat="45.01324" lon="5.29092">
        <ele>257.31259155273</ele>
        <time>2011-05-25T13:02:22Z</time>
      </trkpt>
      <trkpt lat="45.01291" lon="5.29084">
        <ele>259.12533569336</ele>
        <time>2011-05-25T13:02:30Z</time>
      </trkpt>
      <trkpt lat="45.01265" lon="5.29077">
        <ele>260.20901489258</ele>
        <time>2011-05-25T13:02:37Z</time>
      </trkpt>
      <trkpt lat="45.0124" lon="5.2907">
        <ele>261.57098388672</ele>
        <time>2011-05-25T13:02:44Z</time>
      </trkpt>
      <trkpt lat="45.01215" lon="5.29061">
        <ele>262.9423828125</ele>
        <time>2011-05-25T13:02:51Z</time>
      </trkpt>
      <trkpt lat="45.01183" lon="5.2905">
        <ele>264.22775268555</ele>
        <time>2011-05-25T13:03:00Z</time>
      </trkpt>
      <trkpt lat="45.0116" lon="5.29042">
        <ele>265.81600952148</ele>
        <time>2011-05-25T13:03:07Z</time>
      </trkpt>
      <trkpt lat="45.01136" lon="5.29038">
        <ele>266.1867980957</ele>
        <time>2011-05-25T13:03:14Z</time>
      </trkpt>
      <trkpt lat="45.01104" lon="5.29031">
        <ele>266.63656616211</ele>
        <time>2011-05-25T13:03:23Z</time>
      </trkpt>
      <trkpt lat="45.01084" lon="5.29019">
        <ele>265.66653442383</ele>
        <time>2011-05-25T13:03:29Z</time>
      </trkpt>
      <trkpt lat="45.01052" lon="5.29005">
        <ele>264.98739624023</ele>
        <time>2011-05-25T13:03:37Z</time>
      </trkpt>
      <trkpt lat="45.01017" lon="5.28988">
        <ele>265.42953491211</ele>
        <time>2011-05-25T13:03:45Z</time>
      </trkpt>
      <trkpt lat="45.00975" lon="5.28965">
        <ele>271.77972412109</ele>
        <time>2011-05-25T13:03:54Z</time>
      </trkpt>
      <trkpt lat="45.00932" lon="5.28942">
        <ele>274.28201293945</ele>
        <time>2011-05-25T13:04:03Z</time>
      </trkpt>
      <trkpt lat="45.00891" lon="5.28919">
        <ele>276.02404785156</ele>
        <time>2011-05-25T13:04:12Z</time>
      </trkpt>
      <trkpt lat="45.00879" lon="5.28909">
        <ele>275.27136230469</ele>
        <time>2011-05-25T13:04:15Z</time>
      </trkpt>
      <trkpt lat="45.00846" lon="5.28892">
        <ele>275.17114257812</ele>
        <time>2011-05-25T13:04:22Z</time>
      </trkpt>
      <trkpt lat="45.00795" lon="5.28873">
        <ele>275.10827636719</ele>
        <time>2011-05-25T13:04:32Z</time>
      </trkpt>
      <trkpt lat="45.00761" lon="5.28851">
        <ele>273.06051635742</ele>
        <time>2011-05-25T13:04:39Z</time>
      </trkpt>
      <trkpt lat="45.00716" lon="5.28813">
        <ele>272.89135742188</ele>
        <time>2011-05-25T13:04:49Z</time>
      </trkpt>
      <trkpt lat="45.00677" lon="5.28782">
        <ele>274.27526855469</ele>
        <time>2011-05-25T13:04:58Z</time>
      </trkpt>
      <trkpt lat="45.00632" lon="5.28756">
        <ele>275.05633544922</ele>
        <time>2011-05-25T13:05:07Z</time>
      </trkpt>
      <trkpt lat="45.00581" lon="5.28729">
        <ele>278.99453735352</ele>
        <time>2011-05-25T13:05:17Z</time>
      </trkpt>
      <trkpt lat="45.00544" lon="5.28713">
        <ele>279.81185913086</ele>
        <time>2011-05-25T13:05:24Z</time>
      </trkpt>
      <trkpt lat="45.00512" lon="5.28709">
        <ele>280.87692260742</ele>
        <time>2011-05-25T13:05:30Z</time>
      </trkpt>
      <trkpt lat="45.00473" lon="5.28711">
        <ele>282.74041748047</ele>
        <time>2011-05-25T13:05:37Z</time>
      </trkpt>
      <trkpt lat="45.00433" lon="5.28709">
        <ele>284.98669433594</ele>
        <time>2011-05-25T13:05:44Z</time>
      </trkpt>
      <trkpt lat="45.00386" lon="5.28699">
        <ele>285.70010375977</ele>
        <time>2011-05-25T13:05:52Z</time>
      </trkpt>
      <trkpt lat="45.00339" lon="5.28675">
        <ele>286.51892089844</ele>
        <time>2011-05-25T13:06:00Z</time>
      </trkpt>
      <trkpt lat="45.00304" lon="5.28648">
        <ele>288.01239013672</ele>
        <time>2011-05-25T13:06:07Z</time>
      </trkpt>
      <trkpt lat="45.00267" lon="5.28617">
        <ele>290.48895263672</ele>
        <time>2011-05-25T13:06:15Z</time>
      </trkpt>
      <trkpt lat="45.00216" lon="5.28578">
        <ele>290.8366394043</ele>
        <time>2011-05-25T13:06:26Z</time>
      </trkpt>
      <trkpt lat="45.00181" lon="5.28564">
        <ele>290.88885498047</ele>
        <time>2011-05-25T13:06:33Z</time>
      </trkpt>
      <trkpt lat="45.00137" lon="5.2856">
        <ele>292.58401489258</ele>
        <time>2011-05-25T13:06:41Z</time>
      </trkpt>
      <trkpt lat="45.00101" lon="5.28557">
        <ele>295.33258056641</ele>
        <time>2011-05-25T13:06:47Z</time>
      </trkpt>
      <trkpt lat="45.00054" lon="5.28544">
        <ele>301.53033447266</ele>
        <time>2011-05-25T13:06:54Z</time>
      </trkpt>
      <trkpt lat="45.00013" lon="5.28523">
        <ele>308.16488647461</ele>
        <time>2011-05-25T13:07:01Z</time>
      </trkpt>
      <trkpt lat="44.99972" lon="5.28489">
        <ele>313.19921875</ele>
        <time>2011-05-25T13:07:09Z</time>
      </trkpt>
      <trkpt lat="44.99941" lon="5.28452">
        <ele>314.94277954102</ele>
        <time>2011-05-25T13:07:16Z</time>
      </trkpt>
      <trkpt lat="44.99905" lon="5.28394">
        <ele>311.60589599609</ele>
        <time>2011-05-25T13:07:26Z</time>
      </trkpt>
      <trkpt lat="44.99876" lon="5.28346">
        <ele>310.13653564453</ele>
        <time>2011-05-25T13:07:34Z</time>
      </trkpt>
      <trkpt lat="44.99847" lon="5.28298">
        <ele>309.03137207031</ele>
        <time>2011-05-25T13:07:42Z</time>
      </trkpt>
      <trkpt lat="44.99817" lon="5.28254">
        <ele>308.95803833008</ele>
        <time>2011-05-25T13:07:50Z</time>
      </trkpt>
      <trkpt lat="44.99781" lon="5.28212">
        <ele>308.07733154297</ele>
        <time>2011-05-25T13:07:59Z</time>
      </trkpt>
      <trkpt lat="44.99748" lon="5.28179">
        <ele>308.97952270508</ele>
        <time>2011-05-25T13:08:07Z</time>
      </trkpt>
      <trkpt lat="44.99707" lon="5.28135">
        <ele>308.95080566406</ele>
        <time>2011-05-25T13:08:17Z</time>
      </trkpt>
      <trkpt lat="44.99677" lon="5.28104">
        <ele>310.16027832031</ele>
        <time>2011-05-25T13:08:25Z</time>
      </trkpt>
      <trkpt lat="44.99669" lon="5.28098">
        <ele>310.3971862793</ele>
        <time>2011-05-25T13:08:27Z</time>
      </trkpt>
      <trkpt lat="44.99637" lon="5.2809">
        <ele>312.88122558594</ele>
        <time>2011-05-25T13:08:34Z</time>
      </trkpt>
      <trkpt lat="44.99596" lon="5.28094">
        <ele>316.29040527344</ele>
        <time>2011-05-25T13:08:43Z</time>
      </trkpt>
      <trkpt lat="44.99569" lon="5.28095">
        <ele>319.37954711914</ele>
        <time>2011-05-25T13:08:49Z</time>
      </trkpt>
      <trkpt lat="44.99548" lon="5.28083">
        <ele>321.51748657227</ele>
        <time>2011-05-25T13:08:54Z</time>
      </trkpt>
      <trkpt lat="44.99541" lon="5.28076">
        <ele>321.73895263672</ele>
        <time>2011-05-25T13:08:56Z</time>
      </trkpt>
      <trkpt lat="44.99527" lon="5.28044">
        <ele>321.60711669922</ele>
        <time>2011-05-25T13:09:02Z</time>
      </trkpt>
      <trkpt lat="44.99525" lon="5.28038">
        <ele>321.46636962891</ele>
        <time>2011-05-25T13:09:03Z</time>
      </trkpt>
      <trkpt lat="44.99511" lon="5.27987">
        <ele>318.72387695312</ele>
        <time>2011-05-25T13:09:12Z</time>
      </trkpt>
      <trkpt lat="44.99495" lon="5.27964">
        <ele>316.56555175781</ele>
        <time>2011-05-25T13:09:18Z</time>
      </trkpt>
      <trkpt lat="44.99477" lon="5.27956">
        <ele>316.18103027344</ele>
        <time>2011-05-25T13:09:24Z</time>
      </trkpt>
      <trkpt lat="44.99462" lon="5.27955">
        <ele>316.54553222656</ele>
        <time>2011-05-25T13:09:30Z</time>
      </trkpt>
      <trkpt lat="44.99458" lon="5.27954">
        <ele>316.37481689453</ele>
        <time>2011-05-25T13:09:36Z</time>
      </trkpt>
      <trkpt lat="44.99458" lon="5.27954">
        <ele>316.35595703125</ele>
        <time>2011-05-25T13:09:37Z</time>
      </trkpt>
      <trkpt lat="44.99454" lon="5.27959">
        <ele>317.4870300293</ele>
        <time>2011-05-25T13:10:36Z</time>
      </trkpt>
      <trkpt lat="44.9945" lon="5.27961">
        <ele>317.95141601562</ele>
        <time>2011-05-25T13:10:38Z</time>
      </trkpt>
      <trkpt lat="44.99437" lon="5.27969">
        <ele>318.87420654297</ele>
        <time>2011-05-25T13:10:44Z</time>
      </trkpt>
      <trkpt lat="44.99428" lon="5.27973">
        <ele>318.84240722656</ele>
        <time>2011-05-25T13:10:48Z</time>
      </trkpt>
      <trkpt lat="44.99411" lon="5.27985">
        <ele>318.26812744141</ele>
        <time>2011-05-25T13:10:54Z</time>
      </trkpt>
      <trkpt lat="44.99388" lon="5.28011">
        <ele>319.56457519531</ele>
        <time>2011-05-25T13:11:01Z</time>
      </trkpt>
      <trkpt lat="44.99368" lon="5.28037">
        <ele>322.4365234375</ele>
        <time>2011-05-25T13:11:07Z</time>
      </trkpt>
      <trkpt lat="44.99342" lon="5.28059">
        <ele>323.90188598633</ele>
        <time>2011-05-25T13:11:14Z</time>
      </trkpt>
      <trkpt lat="44.99306" lon="5.28071">
        <ele>322.33642578125</ele>
        <time>2011-05-25T13:11:22Z</time>
      </trkpt>
      <trkpt lat="44.99275" lon="5.28081">
        <ele>319.79302978516</ele>
        <time>2011-05-25T13:11:29Z</time>
      </trkpt>
      <trkpt lat="44.99246" lon="5.28101">
        <ele>323.61401367188</ele>
        <time>2011-05-25T13:11:36Z</time>
      </trkpt>
      <trkpt lat="44.99211" lon="5.28139">
        <ele>327.98440551758</ele>
        <time>2011-05-25T13:11:45Z</time>
      </trkpt>
      <trkpt lat="44.99179" lon="5.2817">
        <ele>333.57525634766</ele>
        <time>2011-05-25T13:11:53Z</time>
      </trkpt>
      <trkpt lat="44.99161" lon="5.28179">
        <ele>334.71075439453</ele>
        <time>2011-05-25T13:11:57Z</time>
      </trkpt>
      <trkpt lat="44.99129" lon="5.28178">
        <ele>334.28015136719</ele>
        <time>2011-05-25T13:12:04Z</time>
      </trkpt>
      <trkpt lat="44.99089" lon="5.28171">
        <ele>334.91284179688</ele>
        <time>2011-05-25T13:12:13Z</time>
      </trkpt>
      <trkpt lat="44.99071" lon="5.28169">
        <ele>336.59280395508</ele>
        <time>2011-05-25T13:12:17Z</time>
      </trkpt>
      <trkpt lat="44.99033" lon="5.28168">
        <ele>339.06286621094</ele>
        <time>2011-05-25T13:12:25Z</time>
      </trkpt>
      <trkpt lat="44.99" lon="5.28168">
        <ele>341.203125</ele>
        <time>2011-05-25T13:12:32Z</time>
      </trkpt>
      <trkpt lat="44.98966" lon="5.28169">
        <ele>347.71746826172</ele>
        <time>2011-05-25T13:12:39Z</time>
      </trkpt>
      <trkpt lat="44.98933" lon="5.28163">
        <ele>352.82119750977</ele>
        <time>2011-05-25T13:12:46Z</time>
      </trkpt>
      <trkpt lat="44.98907" lon="5.28147">
        <ele>354.23263549805</ele>
        <time>2011-05-25T13:12:52Z</time>
      </trkpt>
      <trkpt lat="44.9888" lon="5.28119">
        <ele>355.90850830078</ele>
        <time>2011-05-25T13:12:59Z</time>
      </trkpt>
      <trkpt lat="44.98857" lon="5.28095">
        <ele>356.47454833984</ele>
        <time>2011-05-25T13:13:05Z</time>
      </trkpt>
      <trkpt lat="44.98825" lon="5.28059">
        <ele>357.35110473633</ele>
        <time>2011-05-25T13:13:14Z</time>
      </trkpt>
      <trkpt lat="44.98818" lon="5.2805">
        <ele>358.23178100586</ele>
        <time>2011-05-25T13:13:16Z</time>
      </trkpt>
      <trkpt lat="44.98797" lon="5.28007">
        <ele>359.75280761719</ele>
        <time>2011-05-25T13:13:24Z</time>
      </trkpt>
      <trkpt lat="44.98779" lon="5.27949">
        <ele>361.13388061523</ele>
        <time>2011-05-25T13:13:34Z</time>
      </trkpt>
      <trkpt lat="44.98764" lon="5.27902">
        <ele>361.12289428711</ele>
        <time>2011-05-25T13:13:42Z</time>
      </trkpt>
      <trkpt lat="44.98754" lon="5.27874">
        <ele>360.29501342773</ele>
        <time>2011-05-25T13:13:47Z</time>
      </trkpt>
      <trkpt lat="44.9874" lon="5.27847">
        <ele>361.23236083984</ele>
        <time>2011-05-25T13:13:52Z</time>
      </trkpt>
      <trkpt lat="44.98719" lon="5.2782">
        <ele>363.1745300293</ele>
        <time>2011-05-25T13:13:58Z</time>
      </trkpt>
      <trkpt lat="44.98701" lon="5.27798">
        <ele>364.33325195312</ele>
        <time>2011-05-25T13:14:04Z</time>
      </trkpt>
      <trkpt lat="44.98666" lon="5.27762">
        <ele>366.31918334961</ele>
        <time>2011-05-25T13:14:13Z</time>
      </trkpt>
      <trkpt lat="44.9863" lon="5.2773">
        <ele>365.12612915039</ele>
        <time>2011-05-25T13:14:22Z</time>
      </trkpt>
      <trkpt lat="44.98617" lon="5.27723">
        <ele>364.85317993164</ele>
        <time>2011-05-25T13:14:25Z</time>
      </trkpt>
      <trkpt lat="44.98567" lon="5.2771">
        <ele>366.14807128906</ele>
        <time>2011-05-25T13:14:36Z</time>
      </trkpt>
      <trkpt lat="44.98542" lon="5.27694">
        <ele>366.35034179688</ele>
        <time>2011-05-25T13:14:42Z</time>
      </trkpt>
      <trkpt lat="44.98505" lon="5.27665">
        <ele>369.83648681641</ele>
        <time>2011-05-25T13:14:51Z</time>
      </trkpt>
      <trkpt lat="44.98472" lon="5.27653">
        <ele>380.00106811523</ele>
        <time>2011-05-25T13:14:58Z</time>
      </trkpt>
      <trkpt lat="44.98453" lon="5.27648">
        <ele>382.28665161133</ele>
        <time>2011-05-25T13:15:02Z</time>
      </trkpt>
      <trkpt lat="44.98428" lon="5.27626">
        <ele>384.78018188477</ele>
        <time>2011-05-25T13:15:08Z</time>
      </trkpt>
      <trkpt lat="44.98418" lon="5.27604">
        <ele>384.05838012695</ele>
        <time>2011-05-25T13:15:12Z</time>
      </trkpt>
      <trkpt lat="44.98398" lon="5.27554">
        <ele>382.56350708008</ele>
        <time>2011-05-25T13:15:21Z</time>
      </trkpt>
      <trkpt lat="44.98385" lon="5.27538">
        <ele>382.50482177734</ele>
        <time>2011-05-25T13:15:25Z</time>
      </trkpt>
      <trkpt lat="44.98352" lon="5.2751">
        <ele>384.79541015625</ele>
        <time>2011-05-25T13:15:33Z</time>
      </trkpt>
      <trkpt lat="44.98312" lon="5.27485">
        <ele>391.00152587891</ele>
        <time>2011-05-25T13:15:42Z</time>
      </trkpt>
      <trkpt lat="44.98279" lon="5.27455">
        <ele>393.8835144043</ele>
        <time>2011-05-25T13:15:50Z</time>
      </trkpt>
      <trkpt lat="44.98243" lon="5.27422">
        <ele>397.67288208008</ele>
        <time>2011-05-25T13:15:59Z</time>
      </trkpt>
      <trkpt lat="44.9822" lon="5.27407">
        <ele>398.58200073242</ele>
        <time>2011-05-25T13:16:05Z</time>
      </trkpt>
      <trkpt lat="44.98193" lon="5.2739">
        <ele>401.36242675781</ele>
        <time>2011-05-25T13:16:12Z</time>
      </trkpt>
      <trkpt lat="44.98166" lon="5.27373">
        <ele>404.49395751953</ele>
        <time>2011-05-25T13:16:19Z</time>
      </trkpt>
      <trkpt lat="44.98146" lon="5.27349">
        <ele>414.52545166016</ele>
        <time>2011-05-25T13:16:25Z</time>
      </trkpt>
      <trkpt lat="44.98122" lon="5.27314">
        <ele>419</ele>
        <time>2011-05-25T13:16:33Z</time>
      </trkpt>
      <trkpt lat="44.98093" lon="5.27293">
        <ele>419</ele>
        <time>2011-05-25T13:16:40Z</time>
      </trkpt>
      <trkpt lat="44.98079" lon="5.2729">
        <ele>419</ele>
        <time>2011-05-25T13:16:43Z</time>
      </trkpt>
      <trkpt lat="44.98042" lon="5.27299">
        <ele>418.37652587891</ele>
        <time>2011-05-25T13:16:51Z</time>
      </trkpt>
      <trkpt lat="44.98007" lon="5.27321">
        <ele>415.4592590332</ele>
        <time>2011-05-25T13:16:58Z</time>
      </trkpt>
      <trkpt lat="44.97967" lon="5.27348">
        <ele>412.46231079102</ele>
        <time>2011-05-25T13:17:06Z</time>
      </trkpt>
      <trkpt lat="44.97916" lon="5.27382">
        <ele>407.96112060547</ele>
        <time>2011-05-25T13:17:16Z</time>
      </trkpt>
      <trkpt lat="44.97878" lon="5.27417">
        <ele>412.046875</ele>
        <time>2011-05-25T13:17:24Z</time>
      </trkpt>
      <trkpt lat="44.9784" lon="5.27455">
        <ele>419.44955444336</ele>
        <time>2011-05-25T13:17:33Z</time>
      </trkpt>
      <trkpt lat="44.97822" lon="5.27461">
        <ele>421.06658935547</ele>
        <time>2011-05-25T13:17:37Z</time>
      </trkpt>
      <trkpt lat="44.97788" lon="5.27458">
        <ele>421.70404052734</ele>
        <time>2011-05-25T13:17:44Z</time>
      </trkpt>
      <trkpt lat="44.97747" lon="5.27444">
        <ele>421.38995361328</ele>
        <time>2011-05-25T13:17:53Z</time>
      </trkpt>
      <trkpt lat="44.97716" lon="5.27425">
        <ele>423.51593017578</ele>
        <time>2011-05-25T13:18:00Z</time>
      </trkpt>
      <trkpt lat="44.97689" lon="5.27402">
        <ele>423.21694946289</ele>
        <time>2011-05-25T13:18:07Z</time>
      </trkpt>
      <trkpt lat="44.97661" lon="5.27375">
        <ele>422.23986816406</ele>
        <time>2011-05-25T13:18:15Z</time>
      </trkpt>
      <trkpt lat="44.97625" lon="5.27348">
        <ele>419.63748168945</ele>
        <time>2011-05-25T13:18:24Z</time>
      </trkpt>
      <trkpt lat="44.9762" lon="5.27346">
        <ele>419.19802856445</ele>
        <time>2011-05-25T13:18:25Z</time>
      </trkpt>
      <trkpt lat="44.97594" lon="5.27348">
        <ele>418.5251159668</ele>
        <time>2011-05-25T13:18:31Z</time>
      </trkpt>
      <trkpt lat="44.97576" lon="5.27365">
        <ele>419.6467590332</ele>
        <time>2011-05-25T13:18:36Z</time>
      </trkpt>
      <trkpt lat="44.97557" lon="5.27406">
        <ele>421.84848022461</ele>
        <time>2011-05-25T13:18:44Z</time>
      </trkpt>
      <trkpt lat="44.97543" lon="5.27444">
        <ele>422.67767333984</ele>
        <time>2011-05-25T13:18:51Z</time>
      </trkpt>
      <trkpt lat="44.97531" lon="5.2749">
        <ele>425.34704589844</ele>
        <time>2011-05-25T13:18:59Z</time>
      </trkpt>
      <trkpt lat="44.97529" lon="5.27509">
        <ele>426.771484375</ele>
        <time>2011-05-25T13:19:02Z</time>
      </trkpt>
      <trkpt lat="44.97528" lon="5.27571">
        <ele>432.11407470703</ele>
        <time>2011-05-25T13:19:12Z</time>
      </trkpt>
      <trkpt lat="44.97529" lon="5.27645">
        <ele>439.52484130859</ele>
        <time>2011-05-25T13:19:24Z</time>
      </trkpt>
      <trkpt lat="44.97522" lon="5.27691">
        <ele>443.0227355957</ele>
        <time>2011-05-25T13:19:32Z</time>
      </trkpt>
      <trkpt lat="44.97506" lon="5.27734">
        <ele>444.89340209961</ele>
        <time>2011-05-25T13:19:40Z</time>
      </trkpt>
      <trkpt lat="44.97479" lon="5.27778">
        <ele>447.78894042969</ele>
        <time>2011-05-25T13:19:50Z</time>
      </trkpt>
      <trkpt lat="44.97461" lon="5.2781">
        <ele>447.82046508789</ele>
        <time>2011-05-25T13:19:57Z</time>
      </trkpt>
      <trkpt lat="44.97446" lon="5.27831">
        <ele>448.78491210938</ele>
        <time>2011-05-25T13:20:02Z</time>
      </trkpt>
      <trkpt lat="44.97426" lon="5.27844">
        <ele>448.42864990234</ele>
        <time>2011-05-25T13:20:07Z</time>
      </trkpt>
      <trkpt lat="44.97388" lon="5.27841">
        <ele>445.47262573242</ele>
        <time>2011-05-25T13:20:16Z</time>
      </trkpt>
      <trkpt lat="44.97353" lon="5.27837">
        <ele>442.63677978516</ele>
        <time>2011-05-25T13:20:24Z</time>
      </trkpt>
      <trkpt lat="44.97317" lon="5.27846">
        <ele>439.55932617188</ele>
        <time>2011-05-25T13:20:32Z</time>
      </trkpt>
      <trkpt lat="44.97289" lon="5.27866">
        <ele>435.76272583008</ele>
        <time>2011-05-25T13:20:39Z</time>
      </trkpt>
      <trkpt lat="44.97268" lon="5.27894">
        <ele>435.38714599609</ele>
        <time>2011-05-25T13:20:45Z</time>
      </trkpt>
      <trkpt lat="44.97242" lon="5.27944">
        <ele>437.67852783203</ele>
        <time>2011-05-25T13:20:53Z</time>
      </trkpt>
      <trkpt lat="44.97223" lon="5.27985">
        <ele>441.07302856445</ele>
        <time>2011-05-25T13:20:58Z</time>
      </trkpt>
      <trkpt lat="44.97219" lon="5.27994">
        <ele>441.41802978516</ele>
        <time>2011-05-25T13:20:59Z</time>
      </trkpt>
      <trkpt lat="44.97206" lon="5.28021">
        <ele>444.2353515625</ele>
        <time>2011-05-25T13:21:02Z</time>
      </trkpt>
      <trkpt lat="44.97174" lon="5.28074">
        <ele>449.52896118164</ele>
        <time>2011-05-25T13:21:08Z</time>
      </trkpt>
      <trkpt lat="44.97143" lon="5.28131">
        <ele>453.84658813477</ele>
        <time>2011-05-25T13:21:14Z</time>
      </trkpt>
      <trkpt lat="44.97138" lon="5.28141">
        <ele>454.12796020508</ele>
        <time>2011-05-25T13:21:15Z</time>
      </trkpt>
      <trkpt lat="44.97107" lon="5.28169">
        <ele>455.20318603516</ele>
        <time>2011-05-25T13:21:19Z</time>
      </trkpt>
      <trkpt lat="44.97075" lon="5.28201">
        <ele>456.76995849609</ele>
        <time>2011-05-25T13:21:23Z</time>
      </trkpt>
      <trkpt lat="44.97066" lon="5.28205">
        <ele>456.6162109375</ele>
        <time>2011-05-25T13:21:24Z</time>
      </trkpt>
      <trkpt lat="44.97041" lon="5.28195">
        <ele>458.17517089844</ele>
        <time>2011-05-25T13:21:27Z</time>
      </trkpt>
      <trkpt lat="44.97026" lon="5.28174">
        <ele>459.80947875977</ele>
        <time>2011-05-25T13:21:29Z</time>
      </trkpt>
      <trkpt lat="44.97023" lon="5.2814">
        <ele>459.32971191406</ele>
        <time>2011-05-25T13:21:32Z</time>
      </trkpt>
      <trkpt lat="44.97028" lon="5.28119">
        <ele>457.26641845703</ele>
        <time>2011-05-25T13:21:34Z</time>
      </trkpt>
      <trkpt lat="44.97036" lon="5.281">
        <ele>455.21084594727</ele>
        <time>2011-05-25T13:21:36Z</time>
      </trkpt>
      <trkpt lat="44.97054" lon="5.28039">
        <ele>450.52264404297</ele>
        <time>2011-05-25T13:21:43Z</time>
      </trkpt>
      <trkpt lat="44.97056" lon="5.28031">
        <ele>450.11312866211</ele>
        <time>2011-05-25T13:21:44Z</time>
      </trkpt>
      <trkpt lat="44.97054" lon="5.27996">
        <ele>449.06011962891</ele>
        <time>2011-05-25T13:21:49Z</time>
      </trkpt>
      <trkpt lat="44.97042" lon="5.27975">
        <ele>449.49957275391</ele>
        <time>2011-05-25T13:21:53Z</time>
      </trkpt>
      <trkpt lat="44.97028" lon="5.27958">
        <ele>449.94589233398</ele>
        <time>2011-05-25T13:21:57Z</time>
      </trkpt>
      <trkpt lat="44.9701" lon="5.27938">
        <ele>453.22357177734</ele>
        <time>2011-05-25T13:22:02Z</time>
      </trkpt>
      <trkpt lat="44.96997" lon="5.27904">
        <ele>454.22650146484</ele>
        <time>2011-05-25T13:22:08Z</time>
      </trkpt>
      <trkpt lat="44.96989" lon="5.27872">
        <ele>452.58157348633</ele>
        <time>2011-05-25T13:22:12Z</time>
      </trkpt>
      <trkpt lat="44.96976" lon="5.27813">
        <ele>450.42407226562</ele>
        <time>2011-05-25T13:22:18Z</time>
      </trkpt>
      <trkpt lat="44.96973" lon="5.27803">
        <ele>449.73419189453</ele>
        <time>2011-05-25T13:22:19Z</time>
      </trkpt>
      <trkpt lat="44.96947" lon="5.27753">
        <ele>449.0491027832</ele>
        <time>2011-05-25T13:22:24Z</time>
      </trkpt>
      <trkpt lat="44.9692" lon="5.27708">
        <ele>449.07836914062</ele>
        <time>2011-05-25T13:22:29Z</time>
      </trkpt>
      <trkpt lat="44.96903" lon="5.27683">
        <ele>448.9326171875</ele>
        <time>2011-05-25T13:22:32Z</time>
      </trkpt>
      <trkpt lat="44.96884" lon="5.27648">
        <ele>449.56689453125</ele>
        <time>2011-05-25T13:22:36Z</time>
      </trkpt>
      <trkpt lat="44.96872" lon="5.27608">
        <ele>450.22457885742</ele>
        <time>2011-05-25T13:22:40Z</time>
      </trkpt>
      <trkpt lat="44.96866" lon="5.27578">
        <ele>449.02346801758</ele>
        <time>2011-05-25T13:22:43Z</time>
      </trkpt>
      <trkpt lat="44.96845" lon="5.27536">
        <ele>448.931640625</ele>
        <time>2011-05-25T13:22:48Z</time>
      </trkpt>
      <trkpt lat="44.96803" lon="5.27493">
        <ele>453.05465698242</ele>
        <time>2011-05-25T13:22:55Z</time>
      </trkpt>
      <trkpt lat="44.96767" lon="5.27457">
        <ele>462.3635559082</ele>
        <time>2011-05-25T13:23:01Z</time>
      </trkpt>
      <trkpt lat="44.96751" lon="5.27423">
        <ele>467.5315246582</ele>
        <time>2011-05-25T13:23:05Z</time>
      </trkpt>
      <trkpt lat="44.96752" lon="5.27392">
        <ele>469.22268676758</ele>
        <time>2011-05-25T13:23:08Z</time>
      </trkpt>
      <trkpt lat="44.96763" lon="5.27365">
        <ele>467.63717651367</ele>
        <time>2011-05-25T13:23:11Z</time>
      </trkpt>
      <trkpt lat="44.96796" lon="5.27302">
        <ele>465.00540161133</ele>
        <time>2011-05-25T13:23:19Z</time>
      </trkpt>
      <trkpt lat="44.9683" lon="5.27235">
        <ele>463.91577148438</ele>
        <time>2011-05-25T13:23:28Z</time>
      </trkpt>
      <trkpt lat="44.96835" lon="5.27194">
        <ele>464.73635864258</ele>
        <time>2011-05-25T13:23:33Z</time>
      </trkpt>
      <trkpt lat="44.96828" lon="5.27155">
        <ele>467.39904785156</ele>
        <time>2011-05-25T13:23:38Z</time>
      </trkpt>
      <trkpt lat="44.96825" lon="5.27148">
        <ele>467.58615112305</ele>
        <time>2011-05-25T13:23:39Z</time>
      </trkpt>
      <trkpt lat="44.96793" lon="5.2709">
        <ele>468.71762084961</ele>
        <time>2011-05-25T13:23:48Z</time>
      </trkpt>
      <trkpt lat="44.96763" lon="5.27064">
        <ele>470.16473388672</ele>
        <time>2011-05-25T13:23:54Z</time>
      </trkpt>
      <trkpt lat="44.96725" lon="5.27048">
        <ele>471.9694519043</ele>
        <time>2011-05-25T13:24:01Z</time>
      </trkpt>
      <trkpt lat="44.96693" lon="5.27048">
        <ele>473.14959716797</ele>
        <time>2011-05-25T13:24:07Z</time>
      </trkpt>
      <trkpt lat="44.96658" lon="5.27061">
        <ele>474.45880126953</ele>
        <time>2011-05-25T13:24:15Z</time>
      </trkpt>
      <trkpt lat="44.9663" lon="5.27083">
        <ele>477.35678100586</ele>
        <time>2011-05-25T13:24:22Z</time>
      </trkpt>
      <trkpt lat="44.9661" lon="5.27106">
        <ele>479.255859375</ele>
        <time>2011-05-25T13:24:28Z</time>
      </trkpt>
      <trkpt lat="44.96581" lon="5.27141">
        <ele>484.42462158203</ele>
        <time>2011-05-25T13:24:37Z</time>
      </trkpt>
      <trkpt lat="44.96568" lon="5.27158">
        <ele>487.13000488281</ele>
        <time>2011-05-25T13:24:41Z</time>
      </trkpt>
      <trkpt lat="44.96548" lon="5.27166">
        <ele>489.45428466797</ele>
        <time>2011-05-25T13:24:46Z</time>
      </trkpt>
      <trkpt lat="44.96534" lon="5.27151">
        <ele>488.82601928711</ele>
        <time>2011-05-25T13:24:50Z</time>
      </trkpt>
      <trkpt lat="44.96531" lon="5.27141">
        <ele>487.97802734375</ele>
        <time>2011-05-25T13:24:52Z</time>
      </trkpt>
      <trkpt lat="44.96518" lon="5.27098">
        <ele>483.97814941406</ele>
        <time>2011-05-25T13:25:00Z</time>
      </trkpt>
      <trkpt lat="44.96506" lon="5.27076">
        <ele>482.99920654297</ele>
        <time>2011-05-25T13:25:05Z</time>
      </trkpt>
      <trkpt lat="44.96487" lon="5.2706">
        <ele>484.96734619141</ele>
        <time>2011-05-25T13:25:10Z</time>
      </trkpt>
      <trkpt lat="44.96449" lon="5.27042">
        <ele>490.49475097656</ele>
        <time>2011-05-25T13:25:20Z</time>
      </trkpt>
      <trkpt lat="44.96416" lon="5.27036">
        <ele>491.7926940918</ele>
        <time>2011-05-25T13:25:29Z</time>
      </trkpt>
      <trkpt lat="44.96376" lon="5.27033">
        <ele>490.50979614258</ele>
        <time>2011-05-25T13:25:39Z</time>
      </trkpt>
      <trkpt lat="44.96344" lon="5.2703">
        <ele>491.1159362793</ele>
        <time>2011-05-25T13:25:47Z</time>
      </trkpt>
      <trkpt lat="44.96321" lon="5.27028">
        <ele>493.27954101562</ele>
        <time>2011-05-25T13:25:53Z</time>
      </trkpt>
      <trkpt lat="44.96291" lon="5.27027">
        <ele>499.42028808594</ele>
        <time>2011-05-25T13:26:00Z</time>
      </trkpt>
      <trkpt lat="44.96277" lon="5.27025">
        <ele>502.76470947266</ele>
        <time>2011-05-25T13:26:03Z</time>
      </trkpt>
      <trkpt lat="44.96253" lon="5.27011">
        <ele>502.93981933594</ele>
        <time>2011-05-25T13:26:08Z</time>
      </trkpt>
      <trkpt lat="44.96249" lon="5.27006">
        <ele>502.72009277344</ele>
        <time>2011-05-25T13:26:09Z</time>
      </trkpt>
      <trkpt lat="44.96223" lon="5.26964">
        <ele>498.74090576172</ele>
        <time>2011-05-25T13:26:17Z</time>
      </trkpt>
      <trkpt lat="44.96221" lon="5.2696">
        <ele>498.2458190918</ele>
        <time>2011-05-25T13:26:18Z</time>
      </trkpt>
      <trkpt lat="44.96192" lon="5.26932">
        <ele>495.47607421875</ele>
        <time>2011-05-25T13:26:26Z</time>
      </trkpt>
      <trkpt lat="44.96161" lon="5.26919">
        <ele>495.10385131836</ele>
        <time>2011-05-25T13:26:33Z</time>
      </trkpt>
      <trkpt lat="44.96156" lon="5.26918">
        <ele>495.38195800781</ele>
        <time>2011-05-25T13:26:34Z</time>
      </trkpt>
      <trkpt lat="44.96134" lon="5.26922">
        <ele>498.62344360352</ele>
        <time>2011-05-25T13:26:39Z</time>
      </trkpt>
      <trkpt lat="44.96098" lon="5.26946">
        <ele>506.12121582031</ele>
        <time>2011-05-25T13:26:48Z</time>
      </trkpt>
      <trkpt lat="44.9608" lon="5.26967">
        <ele>509.9973449707</ele>
        <time>2011-05-25T13:26:55Z</time>
      </trkpt>
      <trkpt lat="44.96062" lon="5.26988">
        <ele>516.35302734375</ele>
        <time>2011-05-25T13:27:02Z</time>
      </trkpt>
      <trkpt lat="44.96045" lon="5.26993">
        <ele>520.05798339844</ele>
        <time>2011-05-25T13:27:07Z</time>
      </trkpt>
      <trkpt lat="44.96028" lon="5.26982">
        <ele>520.03393554688</ele>
        <time>2011-05-25T13:27:12Z</time>
      </trkpt>
      <trkpt lat="44.96012" lon="5.26963">
        <ele>516.69885253906</ele>
        <time>2011-05-25T13:27:18Z</time>
      </trkpt>
      <trkpt lat="44.95993" lon="5.26945">
        <ele>514.28729248047</ele>
        <time>2011-05-25T13:27:25Z</time>
      </trkpt>
      <trkpt lat="44.95969" lon="5.26933">
        <ele>512.18572998047</ele>
        <time>2011-05-25T13:27:32Z</time>
      </trkpt>
      <trkpt lat="44.95943" lon="5.26935">
        <ele>512.24102783203</ele>
        <time>2011-05-25T13:27:39Z</time>
      </trkpt>
      <trkpt lat="44.95921" lon="5.26946">
        <ele>512.64428710938</ele>
        <time>2011-05-25T13:27:46Z</time>
      </trkpt>
      <trkpt lat="44.95893" lon="5.26961">
        <ele>512.07678222656</ele>
        <time>2011-05-25T13:27:54Z</time>
      </trkpt>
      <trkpt lat="44.95866" lon="5.26978">
        <ele>515.13800048828</ele>
        <time>2011-05-25T13:28:02Z</time>
      </trkpt>
      <trkpt lat="44.95838" lon="5.26995">
        <ele>518.54620361328</ele>
        <time>2011-05-25T13:28:10Z</time>
      </trkpt>
      <trkpt lat="44.95802" lon="5.27015">
        <ele>520.00946044922</ele>
        <time>2011-05-25T13:28:20Z</time>
      </trkpt>
      <trkpt lat="44.95766" lon="5.27037">
        <ele>526.90167236328</ele>
        <time>2011-05-25T13:28:30Z</time>
      </trkpt>
      <trkpt lat="44.95719" lon="5.27066">
        <ele>536.97833251953</ele>
        <time>2011-05-25T13:28:43Z</time>
      </trkpt>
      <trkpt lat="44.95689" lon="5.27078">
        <ele>541.03723144531</ele>
        <time>2011-05-25T13:28:51Z</time>
      </trkpt>
      <trkpt lat="44.95666" lon="5.27074">
        <ele>541.96893310547</ele>
        <time>2011-05-25T13:28:57Z</time>
      </trkpt>
      <trkpt lat="44.95642" lon="5.27061">
        <ele>540.95617675781</ele>
        <time>2011-05-25T13:29:03Z</time>
      </trkpt>
      <trkpt lat="44.95604" lon="5.27043">
        <ele>540.30920410156</ele>
        <time>2011-05-25T13:29:13Z</time>
      </trkpt>
      <trkpt lat="44.95576" lon="5.27039">
        <ele>541.7041015625</ele>
        <time>2011-05-25T13:29:20Z</time>
      </trkpt>
      <trkpt lat="44.95541" lon="5.27039">
        <ele>545.85852050781</ele>
        <time>2011-05-25T13:29:29Z</time>
      </trkpt>
      <trkpt lat="44.95528" lon="5.27037">
        <ele>547.57080078125</ele>
        <time>2011-05-25T13:29:32Z</time>
      </trkpt>
      <trkpt lat="44.95513" lon="5.27018">
        <ele>548.14025878906</ele>
        <time>2011-05-25T13:29:37Z</time>
      </trkpt>
      <trkpt lat="44.95513" lon="5.26999">
        <ele>547.40118408203</ele>
        <time>2011-05-25T13:29:41Z</time>
      </trkpt>
      <trkpt lat="44.9552" lon="5.26979">
        <ele>547.80804443359</ele>
        <time>2011-05-25T13:29:45Z</time>
      </trkpt>
      <trkpt lat="44.95541" lon="5.26946">
        <ele>545.01452636719</ele>
        <time>2011-05-25T13:29:53Z</time>
      </trkpt>
      <trkpt lat="44.95555" lon="5.26921">
        <ele>543.79089355469</ele>
        <time>2011-05-25T13:29:59Z</time>
      </trkpt>
      <trkpt lat="44.95567" lon="5.2689">
        <ele>544.23315429688</ele>
        <time>2011-05-25T13:30:06Z</time>
      </trkpt>
      <trkpt lat="44.95572" lon="5.26867">
        <ele>545.24249267578</ele>
        <time>2011-05-25T13:30:11Z</time>
      </trkpt>
      <trkpt lat="44.95571" lon="5.26828">
        <ele>548.15386962891</ele>
        <time>2011-05-25T13:30:19Z</time>
      </trkpt>
      <trkpt lat="44.95564" lon="5.26785">
        <ele>552.34924316406</ele>
        <time>2011-05-25T13:30:28Z</time>
      </trkpt>
      <trkpt lat="44.95552" lon="5.26754">
        <ele>556.58752441406</ele>
        <time>2011-05-25T13:30:35Z</time>
      </trkpt>
      <trkpt lat="44.95535" lon="5.26711">
        <ele>563.98400878906</ele>
        <time>2011-05-25T13:30:45Z</time>
      </trkpt>
      <trkpt lat="44.95522" lon="5.26678">
        <ele>568.49829101562</ele>
        <time>2011-05-25T13:30:53Z</time>
      </trkpt>
      <trkpt lat="44.95512" lon="5.26647">
        <ele>572.05511474609</ele>
        <time>2011-05-25T13:31:00Z</time>
      </trkpt>
      <trkpt lat="44.95502" lon="5.26621">
        <ele>574.06958007812</ele>
        <time>2011-05-25T13:31:06Z</time>
      </trkpt>
      <trkpt lat="44.95493" lon="5.26585">
        <ele>576.14453125</ele>
        <time>2011-05-25T13:31:14Z</time>
      </trkpt>
      <trkpt lat="44.95488" lon="5.26559">
        <ele>575.82214355469</ele>
        <time>2011-05-25T13:31:20Z</time>
      </trkpt>
      <trkpt lat="44.95479" lon="5.26523">
        <ele>577.68139648438</ele>
        <time>2011-05-25T13:31:28Z</time>
      </trkpt>
      <trkpt lat="44.9547" lon="5.26503">
        <ele>578.60278320312</ele>
        <time>2011-05-25T13:31:33Z</time>
      </trkpt>
      <trkpt lat="44.95451" lon="5.26474">
        <ele>580.69018554688</ele>
        <time>2011-05-25T13:31:41Z</time>
      </trkpt>
      <trkpt lat="44.95432" lon="5.26453">
        <ele>584.46643066406</ele>
        <time>2011-05-25T13:31:48Z</time>
      </trkpt>
      <trkpt lat="44.95417" lon="5.26435">
        <ele>587.55975341797</ele>
        <time>2011-05-25T13:31:54Z</time>
      </trkpt>
      <trkpt lat="44.95414" lon="5.26432">
        <ele>587.85125732422</ele>
        <time>2011-05-25T13:31:55Z</time>
      </trkpt>
      <trkpt lat="44.95405" lon="5.26438">
        <ele>589.33343505859</ele>
        <time>2011-05-25T13:31:59Z</time>
      </trkpt>
      <trkpt lat="44.9541" lon="5.26456">
        <ele>589.40063476562</ele>
        <time>2011-05-25T13:32:03Z</time>
      </trkpt>
      <trkpt lat="44.95425" lon="5.265">
        <ele>588.79443359375</ele>
        <time>2011-05-25T13:32:12Z</time>
      </trkpt>
      <trkpt lat="44.9543" lon="5.26544">
        <ele>589.609375</ele>
        <time>2011-05-25T13:32:20Z</time>
      </trkpt>
      <trkpt lat="44.95424" lon="5.26575">
        <ele>592.87036132812</ele>
        <time>2011-05-25T13:32:26Z</time>
      </trkpt>
      <trkpt lat="44.95412" lon="5.26615">
        <ele>595.75988769531</ele>
        <time>2011-05-25T13:32:34Z</time>
      </trkpt>
      <trkpt lat="44.95411" lon="5.26656">
        <ele>595.62823486328</ele>
        <time>2011-05-25T13:32:42Z</time>
      </trkpt>
      <trkpt lat="44.95416" lon="5.26695">
        <ele>593.15222167969</ele>
        <time>2011-05-25T13:32:50Z</time>
      </trkpt>
      <trkpt lat="44.95419" lon="5.26718">
        <ele>590.90734863281</ele>
        <time>2011-05-25T13:32:55Z</time>
      </trkpt>
      <trkpt lat="44.95419" lon="5.2674">
        <ele>589.95428466797</ele>
        <time>2011-05-25T13:33:00Z</time>
      </trkpt>
      <trkpt lat="44.95411" lon="5.26761">
        <ele>590.96496582031</ele>
        <time>2011-05-25T13:33:05Z</time>
      </trkpt>
      <trkpt lat="44.95392" lon="5.26782">
        <ele>594.75604248047</ele>
        <time>2011-05-25T13:33:12Z</time>
      </trkpt>
      <trkpt lat="44.95365" lon="5.26803">
        <ele>604.53619384766</ele>
        <time>2011-05-25T13:33:21Z</time>
      </trkpt>
      <trkpt lat="44.95344" lon="5.2682">
        <ele>614.97045898438</ele>
        <time>2011-05-25T13:33:28Z</time>
      </trkpt>
      <trkpt lat="44.95324" lon="5.26849">
        <ele>622.03778076172</ele>
        <time>2011-05-25T13:33:37Z</time>
      </trkpt>
      <trkpt lat="44.95312" lon="5.26881">
        <ele>622.6220703125</ele>
        <time>2011-05-25T13:33:45Z</time>
      </trkpt>
      <trkpt lat="44.95304" lon="5.26908">
        <ele>621.19848632812</ele>
        <time>2011-05-25T13:33:52Z</time>
      </trkpt>
      <trkpt lat="44.95303" lon="5.2691">
        <ele>621.00885009766</ele>
        <time>2011-05-25T13:33:55Z</time>
      </trkpt>
      <trkpt lat="44.953" lon="5.26907">
        <ele>623.23107910156</ele>
        <time>2011-05-25T13:34:27Z</time>
      </trkpt>
      <trkpt lat="44.95299" lon="5.26907">
        <ele>623.70892333984</ele>
        <time>2011-05-25T13:34:28Z</time>
      </trkpt>
      <trkpt lat="44.95292" lon="5.2692">
        <ele>624.75439453125</ele>
        <time>2011-05-25T13:34:34Z</time>
      </trkpt>
      <trkpt lat="44.95278" lon="5.26947">
        <ele>622.57635498047</ele>
        <time>2011-05-25T13:34:41Z</time>
      </trkpt>
      <trkpt lat="44.95261" lon="5.26971">
        <ele>626.900390625</ele>
        <time>2011-05-25T13:34:48Z</time>
      </trkpt>
      <trkpt lat="44.9525" lon="5.2697">
        <ele>632.873046875</ele>
        <time>2011-05-25T13:34:52Z</time>
      </trkpt>
      <trkpt lat="44.95245" lon="5.26964">
        <ele>635.91455078125</ele>
        <time>2011-05-25T13:34:55Z</time>
      </trkpt>
      <trkpt lat="44.95251" lon="5.26944">
        <ele>639.15447998047</ele>
        <time>2011-05-25T13:35:01Z</time>
      </trkpt>
      <trkpt lat="44.95257" lon="5.26922">
        <ele>639.25073242188</ele>
        <time>2011-05-25T13:35:07Z</time>
      </trkpt>
      <trkpt lat="44.95267" lon="5.26888">
        <ele>642.00537109375</ele>
        <time>2011-05-25T13:35:15Z</time>
      </trkpt>
      <trkpt lat="44.95274" lon="5.2686">
        <ele>640.95715332031</ele>
        <time>2011-05-25T13:35:21Z</time>
      </trkpt>
      <trkpt lat="44.95272" lon="5.26831">
        <ele>643.4375</ele>
        <time>2011-05-25T13:35:27Z</time>
      </trkpt>
      <trkpt lat="44.95267" lon="5.26796">
        <ele>646.07861328125</ele>
        <time>2011-05-25T13:35:34Z</time>
      </trkpt>
      <trkpt lat="44.95264" lon="5.26772">
        <ele>648.35327148438</ele>
        <time>2011-05-25T13:35:39Z</time>
      </trkpt>
      <trkpt lat="44.95263" lon="5.26755">
        <ele>649.90856933594</ele>
        <time>2011-05-25T13:35:43Z</time>
      </trkpt>
      <trkpt lat="44.9525" lon="5.26724">
        <ele>653.17694091797</ele>
        <time>2011-05-25T13:35:49Z</time>
      </trkpt>
      <trkpt lat="44.95236" lon="5.26697">
        <ele>654.2607421875</ele>
        <time>2011-05-25T13:35:54Z</time>
      </trkpt>
      <trkpt lat="44.95229" lon="5.26674">
        <ele>654.81707763672</ele>
        <time>2011-05-25T13:35:59Z</time>
      </trkpt>
      <trkpt lat="44.9522" lon="5.26649">
        <ele>655.33752441406</ele>
        <time>2011-05-25T13:36:05Z</time>
      </trkpt>
      <trkpt lat="44.95213" lon="5.26629">
        <ele>655.85485839844</ele>
        <time>2011-05-25T13:36:09Z</time>
      </trkpt>
      <trkpt lat="44.95207" lon="5.26603">
        <ele>656.02624511719</ele>
        <time>2011-05-25T13:36:15Z</time>
      </trkpt>
      <trkpt lat="44.95202" lon="5.26577">
        <ele>656.24627685547</ele>
        <time>2011-05-25T13:36:21Z</time>
      </trkpt>
      <trkpt lat="44.95198" lon="5.26544">
        <ele>654.75549316406</ele>
        <time>2011-05-25T13:36:28Z</time>
      </trkpt>
      <trkpt lat="44.95193" lon="5.26501">
        <ele>653.30627441406</ele>
        <time>2011-05-25T13:36:36Z</time>
      </trkpt>
      <trkpt lat="44.95191" lon="5.26468">
        <ele>650.47009277344</ele>
        <time>2011-05-25T13:36:43Z</time>
      </trkpt>
      <trkpt lat="44.95188" lon="5.26444">
        <ele>649.90960693359</ele>
        <time>2011-05-25T13:36:48Z</time>
      </trkpt>
      <trkpt lat="44.95185" lon="5.26415">
        <ele>647.66766357422</ele>
        <time>2011-05-25T13:36:54Z</time>
      </trkpt>
      <trkpt lat="44.95176" lon="5.26378">
        <ele>646.68939208984</ele>
        <time>2011-05-25T13:37:02Z</time>
      </trkpt>
      <trkpt lat="44.95162" lon="5.26345">
        <ele>646.17993164062</ele>
        <time>2011-05-25T13:37:10Z</time>
      </trkpt>
      <trkpt lat="44.95149" lon="5.26312">
        <ele>647.62408447266</ele>
        <time>2011-05-25T13:37:18Z</time>
      </trkpt>
      <trkpt lat="44.95135" lon="5.26284">
        <ele>649.53826904297</ele>
        <time>2011-05-25T13:37:26Z</time>
      </trkpt>
      <trkpt lat="44.95122" lon="5.26274">
        <ele>653.33923339844</ele>
        <time>2011-05-25T13:37:31Z</time>
      </trkpt>
      <trkpt lat="44.95116" lon="5.26275">
        <ele>655.27075195312</ele>
        <time>2011-05-25T13:37:33Z</time>
      </trkpt>
      <trkpt lat="44.95113" lon="5.26291">
        <ele>657.47247314453</ele>
        <time>2011-05-25T13:37:38Z</time>
      </trkpt>
      <trkpt lat="44.9512" lon="5.26324">
        <ele>657.04302978516</ele>
        <time>2011-05-25T13:37:46Z</time>
      </trkpt>
      <trkpt lat="44.95123" lon="5.26362">
        <ele>659.22259521484</ele>
        <time>2011-05-25T13:37:54Z</time>
      </trkpt>
      <trkpt lat="44.95112" lon="5.26392">
        <ele>664.80657958984</ele>
        <time>2011-05-25T13:38:00Z</time>
      </trkpt>
      <trkpt lat="44.95108" lon="5.26402">
        <ele>666.78411865234</ele>
        <time>2011-05-25T13:38:02Z</time>
      </trkpt>
      <trkpt lat="44.95103" lon="5.26424">
        <ele>669.79119873047</ele>
        <time>2011-05-25T13:38:06Z</time>
      </trkpt>
      <trkpt lat="44.95103" lon="5.26442">
        <ele>671.55432128906</ele>
        <time>2011-05-25T13:38:09Z</time>
      </trkpt>
      <trkpt lat="44.95097" lon="5.26493">
        <ele>676.83197021484</ele>
        <time>2011-05-25T13:38:18Z</time>
      </trkpt>
      <trkpt lat="44.95097" lon="5.2652">
        <ele>679.77655029297</ele>
        <time>2011-05-25T13:38:23Z</time>
      </trkpt>
      <trkpt lat="44.95102" lon="5.26549">
        <ele>681.08666992188</ele>
        <time>2011-05-25T13:38:29Z</time>
      </trkpt>
      <trkpt lat="44.95105" lon="5.26572">
        <ele>681.69647216797</ele>
        <time>2011-05-25T13:38:34Z</time>
      </trkpt>
      <trkpt lat="44.95108" lon="5.266">
        <ele>681.63787841797</ele>
        <time>2011-05-25T13:38:39Z</time>
      </trkpt>
      <trkpt lat="44.95103" lon="5.2662">
        <ele>685.47338867188</ele>
        <time>2011-05-25T13:38:43Z</time>
      </trkpt>
      <trkpt lat="44.95082" lon="5.26622">
        <ele>697.84814453125</ele>
        <time>2011-05-25T13:38:48Z</time>
      </trkpt>
      <trkpt lat="44.95052" lon="5.26624">
        <ele>708.11975097656</ele>
        <time>2011-05-25T13:38:55Z</time>
      </trkpt>
      <trkpt lat="44.95044" lon="5.2664">
        <ele>716.970703125</ele>
        <time>2011-05-25T13:38:59Z</time>
      </trkpt>
      <trkpt lat="44.95043" lon="5.2665">
        <ele>717.73229980469</ele>
        <time>2011-05-25T13:39:01Z</time>
      </trkpt>
      <trkpt lat="44.95048" lon="5.26682">
        <ele>715.88031005859</ele>
        <time>2011-05-25T13:39:08Z</time>
      </trkpt>
      <trkpt lat="44.95056" lon="5.26707">
        <ele>713.283203125</ele>
        <time>2011-05-25T13:39:13Z</time>
      </trkpt>
      <trkpt lat="44.95065" lon="5.26735">
        <ele>711.72827148438</ele>
        <time>2011-05-25T13:39:19Z</time>
      </trkpt>
      <trkpt lat="44.95071" lon="5.26758">
        <ele>709.45886230469</ele>
        <time>2011-05-25T13:39:24Z</time>
      </trkpt>
      <trkpt lat="44.95076" lon="5.26778">
        <ele>707.17755126953</ele>
        <time>2011-05-25T13:39:29Z</time>
      </trkpt>
      <trkpt lat="44.95082" lon="5.26802">
        <ele>705.41351318359</ele>
        <time>2011-05-25T13:39:34Z</time>
      </trkpt>
      <trkpt lat="44.95083" lon="5.2683">
        <ele>705.12463378906</ele>
        <time>2011-05-25T13:39:40Z</time>
      </trkpt>
      <trkpt lat="44.95075" lon="5.26844">
        <ele>705.79302978516</ele>
        <time>2011-05-25T13:39:45Z</time>
      </trkpt>
      <trkpt lat="44.95063" lon="5.26849">
        <ele>707.88391113281</ele>
        <time>2011-05-25T13:39:50Z</time>
      </trkpt>
      <trkpt lat="44.9505" lon="5.26851">
        <ele>710.33508300781</ele>
        <time>2011-05-25T13:39:55Z</time>
      </trkpt>
      <trkpt lat="44.9502" lon="5.26854">
        <ele>714.57727050781</ele>
        <time>2011-05-25T13:40:05Z</time>
      </trkpt>
      <trkpt lat="44.95001" lon="5.2686">
        <ele>716.98052978516</ele>
        <time>2011-05-25T13:40:11Z</time>
      </trkpt>
      <trkpt lat="44.94982" lon="5.2687">
        <ele>717.48956298828</ele>
        <time>2011-05-25T13:40:17Z</time>
      </trkpt>
      <trkpt lat="44.94965" lon="5.26884">
        <ele>717.88317871094</ele>
        <time>2011-05-25T13:40:23Z</time>
      </trkpt>
      <trkpt lat="44.9495" lon="5.26897">
        <ele>717.91748046875</ele>
        <time>2011-05-25T13:40:29Z</time>
      </trkpt>
      <trkpt lat="44.94935" lon="5.26913">
        <ele>717.62512207031</ele>
        <time>2011-05-25T13:40:36Z</time>
      </trkpt>
      <trkpt lat="44.94914" lon="5.26923">
        <ele>717.77581787109</ele>
        <time>2011-05-25T13:40:44Z</time>
      </trkpt>
      <trkpt lat="44.94891" lon="5.2693">
        <ele>717.53381347656</ele>
        <time>2011-05-25T13:40:53Z</time>
      </trkpt>
      <trkpt lat="44.9488" lon="5.26945">
        <ele>716.99133300781</ele>
        <time>2011-05-25T13:40:58Z</time>
      </trkpt>
      <trkpt lat="44.94873" lon="5.26962">
        <ele>716.36822509766</ele>
        <time>2011-05-25T13:41:02Z</time>
      </trkpt>
      <trkpt lat="44.94871" lon="5.26979">
        <ele>716.7744140625</ele>
        <time>2011-05-25T13:41:05Z</time>
      </trkpt>
      <trkpt lat="44.94871" lon="5.27012">
        <ele>720.04022216797</ele>
        <time>2011-05-25T13:41:10Z</time>
      </trkpt>
      <trkpt lat="44.94875" lon="5.27041">
        <ele>722.93896484375</ele>
        <time>2011-05-25T13:41:14Z</time>
      </trkpt>
      <trkpt lat="44.94891" lon="5.27084">
        <ele>728.57458496094</ele>
        <time>2011-05-25T13:41:20Z</time>
      </trkpt>
      <trkpt lat="44.94895" lon="5.27091">
        <ele>728.58062744141</ele>
        <time>2011-05-25T13:41:21Z</time>
      </trkpt>
      <trkpt lat="44.94923" lon="5.27133">
        <ele>729.37127685547</ele>
        <time>2011-05-25T13:41:28Z</time>
      </trkpt>
      <trkpt lat="44.94932" lon="5.27152">
        <ele>730.01629638672</ele>
        <time>2011-05-25T13:41:31Z</time>
      </trkpt>
      <trkpt lat="44.94934" lon="5.27158">
        <ele>730.20855712891</ele>
        <time>2011-05-25T13:41:32Z</time>
      </trkpt>
      <trkpt lat="44.94947" lon="5.2719">
        <ele>731.74743652344</ele>
        <time>2011-05-25T13:41:38Z</time>
      </trkpt>
      <trkpt lat="44.94953" lon="5.27207">
        <ele>731.90460205078</ele>
        <time>2011-05-25T13:41:41Z</time>
      </trkpt>
      <trkpt lat="44.94957" lon="5.27242">
        <ele>732.30395507812</ele>
        <time>2011-05-25T13:41:47Z</time>
      </trkpt>
      <trkpt lat="44.94962" lon="5.27286">
        <ele>731.74462890625</ele>
        <time>2011-05-25T13:41:55Z</time>
      </trkpt>
      <trkpt lat="44.94962" lon="5.27332">
        <ele>733.82745361328</ele>
        <time>2011-05-25T13:42:04Z</time>
      </trkpt>
      <trkpt lat="44.94959" lon="5.27362">
        <ele>738.37689208984</ele>
        <time>2011-05-25T13:42:10Z</time>
      </trkpt>
      <trkpt lat="44.94955" lon="5.27402">
        <ele>743.22619628906</ele>
        <time>2011-05-25T13:42:18Z</time>
      </trkpt>
      <trkpt lat="44.94947" lon="5.27439">
        <ele>749.61700439453</ele>
        <time>2011-05-25T13:42:26Z</time>
      </trkpt>
      <trkpt lat="44.94937" lon="5.27482">
        <ele>767.30407714844</ele>
        <time>2011-05-25T13:42:35Z</time>
      </trkpt>
      <trkpt lat="44.94941" lon="5.27507">
        <ele>772.62115478516</ele>
        <time>2011-05-25T13:42:40Z</time>
      </trkpt>
      <trkpt lat="44.94955" lon="5.27528">
        <ele>770.47302246094</ele>
        <time>2011-05-25T13:42:46Z</time>
      </trkpt>
      <trkpt lat="44.94979" lon="5.27547">
        <ele>767.28509521484</ele>
        <time>2011-05-25T13:42:54Z</time>
      </trkpt>
      <trkpt lat="44.94995" lon="5.2756">
        <ele>766.02435302734</ele>
        <time>2011-05-25T13:43:00Z</time>
      </trkpt>
      <trkpt lat="44.95007" lon="5.27567">
        <ele>764.08923339844</ele>
        <time>2011-05-25T13:43:04Z</time>
      </trkpt>
      <trkpt lat="44.95027" lon="5.27576">
        <ele>759.99682617188</ele>
        <time>2011-05-25T13:43:09Z</time>
      </trkpt>
      <trkpt lat="44.95055" lon="5.27585">
        <ele>753.08367919922</ele>
        <time>2011-05-25T13:43:16Z</time>
      </trkpt>
      <trkpt lat="44.95087" lon="5.27598">
        <ele>754.99066162109</ele>
        <time>2011-05-25T13:43:24Z</time>
      </trkpt>
      <trkpt lat="44.95121" lon="5.27609">
        <ele>757.85424804688</ele>
        <time>2011-05-25T13:43:32Z</time>
      </trkpt>
      <trkpt lat="44.95162" lon="5.27613">
        <ele>756.52020263672</ele>
        <time>2011-05-25T13:43:42Z</time>
      </trkpt>
      <trkpt lat="44.95166" lon="5.27613">
        <ele>756.65106201172</ele>
        <time>2011-05-25T13:43:43Z</time>
      </trkpt>
      <trkpt lat="44.95188" lon="5.27625">
        <ele>758.697265625</ele>
        <time>2011-05-25T13:43:49Z</time>
      </trkpt>
      <trkpt lat="44.95191" lon="5.27629">
        <ele>759.55187988281</ele>
        <time>2011-05-25T13:43:50Z</time>
      </trkpt>
      <trkpt lat="44.95221" lon="5.27669">
        <ele>765.77587890625</ele>
        <time>2011-05-25T13:44:01Z</time>
      </trkpt>
      <trkpt lat="44.95247" lon="5.27684">
        <ele>765.4267578125</ele>
        <time>2011-05-25T13:44:08Z</time>
      </trkpt>
      <trkpt lat="44.95267" lon="5.27694">
        <ele>765.31018066406</ele>
        <time>2011-05-25T13:44:14Z</time>
      </trkpt>
      <trkpt lat="44.95295" lon="5.27715">
        <ele>766.42883300781</ele>
        <time>2011-05-25T13:44:23Z</time>
      </trkpt>
      <trkpt lat="44.95323" lon="5.27744">
        <ele>772.85705566406</ele>
        <time>2011-05-25T13:44:33Z</time>
      </trkpt>
      <trkpt lat="44.95343" lon="5.27774">
        <ele>783.32409667969</ele>
        <time>2011-05-25T13:44:42Z</time>
      </trkpt>
      <trkpt lat="44.9536" lon="5.27801">
        <ele>788.60919189453</ele>
        <time>2011-05-25T13:44:50Z</time>
      </trkpt>
      <trkpt lat="44.95378" lon="5.27814">
        <ele>788.04809570312</ele>
        <time>2011-05-25T13:44:56Z</time>
      </trkpt>
      <trkpt lat="44.95397" lon="5.27811">
        <ele>783.53784179688</ele>
        <time>2011-05-25T13:45:01Z</time>
      </trkpt>
      <trkpt lat="44.95425" lon="5.27815">
        <ele>782.49438476562</ele>
        <time>2011-05-25T13:45:08Z</time>
      </trkpt>
      <trkpt lat="44.95459" lon="5.27824">
        <ele>782.04956054688</ele>
        <time>2011-05-25T13:45:16Z</time>
      </trkpt>
      <trkpt lat="44.95462" lon="5.27825">
        <ele>781.78137207031</ele>
        <time>2011-05-25T13:45:17Z</time>
      </trkpt>
      <trkpt lat="44.95495" lon="5.27833">
        <ele>782.89947509766</ele>
        <time>2011-05-25T13:45:25Z</time>
      </trkpt>
      <trkpt lat="44.95516" lon="5.27846">
        <ele>783.34387207031</ele>
        <time>2011-05-25T13:45:31Z</time>
      </trkpt>
      <trkpt lat="44.95539" lon="5.27869">
        <ele>786.91241455078</ele>
        <time>2011-05-25T13:45:37Z</time>
      </trkpt>
      <trkpt lat="44.9557" lon="5.27896">
        <ele>792.78656005859</ele>
        <time>2011-05-25T13:45:45Z</time>
      </trkpt>
      <trkpt lat="44.95596" lon="5.27908">
        <ele>793.81024169922</ele>
        <time>2011-05-25T13:45:51Z</time>
      </trkpt>
      <trkpt lat="44.95617" lon="5.27918">
        <ele>794.57995605469</ele>
        <time>2011-05-25T13:45:56Z</time>
      </trkpt>
      <trkpt lat="44.95644" lon="5.27926">
        <ele>793.23779296875</ele>
        <time>2011-05-25T13:46:02Z</time>
      </trkpt>
      <trkpt lat="44.95663" lon="5.27928">
        <ele>792.33660888672</ele>
        <time>2011-05-25T13:46:07Z</time>
      </trkpt>
      <trkpt lat="44.95686" lon="5.27925">
        <ele>788.08599853516</ele>
        <time>2011-05-25T13:46:13Z</time>
      </trkpt>
      <trkpt lat="44.95712" lon="5.27911">
        <ele>781.74975585938</ele>
        <time>2011-05-25T13:46:20Z</time>
      </trkpt>
      <trkpt lat="44.95738" lon="5.27886">
        <ele>772.00311279297</ele>
        <time>2011-05-25T13:46:28Z</time>
      </trkpt>
      <trkpt lat="44.95748" lon="5.27899">
        <ele>773.53186035156</ele>
        <time>2011-05-25T13:46:32Z</time>
      </trkpt>
      <trkpt lat="44.95742" lon="5.27906">
        <ele>776.17779541016</ele>
        <time>2011-05-25T13:46:34Z</time>
      </trkpt>
      <trkpt lat="44.95721" lon="5.27918">
        <ele>782.45562744141</ele>
        <time>2011-05-25T13:46:39Z</time>
      </trkpt>
      <trkpt lat="44.95695" lon="5.27942">
        <ele>790.33447265625</ele>
        <time>2011-05-25T13:46:46Z</time>
      </trkpt>
      <trkpt lat="44.95672" lon="5.27951">
        <ele>796.60485839844</ele>
        <time>2011-05-25T13:46:52Z</time>
      </trkpt>
      <trkpt lat="44.95653" lon="5.27958">
        <ele>801.89593505859</ele>
        <time>2011-05-25T13:46:58Z</time>
      </trkpt>
      <trkpt lat="44.95637" lon="5.27961">
        <ele>806.59008789062</ele>
        <time>2011-05-25T13:47:03Z</time>
      </trkpt>
      <trkpt lat="44.95624" lon="5.2796">
        <ele>808.80737304688</ele>
        <time>2011-05-25T13:47:07Z</time>
      </trkpt>
      <trkpt lat="44.95605" lon="5.27961">
        <ele>812.18774414062</ele>
        <time>2011-05-25T13:47:12Z</time>
      </trkpt>
      <trkpt lat="44.95587" lon="5.27961">
        <ele>812.63098144531</ele>
        <time>2011-05-25T13:47:18Z</time>
      </trkpt>
      <trkpt lat="44.95572" lon="5.27958">
        <ele>814.26550292969</ele>
        <time>2011-05-25T13:47:23Z</time>
      </trkpt>
      <trkpt lat="44.95563" lon="5.27956">
        <ele>815.64685058594</ele>
        <time>2011-05-25T13:47:26Z</time>
      </trkpt>
      <trkpt lat="44.95553" lon="5.27956">
        <ele>817.48461914062</ele>
        <time>2011-05-25T13:47:30Z</time>
      </trkpt>
      <trkpt lat="44.95536" lon="5.27953">
        <ele>815.39898681641</ele>
        <time>2011-05-25T13:47:36Z</time>
      </trkpt>
      <trkpt lat="44.95522" lon="5.27951">
        <ele>815.12829589844</ele>
        <time>2011-05-25T13:47:41Z</time>
      </trkpt>
      <trkpt lat="44.955" lon="5.27949">
        <ele>819.41583251953</ele>
        <time>2011-05-25T13:47:47Z</time>
      </trkpt>
      <trkpt lat="44.95488" lon="5.2795">
        <ele>818.60980224609</ele>
        <time>2011-05-25T13:47:51Z</time>
      </trkpt>
      <trkpt lat="44.95464" lon="5.27949">
        <ele>814.61138916016</ele>
        <time>2011-05-25T13:47:58Z</time>
      </trkpt>
      <trkpt lat="44.95442" lon="5.27944">
        <ele>812.73638916016</ele>
        <time>2011-05-25T13:48:04Z</time>
      </trkpt>
      <trkpt lat="44.9541" lon="5.27941">
        <ele>829.89343261719</ele>
        <time>2011-05-25T13:48:12Z</time>
      </trkpt>
      <trkpt lat="44.95386" lon="5.27949">
        <ele>838.37634277344</ele>
        <time>2011-05-25T13:48:19Z</time>
      </trkpt>
      <trkpt lat="44.95383" lon="5.27951">
        <ele>839.92315673828</ele>
        <time>2011-05-25T13:48:20Z</time>
      </trkpt>
      <trkpt lat="44.95367" lon="5.2795">
        <ele>842.62719726562</ele>
        <time>2011-05-25T13:48:25Z</time>
      </trkpt>
      <trkpt lat="44.95347" lon="5.27931">
        <ele>840.44464111328</ele>
        <time>2011-05-25T13:48:32Z</time>
      </trkpt>
      <trkpt lat="44.95326" lon="5.27907">
        <ele>834.47418212891</ele>
        <time>2011-05-25T13:48:40Z</time>
      </trkpt>
      <trkpt lat="44.95313" lon="5.27899">
        <ele>832.17633056641</ele>
        <time>2011-05-25T13:48:44Z</time>
      </trkpt>
      <trkpt lat="44.95292" lon="5.27895">
        <ele>834.91357421875</ele>
        <time>2011-05-25T13:48:50Z</time>
      </trkpt>
      <trkpt lat="44.95271" lon="5.27887">
        <ele>836.58270263672</ele>
        <time>2011-05-25T13:48:56Z</time>
      </trkpt>
      <trkpt lat="44.95267" lon="5.27886">
        <ele>836.62731933594</ele>
        <time>2011-05-25T13:48:57Z</time>
      </trkpt>
      <trkpt lat="44.95235" lon="5.27868">
        <ele>832.86651611328</ele>
        <time>2011-05-25T13:49:05Z</time>
      </trkpt>
      <trkpt lat="44.95196" lon="5.27848">
        <ele>830.14624023438</ele>
        <time>2011-05-25T13:49:14Z</time>
      </trkpt>
      <trkpt lat="44.95168" lon="5.27838">
        <ele>828.64178466797</ele>
        <time>2011-05-25T13:49:21Z</time>
      </trkpt>
      <trkpt lat="44.95157" lon="5.27836">
        <ele>830.94860839844</ele>
        <time>2011-05-25T13:49:25Z</time>
      </trkpt>
      <trkpt lat="44.95137" lon="5.27829">
        <ele>832.251953125</ele>
        <time>2011-05-25T13:49:31Z</time>
      </trkpt>
      <trkpt lat="44.95118" lon="5.27824">
        <ele>833.40551757812</ele>
        <time>2011-05-25T13:49:36Z</time>
      </trkpt>
      <trkpt lat="44.95098" lon="5.27817">
        <ele>835.84484863281</ele>
        <time>2011-05-25T13:49:42Z</time>
      </trkpt>
      <trkpt lat="44.95079" lon="5.27812">
        <ele>840.08319091797</ele>
        <time>2011-05-25T13:49:48Z</time>
      </trkpt>
      <trkpt lat="44.95065" lon="5.2781">
        <ele>842.07104492188</ele>
        <time>2011-05-25T13:49:52Z</time>
      </trkpt>
      <trkpt lat="44.95042" lon="5.27808">
        <ele>846.53948974609</ele>
        <time>2011-05-25T13:49:58Z</time>
      </trkpt>
      <trkpt lat="44.95024" lon="5.27806">
        <ele>851.23315429688</ele>
        <time>2011-05-25T13:50:03Z</time>
      </trkpt>
      <trkpt lat="44.95004" lon="5.27805">
        <ele>855.77655029297</ele>
        <time>2011-05-25T13:50:09Z</time>
      </trkpt>
      <trkpt lat="44.94981" lon="5.27803">
        <ele>859.92633056641</ele>
        <time>2011-05-25T13:50:16Z</time>
      </trkpt>
      <trkpt lat="44.94968" lon="5.27803">
        <ele>862.84014892578</ele>
        <time>2011-05-25T13:50:20Z</time>
      </trkpt>
      <trkpt lat="44.94953" lon="5.27805">
        <ele>866.20983886719</ele>
        <time>2011-05-25T13:50:25Z</time>
      </trkpt>
      <trkpt lat="44.94928" lon="5.27806">
        <ele>871.14050292969</ele>
        <time>2011-05-25T13:50:32Z</time>
      </trkpt>
      <trkpt lat="44.94904" lon="5.27805">
        <ele>876.78527832031</ele>
        <time>2011-05-25T13:50:38Z</time>
      </trkpt>
      <trkpt lat="44.94872" lon="5.27791">
        <ele>881.65728759766</ele>
        <time>2011-05-25T13:50:47Z</time>
      </trkpt>
      <trkpt lat="44.94844" lon="5.27775">
        <ele>883.01025390625</ele>
        <time>2011-05-25T13:50:55Z</time>
      </trkpt>
      <trkpt lat="44.94813" lon="5.2776">
        <ele>882.42236328125</ele>
        <time>2011-05-25T13:51:04Z</time>
      </trkpt>
      <trkpt lat="44.9479" lon="5.27751">
        <ele>883.05236816406</ele>
        <time>2011-05-25T13:51:11Z</time>
      </trkpt>
      <trkpt lat="44.94769" lon="5.27737">
        <ele>882.69329833984</ele>
        <time>2011-05-25T13:51:18Z</time>
      </trkpt>
      <trkpt lat="44.94745" lon="5.27706">
        <ele>879.66589355469</ele>
        <time>2011-05-25T13:51:25Z</time>
      </trkpt>
      <trkpt lat="44.94732" lon="5.27685">
        <ele>876.58551025391</ele>
        <time>2011-05-25T13:51:30Z</time>
      </trkpt>
      <trkpt lat="44.94714" lon="5.27662">
        <ele>870.82177734375</ele>
        <time>2011-05-25T13:51:36Z</time>
      </trkpt>
      <trkpt lat="44.94691" lon="5.27649">
        <ele>867.82855224609</ele>
        <time>2011-05-25T13:51:43Z</time>
      </trkpt>
      <trkpt lat="44.94669" lon="5.27645">
        <ele>869.49859619141</ele>
        <time>2011-05-25T13:51:49Z</time>
      </trkpt>
      <trkpt lat="44.94651" lon="5.2765">
        <ele>874.35003662109</ele>
        <time>2011-05-25T13:51:55Z</time>
      </trkpt>
      <trkpt lat="44.94635" lon="5.27653">
        <ele>878.31774902344</ele>
        <time>2011-05-25T13:52:00Z</time>
      </trkpt>
      <trkpt lat="44.94619" lon="5.27655">
        <ele>880.87036132812</ele>
        <time>2011-05-25T13:52:05Z</time>
      </trkpt>
      <trkpt lat="44.94602" lon="5.27654">
        <ele>884.74658203125</ele>
        <time>2011-05-25T13:52:10Z</time>
      </trkpt>
      <trkpt lat="44.94586" lon="5.2765">
        <ele>888.095703125</ele>
        <time>2011-05-25T13:52:15Z</time>
      </trkpt>
      <trkpt lat="44.94567" lon="5.27646">
        <ele>893.59771728516</ele>
        <time>2011-05-25T13:52:20Z</time>
      </trkpt>
      <trkpt lat="44.94545" lon="5.27643">
        <ele>898.58032226562</ele>
        <time>2011-05-25T13:52:26Z</time>
      </trkpt>
      <trkpt lat="44.94525" lon="5.2764">
        <ele>901.41589355469</ele>
        <time>2011-05-25T13:52:32Z</time>
      </trkpt>
      <trkpt lat="44.94503" lon="5.27637">
        <ele>905.15795898438</ele>
        <time>2011-05-25T13:52:39Z</time>
      </trkpt>
      <trkpt lat="44.94482" lon="5.27629">
        <ele>904.98590087891</ele>
        <time>2011-05-25T13:52:46Z</time>
      </trkpt>
      <trkpt lat="44.94453" lon="5.27614">
        <ele>900.64666748047</ele>
        <time>2011-05-25T13:52:54Z</time>
      </trkpt>
      <trkpt lat="44.94431" lon="5.27603">
        <ele>898.27044677734</ele>
        <time>2011-05-25T13:53:01Z</time>
      </trkpt>
      <trkpt lat="44.9441" lon="5.27595">
        <ele>899.35778808594</ele>
        <time>2011-05-25T13:53:08Z</time>
      </trkpt>
      <trkpt lat="44.94389" lon="5.2759">
        <ele>903.853515625</ele>
        <time>2011-05-25T13:53:15Z</time>
      </trkpt>
      <trkpt lat="44.94365" lon="5.27585">
        <ele>903.46185302734</ele>
        <time>2011-05-25T13:53:23Z</time>
      </trkpt>
      <trkpt lat="44.94343" lon="5.2758">
        <ele>904.24963378906</ele>
        <time>2011-05-25T13:53:30Z</time>
      </trkpt>
      <trkpt lat="44.94337" lon="5.27583">
        <ele>905.55676269531</ele>
        <time>2011-05-25T13:53:32Z</time>
      </trkpt>
      <trkpt lat="44.94336" lon="5.27598">
        <ele>911.52313232422</ele>
        <time>2011-05-25T13:53:36Z</time>
      </trkpt>
      <trkpt lat="44.94345" lon="5.27603">
        <ele>912.51708984375</ele>
        <time>2011-05-25T13:53:39Z</time>
      </trkpt>
      <trkpt lat="44.94379" lon="5.2761">
        <ele>914.92553710938</ele>
        <time>2011-05-25T13:53:48Z</time>
      </trkpt>
      <trkpt lat="44.94398" lon="5.27619">
        <ele>918.06909179688</ele>
        <time>2011-05-25T13:53:54Z</time>
      </trkpt>
      <trkpt lat="44.94417" lon="5.27632">
        <ele>921.0078125</ele>
        <time>2011-05-25T13:53:59Z</time>
      </trkpt>
      <trkpt lat="44.94444" lon="5.27657">
        <ele>928.6005859375</ele>
        <time>2011-05-25T13:54:07Z</time>
      </trkpt>
      <trkpt lat="44.94463" lon="5.27673">
        <ele>934.39892578125</ele>
        <time>2011-05-25T13:54:13Z</time>
      </trkpt>
      <trkpt lat="44.94481" lon="5.27686">
        <ele>940.71008300781</ele>
        <time>2011-05-25T13:54:20Z</time>
      </trkpt>
      <trkpt lat="44.94497" lon="5.27693">
        <ele>941.70648193359</ele>
        <time>2011-05-25T13:54:26Z</time>
      </trkpt>
      <trkpt lat="44.9452" lon="5.27708">
        <ele>942.07006835938</ele>
        <time>2011-05-25T13:54:34Z</time>
      </trkpt>
      <trkpt lat="44.94538" lon="5.27718">
        <ele>941.59027099609</ele>
        <time>2011-05-25T13:54:41Z</time>
      </trkpt>
      <trkpt lat="44.94551" lon="5.27725">
        <ele>942.59484863281</ele>
        <time>2011-05-25T13:54:46Z</time>
      </trkpt>
      <trkpt lat="44.94571" lon="5.27735">
        <ele>942.77655029297</ele>
        <time>2011-05-25T13:54:53Z</time>
      </trkpt>
      <trkpt lat="44.9458" lon="5.27739">
        <ele>942.70239257812</ele>
        <time>2011-05-25T13:54:56Z</time>
      </trkpt>
      <trkpt lat="44.94591" lon="5.27744">
        <ele>942.21728515625</ele>
        <time>2011-05-25T13:55:00Z</time>
      </trkpt>
      <trkpt lat="44.94607" lon="5.27756">
        <ele>944.59564208984</ele>
        <time>2011-05-25T13:55:06Z</time>
      </trkpt>
      <trkpt lat="44.9462" lon="5.27765">
        <ele>946.90924072266</ele>
        <time>2011-05-25T13:55:12Z</time>
      </trkpt>
      <trkpt lat="44.94634" lon="5.27774">
        <ele>948.67144775391</ele>
        <time>2011-05-25T13:55:18Z</time>
      </trkpt>
      <trkpt lat="44.94645" lon="5.27783">
        <ele>949.458984375</ele>
        <time>2011-05-25T13:55:23Z</time>
      </trkpt>
      <trkpt lat="44.94664" lon="5.27801">
        <ele>948.92913818359</ele>
        <time>2011-05-25T13:55:30Z</time>
      </trkpt>
      <trkpt lat="44.94677" lon="5.27816">
        <ele>955.33746337891</ele>
        <time>2011-05-25T13:55:35Z</time>
      </trkpt>
      <trkpt lat="44.94691" lon="5.27833">
        <ele>964.25018310547</ele>
        <time>2011-05-25T13:55:40Z</time>
      </trkpt>
      <trkpt lat="44.94706" lon="5.27848">
        <ele>965.73345947266</ele>
        <time>2011-05-25T13:55:46Z</time>
      </trkpt>
      <trkpt lat="44.94724" lon="5.27864">
        <ele>965.31469726562</ele>
        <time>2011-05-25T13:55:54Z</time>
      </trkpt>
      <trkpt lat="44.94746" lon="5.27884">
        <ele>968.90759277344</ele>
        <time>2011-05-25T13:56:03Z</time>
      </trkpt>
      <trkpt lat="44.94759" lon="5.27895">
        <ele>972.3408203125</ele>
        <time>2011-05-25T13:56:09Z</time>
      </trkpt>
      <trkpt lat="44.94773" lon="5.27907">
        <ele>977.52954101562</ele>
        <time>2011-05-25T13:56:15Z</time>
      </trkpt>
      <trkpt lat="44.94793" lon="5.27922">
        <ele>982.98645019531</ele>
        <time>2011-05-25T13:56:23Z</time>
      </trkpt>
      <trkpt lat="44.94814" lon="5.27939">
        <ele>986.1298828125</ele>
        <time>2011-05-25T13:56:32Z</time>
      </trkpt>
      <trkpt lat="44.9483" lon="5.27952">
        <ele>991.42767333984</ele>
        <time>2011-05-25T13:56:39Z</time>
      </trkpt>
      <trkpt lat="44.94847" lon="5.27969">
        <ele>1005.0589599609</ele>
        <time>2011-05-25T13:56:46Z</time>
      </trkpt>
      <trkpt lat="44.9487" lon="5.27985">
        <ele>1012.2243041992</ele>
        <time>2011-05-25T13:56:53Z</time>
      </trkpt>
      <trkpt lat="44.94887" lon="5.27994">
        <ele>1013.4708862305</ele>
        <time>2011-05-25T13:56:59Z</time>
      </trkpt>
      <trkpt lat="44.94907" lon="5.28001">
        <ele>1011.645324707</ele>
        <time>2011-05-25T13:57:06Z</time>
      </trkpt>
      <trkpt lat="44.94929" lon="5.28006">
        <ele>1009.2094726562</ele>
        <time>2011-05-25T13:57:13Z</time>
      </trkpt>
      <trkpt lat="44.94961" lon="5.28014">
        <ele>1002.3151245117</ele>
        <time>2011-05-25T13:57:23Z</time>
      </trkpt>
      <trkpt lat="44.94988" lon="5.28026">
        <ele>1001.2163696289</ele>
        <time>2011-05-25T13:57:32Z</time>
      </trkpt>
      <trkpt lat="44.95009" lon="5.28039">
        <ele>1006.454284668</ele>
        <time>2011-05-25T13:57:39Z</time>
      </trkpt>
      <trkpt lat="44.95028" lon="5.28051">
        <ele>1009.48828125</ele>
        <time>2011-05-25T13:57:46Z</time>
      </trkpt>
      <trkpt lat="44.95046" lon="5.28062">
        <ele>1011.7575073242</ele>
        <time>2011-05-25T13:57:52Z</time>
      </trkpt>
      <trkpt lat="44.95064" lon="5.28075">
        <ele>1014.3427734375</ele>
        <time>2011-05-25T13:57:58Z</time>
      </trkpt>
      <trkpt lat="44.95081" lon="5.28085">
        <ele>1016.9505615234</ele>
        <time>2011-05-25T13:58:04Z</time>
      </trkpt>
      <trkpt lat="44.95093" lon="5.28083">
        <ele>1012.1973266602</ele>
        <time>2011-05-25T13:58:09Z</time>
      </trkpt>
      <trkpt lat="44.9511" lon="5.28076">
        <ele>1003.1685180664</ele>
        <time>2011-05-25T13:58:14Z</time>
      </trkpt>
      <trkpt lat="44.95128" lon="5.28094">
        <ele>1012.0748901367</ele>
        <time>2011-05-25T13:58:20Z</time>
      </trkpt>
      <trkpt lat="44.95141" lon="5.28111">
        <ele>1023.9514770508</ele>
        <time>2011-05-25T13:58:25Z</time>
      </trkpt>
      <trkpt lat="44.95159" lon="5.28128">
        <ele>1029.7884521484</ele>
        <time>2011-05-25T13:58:32Z</time>
      </trkpt>
      <trkpt lat="44.95173" lon="5.2814">
        <ele>1033.4915771484</ele>
        <time>2011-05-25T13:58:37Z</time>
      </trkpt>
      <trkpt lat="44.9519" lon="5.28156">
        <ele>1042.2565917969</ele>
        <time>2011-05-25T13:58:44Z</time>
      </trkpt>
      <trkpt lat="44.95208" lon="5.28168">
        <ele>1046.4410400391</ele>
        <time>2011-05-25T13:58:51Z</time>
      </trkpt>
      <trkpt lat="44.95222" lon="5.28173">
        <ele>1044.8649902344</ele>
        <time>2011-05-25T13:58:56Z</time>
      </trkpt>
      <trkpt lat="44.95239" lon="5.28184">
        <ele>1050.5238037109</ele>
        <time>2011-05-25T13:59:02Z</time>
      </trkpt>
      <trkpt lat="44.95249" lon="5.28199">
        <ele>1060</ele>
        <time>2011-05-25T13:59:07Z</time>
      </trkpt>
      <trkpt lat="44.95263" lon="5.28213">
        <ele>1058.1185302734</ele>
        <time>2011-05-25T13:59:13Z</time>
      </trkpt>
      <trkpt lat="44.9528" lon="5.28225">
        <ele>1060</ele>
        <time>2011-05-25T13:59:20Z</time>
      </trkpt>
      <trkpt lat="44.95294" lon="5.28232">
        <ele>1060</ele>
        <time>2011-05-25T13:59:27Z</time>
      </trkpt>
      <trkpt lat="44.95304" lon="5.2824">
        <ele>1060</ele>
        <time>2011-05-25T13:59:32Z</time>
      </trkpt>
      <trkpt lat="44.95314" lon="5.28251">
        <ele>1060</ele>
        <time>2011-05-25T13:59:37Z</time>
      </trkpt>
      <trkpt lat="44.95326" lon="5.28267">
        <ele>1060</ele>
        <time>2011-05-25T13:59:43Z</time>
      </trkpt>
      <trkpt lat="44.95336" lon="5.28277">
        <ele>1060</ele>
        <time>2011-05-25T13:59:48Z</time>
      </trkpt>
      <trkpt lat="44.95346" lon="5.28285">
        <ele>1058.3585205078</ele>
        <time>2011-05-25T13:59:53Z</time>
      </trkpt>
      <trkpt lat="44.95353" lon="5.28292">
        <ele>1056.4287109375</ele>
        <time>2011-05-25T13:59:57Z</time>
      </trkpt>
      <trkpt lat="44.95353" lon="5.28291">
        <ele>1056.6697998047</ele>
        <time>2011-05-25T13:59:59Z</time>
      </trkpt>
      <trkpt lat="44.95376" lon="5.28369">
        <ele>1036.1657714844</ele>
        <time>2011-05-25T14:00:26Z</time>
      </trkpt>
      <trkpt lat="44.95377" lon="5.28385">
        <ele>1033.4741210938</ele>
        <time>2011-05-25T14:00:32Z</time>
      </trkpt>
      <trkpt lat="44.95376" lon="5.28391">
        <ele>1032.7182617188</ele>
        <time>2011-05-25T14:00:34Z</time>
      </trkpt>
      <trkpt lat="44.95369" lon="5.28417">
        <ele>1030.4437255859</ele>
        <time>2011-05-25T14:00:43Z</time>
      </trkpt>
      <trkpt lat="44.95361" lon="5.28436">
        <ele>1028.2659912109</ele>
        <time>2011-05-25T14:00:50Z</time>
      </trkpt>
      <trkpt lat="44.95351" lon="5.28449">
        <ele>1026.552734375</ele>
        <time>2011-05-25T14:00:56Z</time>
      </trkpt>
      <trkpt lat="44.95345" lon="5.28453">
        <ele>1026.2016601562</ele>
        <time>2011-05-25T14:00:59Z</time>
      </trkpt>
      <trkpt lat="44.95335" lon="5.28465">
        <ele>1025.0307617188</ele>
        <time>2011-05-25T14:01:05Z</time>
      </trkpt>
      <trkpt lat="44.95321" lon="5.28476">
        <ele>1023.9859619141</ele>
        <time>2011-05-25T14:01:12Z</time>
      </trkpt>
      <trkpt lat="44.95301" lon="5.28485">
        <ele>1023.9495239258</ele>
        <time>2011-05-25T14:01:21Z</time>
      </trkpt>
      <trkpt lat="44.9528" lon="5.28488">
        <ele>1025.0773925781</ele>
        <time>2011-05-25T14:01:29Z</time>
      </trkpt>
      <trkpt lat="44.95266" lon="5.28483">
        <ele>1025.8453369141</ele>
        <time>2011-05-25T14:01:34Z</time>
      </trkpt>
      <trkpt lat="44.95252" lon="5.28477">
        <ele>1026.4736328125</ele>
        <time>2011-05-25T14:01:40Z</time>
      </trkpt>
      <trkpt lat="44.95239" lon="5.28472">
        <ele>1026.6068115234</ele>
        <time>2011-05-25T14:01:45Z</time>
      </trkpt>
      <trkpt lat="44.95226" lon="5.28467">
        <ele>1027.1363525391</ele>
        <time>2011-05-25T14:01:50Z</time>
      </trkpt>
      <trkpt lat="44.95206" lon="5.28461">
        <ele>1028.701171875</ele>
        <time>2011-05-25T14:01:57Z</time>
      </trkpt>
      <trkpt lat="44.95192" lon="5.28456">
        <ele>1029.9393310547</ele>
        <time>2011-05-25T14:02:02Z</time>
      </trkpt>
      <trkpt lat="44.95171" lon="5.28452">
        <ele>1031.7308349609</ele>
        <time>2011-05-25T14:02:09Z</time>
      </trkpt>
      <trkpt lat="44.95146" lon="5.28446">
        <ele>1034.3244628906</ele>
        <time>2011-05-25T14:02:17Z</time>
      </trkpt>
      <trkpt lat="44.95124" lon="5.28442">
        <ele>1036.1994628906</ele>
        <time>2011-05-25T14:02:24Z</time>
      </trkpt>
      <trkpt lat="44.95099" lon="5.28439">
        <ele>1037.6090087891</ele>
        <time>2011-05-25T14:02:32Z</time>
      </trkpt>
      <trkpt lat="44.9508" lon="5.28439">
        <ele>1038.2064208984</ele>
        <time>2011-05-25T14:02:39Z</time>
      </trkpt>
      <trkpt lat="44.9505" lon="5.28438">
        <ele>1038.2492675781</ele>
        <time>2011-05-25T14:02:48Z</time>
      </trkpt>
      <trkpt lat="44.95032" lon="5.28443">
        <ele>1038.0587158203</ele>
        <time>2011-05-25T14:02:54Z</time>
      </trkpt>
      <trkpt lat="44.95017" lon="5.28452">
        <ele>1038</ele>
        <time>2011-05-25T14:02:59Z</time>
      </trkpt>
      <trkpt lat="44.95008" lon="5.28471">
        <ele>1038</ele>
        <time>2011-05-25T14:03:05Z</time>
      </trkpt>
      <trkpt lat="44.95006" lon="5.2849">
        <ele>1037.3558349609</ele>
        <time>2011-05-25T14:03:11Z</time>
      </trkpt>
      <trkpt lat="44.95008" lon="5.28507">
        <ele>1036.7379150391</ele>
        <time>2011-05-25T14:03:16Z</time>
      </trkpt>
      <trkpt lat="44.95017" lon="5.28525">
        <ele>1036.1027832031</ele>
        <time>2011-05-25T14:03:22Z</time>
      </trkpt>
      <trkpt lat="44.95034" lon="5.28532">
        <ele>1036.2502441406</ele>
        <time>2011-05-25T14:03:29Z</time>
      </trkpt>
      <trkpt lat="44.95054" lon="5.28539">
        <ele>1036.4318847656</ele>
        <time>2011-05-25T14:03:36Z</time>
      </trkpt>
      <trkpt lat="44.95068" lon="5.28548">
        <ele>1036.3986816406</ele>
        <time>2011-05-25T14:03:42Z</time>
      </trkpt>
      <trkpt lat="44.95083" lon="5.28563">
        <ele>1036.0043945312</ele>
        <time>2011-05-25T14:03:49Z</time>
      </trkpt>
      <trkpt lat="44.95099" lon="5.28582">
        <ele>1034.3040771484</ele>
        <time>2011-05-25T14:03:56Z</time>
      </trkpt>
      <trkpt lat="44.95112" lon="5.28599">
        <ele>1035.1397705078</ele>
        <time>2011-05-25T14:04:03Z</time>
      </trkpt>
      <trkpt lat="44.95123" lon="5.28608">
        <ele>1034.8787841797</ele>
        <time>2011-05-25T14:04:09Z</time>
      </trkpt>
      <trkpt lat="44.95135" lon="5.28617">
        <ele>1033.9090576172</ele>
        <time>2011-05-25T14:04:16Z</time>
      </trkpt>
      <trkpt lat="44.95149" lon="5.28627">
        <ele>1032.9403076172</ele>
        <time>2011-05-25T14:04:23Z</time>
      </trkpt>
      <trkpt lat="44.95161" lon="5.28636">
        <ele>1032.2647705078</ele>
        <time>2011-05-25T14:04:29Z</time>
      </trkpt>
      <trkpt lat="44.95173" lon="5.28646">
        <ele>1031.9293212891</ele>
        <time>2011-05-25T14:04:35Z</time>
      </trkpt>
      <trkpt lat="44.95189" lon="5.28664">
        <ele>1032.2489013672</ele>
        <time>2011-05-25T14:04:42Z</time>
      </trkpt>
      <trkpt lat="44.9521" lon="5.28692">
        <ele>1028.8806152344</ele>
        <time>2011-05-25T14:04:51Z</time>
      </trkpt>
      <trkpt lat="44.95224" lon="5.2872">
        <ele>1026.7758789062</ele>
        <time>2011-05-25T14:04:59Z</time>
      </trkpt>
      <trkpt lat="44.95229" lon="5.28744">
        <ele>1028.2830810547</ele>
        <time>2011-05-25T14:05:05Z</time>
      </trkpt>
      <trkpt lat="44.95224" lon="5.28762">
        <ele>1029.8416748047</ele>
        <time>2011-05-25T14:05:10Z</time>
      </trkpt>
      <trkpt lat="44.95208" lon="5.28773">
        <ele>1036.1196289062</ele>
        <time>2011-05-25T14:05:16Z</time>
      </trkpt>
      <trkpt lat="44.95188" lon="5.28777">
        <ele>1042.3485107422</ele>
        <time>2011-05-25T14:05:23Z</time>
      </trkpt>
      <trkpt lat="44.9517" lon="5.28777">
        <ele>1046.2353515625</ele>
        <time>2011-05-25T14:05:29Z</time>
      </trkpt>
      <trkpt lat="44.95152" lon="5.28772">
        <ele>1050.4367675781</ele>
        <time>2011-05-25T14:05:36Z</time>
      </trkpt>
      <trkpt lat="44.95137" lon="5.28761">
        <ele>1053.2955322266</ele>
        <time>2011-05-25T14:05:42Z</time>
      </trkpt>
      <trkpt lat="44.95122" lon="5.28748">
        <ele>1056.3389892578</ele>
        <time>2011-05-25T14:05:48Z</time>
      </trkpt>
      <trkpt lat="44.95105" lon="5.28734">
        <ele>1057.5062255859</ele>
        <time>2011-05-25T14:05:55Z</time>
      </trkpt>
      <trkpt lat="44.9509" lon="5.28723">
        <ele>1058.6730957031</ele>
        <time>2011-05-25T14:06:01Z</time>
      </trkpt>
      <trkpt lat="44.95071" lon="5.28707">
        <ele>1059.0811767578</ele>
        <time>2011-05-25T14:06:07Z</time>
      </trkpt>
      <trkpt lat="44.95057" lon="5.28693">
        <ele>1060.5665283203</ele>
        <time>2011-05-25T14:06:12Z</time>
      </trkpt>
      <trkpt lat="44.95044" lon="5.2868">
        <ele>1061.0883789062</ele>
        <time>2011-05-25T14:06:17Z</time>
      </trkpt>
      <trkpt lat="44.9503" lon="5.2867">
        <ele>1061.1206054688</ele>
        <time>2011-05-25T14:06:22Z</time>
      </trkpt>
      <trkpt lat="44.95009" lon="5.28666">
        <ele>1061.591796875</ele>
        <time>2011-05-25T14:06:28Z</time>
      </trkpt>
      <trkpt lat="44.94991" lon="5.28667">
        <ele>1062.3935546875</ele>
        <time>2011-05-25T14:06:34Z</time>
      </trkpt>
      <trkpt lat="44.94972" lon="5.28667">
        <ele>1063.0012207031</ele>
        <time>2011-05-25T14:06:40Z</time>
      </trkpt>
      <trkpt lat="44.94951" lon="5.28666">
        <ele>1063.7194824219</ele>
        <time>2011-05-25T14:06:47Z</time>
      </trkpt>
      <trkpt lat="44.94933" lon="5.28673">
        <ele>1065.0550537109</ele>
        <time>2011-05-25T14:06:53Z</time>
      </trkpt>
      <trkpt lat="44.94921" lon="5.28682">
        <ele>1066.4643554688</ele>
        <time>2011-05-25T14:06:58Z</time>
      </trkpt>
      <trkpt lat="44.94902" lon="5.28698">
        <ele>1069.6223144531</ele>
        <time>2011-05-25T14:07:06Z</time>
      </trkpt>
      <trkpt lat="44.94885" lon="5.28714">
        <ele>1072.6286621094</ele>
        <time>2011-05-25T14:07:13Z</time>
      </trkpt>
      <trkpt lat="44.94865" lon="5.28724">
        <ele>1073.4360351562</ele>
        <time>2011-05-25T14:07:20Z</time>
      </trkpt>
      <trkpt lat="44.94844" lon="5.28727">
        <ele>1075.1304931641</ele>
        <time>2011-05-25T14:07:27Z</time>
      </trkpt>
      <trkpt lat="44.94822" lon="5.28728">
        <ele>1076.5035400391</ele>
        <time>2011-05-25T14:07:34Z</time>
      </trkpt>
      <trkpt lat="44.94797" lon="5.28729">
        <ele>1077.8023681641</ele>
        <time>2011-05-25T14:07:42Z</time>
      </trkpt>
      <trkpt lat="44.9478" lon="5.28735">
        <ele>1079.7841796875</ele>
        <time>2011-05-25T14:07:49Z</time>
      </trkpt>
      <trkpt lat="44.94778" lon="5.28737">
        <ele>1080.2066650391</ele>
        <time>2011-05-25T14:07:52Z</time>
      </trkpt>
      <trkpt lat="44.94773" lon="5.28747">
        <ele>1081.9576416016</ele>
        <time>2011-05-25T14:09:04Z</time>
      </trkpt>
      <trkpt lat="44.94771" lon="5.28747">
        <ele>1082.0812988281</ele>
        <time>2011-05-25T14:09:05Z</time>
      </trkpt>
      <trkpt lat="44.94762" lon="5.28747">
        <ele>1082.7404785156</ele>
        <time>2011-05-25T14:09:10Z</time>
      </trkpt>
      <trkpt lat="44.9475" lon="5.28747">
        <ele>1083.5368652344</ele>
        <time>2011-05-25T14:09:15Z</time>
      </trkpt>
      <trkpt lat="44.94738" lon="5.28743">
        <ele>1084.2570800781</ele>
        <time>2011-05-25T14:09:20Z</time>
      </trkpt>
      <trkpt lat="44.94712" lon="5.28738">
        <ele>1086.1917724609</ele>
        <time>2011-05-25T14:09:27Z</time>
      </trkpt>
      <trkpt lat="44.94708" lon="5.28738">
        <ele>1086.5325927734</ele>
        <time>2011-05-25T14:09:28Z</time>
      </trkpt>
      <trkpt lat="44.94688" lon="5.28729">
        <ele>1086.6936035156</ele>
        <time>2011-05-25T14:09:32Z</time>
      </trkpt>
      <trkpt lat="44.94673" lon="5.28718">
        <ele>1085.6154785156</ele>
        <time>2011-05-25T14:09:35Z</time>
      </trkpt>
      <trkpt lat="44.94669" lon="5.28714">
        <ele>1084.9765625</ele>
        <time>2011-05-25T14:09:36Z</time>
      </trkpt>
      <trkpt lat="44.9464" lon="5.2869">
        <ele>1084.2041015625</ele>
        <time>2011-05-25T14:09:44Z</time>
      </trkpt>
      <trkpt lat="44.94632" lon="5.28684">
        <ele>1084.2576904297</ele>
        <time>2011-05-25T14:09:46Z</time>
      </trkpt>
      <trkpt lat="44.94606" lon="5.28667">
        <ele>1084.8530273438</ele>
        <time>2011-05-25T14:09:52Z</time>
      </trkpt>
      <trkpt lat="44.94573" lon="5.28647">
        <ele>1084.7181396484</ele>
        <time>2011-05-25T14:09:59Z</time>
      </trkpt>
      <trkpt lat="44.94569" lon="5.28644">
        <ele>1084.6766357422</ele>
        <time>2011-05-25T14:10:00Z</time>
      </trkpt>
      <trkpt lat="44.9454" lon="5.28631">
        <ele>1084.9508056641</ele>
        <time>2011-05-25T14:10:06Z</time>
      </trkpt>
      <trkpt lat="44.94535" lon="5.2863">
        <ele>1085.1224365234</ele>
        <time>2011-05-25T14:10:07Z</time>
      </trkpt>
      <trkpt lat="44.94506" lon="5.28626">
        <ele>1087.4761962891</ele>
        <time>2011-05-25T14:10:13Z</time>
      </trkpt>
      <trkpt lat="44.94458" lon="5.28633">
        <ele>1086.1180419922</ele>
        <time>2011-05-25T14:10:23Z</time>
      </trkpt>
      <trkpt lat="44.94419" lon="5.28639">
        <ele>1087.8247070312</ele>
        <time>2011-05-25T14:10:31Z</time>
      </trkpt>
      <trkpt lat="44.94385" lon="5.28645">
        <ele>1088.2713623047</ele>
        <time>2011-05-25T14:10:38Z</time>
      </trkpt>
      <trkpt lat="44.94366" lon="5.28637">
        <ele>1088.3983154297</ele>
        <time>2011-05-25T14:10:42Z</time>
      </trkpt>
      <trkpt lat="44.94353" lon="5.28623">
        <ele>1088.2655029297</ele>
        <time>2011-05-25T14:10:45Z</time>
      </trkpt>
      <trkpt lat="44.94328" lon="5.28581">
        <ele>1086.3737792969</ele>
        <time>2011-05-25T14:10:53Z</time>
      </trkpt>
      <trkpt lat="44.9431" lon="5.2856">
        <ele>1086.0991210938</ele>
        <time>2011-05-25T14:10:58Z</time>
      </trkpt>
      <trkpt lat="44.94292" lon="5.2855">
        <ele>1087.3933105469</ele>
        <time>2011-05-25T14:11:02Z</time>
      </trkpt>
      <trkpt lat="44.94269" lon="5.28542">
        <ele>1089.9317626953</ele>
        <time>2011-05-25T14:11:07Z</time>
      </trkpt>
      <trkpt lat="44.94251" lon="5.28537">
        <ele>1092.1446533203</ele>
        <time>2011-05-25T14:11:11Z</time>
      </trkpt>
      <trkpt lat="44.94212" lon="5.28528">
        <ele>1093.423828125</ele>
        <time>2011-05-25T14:11:19Z</time>
      </trkpt>
      <trkpt lat="44.94185" lon="5.28522">
        <ele>1095.9409179688</ele>
        <time>2011-05-25T14:11:25Z</time>
      </trkpt>
      <trkpt lat="44.94153" lon="5.28519">
        <ele>1097.5849609375</ele>
        <time>2011-05-25T14:11:32Z</time>
      </trkpt>
      <trkpt lat="44.94122" lon="5.28517">
        <ele>1096.9807128906</ele>
        <time>2011-05-25T14:11:39Z</time>
      </trkpt>
      <trkpt lat="44.94114" lon="5.28517">
        <ele>1096.953125</ele>
        <time>2011-05-25T14:11:41Z</time>
      </trkpt>
      <trkpt lat="44.94087" lon="5.28517">
        <ele>1094.8577880859</ele>
        <time>2011-05-25T14:11:47Z</time>
      </trkpt>
      <trkpt lat="44.9407" lon="5.2852">
        <ele>1095.1070556641</ele>
        <time>2011-05-25T14:11:51Z</time>
      </trkpt>
      <trkpt lat="44.94061" lon="5.28523">
        <ele>1095.8586425781</ele>
        <time>2011-05-25T14:11:53Z</time>
      </trkpt>
      <trkpt lat="44.94028" lon="5.28534">
        <ele>1096.1052246094</ele>
        <time>2011-05-25T14:12:01Z</time>
      </trkpt>
      <trkpt lat="44.93998" lon="5.28542">
        <ele>1095.9616699219</ele>
        <time>2011-05-25T14:12:08Z</time>
      </trkpt>
      <trkpt lat="44.93986" lon="5.28548">
        <ele>1095.9411621094</ele>
        <time>2011-05-25T14:12:11Z</time>
      </trkpt>
      <trkpt lat="44.93946" lon="5.28574">
        <ele>1098.0236816406</ele>
        <time>2011-05-25T14:12:21Z</time>
      </trkpt>
      <trkpt lat="44.93936" lon="5.28583">
        <ele>1099.4141845703</ele>
        <time>2011-05-25T14:12:24Z</time>
      </trkpt>
      <trkpt lat="44.93913" lon="5.28619">
        <ele>1104.5648193359</ele>
        <time>2011-05-25T14:12:32Z</time>
      </trkpt>
      <trkpt lat="44.939" lon="5.28635">
        <ele>1104.9836425781</ele>
        <time>2011-05-25T14:12:36Z</time>
      </trkpt>
      <trkpt lat="44.93893" lon="5.28642">
        <ele>1105.2067871094</ele>
        <time>2011-05-25T14:12:38Z</time>
      </trkpt>
      <trkpt lat="44.93879" lon="5.28654">
        <ele>1106.1691894531</ele>
        <time>2011-05-25T14:12:42Z</time>
      </trkpt>
      <trkpt lat="44.93854" lon="5.2868">
        <ele>1108.2564697266</ele>
        <time>2011-05-25T14:12:50Z</time>
      </trkpt>
      <trkpt lat="44.93832" lon="5.2871">
        <ele>1112.8842773438</ele>
        <time>2011-05-25T14:12:58Z</time>
      </trkpt>
      <trkpt lat="44.93821" lon="5.28736">
        <ele>1117.9805908203</ele>
        <time>2011-05-25T14:13:04Z</time>
      </trkpt>
      <trkpt lat="44.93807" lon="5.28758">
        <ele>1121.8454589844</ele>
        <time>2011-05-25T14:13:10Z</time>
      </trkpt>
      <trkpt lat="44.93789" lon="5.28761">
        <ele>1124.0583496094</ele>
        <time>2011-05-25T14:13:15Z</time>
      </trkpt>
      <trkpt lat="44.9377" lon="5.28757">
        <ele>1125.8343505859</ele>
        <time>2011-05-25T14:13:20Z</time>
      </trkpt>
      <trkpt lat="44.93748" lon="5.28748">
        <ele>1128.1231689453</ele>
        <time>2011-05-25T14:13:26Z</time>
      </trkpt>
      <trkpt lat="44.93723" lon="5.28734">
        <ele>1130.5894775391</ele>
        <time>2011-05-25T14:13:33Z</time>
      </trkpt>
      <trkpt lat="44.93694" lon="5.28713">
        <ele>1130.7770996094</ele>
        <time>2011-05-25T14:13:41Z</time>
      </trkpt>
      <trkpt lat="44.93672" lon="5.28699">
        <ele>1130.4852294922</ele>
        <time>2011-05-25T14:13:47Z</time>
      </trkpt>
      <trkpt lat="44.93648" lon="5.2869">
        <ele>1132.5686035156</ele>
        <time>2011-05-25T14:13:53Z</time>
      </trkpt>
      <trkpt lat="44.93639" lon="5.28686">
        <ele>1133.5299072266</ele>
        <time>2011-05-25T14:13:55Z</time>
      </trkpt>
      <trkpt lat="44.93617" lon="5.28681">
        <ele>1136.5596923828</ele>
        <time>2011-05-25T14:14:00Z</time>
      </trkpt>
      <trkpt lat="44.93595" lon="5.28678">
        <ele>1138.2662353516</ele>
        <time>2011-05-25T14:14:05Z</time>
      </trkpt>
      <trkpt lat="44.93582" lon="5.28676">
        <ele>1138.8082275391</ele>
        <time>2011-05-25T14:14:08Z</time>
      </trkpt>
      <trkpt lat="44.93562" lon="5.28673">
        <ele>1140.1087646484</ele>
        <time>2011-05-25T14:14:13Z</time>
      </trkpt>
      <trkpt lat="44.93558" lon="5.28673">
        <ele>1140.4493408203</ele>
        <time>2011-05-25T14:14:14Z</time>
      </trkpt>
      <trkpt lat="44.93517" lon="5.28673">
        <ele>1142.6336669922</ele>
        <time>2011-05-25T14:14:23Z</time>
      </trkpt>
      <trkpt lat="44.93484" lon="5.28678">
        <ele>1144.8048095703</ele>
        <time>2011-05-25T14:14:30Z</time>
      </trkpt>
      <trkpt lat="44.93445" lon="5.28686">
        <ele>1147.0295410156</ele>
        <time>2011-05-25T14:14:38Z</time>
      </trkpt>
      <trkpt lat="44.93407" lon="5.28695">
        <ele>1148.1228027344</ele>
        <time>2011-05-25T14:14:46Z</time>
      </trkpt>
      <trkpt lat="44.93374" lon="5.28709">
        <ele>1150.0385742188</ele>
        <time>2011-05-25T14:14:53Z</time>
      </trkpt>
      <trkpt lat="44.93336" lon="5.28727">
        <ele>1151.8162841797</ele>
        <time>2011-05-25T14:15:01Z</time>
      </trkpt>
      <trkpt lat="44.93303" lon="5.28747">
        <ele>1155.4161376953</ele>
        <time>2011-05-25T14:15:08Z</time>
      </trkpt>
      <trkpt lat="44.9327" lon="5.28767">
        <ele>1155.9970703125</ele>
        <time>2011-05-25T14:15:15Z</time>
      </trkpt>
      <trkpt lat="44.93229" lon="5.28792">
        <ele>1156.0853271484</ele>
        <time>2011-05-25T14:15:24Z</time>
      </trkpt>
      <trkpt lat="44.93195" lon="5.28814">
        <ele>1157.6013183594</ele>
        <time>2011-05-25T14:15:32Z</time>
      </trkpt>
      <trkpt lat="44.93187" lon="5.2882">
        <ele>1157.4654541016</ele>
        <time>2011-05-25T14:15:34Z</time>
      </trkpt>
      <trkpt lat="44.93163" lon="5.28837">
        <ele>1157.2590332031</ele>
        <time>2011-05-25T14:15:41Z</time>
      </trkpt>
      <trkpt lat="44.93143" lon="5.28859">
        <ele>1158.9670410156</ele>
        <time>2011-05-25T14:15:48Z</time>
      </trkpt>
      <trkpt lat="44.93134" lon="5.2888">
        <ele>1161.3543701172</ele>
        <time>2011-05-25T14:15:53Z</time>
      </trkpt>
      <trkpt lat="44.93118" lon="5.28901">
        <ele>1163.2612304688</ele>
        <time>2011-05-25T14:15:59Z</time>
      </trkpt>
      <trkpt lat="44.93094" lon="5.28928">
        <ele>1166.1303710938</ele>
        <time>2011-05-25T14:16:07Z</time>
      </trkpt>
      <trkpt lat="44.93072" lon="5.28952">
        <ele>1169.3450927734</ele>
        <time>2011-05-25T14:16:14Z</time>
      </trkpt>
      <trkpt lat="44.93053" lon="5.2897">
        <ele>1170.6549072266</ele>
        <time>2011-05-25T14:16:20Z</time>
      </trkpt>
      <trkpt lat="44.93029" lon="5.28995">
        <ele>1173.3599853516</ele>
        <time>2011-05-25T14:16:28Z</time>
      </trkpt>
      <trkpt lat="44.93011" lon="5.29012">
        <ele>1174.5285644531</ele>
        <time>2011-05-25T14:16:34Z</time>
      </trkpt>
      <trkpt lat="44.92994" lon="5.29017">
        <ele>1174.2973632812</ele>
        <time>2011-05-25T14:16:39Z</time>
      </trkpt>
      <trkpt lat="44.92973" lon="5.29011">
        <ele>1173.1940917969</ele>
        <time>2011-05-25T14:16:45Z</time>
      </trkpt>
      <trkpt lat="44.92949" lon="5.28999">
        <ele>1172.6704101562</ele>
        <time>2011-05-25T14:16:52Z</time>
      </trkpt>
      <trkpt lat="44.92924" lon="5.28987">
        <ele>1172.7801513672</ele>
        <time>2011-05-25T14:16:59Z</time>
      </trkpt>
      <trkpt lat="44.9292" lon="5.28987">
        <ele>1172.8787841797</ele>
        <time>2011-05-25T14:17:00Z</time>
      </trkpt>
      <trkpt lat="44.92891" lon="5.28988">
        <ele>1175.0397949219</ele>
        <time>2011-05-25T14:17:07Z</time>
      </trkpt>
      <trkpt lat="44.92855" lon="5.2899">
        <ele>1180.1613769531</ele>
        <time>2011-05-25T14:17:15Z</time>
      </trkpt>
      <trkpt lat="44.92819" lon="5.28995">
        <ele>1183.2590332031</ele>
        <time>2011-05-25T14:17:23Z</time>
      </trkpt>
      <trkpt lat="44.92796" lon="5.28997">
        <ele>1185.4989013672</ele>
        <time>2011-05-25T14:17:29Z</time>
      </trkpt>
      <trkpt lat="44.92775" lon="5.29001">
        <ele>1188.5512695312</ele>
        <time>2011-05-25T14:17:35Z</time>
      </trkpt>
      <trkpt lat="44.92746" lon="5.29007">
        <ele>1193.6833496094</ele>
        <time>2011-05-25T14:17:43Z</time>
      </trkpt>
      <trkpt lat="44.92722" lon="5.29013">
        <ele>1196.8460693359</ele>
        <time>2011-05-25T14:17:50Z</time>
      </trkpt>
      <trkpt lat="44.92697" lon="5.29018">
        <ele>1199.3442382812</ele>
        <time>2011-05-25T14:17:58Z</time>
      </trkpt>
      <trkpt lat="44.92683" lon="5.29022">
        <ele>1200.6243896484</ele>
        <time>2011-05-25T14:18:03Z</time>
      </trkpt>
      <trkpt lat="44.92669" lon="5.29025">
        <ele>1201.4831542969</ele>
        <time>2011-05-25T14:18:08Z</time>
      </trkpt>
      <trkpt lat="44.92649" lon="5.2903">
        <ele>1204.3387451172</ele>
        <time>2011-05-25T14:18:14Z</time>
      </trkpt>
      <trkpt lat="44.92627" lon="5.29032">
        <ele>1206.3206787109</ele>
        <time>2011-05-25T14:18:21Z</time>
      </trkpt>
      <trkpt lat="44.92616" lon="5.29034">
        <ele>1207.2946777344</ele>
        <time>2011-05-25T14:18:25Z</time>
      </trkpt>
      <trkpt lat="44.92597" lon="5.29035">
        <ele>1211.2048339844</ele>
        <time>2011-05-25T14:18:31Z</time>
      </trkpt>
      <trkpt lat="44.92582" lon="5.29036">
        <ele>1215.1788330078</ele>
        <time>2011-05-25T14:18:36Z</time>
      </trkpt>
      <trkpt lat="44.92562" lon="5.29036">
        <ele>1219.2796630859</ele>
        <time>2011-05-25T14:18:43Z</time>
      </trkpt>
      <trkpt lat="44.92539" lon="5.29037">
        <ele>1221.8541259766</ele>
        <time>2011-05-25T14:18:51Z</time>
      </trkpt>
      <trkpt lat="44.92524" lon="5.29039">
        <ele>1222.6636962891</ele>
        <time>2011-05-25T14:18:57Z</time>
      </trkpt>
      <trkpt lat="44.92506" lon="5.29042">
        <ele>1222.2619628906</ele>
        <time>2011-05-25T14:19:04Z</time>
      </trkpt>
      <trkpt lat="44.92493" lon="5.29052">
        <ele>1222.7144775391</ele>
        <time>2011-05-25T14:19:10Z</time>
      </trkpt>
      <trkpt lat="44.92478" lon="5.2907">
        <ele>1225.0520019531</ele>
        <time>2011-05-25T14:19:17Z</time>
      </trkpt>
      <trkpt lat="44.92464" lon="5.2909">
        <ele>1228.0041503906</ele>
        <time>2011-05-25T14:19:24Z</time>
      </trkpt>
      <trkpt lat="44.92447" lon="5.29106">
        <ele>1230.3353271484</ele>
        <time>2011-05-25T14:19:31Z</time>
      </trkpt>
      <trkpt lat="44.92429" lon="5.29112">
        <ele>1232.8275146484</ele>
        <time>2011-05-25T14:19:38Z</time>
      </trkpt>
      <trkpt lat="44.92415" lon="5.2911">
        <ele>1234.0307617188</ele>
        <time>2011-05-25T14:19:44Z</time>
      </trkpt>
      <trkpt lat="44.924" lon="5.29106">
        <ele>1234.8089599609</ele>
        <time>2011-05-25T14:19:50Z</time>
      </trkpt>
      <trkpt lat="44.92381" lon="5.29101">
        <ele>1236.2373046875</ele>
        <time>2011-05-25T14:19:57Z</time>
      </trkpt>
      <trkpt lat="44.92361" lon="5.29097">
        <ele>1238.8702392578</ele>
        <time>2011-05-25T14:20:04Z</time>
      </trkpt>
      <trkpt lat="44.9234" lon="5.29096">
        <ele>1240.6378173828</ele>
        <time>2011-05-25T14:20:11Z</time>
      </trkpt>
      <trkpt lat="44.92318" lon="5.29099">
        <ele>1240.6684570312</ele>
        <time>2011-05-25T14:20:19Z</time>
      </trkpt>
      <trkpt lat="44.923" lon="5.29105">
        <ele>1240.4157714844</ele>
        <time>2011-05-25T14:20:26Z</time>
      </trkpt>
      <trkpt lat="44.92286" lon="5.29108">
        <ele>1240.0708007812</ele>
        <time>2011-05-25T14:20:31Z</time>
      </trkpt>
      <trkpt lat="44.9227" lon="5.2911">
        <ele>1239.8795166016</ele>
        <time>2011-05-25T14:20:38Z</time>
      </trkpt>
      <trkpt lat="44.9225" lon="5.29117">
        <ele>1241.37890625</ele>
        <time>2011-05-25T14:20:45Z</time>
      </trkpt>
      <trkpt lat="44.92225" lon="5.29125">
        <ele>1241.3275146484</ele>
        <time>2011-05-25T14:20:54Z</time>
      </trkpt>
      <trkpt lat="44.92204" lon="5.29135">
        <ele>1243.8864746094</ele>
        <time>2011-05-25T14:21:01Z</time>
      </trkpt>
      <trkpt lat="44.92183" lon="5.29145">
        <ele>1245.7673339844</ele>
        <time>2011-05-25T14:21:08Z</time>
      </trkpt>
      <trkpt lat="44.92158" lon="5.29157">
        <ele>1247.9049072266</ele>
        <time>2011-05-25T14:21:16Z</time>
      </trkpt>
      <trkpt lat="44.92139" lon="5.29166">
        <ele>1250.8634033203</ele>
        <time>2011-05-25T14:21:23Z</time>
      </trkpt>
      <trkpt lat="44.92117" lon="5.29175">
        <ele>1250.5302734375</ele>
        <time>2011-05-25T14:21:31Z</time>
      </trkpt>
      <trkpt lat="44.92092" lon="5.29183">
        <ele>1251.6323242188</ele>
        <time>2011-05-25T14:21:40Z</time>
      </trkpt>
      <trkpt lat="44.92075" lon="5.29191">
        <ele>1253.6063232422</ele>
        <time>2011-05-25T14:21:46Z</time>
      </trkpt>
      <trkpt lat="44.9205" lon="5.29199">
        <ele>1256.1770019531</ele>
        <time>2011-05-25T14:21:54Z</time>
      </trkpt>
      <trkpt lat="44.92033" lon="5.29208">
        <ele>1257.5904541016</ele>
        <time>2011-05-25T14:22:00Z</time>
      </trkpt>
      <trkpt lat="44.92015" lon="5.29219">
        <ele>1259.4040527344</ele>
        <time>2011-05-25T14:22:06Z</time>
      </trkpt>
      <trkpt lat="44.92" lon="5.29225">
        <ele>1260.4599609375</ele>
        <time>2011-05-25T14:22:11Z</time>
      </trkpt>
      <trkpt lat="44.91978" lon="5.29239">
        <ele>1264.5277099609</ele>
        <time>2011-05-25T14:22:19Z</time>
      </trkpt>
      <trkpt lat="44.91953" lon="5.29246">
        <ele>1266.2279052734</ele>
        <time>2011-05-25T14:22:27Z</time>
      </trkpt>
      <trkpt lat="44.91931" lon="5.29247">
        <ele>1266.4252929688</ele>
        <time>2011-05-25T14:22:34Z</time>
      </trkpt>
      <trkpt lat="44.91911" lon="5.29251">
        <ele>1267.4210205078</ele>
        <time>2011-05-25T14:22:41Z</time>
      </trkpt>
      <trkpt lat="44.91882" lon="5.29254">
        <ele>1269.9317626953</ele>
        <time>2011-05-25T14:22:51Z</time>
      </trkpt>
      <trkpt lat="44.91862" lon="5.29256">
        <ele>1272.9250488281</ele>
        <time>2011-05-25T14:22:58Z</time>
      </trkpt>
      <trkpt lat="44.91832" lon="5.29257">
        <ele>1275.0496826172</ele>
        <time>2011-05-25T14:23:07Z</time>
      </trkpt>
      <trkpt lat="44.91809" lon="5.29258">
        <ele>1275.7275390625</ele>
        <time>2011-05-25T14:23:14Z</time>
      </trkpt>
      <trkpt lat="44.91787" lon="5.29257">
        <ele>1276.5876464844</ele>
        <time>2011-05-25T14:23:21Z</time>
      </trkpt>
      <trkpt lat="44.91768" lon="5.29247">
        <ele>1276.4755859375</ele>
        <time>2011-05-25T14:23:27Z</time>
      </trkpt>
      <trkpt lat="44.91753" lon="5.29229">
        <ele>1276.2799072266</ele>
        <time>2011-05-25T14:23:33Z</time>
      </trkpt>
      <trkpt lat="44.9174" lon="5.29209">
        <ele>1275.0555419922</ele>
        <time>2011-05-25T14:23:39Z</time>
      </trkpt>
      <trkpt lat="44.91725" lon="5.29188">
        <ele>1274.2946777344</ele>
        <time>2011-05-25T14:23:46Z</time>
      </trkpt>
      <trkpt lat="44.9171" lon="5.29171">
        <ele>1274.2053222656</ele>
        <time>2011-05-25T14:23:53Z</time>
      </trkpt>
      <trkpt lat="44.91691" lon="5.29149">
        <ele>1275.3907470703</ele>
        <time>2011-05-25T14:24:01Z</time>
      </trkpt>
      <trkpt lat="44.91678" lon="5.29118">
        <ele>1277.7954101562</ele>
        <time>2011-05-25T14:24:09Z</time>
      </trkpt>
      <trkpt lat="44.91681" lon="5.29092">
        <ele>1278.3348388672</ele>
        <time>2011-05-25T14:24:15Z</time>
      </trkpt>
      <trkpt lat="44.91693" lon="5.2907">
        <ele>1278.9510498047</ele>
        <time>2011-05-25T14:24:21Z</time>
      </trkpt>
      <trkpt lat="44.9171" lon="5.29053">
        <ele>1279.5903320312</ele>
        <time>2011-05-25T14:24:27Z</time>
      </trkpt>
      <trkpt lat="44.91728" lon="5.29032">
        <ele>1279.8176269531</ele>
        <time>2011-05-25T14:24:34Z</time>
      </trkpt>
      <trkpt lat="44.91747" lon="5.29009">
        <ele>1282.1999511719</ele>
        <time>2011-05-25T14:24:41Z</time>
      </trkpt>
      <trkpt lat="44.9177" lon="5.28978">
        <ele>1284.8331298828</ele>
        <time>2011-05-25T14:24:49Z</time>
      </trkpt>
      <trkpt lat="44.91805" lon="5.2895">
        <ele>1284.5983886719</ele>
        <time>2011-05-25T14:24:58Z</time>
      </trkpt>
      <trkpt lat="44.91828" lon="5.28936">
        <ele>1284.0079345703</ele>
        <time>2011-05-25T14:25:03Z</time>
      </trkpt>
      <trkpt lat="44.91845" lon="5.28903">
        <ele>1283.9847412109</ele>
        <time>2011-05-25T14:25:09Z</time>
      </trkpt>
      <trkpt lat="44.91846" lon="5.28896">
        <ele>1283.9793701172</ele>
        <time>2011-05-25T14:25:10Z</time>
      </trkpt>
      <trkpt lat="44.91848" lon="5.28882">
        <ele>1283.240234375</ele>
        <time>2011-05-25T14:25:12Z</time>
      </trkpt>
      <trkpt lat="44.91842" lon="5.28848">
        <ele>1279.6387939453</ele>
        <time>2011-05-25T14:25:17Z</time>
      </trkpt>
      <trkpt lat="44.91826" lon="5.28827">
        <ele>1279.0593261719</ele>
        <time>2011-05-25T14:25:21Z</time>
      </trkpt>
      <trkpt lat="44.91815" lon="5.28819">
        <ele>1279.2136230469</ele>
        <time>2011-05-25T14:25:23Z</time>
      </trkpt>
      <trkpt lat="44.91782" lon="5.28803">
        <ele>1281.1009521484</ele>
        <time>2011-05-25T14:25:28Z</time>
      </trkpt>
      <trkpt lat="44.91745" lon="5.28796">
        <ele>1285.8488769531</ele>
        <time>2011-05-25T14:25:33Z</time>
      </trkpt>
      <trkpt lat="44.91708" lon="5.28786">
        <ele>1287.9470214844</ele>
        <time>2011-05-25T14:25:38Z</time>
      </trkpt>
      <trkpt lat="44.91684" lon="5.28782">
        <ele>1289.4364013672</ele>
        <time>2011-05-25T14:25:41Z</time>
      </trkpt>
      <trkpt lat="44.91643" lon="5.28765">
        <ele>1288.6108398438</ele>
        <time>2011-05-25T14:25:46Z</time>
      </trkpt>
      <trkpt lat="44.91618" lon="5.28751">
        <ele>1287.1040039062</ele>
        <time>2011-05-25T14:25:49Z</time>
      </trkpt>
      <trkpt lat="44.91568" lon="5.28711">
        <ele>1280</ele>
        <time>2011-05-25T14:25:55Z</time>
      </trkpt>
      <trkpt lat="44.91532" lon="5.28694">
        <ele>1279.9786376953</ele>
        <time>2011-05-25T14:25:59Z</time>
      </trkpt>
      <trkpt lat="44.91492" lon="5.28692">
        <ele>1281.291015625</ele>
        <time>2011-05-25T14:26:03Z</time>
      </trkpt>
      <trkpt lat="44.91463" lon="5.28701">
        <ele>1287.7845458984</ele>
        <time>2011-05-25T14:26:06Z</time>
      </trkpt>
      <trkpt lat="44.91425" lon="5.2868">
        <ele>1290.3192138672</ele>
        <time>2011-05-25T14:26:10Z</time>
      </trkpt>
      <trkpt lat="44.91412" lon="5.28659">
        <ele>1288.9494628906</ele>
        <time>2011-05-25T14:26:12Z</time>
      </trkpt>
      <trkpt lat="44.9138" lon="5.28606">
        <ele>1284.1938476562</ele>
        <time>2011-05-25T14:26:17Z</time>
      </trkpt>
      <trkpt lat="44.91345" lon="5.28562">
        <ele>1279.9165039062</ele>
        <time>2011-05-25T14:26:22Z</time>
      </trkpt>
      <trkpt lat="44.91331" lon="5.28548">
        <ele>1279.8190917969</ele>
        <time>2011-05-25T14:26:24Z</time>
      </trkpt>
      <trkpt lat="44.913" lon="5.28528">
        <ele>1280.2497558594</ele>
        <time>2011-05-25T14:26:28Z</time>
      </trkpt>
      <trkpt lat="44.91276" lon="5.28522">
        <ele>1278.8454589844</ele>
        <time>2011-05-25T14:26:31Z</time>
      </trkpt>
      <trkpt lat="44.91267" lon="5.28522">
        <ele>1277.6651611328</ele>
        <time>2011-05-25T14:26:32Z</time>
      </trkpt>
      <trkpt lat="44.91219" lon="5.28532">
        <ele>1271.8609619141</ele>
        <time>2011-05-25T14:26:38Z</time>
      </trkpt>
      <trkpt lat="44.91161" lon="5.28549">
        <ele>1265.6868896484</ele>
        <time>2011-05-25T14:26:45Z</time>
      </trkpt>
      <trkpt lat="44.9112" lon="5.28558">
        <ele>1262.3165283203</ele>
        <time>2011-05-25T14:26:50Z</time>
      </trkpt>
      <trkpt lat="44.91104" lon="5.28561">
        <ele>1261.5147705078</ele>
        <time>2011-05-25T14:26:52Z</time>
      </trkpt>
      <trkpt lat="44.91055" lon="5.28571">
        <ele>1259.2099609375</ele>
        <time>2011-05-25T14:26:59Z</time>
      </trkpt>
      <trkpt lat="44.91016" lon="5.28578">
        <ele>1258.2895507812</ele>
        <time>2011-05-25T14:27:05Z</time>
      </trkpt>
      <trkpt lat="44.90982" lon="5.28599">
        <ele>1258.98828125</ele>
        <time>2011-05-25T14:27:11Z</time>
      </trkpt>
      <trkpt lat="44.90949" lon="5.28625">
        <ele>1259.0812988281</ele>
        <time>2011-05-25T14:27:17Z</time>
      </trkpt>
      <trkpt lat="44.90925" lon="5.2863">
        <ele>1259</ele>
        <time>2011-05-25T14:27:21Z</time>
      </trkpt>
      <trkpt lat="44.90895" lon="5.28615">
        <ele>1259</ele>
        <time>2011-05-25T14:27:26Z</time>
      </trkpt>
      <trkpt lat="44.90867" lon="5.28598">
        <ele>1259</ele>
        <time>2011-05-25T14:27:31Z</time>
      </trkpt>
      <trkpt lat="44.90862" lon="5.28596">
        <ele>1259</ele>
        <time>2011-05-25T14:27:32Z</time>
      </trkpt>
      <trkpt lat="44.90822" lon="5.28574">
        <ele>1259</ele>
        <time>2011-05-25T14:27:39Z</time>
      </trkpt>
      <trkpt lat="44.90783" lon="5.28551">
        <ele>1258.8431396484</ele>
        <time>2011-05-25T14:27:45Z</time>
      </trkpt>
      <trkpt lat="44.90758" lon="5.28517">
        <ele>1258.2766113281</ele>
        <time>2011-05-25T14:27:50Z</time>
      </trkpt>
      <trkpt lat="44.90749" lon="5.28484">
        <ele>1259.6547851562</ele>
        <time>2011-05-25T14:27:54Z</time>
      </trkpt>
      <trkpt lat="44.90747" lon="5.28468">
        <ele>1260.8572998047</ele>
        <time>2011-05-25T14:27:56Z</time>
      </trkpt>
      <trkpt lat="44.90753" lon="5.28426">
        <ele>1266.3211669922</ele>
        <time>2011-05-25T14:28:02Z</time>
      </trkpt>
      <trkpt lat="44.90763" lon="5.28403">
        <ele>1267.8536376953</ele>
        <time>2011-05-25T14:28:06Z</time>
      </trkpt>
      <trkpt lat="44.90786" lon="5.2837">
        <ele>1269.4460449219</ele>
        <time>2011-05-25T14:28:14Z</time>
      </trkpt>
      <trkpt lat="44.90803" lon="5.28343">
        <ele>1271.1351318359</ele>
        <time>2011-05-25T14:28:21Z</time>
      </trkpt>
      <trkpt lat="44.90814" lon="5.28307">
        <ele>1273.9084472656</ele>
        <time>2011-05-25T14:28:29Z</time>
      </trkpt>
      <trkpt lat="44.90822" lon="5.28283">
        <ele>1275.6491699219</ele>
        <time>2011-05-25T14:28:35Z</time>
      </trkpt>
      <trkpt lat="44.90834" lon="5.28257">
        <ele>1276.4455566406</ele>
        <time>2011-05-25T14:28:42Z</time>
      </trkpt>
      <trkpt lat="44.90851" lon="5.28234">
        <ele>1277.4471435547</ele>
        <time>2011-05-25T14:28:50Z</time>
      </trkpt>
      <trkpt lat="44.90862" lon="5.28225">
        <ele>1277.7235107422</ele>
        <time>2011-05-25T14:28:56Z</time>
      </trkpt>
      <trkpt lat="44.90875" lon="5.2821">
        <ele>1277.8266601562</ele>
        <time>2011-05-25T14:29:04Z</time>
      </trkpt>
      <trkpt lat="44.90885" lon="5.28198">
        <ele>1278.0325927734</ele>
        <time>2011-05-25T14:29:09Z</time>
      </trkpt>
      <trkpt lat="44.90893" lon="5.28174">
        <ele>1280.5655517578</ele>
        <time>2011-05-25T14:29:16Z</time>
      </trkpt>
      <trkpt lat="44.90891" lon="5.28142">
        <ele>1286.2524414062</ele>
        <time>2011-05-25T14:29:24Z</time>
      </trkpt>
      <trkpt lat="44.90889" lon="5.28125">
        <ele>1288.3829345703</ele>
        <time>2011-05-25T14:29:29Z</time>
      </trkpt>
      <trkpt lat="44.90886" lon="5.28106">
        <ele>1291.2861328125</ele>
        <time>2011-05-25T14:29:35Z</time>
      </trkpt>
      <trkpt lat="44.90883" lon="5.28083">
        <ele>1295.0390625</ele>
        <time>2011-05-25T14:29:42Z</time>
      </trkpt>
      <trkpt lat="44.90881" lon="5.28064">
        <ele>1297.345703125</ele>
        <time>2011-05-25T14:29:48Z</time>
      </trkpt>
      <trkpt lat="44.90878" lon="5.28046">
        <ele>1299.7592773438</ele>
        <time>2011-05-25T14:29:53Z</time>
      </trkpt>
      <trkpt lat="44.90877" lon="5.28023">
        <ele>1302.6181640625</ele>
        <time>2011-05-25T14:29:59Z</time>
      </trkpt>
      <trkpt lat="44.90879" lon="5.27997">
        <ele>1304.2077636719</ele>
        <time>2011-05-25T14:30:06Z</time>
      </trkpt>
      <trkpt lat="44.90887" lon="5.27969">
        <ele>1305.4230957031</ele>
        <time>2011-05-25T14:30:15Z</time>
      </trkpt>
      <trkpt lat="44.90897" lon="5.27948">
        <ele>1305.5985107422</ele>
        <time>2011-05-25T14:30:22Z</time>
      </trkpt>
      <trkpt lat="44.90909" lon="5.2793">
        <ele>1305.2001953125</ele>
        <time>2011-05-25T14:30:29Z</time>
      </trkpt>
      <trkpt lat="44.9093" lon="5.27907">
        <ele>1303.3405761719</ele>
        <time>2011-05-25T14:30:39Z</time>
      </trkpt>
      <trkpt lat="44.90952" lon="5.27884">
        <ele>1301.5510253906</ele>
        <time>2011-05-25T14:30:49Z</time>
      </trkpt>
      <trkpt lat="44.90967" lon="5.27867">
        <ele>1301.1768798828</ele>
        <time>2011-05-25T14:30:57Z</time>
      </trkpt>
      <trkpt lat="44.90979" lon="5.27847">
        <ele>1301.3450927734</ele>
        <time>2011-05-25T14:31:04Z</time>
      </trkpt>
      <trkpt lat="44.90989" lon="5.27818">
        <ele>1302.6647949219</ele>
        <time>2011-05-25T14:31:12Z</time>
      </trkpt>
      <trkpt lat="44.90991" lon="5.27792">
        <ele>1304.1164550781</ele>
        <time>2011-05-25T14:31:19Z</time>
      </trkpt>
      <trkpt lat="44.90988" lon="5.27765">
        <ele>1304.8525390625</ele>
        <time>2011-05-25T14:31:26Z</time>
      </trkpt>
      <trkpt lat="44.9098" lon="5.27743">
        <ele>1305.009765625</ele>
        <time>2011-05-25T14:31:32Z</time>
      </trkpt>
      <trkpt lat="44.90967" lon="5.27721">
        <ele>1304.5384521484</ele>
        <time>2011-05-25T14:31:39Z</time>
      </trkpt>
      <trkpt lat="44.90951" lon="5.27701">
        <ele>1304.9133300781</ele>
        <time>2011-05-25T14:31:46Z</time>
      </trkpt>
      <trkpt lat="44.90929" lon="5.27679">
        <ele>1304.7081298828</ele>
        <time>2011-05-25T14:31:53Z</time>
      </trkpt>
      <trkpt lat="44.90925" lon="5.27676">
        <ele>1304.5561523438</ele>
        <time>2011-05-25T14:31:54Z</time>
      </trkpt>
      <trkpt lat="44.90896" lon="5.2765">
        <ele>1304.423828125</ele>
        <time>2011-05-25T14:32:01Z</time>
      </trkpt>
      <trkpt lat="44.90868" lon="5.27632">
        <ele>1303.2043457031</ele>
        <time>2011-05-25T14:32:06Z</time>
      </trkpt>
      <trkpt lat="44.90829" lon="5.27625">
        <ele>1303.2904052734</ele>
        <time>2011-05-25T14:32:12Z</time>
      </trkpt>
      <trkpt lat="44.90792" lon="5.2763">
        <ele>1306.1905517578</ele>
        <time>2011-05-25T14:32:17Z</time>
      </trkpt>
      <trkpt lat="44.90739" lon="5.27622">
        <ele>1307.5528564453</ele>
        <time>2011-05-25T14:32:23Z</time>
      </trkpt>
      <trkpt lat="44.90701" lon="5.27604">
        <ele>1306.6383056641</ele>
        <time>2011-05-25T14:32:27Z</time>
      </trkpt>
      <trkpt lat="44.90691" lon="5.27598">
        <ele>1306.2308349609</ele>
        <time>2011-05-25T14:32:28Z</time>
      </trkpt>
      <trkpt lat="44.90665" lon="5.27576">
        <ele>1304.3331298828</ele>
        <time>2011-05-25T14:32:31Z</time>
      </trkpt>
      <trkpt lat="44.90614" lon="5.27521">
        <ele>1299.6696777344</ele>
        <time>2011-05-25T14:32:38Z</time>
      </trkpt>
      <trkpt lat="44.90577" lon="5.27478">
        <ele>1285.8524169922</ele>
        <time>2011-05-25T14:32:44Z</time>
      </trkpt>
      <trkpt lat="44.90538" lon="5.27435">
        <ele>1266.0841064453</ele>
        <time>2011-05-25T14:32:50Z</time>
      </trkpt>
      <trkpt lat="44.90495" lon="5.27397">
        <ele>1259.1553955078</ele>
        <time>2011-05-25T14:32:56Z</time>
      </trkpt>
      <trkpt lat="44.90487" lon="5.27388">
        <ele>1257.1435546875</ele>
        <time>2011-05-25T14:32:57Z</time>
      </trkpt>
      <trkpt lat="44.90447" lon="5.27324">
        <ele>1243.9112548828</ele>
        <time>2011-05-25T14:33:03Z</time>
      </trkpt>
      <trkpt lat="44.90404" lon="5.2725">
        <ele>1222.9652099609</ele>
        <time>2011-05-25T14:33:10Z</time>
      </trkpt>
      <trkpt lat="44.90398" lon="5.2724">
        <ele>1221.9025878906</ele>
        <time>2011-05-25T14:33:11Z</time>
      </trkpt>
      <trkpt lat="44.90366" lon="5.27213">
        <ele>1218.9891357422</ele>
        <time>2011-05-25T14:33:15Z</time>
      </trkpt>
      <trkpt lat="44.90358" lon="5.27211">
        <ele>1219.4772949219</ele>
        <time>2011-05-25T14:33:16Z</time>
      </trkpt>
      <trkpt lat="44.90293" lon="5.27207">
        <ele>1232.5891113281</ele>
        <time>2011-05-25T14:33:23Z</time>
      </trkpt>
      <trkpt lat="44.90241" lon="5.27207">
        <ele>1241.1262207031</ele>
        <time>2011-05-25T14:33:28Z</time>
      </trkpt>
      <trkpt lat="44.90187" lon="5.27203">
        <ele>1245.2077636719</ele>
        <time>2011-05-25T14:33:33Z</time>
      </trkpt>
      <trkpt lat="44.90126" lon="5.27203">
        <ele>1243.8280029297</ele>
        <time>2011-05-25T14:33:38Z</time>
      </trkpt>
      <trkpt lat="44.90061" lon="5.27197">
        <ele>1240.8471679688</ele>
        <time>2011-05-25T14:33:43Z</time>
      </trkpt>
      <trkpt lat="44.89993" lon="5.27187">
        <ele>1237.4533691406</ele>
        <time>2011-05-25T14:33:48Z</time>
      </trkpt>
      <trkpt lat="44.89936" lon="5.27183">
        <ele>1235.9172363281</ele>
        <time>2011-05-25T14:33:52Z</time>
      </trkpt>
      <trkpt lat="44.89852" lon="5.27203">
        <ele>1242.1201171875</ele>
        <time>2011-05-25T14:33:58Z</time>
      </trkpt>
      <trkpt lat="44.89795" lon="5.27184">
        <ele>1239.0233154297</ele>
        <time>2011-05-25T14:34:02Z</time>
      </trkpt>
      <trkpt lat="44.89766" lon="5.27192">
        <ele>1240.6870117188</ele>
        <time>2011-05-25T14:34:04Z</time>
      </trkpt>
      <trkpt lat="44.89753" lon="5.27201">
        <ele>1242.0914306641</ele>
        <time>2011-05-25T14:34:05Z</time>
      </trkpt>
      <trkpt lat="44.89712" lon="5.27222">
        <ele>1249.8316650391</ele>
        <time>2011-05-25T14:34:08Z</time>
      </trkpt>
      <trkpt lat="44.89671" lon="5.27221">
        <ele>1254.6776123047</ele>
        <time>2011-05-25T14:34:11Z</time>
      </trkpt>
      <trkpt lat="44.89651" lon="5.27205">
        <ele>1255.8427734375</ele>
        <time>2011-05-25T14:34:13Z</time>
      </trkpt>
      <trkpt lat="44.8965" lon="5.2717">
        <ele>1254.5822753906</ele>
        <time>2011-05-25T14:34:15Z</time>
      </trkpt>
      <trkpt lat="44.89664" lon="5.27149">
        <ele>1251.8088378906</ele>
        <time>2011-05-25T14:34:17Z</time>
      </trkpt>
      <trkpt lat="44.89684" lon="5.27147">
        <ele>1249.4604492188</ele>
        <time>2011-05-25T14:34:19Z</time>
      </trkpt>
      <trkpt lat="44.89693" lon="5.27148">
        <ele>1248.5145263672</ele>
        <time>2011-05-25T14:34:20Z</time>
      </trkpt>
      <trkpt lat="44.89734" lon="5.27137">
        <ele>1238.1014404297</ele>
        <time>2011-05-25T14:34:25Z</time>
      </trkpt>
      <trkpt lat="44.89748" lon="5.27122">
        <ele>1235.0870361328</ele>
        <time>2011-05-25T14:34:27Z</time>
      </trkpt>
      <trkpt lat="44.89798" lon="5.27048">
        <ele>1229.6003417969</ele>
        <time>2011-05-25T14:34:35Z</time>
      </trkpt>
      <trkpt lat="44.89839" lon="5.26997">
        <ele>1227.0007324219</ele>
        <time>2011-05-25T14:34:41Z</time>
      </trkpt>
      <trkpt lat="44.89891" lon="5.26956">
        <ele>1222.8449707031</ele>
        <time>2011-05-25T14:34:47Z</time>
      </trkpt>
      <trkpt lat="44.8993" lon="5.26925">
        <ele>1219.6655273438</ele>
        <time>2011-05-25T14:34:51Z</time>
      </trkpt>
      <trkpt lat="44.89967" lon="5.26888">
        <ele>1219.6796875</ele>
        <time>2011-05-25T14:34:55Z</time>
      </trkpt>
      <trkpt lat="44.90006" lon="5.26843">
        <ele>1218.7720947266</ele>
        <time>2011-05-25T14:35:00Z</time>
      </trkpt>
      <trkpt lat="44.9005" lon="5.26782">
        <ele>1220.25390625</ele>
        <time>2011-05-25T14:35:07Z</time>
      </trkpt>
      <trkpt lat="44.90071" lon="5.26734">
        <ele>1214.5434570312</ele>
        <time>2011-05-25T14:35:12Z</time>
      </trkpt>
      <trkpt lat="44.90086" lon="5.26675">
        <ele>1216.6392822266</ele>
        <time>2011-05-25T14:35:18Z</time>
      </trkpt>
      <trkpt lat="44.90095" lon="5.26647">
        <ele>1214.2878417969</ele>
        <time>2011-05-25T14:35:21Z</time>
      </trkpt>
      <trkpt lat="44.90105" lon="5.26621">
        <ele>1214.8380126953</ele>
        <time>2011-05-25T14:35:24Z</time>
      </trkpt>
      <trkpt lat="44.90125" lon="5.26572">
        <ele>1213.6358642578</ele>
        <time>2011-05-25T14:35:30Z</time>
      </trkpt>
      <trkpt lat="44.90149" lon="5.26513">
        <ele>1212.6850585938</ele>
        <time>2011-05-25T14:35:37Z</time>
      </trkpt>
      <trkpt lat="44.90177" lon="5.26442">
        <ele>1219.6159667969</ele>
        <time>2011-05-25T14:35:46Z</time>
      </trkpt>
      <trkpt lat="44.90197" lon="5.26404">
        <ele>1221.3001708984</ele>
        <time>2011-05-25T14:35:51Z</time>
      </trkpt>
      <trkpt lat="44.90223" lon="5.26357">
        <ele>1216.6134033203</ele>
        <time>2011-05-25T14:35:57Z</time>
      </trkpt>
      <trkpt lat="44.90227" lon="5.26308">
        <ele>1207.1282958984</ele>
        <time>2011-05-25T14:36:01Z</time>
      </trkpt>
      <trkpt lat="44.90219" lon="5.26283">
        <ele>1204.7319335938</ele>
        <time>2011-05-25T14:36:03Z</time>
      </trkpt>
      <trkpt lat="44.90207" lon="5.2626">
        <ele>1207.3895263672</ele>
        <time>2011-05-25T14:36:05Z</time>
      </trkpt>
      <trkpt lat="44.90167" lon="5.26191">
        <ele>1214.6433105469</ele>
        <time>2011-05-25T14:36:11Z</time>
      </trkpt>
      <trkpt lat="44.9016" lon="5.26142">
        <ele>1212.4340820312</ele>
        <time>2011-05-25T14:36:14Z</time>
      </trkpt>
      <trkpt lat="44.9017" lon="5.26115">
        <ele>1206.6590576172</ele>
        <time>2011-05-25T14:36:16Z</time>
      </trkpt>
      <trkpt lat="44.90187" lon="5.26092">
        <ele>1195.8441162109</ele>
        <time>2011-05-25T14:36:19Z</time>
      </trkpt>
      <trkpt lat="44.90198" lon="5.26057">
        <ele>1187.3326416016</ele>
        <time>2011-05-25T14:36:24Z</time>
      </trkpt>
      <trkpt lat="44.90198" lon="5.26044">
        <ele>1186.7828369141</ele>
        <time>2011-05-25T14:36:26Z</time>
      </trkpt>
      <trkpt lat="44.90197" lon="5.26031">
        <ele>1186.5769042969</ele>
        <time>2011-05-25T14:36:28Z</time>
      </trkpt>
      <trkpt lat="44.90184" lon="5.26004">
        <ele>1188.6394042969</ele>
        <time>2011-05-25T14:36:33Z</time>
      </trkpt>
      <trkpt lat="44.90174" lon="5.25996">
        <ele>1191.2442626953</ele>
        <time>2011-05-25T14:36:35Z</time>
      </trkpt>
      <trkpt lat="44.90133" lon="5.25978">
        <ele>1196.4416503906</ele>
        <time>2011-05-25T14:36:42Z</time>
      </trkpt>
      <trkpt lat="44.90126" lon="5.25976">
        <ele>1197.3856201172</ele>
        <time>2011-05-25T14:36:43Z</time>
      </trkpt>
      <trkpt lat="44.90096" lon="5.25968">
        <ele>1198.9575195312</ele>
        <time>2011-05-25T14:36:47Z</time>
      </trkpt>
      <trkpt lat="44.9005" lon="5.25955">
        <ele>1198.6864013672</ele>
        <time>2011-05-25T14:36:52Z</time>
      </trkpt>
      <trkpt lat="44.89996" lon="5.25942">
        <ele>1198.4598388672</ele>
        <time>2011-05-25T14:36:57Z</time>
      </trkpt>
      <trkpt lat="44.89926" lon="5.25925">
        <ele>1189.1431884766</ele>
        <time>2011-05-25T14:37:03Z</time>
      </trkpt>
      <trkpt lat="44.89874" lon="5.25905">
        <ele>1185.4365234375</ele>
        <time>2011-05-25T14:37:07Z</time>
      </trkpt>
      <trkpt lat="44.89794" lon="5.25863">
        <ele>1178.6893310547</ele>
        <time>2011-05-25T14:37:13Z</time>
      </trkpt>
      <trkpt lat="44.8968" lon="5.25806">
        <ele>1173.5443115234</ele>
        <time>2011-05-25T14:37:21Z</time>
      </trkpt>
      <trkpt lat="44.89621" lon="5.25792">
        <ele>1175.6530761719</ele>
        <time>2011-05-25T14:37:25Z</time>
      </trkpt>
      <trkpt lat="44.8959" lon="5.25785">
        <ele>1176.0640869141</ele>
        <time>2011-05-25T14:37:27Z</time>
      </trkpt>
      <trkpt lat="44.89533" lon="5.25752">
        <ele>1175.9666748047</ele>
        <time>2011-05-25T14:37:31Z</time>
      </trkpt>
      <trkpt lat="44.89453" lon="5.2569">
        <ele>1165.9333496094</ele>
        <time>2011-05-25T14:37:37Z</time>
      </trkpt>
      <trkpt lat="44.89419" lon="5.25647">
        <ele>1158.53125</ele>
        <time>2011-05-25T14:37:40Z</time>
      </trkpt>
      <trkpt lat="44.8937" lon="5.25565">
        <ele>1143.3194580078</ele>
        <time>2011-05-25T14:37:45Z</time>
      </trkpt>
      <trkpt lat="44.8935" lon="5.25536">
        <ele>1139.546875</ele>
        <time>2011-05-25T14:37:47Z</time>
      </trkpt>
      <trkpt lat="44.89288" lon="5.25486">
        <ele>1137.4940185547</ele>
        <time>2011-05-25T14:37:52Z</time>
      </trkpt>
      <trkpt lat="44.89234" lon="5.25461">
        <ele>1138.8212890625</ele>
        <time>2011-05-25T14:37:56Z</time>
      </trkpt>
      <trkpt lat="44.89206" lon="5.25426">
        <ele>1140</ele>
        <time>2011-05-25T14:37:59Z</time>
      </trkpt>
      <trkpt lat="44.89212" lon="5.25385">
        <ele>1140</ele>
        <time>2011-05-25T14:38:01Z</time>
      </trkpt>
      <trkpt lat="44.89228" lon="5.25359">
        <ele>1140.4288330078</ele>
        <time>2011-05-25T14:38:03Z</time>
      </trkpt>
      <trkpt lat="44.89262" lon="5.25332">
        <ele>1151.0992431641</ele>
        <time>2011-05-25T14:38:06Z</time>
      </trkpt>
      <trkpt lat="44.89301" lon="5.25325">
        <ele>1158.9827880859</ele>
        <time>2011-05-25T14:38:09Z</time>
      </trkpt>
      <trkpt lat="44.89314" lon="5.25326">
        <ele>1159.8497314453</ele>
        <time>2011-05-25T14:38:10Z</time>
      </trkpt>
      <trkpt lat="44.89358" lon="5.25331">
        <ele>1163.10546875</ele>
        <time>2011-05-25T14:38:14Z</time>
      </trkpt>
      <trkpt lat="44.89391" lon="5.25326">
        <ele>1164.9567871094</ele>
        <time>2011-05-25T14:38:18Z</time>
      </trkpt>
      <trkpt lat="44.89397" lon="5.25325">
        <ele>1165.8542480469</ele>
        <time>2011-05-25T14:38:19Z</time>
      </trkpt>
      <trkpt lat="44.89426" lon="5.25319">
        <ele>1169.9467773438</ele>
        <time>2011-05-25T14:38:24Z</time>
      </trkpt>
      <trkpt lat="44.89432" lon="5.25318">
        <ele>1170.7456054688</ele>
        <time>2011-05-25T14:38:25Z</time>
      </trkpt>
      <trkpt lat="44.89454" lon="5.25313">
        <ele>1174.6618652344</ele>
        <time>2011-05-25T14:38:30Z</time>
      </trkpt>
      <trkpt lat="44.89471" lon="5.25304">
        <ele>1180.087890625</ele>
        <time>2011-05-25T14:38:35Z</time>
      </trkpt>
      <trkpt lat="44.89488" lon="5.25297">
        <ele>1183.5051269531</ele>
        <time>2011-05-25T14:38:40Z</time>
      </trkpt>
      <trkpt lat="44.89507" lon="5.25287">
        <ele>1187.1273193359</ele>
        <time>2011-05-25T14:38:46Z</time>
      </trkpt>
      <trkpt lat="44.89519" lon="5.25281">
        <ele>1188.8438720703</ele>
        <time>2011-05-25T14:38:50Z</time>
      </trkpt>
      <trkpt lat="44.89533" lon="5.25276">
        <ele>1190.3442382812</ele>
        <time>2011-05-25T14:38:55Z</time>
      </trkpt>
      <trkpt lat="44.89548" lon="5.2527">
        <ele>1191.6317138672</ele>
        <time>2011-05-25T14:39:01Z</time>
      </trkpt>
      <trkpt lat="44.89563" lon="5.25266">
        <ele>1193.0183105469</ele>
        <time>2011-05-25T14:39:08Z</time>
      </trkpt>
      <trkpt lat="44.89584" lon="5.25262">
        <ele>1195.4445800781</ele>
        <time>2011-05-25T14:39:16Z</time>
      </trkpt>
      <trkpt lat="44.89609" lon="5.25256">
        <ele>1198.0222167969</ele>
        <time>2011-05-25T14:39:26Z</time>
      </trkpt>
      <trkpt lat="44.89627" lon="5.25256">
        <ele>1201.3245849609</ele>
        <time>2011-05-25T14:39:33Z</time>
      </trkpt>
      <trkpt lat="44.89646" lon="5.25257">
        <ele>1202.8458251953</ele>
        <time>2011-05-25T14:39:40Z</time>
      </trkpt>
      <trkpt lat="44.89671" lon="5.25254">
        <ele>1204.0611572266</ele>
        <time>2011-05-25T14:39:49Z</time>
      </trkpt>
      <trkpt lat="44.89696" lon="5.25252">
        <ele>1205.2147216797</ele>
        <time>2011-05-25T14:39:57Z</time>
      </trkpt>
      <trkpt lat="44.89722" lon="5.25247">
        <ele>1208.0694580078</ele>
        <time>2011-05-25T14:40:05Z</time>
      </trkpt>
      <trkpt lat="44.89751" lon="5.25243">
        <ele>1210.662109375</ele>
        <time>2011-05-25T14:40:14Z</time>
      </trkpt>
      <trkpt lat="44.89771" lon="5.25242">
        <ele>1211.001953125</ele>
        <time>2011-05-25T14:40:20Z</time>
      </trkpt>
      <trkpt lat="44.89792" lon="5.25239">
        <ele>1213.3193359375</ele>
        <time>2011-05-25T14:40:27Z</time>
      </trkpt>
      <trkpt lat="44.89817" lon="5.25235">
        <ele>1216.0676269531</ele>
        <time>2011-05-25T14:40:35Z</time>
      </trkpt>
      <trkpt lat="44.89832" lon="5.25232">
        <ele>1218.3610839844</ele>
        <time>2011-05-25T14:40:41Z</time>
      </trkpt>
      <trkpt lat="44.89853" lon="5.2523">
        <ele>1216.4665527344</ele>
        <time>2011-05-25T14:40:49Z</time>
      </trkpt>
      <trkpt lat="44.89863" lon="5.25226">
        <ele>1216.9216308594</ele>
        <time>2011-05-25T14:40:53Z</time>
      </trkpt>
      <trkpt lat="44.89866" lon="5.25226">
        <ele>1217.1962890625</ele>
        <time>2011-05-25T14:40:54Z</time>
      </trkpt>
      <trkpt lat="44.89879" lon="5.25224">
        <ele>1218.5009765625</ele>
        <time>2011-05-25T14:40:59Z</time>
      </trkpt>
      <trkpt lat="44.89893" lon="5.25222">
        <ele>1219.3715820312</ele>
        <time>2011-05-25T14:41:04Z</time>
      </trkpt>
      <trkpt lat="44.89919" lon="5.25215">
        <ele>1218.5889892578</ele>
        <time>2011-05-25T14:41:13Z</time>
      </trkpt>
      <trkpt lat="44.89943" lon="5.25202">
        <ele>1225.0296630859</ele>
        <time>2011-05-25T14:41:22Z</time>
      </trkpt>
      <trkpt lat="44.89966" lon="5.2519">
        <ele>1227.138671875</ele>
        <time>2011-05-25T14:41:30Z</time>
      </trkpt>
      <trkpt lat="44.89992" lon="5.25175">
        <ele>1236.9890136719</ele>
        <time>2011-05-25T14:41:39Z</time>
      </trkpt>
      <trkpt lat="44.9001" lon="5.25164">
        <ele>1243.2557373047</ele>
        <time>2011-05-25T14:41:46Z</time>
      </trkpt>
      <trkpt lat="44.90026" lon="5.25145">
        <ele>1251.2260742188</ele>
        <time>2011-05-25T14:41:53Z</time>
      </trkpt>
      <trkpt lat="44.90041" lon="5.2512">
        <ele>1269.7419433594</ele>
        <time>2011-05-25T14:42:01Z</time>
      </trkpt>
      <trkpt lat="44.90054" lon="5.25104">
        <ele>1283.2843017578</ele>
        <time>2011-05-25T14:42:07Z</time>
      </trkpt>
      <trkpt lat="44.90068" lon="5.25086">
        <ele>1294.3259277344</ele>
        <time>2011-05-25T14:42:13Z</time>
      </trkpt>
      <trkpt lat="44.90088" lon="5.25069">
        <ele>1296.7261962891</ele>
        <time>2011-05-25T14:42:21Z</time>
      </trkpt>
      <trkpt lat="44.90109" lon="5.2505">
        <ele>1295.4765625</ele>
        <time>2011-05-25T14:42:30Z</time>
      </trkpt>
      <trkpt lat="44.90119" lon="5.25043">
        <ele>1289.5307617188</ele>
        <time>2011-05-25T14:42:36Z</time>
      </trkpt>
      <trkpt lat="44.90118" lon="5.25042">
        <ele>1289.9892578125</ele>
        <time>2011-05-25T14:42:37Z</time>
      </trkpt>
      <trkpt lat="44.90121" lon="5.25039">
        <ele>1288.935546875</ele>
        <time>2011-05-25T14:43:07Z</time>
      </trkpt>
      <trkpt lat="44.90128" lon="5.25039">
        <ele>1283.1314697266</ele>
        <time>2011-05-25T14:43:12Z</time>
      </trkpt>
      <trkpt lat="44.90138" lon="5.25033">
        <ele>1278.1270751953</ele>
        <time>2011-05-25T14:43:16Z</time>
      </trkpt>
      <trkpt lat="44.90152" lon="5.25023">
        <ele>1278.6134033203</ele>
        <time>2011-05-25T14:43:21Z</time>
      </trkpt>
      <trkpt lat="44.90168" lon="5.25013">
        <ele>1275.8513183594</ele>
        <time>2011-05-25T14:43:27Z</time>
      </trkpt>
      <trkpt lat="44.90187" lon="5.24997">
        <ele>1264.5437011719</ele>
        <time>2011-05-25T14:43:34Z</time>
      </trkpt>
      <trkpt lat="44.90207" lon="5.24977">
        <ele>1246.7122802734</ele>
        <time>2011-05-25T14:43:42Z</time>
      </trkpt>
      <trkpt lat="44.90223" lon="5.24949">
        <ele>1221.8081054688</ele>
        <time>2011-05-25T14:43:51Z</time>
      </trkpt>
      <trkpt lat="44.90226" lon="5.24922">
        <ele>1209.8194580078</ele>
        <time>2011-05-25T14:43:58Z</time>
      </trkpt>
      <trkpt lat="44.90216" lon="5.249">
        <ele>1204.7269287109</ele>
        <time>2011-05-25T14:44:04Z</time>
      </trkpt>
      <trkpt lat="44.90208" lon="5.24892">
        <ele>1206.6781005859</ele>
        <time>2011-05-25T14:44:07Z</time>
      </trkpt>
      <trkpt lat="44.90194" lon="5.24894">
        <ele>1217.5911865234</ele>
        <time>2011-05-25T14:44:11Z</time>
      </trkpt>
      <trkpt lat="44.90172" lon="5.24909">
        <ele>1241.7611083984</ele>
        <time>2011-05-25T14:44:18Z</time>
      </trkpt>
      <trkpt lat="44.90154" lon="5.24917">
        <ele>1256.2265625</ele>
        <time>2011-05-25T14:44:25Z</time>
      </trkpt>
      <trkpt lat="44.90147" lon="5.24917">
        <ele>1259.1751708984</ele>
        <time>2011-05-25T14:44:31Z</time>
      </trkpt>
      <trkpt lat="44.90147" lon="5.24918">
        <ele>1259.5561523438</ele>
        <time>2011-05-25T14:44:32Z</time>
      </trkpt>
      <trkpt lat="44.9014" lon="5.24921">
        <ele>1264.1807861328</ele>
        <time>2011-05-25T14:44:49Z</time>
      </trkpt>
      <trkpt lat="44.9013" lon="5.2492">
        <ele>1276.1262207031</ele>
        <time>2011-05-25T14:44:55Z</time>
      </trkpt>
      <trkpt lat="44.90117" lon="5.24916">
        <ele>1291.6354980469</ele>
        <time>2011-05-25T14:45:01Z</time>
      </trkpt>
      <trkpt lat="44.90099" lon="5.24902">
        <ele>1296.9893798828</ele>
        <time>2011-05-25T14:45:09Z</time>
      </trkpt>
      <trkpt lat="44.90084" lon="5.24886">
        <ele>1300.2496337891</ele>
        <time>2011-05-25T14:45:16Z</time>
      </trkpt>
      <trkpt lat="44.90067" lon="5.24865">
        <ele>1301.5871582031</ele>
        <time>2011-05-25T14:45:24Z</time>
      </trkpt>
      <trkpt lat="44.9005" lon="5.24841">
        <ele>1303.6126708984</ele>
        <time>2011-05-25T14:45:32Z</time>
      </trkpt>
      <trkpt lat="44.90038" lon="5.24821">
        <ele>1299.3543701172</ele>
        <time>2011-05-25T14:45:38Z</time>
      </trkpt>
      <trkpt lat="44.90025" lon="5.24798">
        <ele>1297.6428222656</ele>
        <time>2011-05-25T14:45:45Z</time>
      </trkpt>
      <trkpt lat="44.90007" lon="5.24776">
        <ele>1297.6363525391</ele>
        <time>2011-05-25T14:45:53Z</time>
      </trkpt>
      <trkpt lat="44.89989" lon="5.2476">
        <ele>1299.546875</ele>
        <time>2011-05-25T14:46:00Z</time>
      </trkpt>
      <trkpt lat="44.89975" lon="5.24732">
        <ele>1301.4467773438</ele>
        <time>2011-05-25T14:46:09Z</time>
      </trkpt>
      <trkpt lat="44.89961" lon="5.24704">
        <ele>1300.5694580078</ele>
        <time>2011-05-25T14:46:17Z</time>
      </trkpt>
      <trkpt lat="44.89947" lon="5.24683">
        <ele>1303.0762939453</ele>
        <time>2011-05-25T14:46:24Z</time>
      </trkpt>
      <trkpt lat="44.89927" lon="5.24665">
        <ele>1307.6833496094</ele>
        <time>2011-05-25T14:46:32Z</time>
      </trkpt>
      <trkpt lat="44.89911" lon="5.24647">
        <ele>1311.5794677734</ele>
        <time>2011-05-25T14:46:39Z</time>
      </trkpt>
      <trkpt lat="44.89891" lon="5.2462">
        <ele>1314.5909423828</ele>
        <time>2011-05-25T14:46:48Z</time>
      </trkpt>
      <trkpt lat="44.89878" lon="5.24593">
        <ele>1317.2984619141</ele>
        <time>2011-05-25T14:46:56Z</time>
      </trkpt>
      <trkpt lat="44.8987" lon="5.24565">
        <ele>1316.53515625</ele>
        <time>2011-05-25T14:47:04Z</time>
      </trkpt>
      <trkpt lat="44.89867" lon="5.24542">
        <ele>1311.0451660156</ele>
        <time>2011-05-25T14:47:09Z</time>
      </trkpt>
      <trkpt lat="44.89866" lon="5.24508">
        <ele>1301.2913818359</ele>
        <time>2011-05-25T14:47:17Z</time>
      </trkpt>
      <trkpt lat="44.89869" lon="5.24478">
        <ele>1290.8665771484</ele>
        <time>2011-05-25T14:47:25Z</time>
      </trkpt>
      <trkpt lat="44.89867" lon="5.24455">
        <ele>1285.2484130859</ele>
        <time>2011-05-25T14:47:31Z</time>
      </trkpt>
      <trkpt lat="44.89859" lon="5.24434">
        <ele>1285.8602294922</ele>
        <time>2011-05-25T14:47:37Z</time>
      </trkpt>
      <trkpt lat="44.89858" lon="5.24416">
        <ele>1277.4577636719</ele>
        <time>2011-05-25T14:47:42Z</time>
      </trkpt>
      <trkpt lat="44.89861" lon="5.24394">
        <ele>1263.5191650391</ele>
        <time>2011-05-25T14:47:47Z</time>
      </trkpt>
      <trkpt lat="44.89864" lon="5.2437">
        <ele>1249.1901855469</ele>
        <time>2011-05-25T14:47:53Z</time>
      </trkpt>
      <trkpt lat="44.89863" lon="5.24342">
        <ele>1237.2562255859</ele>
        <time>2011-05-25T14:47:59Z</time>
      </trkpt>
      <trkpt lat="44.89852" lon="5.24315">
        <ele>1238.2044677734</ele>
        <time>2011-05-25T14:48:06Z</time>
      </trkpt>
      <trkpt lat="44.8984" lon="5.24297">
        <ele>1241.8312988281</ele>
        <time>2011-05-25T14:48:12Z</time>
      </trkpt>
      <trkpt lat="44.8983" lon="5.24276">
        <ele>1242.7905273438</ele>
        <time>2011-05-25T14:48:19Z</time>
      </trkpt>
      <trkpt lat="44.89821" lon="5.24254">
        <ele>1242.1622314453</ele>
        <time>2011-05-25T14:48:27Z</time>
      </trkpt>
      <trkpt lat="44.89815" lon="5.24236">
        <ele>1242.6459960938</ele>
        <time>2011-05-25T14:48:33Z</time>
      </trkpt>
      <trkpt lat="44.89807" lon="5.24215">
        <ele>1246.8813476562</ele>
        <time>2011-05-25T14:48:41Z</time>
      </trkpt>
      <trkpt lat="44.89801" lon="5.24192">
        <ele>1251.3497314453</ele>
        <time>2011-05-25T14:48:47Z</time>
      </trkpt>
      <trkpt lat="44.89795" lon="5.24157">
        <ele>1258.0223388672</ele>
        <time>2011-05-25T14:48:56Z</time>
      </trkpt>
      <trkpt lat="44.89796" lon="5.24133">
        <ele>1256.1596679688</ele>
        <time>2011-05-25T14:49:03Z</time>
      </trkpt>
      <trkpt lat="44.89794" lon="5.24107">
        <ele>1256.8876953125</ele>
        <time>2011-05-25T14:49:10Z</time>
      </trkpt>
      <trkpt lat="44.89793" lon="5.24081">
        <ele>1253.9145507812</ele>
        <time>2011-05-25T14:49:17Z</time>
      </trkpt>
      <trkpt lat="44.89794" lon="5.24054">
        <ele>1248.9304199219</ele>
        <time>2011-05-25T14:49:25Z</time>
      </trkpt>
      <trkpt lat="44.89791" lon="5.24032">
        <ele>1249.8934326172</ele>
        <time>2011-05-25T14:49:32Z</time>
      </trkpt>
      <trkpt lat="44.89783" lon="5.24007">
        <ele>1253.1480712891</ele>
        <time>2011-05-25T14:49:40Z</time>
      </trkpt>
      <trkpt lat="44.89774" lon="5.23984">
        <ele>1257.1979980469</ele>
        <time>2011-05-25T14:49:47Z</time>
      </trkpt>
      <trkpt lat="44.89758" lon="5.23957">
        <ele>1268.8240966797</ele>
        <time>2011-05-25T14:49:56Z</time>
      </trkpt>
      <trkpt lat="44.8975" lon="5.23931">
        <ele>1276.2095947266</ele>
        <time>2011-05-25T14:50:03Z</time>
      </trkpt>
      <trkpt lat="44.89754" lon="5.23911">
        <ele>1275.6279296875</ele>
        <time>2011-05-25T14:50:09Z</time>
      </trkpt>
      <trkpt lat="44.89763" lon="5.23879">
        <ele>1271.8458251953</ele>
        <time>2011-05-25T14:50:18Z</time>
      </trkpt>
      <trkpt lat="44.89774" lon="5.23861">
        <ele>1266.4654541016</ele>
        <time>2011-05-25T14:50:24Z</time>
      </trkpt>
      <trkpt lat="44.8978" lon="5.23841">
        <ele>1265.1419677734</ele>
        <time>2011-05-25T14:50:30Z</time>
      </trkpt>
      <trkpt lat="44.8978" lon="5.2381">
        <ele>1268.2506103516</ele>
        <time>2011-05-25T14:50:38Z</time>
      </trkpt>
      <trkpt lat="44.89777" lon="5.23776">
        <ele>1273.8117675781</ele>
        <time>2011-05-25T14:50:47Z</time>
      </trkpt>
      <trkpt lat="44.89772" lon="5.23741">
        <ele>1279.3344726562</ele>
        <time>2011-05-25T14:50:56Z</time>
      </trkpt>
      <trkpt lat="44.89775" lon="5.23719">
        <ele>1280.8455810547</ele>
        <time>2011-05-25T14:51:02Z</time>
      </trkpt>
      <trkpt lat="44.89781" lon="5.23699">
        <ele>1279.4808349609</ele>
        <time>2011-05-25T14:51:08Z</time>
      </trkpt>
      <trkpt lat="44.89787" lon="5.23685">
        <ele>1277.7875976562</ele>
        <time>2011-05-25T14:51:14Z</time>
      </trkpt>
      <trkpt lat="44.89793" lon="5.23664">
        <ele>1275.8717041016</ele>
        <time>2011-05-25T14:51:21Z</time>
      </trkpt>
      <trkpt lat="44.89798" lon="5.23643">
        <ele>1276.4234619141</ele>
        <time>2011-05-25T14:51:27Z</time>
      </trkpt>
      <trkpt lat="44.89797" lon="5.2362">
        <ele>1279.2576904297</ele>
        <time>2011-05-25T14:51:33Z</time>
      </trkpt>
      <trkpt lat="44.89792" lon="5.23589">
        <ele>1286.1219482422</ele>
        <time>2011-05-25T14:51:41Z</time>
      </trkpt>
      <trkpt lat="44.89789" lon="5.23554">
        <ele>1291.73828125</ele>
        <time>2011-05-25T14:51:49Z</time>
      </trkpt>
      <trkpt lat="44.89788" lon="5.23513">
        <ele>1295.8951416016</ele>
        <time>2011-05-25T14:51:58Z</time>
      </trkpt>
      <trkpt lat="44.89787" lon="5.23474">
        <ele>1299.8048095703</ele>
        <time>2011-05-25T14:52:05Z</time>
      </trkpt>
      <trkpt lat="44.89784" lon="5.2344">
        <ele>1301.5692138672</ele>
        <time>2011-05-25T14:52:11Z</time>
      </trkpt>
      <trkpt lat="44.89779" lon="5.23412">
        <ele>1301.9779052734</ele>
        <time>2011-05-25T14:52:16Z</time>
      </trkpt>
      <trkpt lat="44.89781" lon="5.23382">
        <ele>1302.0291748047</ele>
        <time>2011-05-25T14:52:21Z</time>
      </trkpt>
      <trkpt lat="44.89783" lon="5.23378">
        <ele>1302.0819091797</ele>
        <time>2011-05-25T14:52:22Z</time>
      </trkpt>
      <trkpt lat="44.89804" lon="5.23349">
        <ele>1302.9604492188</ele>
        <time>2011-05-25T14:52:30Z</time>
      </trkpt>
      <trkpt lat="44.89814" lon="5.2333">
        <ele>1304.130859375</ele>
        <time>2011-05-25T14:52:35Z</time>
      </trkpt>
      <trkpt lat="44.89828" lon="5.23302">
        <ele>1308.3985595703</ele>
        <time>2011-05-25T14:52:43Z</time>
      </trkpt>
      <trkpt lat="44.89837" lon="5.23275">
        <ele>1313.2366943359</ele>
        <time>2011-05-25T14:52:51Z</time>
      </trkpt>
      <trkpt lat="44.89845" lon="5.23254">
        <ele>1315.1164550781</ele>
        <time>2011-05-25T14:52:58Z</time>
      </trkpt>
      <trkpt lat="44.8985" lon="5.23236">
        <ele>1317.4781494141</ele>
        <time>2011-05-25T14:53:04Z</time>
      </trkpt>
      <trkpt lat="44.89855" lon="5.23218">
        <ele>1319.8291015625</ele>
        <time>2011-05-25T14:53:10Z</time>
      </trkpt>
      <trkpt lat="44.89862" lon="5.23198">
        <ele>1321.8819580078</ele>
        <time>2011-05-25T14:53:17Z</time>
      </trkpt>
      <trkpt lat="44.89867" lon="5.23179">
        <ele>1323.9943847656</ele>
        <time>2011-05-25T14:53:23Z</time>
      </trkpt>
      <trkpt lat="44.89872" lon="5.23154">
        <ele>1327.0736083984</ele>
        <time>2011-05-25T14:53:31Z</time>
      </trkpt>
      <trkpt lat="44.89877" lon="5.23126">
        <ele>1330.5375976562</ele>
        <time>2011-05-25T14:53:40Z</time>
      </trkpt>
      <trkpt lat="44.89883" lon="5.231">
        <ele>1334.4514160156</ele>
        <time>2011-05-25T14:53:48Z</time>
      </trkpt>
      <trkpt lat="44.89889" lon="5.23072">
        <ele>1338.3552246094</ele>
        <time>2011-05-25T14:53:56Z</time>
      </trkpt>
      <trkpt lat="44.8993" lon="5.22928">
        <ele>1338.2413330078</ele>
        <time>2011-05-25T14:54:27Z</time>
      </trkpt>
      <trkpt lat="44.8994" lon="5.22882">
        <ele>1336.9450683594</ele>
        <time>2011-05-25T14:54:33Z</time>
      </trkpt>
      <trkpt lat="44.89942" lon="5.22864">
        <ele>1336.3011474609</ele>
        <time>2011-05-25T14:54:35Z</time>
      </trkpt>
      <trkpt lat="44.8994" lon="5.22827">
        <ele>1336.1496582031</ele>
        <time>2011-05-25T14:54:39Z</time>
      </trkpt>
      <trkpt lat="44.89931" lon="5.2279">
        <ele>1336.4816894531</ele>
        <time>2011-05-25T14:54:43Z</time>
      </trkpt>
      <trkpt lat="44.89908" lon="5.22721">
        <ele>1337.271484375</ele>
        <time>2011-05-25T14:54:50Z</time>
      </trkpt>
      <trkpt lat="44.89902" lon="5.22689">
        <ele>1338.0072021484</ele>
        <time>2011-05-25T14:54:53Z</time>
      </trkpt>
      <trkpt lat="44.89901" lon="5.22624">
        <ele>1336.8583984375</ele>
        <time>2011-05-25T14:54:59Z</time>
      </trkpt>
      <trkpt lat="44.89905" lon="5.22547">
        <ele>1334.1842041016</ele>
        <time>2011-05-25T14:55:06Z</time>
      </trkpt>
      <trkpt lat="44.89919" lon="5.22492">
        <ele>1333.0836181641</ele>
        <time>2011-05-25T14:55:11Z</time>
      </trkpt>
      <trkpt lat="44.89943" lon="5.22415">
        <ele>1333.1716308594</ele>
        <time>2011-05-25T14:55:18Z</time>
      </trkpt>
      <trkpt lat="44.89954" lon="5.22381">
        <ele>1333.1176757812</ele>
        <time>2011-05-25T14:55:21Z</time>
      </trkpt>
      <trkpt lat="44.89986" lon="5.2234">
        <ele>1333.1596679688</ele>
        <time>2011-05-25T14:55:26Z</time>
      </trkpt>
      <trkpt lat="44.9001" lon="5.22329">
        <ele>1333.3190917969</ele>
        <time>2011-05-25T14:55:29Z</time>
      </trkpt>
      <trkpt lat="44.90019" lon="5.22328">
        <ele>1333.4118652344</ele>
        <time>2011-05-25T14:55:30Z</time>
      </trkpt>
      <trkpt lat="44.90036" lon="5.22327">
        <ele>1333.4427490234</ele>
        <time>2011-05-25T14:55:32Z</time>
      </trkpt>
      <trkpt lat="44.90078" lon="5.2234">
        <ele>1332.4848632812</ele>
        <time>2011-05-25T14:55:37Z</time>
      </trkpt>
      <trkpt lat="44.90116" lon="5.22364">
        <ele>1332.5518798828</ele>
        <time>2011-05-25T14:55:42Z</time>
      </trkpt>
      <trkpt lat="44.90148" lon="5.22388">
        <ele>1341.9487304688</ele>
        <time>2011-05-25T14:55:46Z</time>
      </trkpt>
      <trkpt lat="44.90178" lon="5.22424">
        <ele>1341.4057617188</ele>
        <time>2011-05-25T14:55:50Z</time>
      </trkpt>
      <trkpt lat="44.90221" lon="5.22457">
        <ele>1344.0173339844</ele>
        <time>2011-05-25T14:55:55Z</time>
      </trkpt>
      <trkpt lat="44.90251" lon="5.2247">
        <ele>1346.6625976562</ele>
        <time>2011-05-25T14:55:58Z</time>
      </trkpt>
      <trkpt lat="44.9026" lon="5.22473">
        <ele>1348.1260986328</ele>
        <time>2011-05-25T14:55:59Z</time>
      </trkpt>
      <trkpt lat="44.90296" lon="5.22504">
        <ele>1346.1892089844</ele>
        <time>2011-05-25T14:56:03Z</time>
      </trkpt>
      <trkpt lat="44.9034" lon="5.22556">
        <ele>1338.9676513672</ele>
        <time>2011-05-25T14:56:08Z</time>
      </trkpt>
      <trkpt lat="44.90375" lon="5.22565">
        <ele>1338.2022705078</ele>
        <time>2011-05-25T14:56:11Z</time>
      </trkpt>
      <trkpt lat="44.90387" lon="5.22564">
        <ele>1338.7172851562</ele>
        <time>2011-05-25T14:56:12Z</time>
      </trkpt>
      <trkpt lat="44.90436" lon="5.22578">
        <ele>1336.0284423828</ele>
        <time>2011-05-25T14:56:16Z</time>
      </trkpt>
      <trkpt lat="44.90458" lon="5.22593">
        <ele>1333.8079833984</ele>
        <time>2011-05-25T14:56:18Z</time>
      </trkpt>
      <trkpt lat="44.90493" lon="5.22604">
        <ele>1333.2958984375</ele>
        <time>2011-05-25T14:56:21Z</time>
      </trkpt>
      <trkpt lat="44.90524" lon="5.2263">
        <ele>1328.9641113281</ele>
        <time>2011-05-25T14:56:24Z</time>
      </trkpt>
      <trkpt lat="44.90549" lon="5.22664">
        <ele>1324.0792236328</ele>
        <time>2011-05-25T14:56:27Z</time>
      </trkpt>
      <trkpt lat="44.90561" lon="5.22672">
        <ele>1323.3043212891</ele>
        <time>2011-05-25T14:56:28Z</time>
      </trkpt>
      <trkpt lat="44.90594" lon="5.22692">
        <ele>1321.4206542969</ele>
        <time>2011-05-25T14:56:31Z</time>
      </trkpt>
      <trkpt lat="44.90642" lon="5.22705">
        <ele>1318.7180175781</ele>
        <time>2011-05-25T14:56:35Z</time>
      </trkpt>
      <trkpt lat="44.90654" lon="5.22704">
        <ele>1318.3065185547</ele>
        <time>2011-05-25T14:56:36Z</time>
      </trkpt>
      <trkpt lat="44.90689" lon="5.22695">
        <ele>1316.4908447266</ele>
        <time>2011-05-25T14:56:39Z</time>
      </trkpt>
      <trkpt lat="44.90749" lon="5.22697">
        <ele>1312.7484130859</ele>
        <time>2011-05-25T14:56:44Z</time>
      </trkpt>
      <trkpt lat="44.90796" lon="5.22691">
        <ele>1312.3707275391</ele>
        <time>2011-05-25T14:56:48Z</time>
      </trkpt>
      <trkpt lat="44.90819" lon="5.22688">
        <ele>1311.7425537109</ele>
        <time>2011-05-25T14:56:50Z</time>
      </trkpt>
      <trkpt lat="44.90858" lon="5.22694">
        <ele>1309.9965820312</ele>
        <time>2011-05-25T14:56:54Z</time>
      </trkpt>
      <trkpt lat="44.90908" lon="5.22714">
        <ele>1305.8819580078</ele>
        <time>2011-05-25T14:57:00Z</time>
      </trkpt>
      <trkpt lat="44.90942" lon="5.22705">
        <ele>1305.3498535156</ele>
        <time>2011-05-25T14:57:04Z</time>
      </trkpt>
      <trkpt lat="44.90963" lon="5.22681">
        <ele>1306.9406738281</ele>
        <time>2011-05-25T14:57:07Z</time>
      </trkpt>
      <trkpt lat="44.90974" lon="5.2266">
        <ele>1308.5028076172</ele>
        <time>2011-05-25T14:57:09Z</time>
      </trkpt>
      <trkpt lat="44.91006" lon="5.22644">
        <ele>1309.8927001953</ele>
        <time>2011-05-25T14:57:13Z</time>
      </trkpt>
      <trkpt lat="44.91015" lon="5.22645">
        <ele>1310.1228027344</ele>
        <time>2011-05-25T14:57:14Z</time>
      </trkpt>
      <trkpt lat="44.91068" lon="5.2265">
        <ele>1309.7420654297</ele>
        <time>2011-05-25T14:57:21Z</time>
      </trkpt>
      <trkpt lat="44.91091" lon="5.22653">
        <ele>1309.0040283203</ele>
        <time>2011-05-25T14:57:24Z</time>
      </trkpt>
      <trkpt lat="44.91127" lon="5.22667">
        <ele>1306.8801269531</ele>
        <time>2011-05-25T14:57:29Z</time>
      </trkpt>
      <trkpt lat="44.91166" lon="5.22692">
        <ele>1303.1881103516</ele>
        <time>2011-05-25T14:57:35Z</time>
      </trkpt>
      <trkpt lat="44.91201" lon="5.22709">
        <ele>1302.25</ele>
        <time>2011-05-25T14:57:40Z</time>
      </trkpt>
      <trkpt lat="44.91212" lon="5.22716">
        <ele>1301.5822753906</ele>
        <time>2011-05-25T14:57:42Z</time>
      </trkpt>
      <trkpt lat="44.91254" lon="5.22732">
        <ele>1300.5529785156</ele>
        <time>2011-05-25T14:57:48Z</time>
      </trkpt>
      <trkpt lat="44.91293" lon="5.2275">
        <ele>1296.6513671875</ele>
        <time>2011-05-25T14:57:54Z</time>
      </trkpt>
      <trkpt lat="44.9132" lon="5.22746">
        <ele>1292.796875</ele>
        <time>2011-05-25T14:57:58Z</time>
      </trkpt>
      <trkpt lat="44.91341" lon="5.2272">
        <ele>1293.5300292969</ele>
        <time>2011-05-25T14:58:02Z</time>
      </trkpt>
      <trkpt lat="44.91371" lon="5.22671">
        <ele>1288.2166748047</ele>
        <time>2011-05-25T14:58:08Z</time>
      </trkpt>
      <trkpt lat="44.91382" lon="5.22655">
        <ele>1284.8499755859</ele>
        <time>2011-05-25T14:58:10Z</time>
      </trkpt>
      <trkpt lat="44.91396" lon="5.22616">
        <ele>1276.4411621094</ele>
        <time>2011-05-25T14:58:14Z</time>
      </trkpt>
      <trkpt lat="44.9139" lon="5.22577">
        <ele>1268.5919189453</ele>
        <time>2011-05-25T14:58:17Z</time>
      </trkpt>
      <trkpt lat="44.91369" lon="5.2249">
        <ele>1264.6917724609</ele>
        <time>2011-05-25T14:58:23Z</time>
      </trkpt>
      <trkpt lat="44.9134" lon="5.22396">
        <ele>1262.4157714844</ele>
        <time>2011-05-25T14:58:29Z</time>
      </trkpt>
      <trkpt lat="44.9132" lon="5.22334">
        <ele>1261.4343261719</ele>
        <time>2011-05-25T14:58:33Z</time>
      </trkpt>
      <trkpt lat="44.91289" lon="5.22286">
        <ele>1262.4222412109</ele>
        <time>2011-05-25T14:58:37Z</time>
      </trkpt>
      <trkpt lat="44.91253" lon="5.22239">
        <ele>1262.4067382812</ele>
        <time>2011-05-25T14:58:42Z</time>
      </trkpt>
      <trkpt lat="44.9123" lon="5.22208">
        <ele>1266.3748779297</ele>
        <time>2011-05-25T14:58:45Z</time>
      </trkpt>
      <trkpt lat="44.91216" lon="5.22163">
        <ele>1266.4129638672</ele>
        <time>2011-05-25T14:58:48Z</time>
      </trkpt>
      <trkpt lat="44.91216" lon="5.22145">
        <ele>1265.37890625</ele>
        <time>2011-05-25T14:58:49Z</time>
      </trkpt>
      <trkpt lat="44.91216" lon="5.22031">
        <ele>1252.3275146484</ele>
        <time>2011-05-25T14:58:55Z</time>
      </trkpt>
      <trkpt lat="44.91215" lon="5.22013">
        <ele>1249.4782714844</ele>
        <time>2011-05-25T14:58:56Z</time>
      </trkpt>
      <trkpt lat="44.91196" lon="5.2195">
        <ele>1240.8748779297</ele>
        <time>2011-05-25T14:59:00Z</time>
      </trkpt>
      <trkpt lat="44.91161" lon="5.21877">
        <ele>1217.9377441406</ele>
        <time>2011-05-25T14:59:05Z</time>
      </trkpt>
      <trkpt lat="44.91156" lon="5.21861">
        <ele>1213.9741210938</ele>
        <time>2011-05-25T14:59:06Z</time>
      </trkpt>
      <trkpt lat="44.91121" lon="5.21805">
        <ele>1199.8929443359</ele>
        <time>2011-05-25T14:59:10Z</time>
      </trkpt>
      <trkpt lat="44.91108" lon="5.21797">
        <ele>1198.5101318359</ele>
        <time>2011-05-25T14:59:11Z</time>
      </trkpt>
      <trkpt lat="44.9106" lon="5.21754">
        <ele>1194.1154785156</ele>
        <time>2011-05-25T14:59:15Z</time>
      </trkpt>
      <trkpt lat="44.91011" lon="5.21732">
        <ele>1195.9289550781</ele>
        <time>2011-05-25T14:59:19Z</time>
      </trkpt>
      <trkpt lat="44.91" lon="5.2173">
        <ele>1196.5617675781</ele>
        <time>2011-05-25T14:59:20Z</time>
      </trkpt>
      <trkpt lat="44.90974" lon="5.2171">
        <ele>1198.4053955078</ele>
        <time>2011-05-25T14:59:23Z</time>
      </trkpt>
      <trkpt lat="44.90977" lon="5.21686">
        <ele>1195.61328125</ele>
        <time>2011-05-25T14:59:25Z</time>
      </trkpt>
      <trkpt lat="44.90988" lon="5.21657">
        <ele>1191.8848876953</ele>
        <time>2011-05-25T14:59:27Z</time>
      </trkpt>
      <trkpt lat="44.90989" lon="5.21612">
        <ele>1187.3568115234</ele>
        <time>2011-05-25T14:59:30Z</time>
      </trkpt>
      <trkpt lat="44.90971" lon="5.2159">
        <ele>1187.6047363281</ele>
        <time>2011-05-25T14:59:32Z</time>
      </trkpt>
      <trkpt lat="44.90959" lon="5.21584">
        <ele>1189.3762207031</ele>
        <time>2011-05-25T14:59:33Z</time>
      </trkpt>
      <trkpt lat="44.90921" lon="5.2157">
        <ele>1196.9243164062</ele>
        <time>2011-05-25T14:59:36Z</time>
      </trkpt>
      <trkpt lat="44.90877" lon="5.21525">
        <ele>1196.6602783203</ele>
        <time>2011-05-25T14:59:40Z</time>
      </trkpt>
      <trkpt lat="44.90858" lon="5.2147">
        <ele>1194.3929443359</ele>
        <time>2011-05-25T14:59:43Z</time>
      </trkpt>
      <trkpt lat="44.90866" lon="5.21429">
        <ele>1191.0327148438</ele>
        <time>2011-05-25T14:59:45Z</time>
      </trkpt>
      <trkpt lat="44.90897" lon="5.2139">
        <ele>1183.568359375</ele>
        <time>2011-05-25T14:59:48Z</time>
      </trkpt>
      <trkpt lat="44.90928" lon="5.21382">
        <ele>1179.8509521484</ele>
        <time>2011-05-25T14:59:50Z</time>
      </trkpt>
      <trkpt lat="44.90955" lon="5.21368">
        <ele>1179.6376953125</ele>
        <time>2011-05-25T14:59:52Z</time>
      </trkpt>
      <trkpt lat="44.91022" lon="5.21276">
        <ele>1181.2604980469</ele>
        <time>2011-05-25T14:59:59Z</time>
      </trkpt>
      <trkpt lat="44.91047" lon="5.21236">
        <ele>1179.8894042969</ele>
        <time>2011-05-25T15:00:02Z</time>
      </trkpt>
      <trkpt lat="44.91055" lon="5.21223">
        <ele>1180.0346679688</ele>
        <time>2011-05-25T15:00:03Z</time>
      </trkpt>
      <trkpt lat="44.91066" lon="5.21179">
        <ele>1179.2495117188</ele>
        <time>2011-05-25T15:00:06Z</time>
      </trkpt>
      <trkpt lat="44.91066" lon="5.2115">
        <ele>1179.4968261719</ele>
        <time>2011-05-25T15:00:08Z</time>
      </trkpt>
      <trkpt lat="44.91062" lon="5.21122">
        <ele>1179.7758789062</ele>
        <time>2011-05-25T15:00:10Z</time>
      </trkpt>
      <trkpt lat="44.91059" lon="5.21095">
        <ele>1180.3869628906</ele>
        <time>2011-05-25T15:00:12Z</time>
      </trkpt>
      <trkpt lat="44.91065" lon="5.21032">
        <ele>1181.3044433594</ele>
        <time>2011-05-25T15:00:17Z</time>
      </trkpt>
      <trkpt lat="44.91068" lon="5.21021">
        <ele>1181.2266845703</ele>
        <time>2011-05-25T15:00:18Z</time>
      </trkpt>
      <trkpt lat="44.91079" lon="5.2096">
        <ele>1181.0423583984</ele>
        <time>2011-05-25T15:00:23Z</time>
      </trkpt>
      <trkpt lat="44.91085" lon="5.20928">
        <ele>1180.8143310547</ele>
        <time>2011-05-25T15:00:26Z</time>
      </trkpt>
      <trkpt lat="44.91107" lon="5.20879">
        <ele>1179.4248046875</ele>
        <time>2011-05-25T15:00:31Z</time>
      </trkpt>
      <trkpt lat="44.9114" lon="5.20838">
        <ele>1176.7420654297</ele>
        <time>2011-05-25T15:00:37Z</time>
      </trkpt>
      <trkpt lat="44.91145" lon="5.20833">
        <ele>1176.5549316406</ele>
        <time>2011-05-25T15:00:38Z</time>
      </trkpt>
      <trkpt lat="44.91171" lon="5.20821">
        <ele>1175.7843017578</ele>
        <time>2011-05-25T15:00:42Z</time>
      </trkpt>
      <trkpt lat="44.91199" lon="5.20817">
        <ele>1175.1390380859</ele>
        <time>2011-05-25T15:00:46Z</time>
      </trkpt>
      <trkpt lat="44.91233" lon="5.20815">
        <ele>1174.8414306641</ele>
        <time>2011-05-25T15:00:50Z</time>
      </trkpt>
      <trkpt lat="44.91259" lon="5.20824">
        <ele>1172.7091064453</ele>
        <time>2011-05-25T15:00:53Z</time>
      </trkpt>
      <trkpt lat="44.91287" lon="5.20841">
        <ele>1168.8238525391</ele>
        <time>2011-05-25T15:00:56Z</time>
      </trkpt>
      <trkpt lat="44.91317" lon="5.2086">
        <ele>1165.6682128906</ele>
        <time>2011-05-25T15:00:59Z</time>
      </trkpt>
      <trkpt lat="44.9137" lon="5.20894">
        <ele>1161.4749755859</ele>
        <time>2011-05-25T15:01:04Z</time>
      </trkpt>
      <trkpt lat="44.91439" lon="5.20941">
        <ele>1155.8990478516</ele>
        <time>2011-05-25T15:01:10Z</time>
      </trkpt>
      <trkpt lat="44.91465" lon="5.20956">
        <ele>1151.5848388672</ele>
        <time>2011-05-25T15:01:12Z</time>
      </trkpt>
      <trkpt lat="44.91521" lon="5.20962">
        <ele>1145.8385009766</ele>
        <time>2011-05-25T15:01:16Z</time>
      </trkpt>
      <trkpt lat="44.916" lon="5.20962">
        <ele>1137.2102050781</ele>
        <time>2011-05-25T15:01:21Z</time>
      </trkpt>
      <trkpt lat="44.91616" lon="5.20963">
        <ele>1133.9685058594</ele>
        <time>2011-05-25T15:01:22Z</time>
      </trkpt>
      <trkpt lat="44.91679" lon="5.2094">
        <ele>1124.29296875</ele>
        <time>2011-05-25T15:01:26Z</time>
      </trkpt>
      <trkpt lat="44.91693" lon="5.20929">
        <ele>1121.5498046875</ele>
        <time>2011-05-25T15:01:27Z</time>
      </trkpt>
      <trkpt lat="44.91763" lon="5.20876">
        <ele>1107.5089111328</ele>
        <time>2011-05-25T15:01:32Z</time>
      </trkpt>
      <trkpt lat="44.91848" lon="5.20818">
        <ele>1094.7332763672</ele>
        <time>2011-05-25T15:01:38Z</time>
      </trkpt>
      <trkpt lat="44.91891" lon="5.20793">
        <ele>1092.4598388672</ele>
        <time>2011-05-25T15:01:41Z</time>
      </trkpt>
      <trkpt lat="44.9194" lon="5.20732">
        <ele>1090.7446289062</ele>
        <time>2011-05-25T15:01:45Z</time>
      </trkpt>
      <trkpt lat="44.91948" lon="5.20713">
        <ele>1090.9442138672</ele>
        <time>2011-05-25T15:01:46Z</time>
      </trkpt>
      <trkpt lat="44.91966" lon="5.20675">
        <ele>1090.4532470703</ele>
        <time>2011-05-25T15:01:48Z</time>
      </trkpt>
      <trkpt lat="44.92015" lon="5.20622">
        <ele>1098.3702392578</ele>
        <time>2011-05-25T15:01:52Z</time>
      </trkpt>
      <trkpt lat="44.9203" lon="5.20584">
        <ele>1099.9622802734</ele>
        <time>2011-05-25T15:01:54Z</time>
      </trkpt>
      <trkpt lat="44.92044" lon="5.20501">
        <ele>1100</ele>
        <time>2011-05-25T15:01:58Z</time>
      </trkpt>
      <trkpt lat="44.92064" lon="5.20405">
        <ele>1089.3078613281</ele>
        <time>2011-05-25T15:02:02Z</time>
      </trkpt>
      <trkpt lat="44.92105" lon="5.20308">
        <ele>1064.2735595703</ele>
        <time>2011-05-25T15:02:07Z</time>
      </trkpt>
      <trkpt lat="44.92113" lon="5.20292">
        <ele>1059.3117675781</ele>
        <time>2011-05-25T15:02:08Z</time>
      </trkpt>
      <trkpt lat="44.92153" lon="5.20273">
        <ele>1051.8209228516</ele>
        <time>2011-05-25T15:02:12Z</time>
      </trkpt>
      <trkpt lat="44.92167" lon="5.20257">
        <ele>1045.8294677734</ele>
        <time>2011-05-25T15:02:14Z</time>
      </trkpt>
      <trkpt lat="44.92162" lon="5.20227">
        <ele>1034.7329101562</ele>
        <time>2011-05-25T15:02:16Z</time>
      </trkpt>
      <trkpt lat="44.92142" lon="5.20208">
        <ele>1032.2967529297</ele>
        <time>2011-05-25T15:02:18Z</time>
      </trkpt>
      <trkpt lat="44.92131" lon="5.20201">
        <ele>1031.5526123047</ele>
        <time>2011-05-25T15:02:19Z</time>
      </trkpt>
      <trkpt lat="44.92074" lon="5.20161">
        <ele>1021.5673828125</ele>
        <time>2011-05-25T15:02:24Z</time>
      </trkpt>
      <trkpt lat="44.92023" lon="5.20128">
        <ele>1016.9853515625</ele>
        <time>2011-05-25T15:02:28Z</time>
      </trkpt>
      <trkpt lat="44.91972" lon="5.20084">
        <ele>1004.5717163086</ele>
        <time>2011-05-25T15:02:32Z</time>
      </trkpt>
      <trkpt lat="44.91889" lon="5.20014">
        <ele>996.56414794922</ele>
        <time>2011-05-25T15:02:38Z</time>
      </trkpt>
      <trkpt lat="44.91799" lon="5.19962">
        <ele>985.29772949219</ele>
        <time>2011-05-25T15:02:44Z</time>
      </trkpt>
      <trkpt lat="44.91719" lon="5.1993">
        <ele>988.31066894531</ele>
        <time>2011-05-25T15:02:49Z</time>
      </trkpt>
      <trkpt lat="44.91642" lon="5.19896">
        <ele>985.25915527344</ele>
        <time>2011-05-25T15:02:54Z</time>
      </trkpt>
      <trkpt lat="44.91579" lon="5.19879">
        <ele>984.10729980469</ele>
        <time>2011-05-25T15:02:58Z</time>
      </trkpt>
      <trkpt lat="44.91481" lon="5.19871">
        <ele>979.34753417969</ele>
        <time>2011-05-25T15:03:04Z</time>
      </trkpt>
      <trkpt lat="44.91431" lon="5.19864">
        <ele>976.79284667969</ele>
        <time>2011-05-25T15:03:07Z</time>
      </trkpt>
      <trkpt lat="44.91384" lon="5.19861">
        <ele>976.08483886719</ele>
        <time>2011-05-25T15:03:10Z</time>
      </trkpt>
      <trkpt lat="44.91351" lon="5.19871">
        <ele>978.46710205078</ele>
        <time>2011-05-25T15:03:13Z</time>
      </trkpt>
      <trkpt lat="44.91337" lon="5.19873">
        <ele>979.04388427734</ele>
        <time>2011-05-25T15:03:15Z</time>
      </trkpt>
      <trkpt lat="44.91335" lon="5.19867">
        <ele>977.36157226562</ele>
        <time>2011-05-25T15:03:16Z</time>
      </trkpt>
      <trkpt lat="44.91343" lon="5.19852">
        <ele>972.68902587891</ele>
        <time>2011-05-25T15:03:18Z</time>
      </trkpt>
      <trkpt lat="44.91367" lon="5.19848">
        <ele>970.73901367188</ele>
        <time>2011-05-25T15:03:21Z</time>
      </trkpt>
      <trkpt lat="44.91406" lon="5.19834">
        <ele>966.39233398438</ele>
        <time>2011-05-25T15:03:26Z</time>
      </trkpt>
      <trkpt lat="44.91446" lon="5.1982">
        <ele>961.31115722656</ele>
        <time>2011-05-25T15:03:30Z</time>
      </trkpt>
      <trkpt lat="44.91499" lon="5.19805">
        <ele>953.83752441406</ele>
        <time>2011-05-25T15:03:35Z</time>
      </trkpt>
      <trkpt lat="44.91545" lon="5.19805">
        <ele>955.75823974609</ele>
        <time>2011-05-25T15:03:39Z</time>
      </trkpt>
      <trkpt lat="44.91604" lon="5.19796">
        <ele>953.10778808594</ele>
        <time>2011-05-25T15:03:44Z</time>
      </trkpt>
      <trkpt lat="44.91677" lon="5.19783">
        <ele>944.34509277344</ele>
        <time>2011-05-25T15:03:50Z</time>
      </trkpt>
      <trkpt lat="44.91728" lon="5.1978">
        <ele>939.77288818359</ele>
        <time>2011-05-25T15:03:54Z</time>
      </trkpt>
      <trkpt lat="44.91819" lon="5.1979">
        <ele>923.67016601562</ele>
        <time>2011-05-25T15:04:01Z</time>
      </trkpt>
      <trkpt lat="44.9184" lon="5.19798">
        <ele>920.76770019531</ele>
        <time>2011-05-25T15:04:03Z</time>
      </trkpt>
      <trkpt lat="44.91854" lon="5.19782">
        <ele>913.01751708984</ele>
        <time>2011-05-25T15:04:06Z</time>
      </trkpt>
      <trkpt lat="44.91846" lon="5.19777">
        <ele>912.85302734375</ele>
        <time>2011-05-25T15:04:08Z</time>
      </trkpt>
      <trkpt lat="44.91838" lon="5.19776">
        <ele>914.0478515625</ele>
        <time>2011-05-25T15:04:09Z</time>
      </trkpt>
      <trkpt lat="44.91789" lon="5.19754">
        <ele>917.10028076172</ele>
        <time>2011-05-25T15:04:15Z</time>
      </trkpt>
      <trkpt lat="44.91741" lon="5.19734">
        <ele>920.79968261719</ele>
        <time>2011-05-25T15:04:20Z</time>
      </trkpt>
      <trkpt lat="44.91731" lon="5.19731">
        <ele>921.17047119141</ele>
        <time>2011-05-25T15:04:21Z</time>
      </trkpt>
      <trkpt lat="44.91672" lon="5.19686">
        <ele>910.04211425781</ele>
        <time>2011-05-25T15:04:27Z</time>
      </trkpt>
      <trkpt lat="44.91618" lon="5.19651">
        <ele>906.43017578125</ele>
        <time>2011-05-25T15:04:32Z</time>
      </trkpt>
      <trkpt lat="44.91585" lon="5.19635">
        <ele>909.19543457031</ele>
        <time>2011-05-25T15:04:35Z</time>
      </trkpt>
      <trkpt lat="44.91524" lon="5.19621">
        <ele>910.89825439453</ele>
        <time>2011-05-25T15:04:40Z</time>
      </trkpt>
      <trkpt lat="44.91446" lon="5.19606">
        <ele>913.22076416016</ele>
        <time>2011-05-25T15:04:46Z</time>
      </trkpt>
      <trkpt lat="44.91388" lon="5.19615">
        <ele>916.62457275391</ele>
        <time>2011-05-25T15:04:50Z</time>
      </trkpt>
      <trkpt lat="44.91343" lon="5.19609">
        <ele>916.06488037109</ele>
        <time>2011-05-25T15:04:53Z</time>
      </trkpt>
      <trkpt lat="44.913" lon="5.19584">
        <ele>916.97644042969</ele>
        <time>2011-05-25T15:04:56Z</time>
      </trkpt>
      <trkpt lat="44.91285" lon="5.19579">
        <ele>917.14123535156</ele>
        <time>2011-05-25T15:04:57Z</time>
      </trkpt>
      <trkpt lat="44.91254" lon="5.19574">
        <ele>917.34722900391</ele>
        <time>2011-05-25T15:04:59Z</time>
      </trkpt>
      <trkpt lat="44.91224" lon="5.19568">
        <ele>917.56695556641</ele>
        <time>2011-05-25T15:05:01Z</time>
      </trkpt>
      <trkpt lat="44.91188" lon="5.19537">
        <ele>918</ele>
        <time>2011-05-25T15:05:04Z</time>
      </trkpt>
      <trkpt lat="44.91186" lon="5.19497">
        <ele>919</ele>
        <time>2011-05-25T15:05:06Z</time>
      </trkpt>
      <trkpt lat="44.91188" lon="5.19481">
        <ele>919</ele>
        <time>2011-05-25T15:05:07Z</time>
      </trkpt>
      <trkpt lat="44.91192" lon="5.19437">
        <ele>920</ele>
        <time>2011-05-25T15:05:10Z</time>
      </trkpt>
      <trkpt lat="44.91203" lon="5.19383">
        <ele>922.44451904297</ele>
        <time>2011-05-25T15:05:15Z</time>
      </trkpt>
      <trkpt lat="44.91205" lon="5.19368">
        <ele>923.51220703125</ele>
        <time>2011-05-25T15:05:17Z</time>
      </trkpt>
      <trkpt lat="44.91206" lon="5.19342">
        <ele>926.78039550781</ele>
        <time>2011-05-25T15:05:22Z</time>
      </trkpt>
      <trkpt lat="44.91205" lon="5.19334">
        <ele>927.92028808594</ele>
        <time>2011-05-25T15:05:25Z</time>
      </trkpt>
      <trkpt lat="44.91208" lon="5.19324">
        <ele>928.85443115234</ele>
        <time>2011-05-25T15:05:30Z</time>
      </trkpt>
      <trkpt lat="44.91208" lon="5.19319">
        <ele>929.29644775391</ele>
        <time>2011-05-25T15:05:32Z</time>
      </trkpt>
      <trkpt lat="44.91208" lon="5.19307">
        <ele>930.31683349609</ele>
        <time>2011-05-25T15:05:37Z</time>
      </trkpt>
      <trkpt lat="44.91206" lon="5.19304">
        <ele>930.62225341797</ele>
        <time>2011-05-25T15:05:39Z</time>
      </trkpt>
      <trkpt lat="44.91203" lon="5.193">
        <ele>930.93353271484</ele>
        <time>2011-05-25T15:05:42Z</time>
      </trkpt>
      <trkpt lat="44.91205" lon="5.19286">
        <ele>932.77099609375</ele>
        <time>2011-05-25T15:05:49Z</time>
      </trkpt>
      <trkpt lat="44.9121" lon="5.19268">
        <ele>935.59716796875</ele>
        <time>2011-05-25T15:05:56Z</time>
      </trkpt>
      <trkpt lat="44.91217" lon="5.19261">
        <ele>937.01171875</ele>
        <time>2011-05-25T15:06:00Z</time>
      </trkpt>
      <trkpt lat="44.91225" lon="5.1925">
        <ele>939.40582275391</ele>
        <time>2011-05-25T15:06:05Z</time>
      </trkpt>
      <trkpt lat="44.91221" lon="5.19237">
        <ele>940.30694580078</ele>
        <time>2011-05-25T15:06:09Z</time>
      </trkpt>
      <trkpt lat="44.91212" lon="5.19225">
        <ele>940.62164306641</ele>
        <time>2011-05-25T15:06:14Z</time>
      </trkpt>
      <trkpt lat="44.912" lon="5.1921">
        <ele>941.24291992188</ele>
        <time>2011-05-25T15:06:20Z</time>
      </trkpt>
      <trkpt lat="44.91189" lon="5.19196">
        <ele>942.1953125</ele>
        <time>2011-05-25T15:06:26Z</time>
      </trkpt>
      <trkpt lat="44.91183" lon="5.19185">
        <ele>942.51300048828</ele>
        <time>2011-05-25T15:06:30Z</time>
      </trkpt>
      <trkpt lat="44.91172" lon="5.19167">
        <ele>943.3349609375</ele>
        <time>2011-05-25T15:06:37Z</time>
      </trkpt>
      <trkpt lat="44.91161" lon="5.19149">
        <ele>946.18585205078</ele>
        <time>2011-05-25T15:06:44Z</time>
      </trkpt>
      <trkpt lat="44.9115" lon="5.19132">
        <ele>949.12683105469</ele>
        <time>2011-05-25T15:06:51Z</time>
      </trkpt>
      <trkpt lat="44.91139" lon="5.19113">
        <ele>952.67614746094</ele>
        <time>2011-05-25T15:06:58Z</time>
      </trkpt>
      <trkpt lat="44.91126" lon="5.19098">
        <ele>954.86108398438</ele>
        <time>2011-05-25T15:07:04Z</time>
      </trkpt>
      <trkpt lat="44.91102" lon="5.19076">
        <ele>959.22821044922</ele>
        <time>2011-05-25T15:07:14Z</time>
      </trkpt>
      <trkpt lat="44.91084" lon="5.19068">
        <ele>962.33868408203</ele>
        <time>2011-05-25T15:07:21Z</time>
      </trkpt>
      <trkpt lat="44.91066" lon="5.19061">
        <ele>964.90521240234</ele>
        <time>2011-05-25T15:07:28Z</time>
      </trkpt>
      <trkpt lat="44.91046" lon="5.19055">
        <ele>967.79071044922</ele>
        <time>2011-05-25T15:07:36Z</time>
      </trkpt>
      <trkpt lat="44.91028" lon="5.1905">
        <ele>970.04119873047</ele>
        <time>2011-05-25T15:07:43Z</time>
      </trkpt>
      <trkpt lat="44.9101" lon="5.19045">
        <ele>972.59790039062</ele>
        <time>2011-05-25T15:07:50Z</time>
      </trkpt>
      <trkpt lat="44.90989" lon="5.19042">
        <ele>974.83666992188</ele>
        <time>2011-05-25T15:07:58Z</time>
      </trkpt>
      <trkpt lat="44.90966" lon="5.19038">
        <ele>976.52661132812</ele>
        <time>2011-05-25T15:08:07Z</time>
      </trkpt>
      <trkpt lat="44.90945" lon="5.19035">
        <ele>976.97290039062</ele>
        <time>2011-05-25T15:08:15Z</time>
      </trkpt>
      <trkpt lat="44.90917" lon="5.19033">
        <ele>982.03448486328</ele>
        <time>2011-05-25T15:08:24Z</time>
      </trkpt>
      <trkpt lat="44.90895" lon="5.19034">
        <ele>983.42315673828</ele>
        <time>2011-05-25T15:08:30Z</time>
      </trkpt>
      <trkpt lat="44.90882" lon="5.19037">
        <ele>984.01293945312</ele>
        <time>2011-05-25T15:08:34Z</time>
      </trkpt>
      <trkpt lat="44.90862" lon="5.19037">
        <ele>985.61480712891</ele>
        <time>2011-05-25T15:08:40Z</time>
      </trkpt>
      <trkpt lat="44.90841" lon="5.19035">
        <ele>987.41357421875</ele>
        <time>2011-05-25T15:08:47Z</time>
      </trkpt>
      <trkpt lat="44.90821" lon="5.19038">
        <ele>988.73364257812</ele>
        <time>2011-05-25T15:08:53Z</time>
      </trkpt>
      <trkpt lat="44.90802" lon="5.19037">
        <ele>990.52569580078</ele>
        <time>2011-05-25T15:08:59Z</time>
      </trkpt>
      <trkpt lat="44.90778" lon="5.1904">
        <ele>991.80078125</ele>
        <time>2011-05-25T15:09:07Z</time>
      </trkpt>
      <trkpt lat="44.90759" lon="5.1904">
        <ele>992.05883789062</ele>
        <time>2011-05-25T15:09:13Z</time>
      </trkpt>
      <trkpt lat="44.90741" lon="5.19041">
        <ele>992.70324707031</ele>
        <time>2011-05-25T15:09:19Z</time>
      </trkpt>
      <trkpt lat="44.90723" lon="5.19042">
        <ele>993.93920898438</ele>
        <time>2011-05-25T15:09:25Z</time>
      </trkpt>
      <trkpt lat="44.90702" lon="5.19046">
        <ele>994.08526611328</ele>
        <time>2011-05-25T15:09:32Z</time>
      </trkpt>
      <trkpt lat="44.90688" lon="5.19049">
        <ele>994.25006103516</ele>
        <time>2011-05-25T15:09:37Z</time>
      </trkpt>
      <trkpt lat="44.90668" lon="5.19049">
        <ele>994.87487792969</ele>
        <time>2011-05-25T15:09:44Z</time>
      </trkpt>
      <trkpt lat="44.9065" lon="5.19052">
        <ele>997.29510498047</ele>
        <time>2011-05-25T15:09:50Z</time>
      </trkpt>
      <trkpt lat="44.90631" lon="5.19051">
        <ele>1000.401550293</ele>
        <time>2011-05-25T15:09:57Z</time>
      </trkpt>
      <trkpt lat="44.90616" lon="5.1905">
        <ele>1001.942199707</ele>
        <time>2011-05-25T15:10:03Z</time>
      </trkpt>
      <trkpt lat="44.90612" lon="5.19041">
        <ele>1006.3939819336</ele>
        <time>2011-05-25T15:10:08Z</time>
      </trkpt>
      <trkpt lat="44.90615" lon="5.19041">
        <ele>1006.2490844727</ele>
        <time>2011-05-25T15:10:10Z</time>
      </trkpt>
      <trkpt lat="44.9063" lon="5.19047">
        <ele>1001.688293457</ele>
        <time>2011-05-25T15:10:16Z</time>
      </trkpt>
      <trkpt lat="44.90643" lon="5.19045">
        <ele>1000.6271362305</ele>
        <time>2011-05-25T15:10:22Z</time>
      </trkpt>
      <trkpt lat="44.90657" lon="5.19037">
        <ele>999.07348632812</ele>
        <time>2011-05-25T15:10:28Z</time>
      </trkpt>
      <trkpt lat="44.90672" lon="5.19029">
        <ele>997.70385742188</ele>
        <time>2011-05-25T15:10:34Z</time>
      </trkpt>
      <trkpt lat="44.90685" lon="5.19021">
        <ele>1000.4939575195</ele>
        <time>2011-05-25T15:10:40Z</time>
      </trkpt>
      <trkpt lat="44.90704" lon="5.19007">
        <ele>1004.391418457</ele>
        <time>2011-05-25T15:10:47Z</time>
      </trkpt>
      <trkpt lat="44.90717" lon="5.18994">
        <ele>1011.3217773438</ele>
        <time>2011-05-25T15:10:52Z</time>
      </trkpt>
      <trkpt lat="44.90743" lon="5.18976">
        <ele>1017.9995727539</ele>
        <time>2011-05-25T15:11:00Z</time>
      </trkpt>
      <trkpt lat="44.90764" lon="5.18965">
        <ele>1021.8671875</ele>
        <time>2011-05-25T15:11:06Z</time>
      </trkpt>
      <trkpt lat="44.90786" lon="5.18956">
        <ele>1025.9537353516</ele>
        <time>2011-05-25T15:11:12Z</time>
      </trkpt>
      <trkpt lat="44.90808" lon="5.18947">
        <ele>1028.7529296875</ele>
        <time>2011-05-25T15:11:18Z</time>
      </trkpt>
      <trkpt lat="44.90825" lon="5.18941">
        <ele>1032.1302490234</ele>
        <time>2011-05-25T15:11:23Z</time>
      </trkpt>
      <trkpt lat="44.90844" lon="5.18935">
        <ele>1031.8471679688</ele>
        <time>2011-05-25T15:11:29Z</time>
      </trkpt>
      <trkpt lat="44.90867" lon="5.18923">
        <ele>1032.9057617188</ele>
        <time>2011-05-25T15:11:36Z</time>
      </trkpt>
      <trkpt lat="44.90891" lon="5.18912">
        <ele>1034.3809814453</ele>
        <time>2011-05-25T15:11:43Z</time>
      </trkpt>
      <trkpt lat="44.90915" lon="5.18901">
        <ele>1031.3297119141</ele>
        <time>2011-05-25T15:11:50Z</time>
      </trkpt>
      <trkpt lat="44.90937" lon="5.18894">
        <ele>1028.5024414062</ele>
        <time>2011-05-25T15:11:56Z</time>
      </trkpt>
      <trkpt lat="44.90958" lon="5.18886">
        <ele>1027.212890625</ele>
        <time>2011-05-25T15:12:02Z</time>
      </trkpt>
      <trkpt lat="44.90983" lon="5.18878">
        <ele>1026.8472900391</ele>
        <time>2011-05-25T15:12:08Z</time>
      </trkpt>
      <trkpt lat="44.91005" lon="5.18868">
        <ele>1026.2797851562</ele>
        <time>2011-05-25T15:12:14Z</time>
      </trkpt>
      <trkpt lat="44.91021" lon="5.18859">
        <ele>1025.2939453125</ele>
        <time>2011-05-25T15:12:19Z</time>
      </trkpt>
      <trkpt lat="44.91043" lon="5.18849">
        <ele>1022.5118408203</ele>
        <time>2011-05-25T15:12:25Z</time>
      </trkpt>
      <trkpt lat="44.91059" lon="5.1884">
        <ele>1020.0185546875</ele>
        <time>2011-05-25T15:12:30Z</time>
      </trkpt>
      <trkpt lat="44.9107" lon="5.18833">
        <ele>1017.966796875</ele>
        <time>2011-05-25T15:12:34Z</time>
      </trkpt>
      <trkpt lat="44.91084" lon="5.18826">
        <ele>1014.7717895508</ele>
        <time>2011-05-25T15:12:39Z</time>
      </trkpt>
      <trkpt lat="44.91101" lon="5.18816">
        <ele>1012.9354858398</ele>
        <time>2011-05-25T15:12:45Z</time>
      </trkpt>
      <trkpt lat="44.91116" lon="5.18808">
        <ele>1011.7926025391</ele>
        <time>2011-05-25T15:12:51Z</time>
      </trkpt>
      <trkpt lat="44.91119" lon="5.18804">
        <ele>1012.2012939453</ele>
        <time>2011-05-25T15:12:53Z</time>
      </trkpt>
      <trkpt lat="44.91117" lon="5.18787">
        <ele>1013.9625244141</ele>
        <time>2011-05-25T15:12:58Z</time>
      </trkpt>
      <trkpt lat="44.91101" lon="5.18774">
        <ele>1017.0459594727</ele>
        <time>2011-05-25T15:13:05Z</time>
      </trkpt>
      <trkpt lat="44.91086" lon="5.18756">
        <ele>1019.6482543945</ele>
        <time>2011-05-25T15:13:11Z</time>
      </trkpt>
      <trkpt lat="44.91076" lon="5.18737">
        <ele>1023.510925293</ele>
        <time>2011-05-25T15:13:16Z</time>
      </trkpt>
      <trkpt lat="44.91063" lon="5.18705">
        <ele>1031.2213134766</ele>
        <time>2011-05-25T15:13:24Z</time>
      </trkpt>
      <trkpt lat="44.9105" lon="5.18678">
        <ele>1035.4943847656</ele>
        <time>2011-05-25T15:13:31Z</time>
      </trkpt>
      <trkpt lat="44.91037" lon="5.18639">
        <ele>1037.6684570312</ele>
        <time>2011-05-25T15:13:40Z</time>
      </trkpt>
      <trkpt lat="44.91025" lon="5.18602">
        <ele>1038.7526855469</ele>
        <time>2011-05-25T15:13:48Z</time>
      </trkpt>
      <trkpt lat="44.91011" lon="5.18557">
        <ele>1040</ele>
        <time>2011-05-25T15:13:58Z</time>
      </trkpt>
      <trkpt lat="44.90995" lon="5.18512">
        <ele>1042.3258056641</ele>
        <time>2011-05-25T15:14:08Z</time>
      </trkpt>
      <trkpt lat="44.90981" lon="5.18475">
        <ele>1046.5267333984</ele>
        <time>2011-05-25T15:14:16Z</time>
      </trkpt>
      <trkpt lat="44.90959" lon="5.18448">
        <ele>1053.6066894531</ele>
        <time>2011-05-25T15:14:24Z</time>
      </trkpt>
      <trkpt lat="44.90942" lon="5.18422">
        <ele>1058.6671142578</ele>
        <time>2011-05-25T15:14:31Z</time>
      </trkpt>
      <trkpt lat="44.90941" lon="5.18404">
        <ele>1061.8280029297</ele>
        <time>2011-05-25T15:14:35Z</time>
      </trkpt>
      <trkpt lat="44.9095" lon="5.18391">
        <ele>1065.1459960938</ele>
        <time>2011-05-25T15:14:39Z</time>
      </trkpt>
      <trkpt lat="44.90971" lon="5.18384">
        <ele>1069.1121826172</ele>
        <time>2011-05-25T15:14:45Z</time>
      </trkpt>
      <trkpt lat="44.90994" lon="5.18383">
        <ele>1071.2681884766</ele>
        <time>2011-05-25T15:14:51Z</time>
      </trkpt>
      <trkpt lat="44.91018" lon="5.18387">
        <ele>1074.0211181641</ele>
        <time>2011-05-25T15:14:58Z</time>
      </trkpt>
      <trkpt lat="44.91044" lon="5.18399">
        <ele>1078.1588134766</ele>
        <time>2011-05-25T15:15:06Z</time>
      </trkpt>
      <trkpt lat="44.91067" lon="5.18421">
        <ele>1080.5185546875</ele>
        <time>2011-05-25T15:15:14Z</time>
      </trkpt>
      <trkpt lat="44.91084" lon="5.18443">
        <ele>1077.4001464844</ele>
        <time>2011-05-25T15:15:21Z</time>
      </trkpt>
      <trkpt lat="44.91101" lon="5.18469">
        <ele>1069.9661865234</ele>
        <time>2011-05-25T15:15:29Z</time>
      </trkpt>
      <trkpt lat="44.91122" lon="5.18497">
        <ele>1067.0347900391</ele>
        <time>2011-05-25T15:15:38Z</time>
      </trkpt>
      <trkpt lat="44.91135" lon="5.18515">
        <ele>1063.9445800781</ele>
        <time>2011-05-25T15:15:44Z</time>
      </trkpt>
      <trkpt lat="44.91152" lon="5.18535">
        <ele>1061.8837890625</ele>
        <time>2011-05-25T15:15:51Z</time>
      </trkpt>
      <trkpt lat="44.91175" lon="5.18557">
        <ele>1059.6900634766</ele>
        <time>2011-05-25T15:16:00Z</time>
      </trkpt>
      <trkpt lat="44.91193" lon="5.18566">
        <ele>1057.4429931641</ele>
        <time>2011-05-25T15:16:06Z</time>
      </trkpt>
      <trkpt lat="44.91216" lon="5.18569">
        <ele>1055.4851074219</ele>
        <time>2011-05-25T15:16:13Z</time>
      </trkpt>
      <trkpt lat="44.91239" lon="5.18564">
        <ele>1055.9079589844</ele>
        <time>2011-05-25T15:16:20Z</time>
      </trkpt>
      <trkpt lat="44.91253" lon="5.18551">
        <ele>1058.9188232422</ele>
        <time>2011-05-25T15:16:25Z</time>
      </trkpt>
      <trkpt lat="44.9127" lon="5.18525">
        <ele>1064.9022216797</ele>
        <time>2011-05-25T15:16:33Z</time>
      </trkpt>
      <trkpt lat="44.91282" lon="5.18506">
        <ele>1070.7185058594</ele>
        <time>2011-05-25T15:16:39Z</time>
      </trkpt>
      <trkpt lat="44.91301" lon="5.18481">
        <ele>1071.5155029297</ele>
        <time>2011-05-25T15:16:47Z</time>
      </trkpt>
      <trkpt lat="44.9132" lon="5.18452">
        <ele>1074.8582763672</ele>
        <time>2011-05-25T15:16:55Z</time>
      </trkpt>
      <trkpt lat="44.91342" lon="5.18415">
        <ele>1078.8205566406</ele>
        <time>2011-05-25T15:17:05Z</time>
      </trkpt>
      <trkpt lat="44.91363" lon="5.18381">
        <ele>1080.1785888672</ele>
        <time>2011-05-25T15:17:14Z</time>
      </trkpt>
      <trkpt lat="44.91373" lon="5.1836">
        <ele>1082.0095214844</ele>
        <time>2011-05-25T15:17:19Z</time>
      </trkpt>
      <trkpt lat="44.91383" lon="5.18328">
        <ele>1085.6588134766</ele>
        <time>2011-05-25T15:17:26Z</time>
      </trkpt>
      <trkpt lat="44.91389" lon="5.18296">
        <ele>1094.7257080078</ele>
        <time>2011-05-25T15:17:33Z</time>
      </trkpt>
      <trkpt lat="44.91395" lon="5.18259">
        <ele>1103.4639892578</ele>
        <time>2011-05-25T15:17:40Z</time>
      </trkpt>
      <trkpt lat="44.91398" lon="5.18236">
        <ele>1107.4924316406</ele>
        <time>2011-05-25T15:17:44Z</time>
      </trkpt>
      <trkpt lat="44.91411" lon="5.18221">
        <ele>1111.4810791016</ele>
        <time>2011-05-25T15:17:48Z</time>
      </trkpt>
      <trkpt lat="44.91415" lon="5.18222">
        <ele>1111.939453125</ele>
        <time>2011-05-25T15:17:49Z</time>
      </trkpt>
      <trkpt lat="44.9142" lon="5.18224">
        <ele>1111.8568115234</ele>
        <time>2011-05-25T15:17:50Z</time>
      </trkpt>
      <trkpt lat="44.91431" lon="5.18235">
        <ele>1110.7822265625</ele>
        <time>2011-05-25T15:17:53Z</time>
      </trkpt>
      <trkpt lat="44.91451" lon="5.18257">
        <ele>1108.1965332031</ele>
        <time>2011-05-25T15:17:59Z</time>
      </trkpt>
      <trkpt lat="44.91459" lon="5.18262">
        <ele>1107.8464355469</ele>
        <time>2011-05-25T15:18:01Z</time>
      </trkpt>
      <trkpt lat="44.9148" lon="5.18255">
        <ele>1109.3218994141</ele>
        <time>2011-05-25T15:18:06Z</time>
      </trkpt>
      <trkpt lat="44.91516" lon="5.18227">
        <ele>1114.6843261719</ele>
        <time>2011-05-25T15:18:15Z</time>
      </trkpt>
      <trkpt lat="44.91534" lon="5.18211">
        <ele>1118.4329833984</ele>
        <time>2011-05-25T15:18:21Z</time>
      </trkpt>
      <trkpt lat="44.9155" lon="5.18197">
        <ele>1122.8768310547</ele>
        <time>2011-05-25T15:18:27Z</time>
      </trkpt>
      <trkpt lat="44.91571" lon="5.18184">
        <ele>1129.8051757812</ele>
        <time>2011-05-25T15:18:34Z</time>
      </trkpt>
      <trkpt lat="44.91583" lon="5.18192">
        <ele>1128.0073242188</ele>
        <time>2011-05-25T15:18:38Z</time>
      </trkpt>
      <trkpt lat="44.91588" lon="5.18209">
        <ele>1126.5356445312</ele>
        <time>2011-05-25T15:18:42Z</time>
      </trkpt>
      <trkpt lat="44.9159" lon="5.18242">
        <ele>1124.634765625</ele>
        <time>2011-05-25T15:18:49Z</time>
      </trkpt>
      <trkpt lat="44.91595" lon="5.18273">
        <ele>1127.0924072266</ele>
        <time>2011-05-25T15:18:56Z</time>
      </trkpt>
      <trkpt lat="44.91602" lon="5.18311">
        <ele>1133.3996582031</ele>
        <time>2011-05-25T15:19:04Z</time>
      </trkpt>
      <trkpt lat="44.91609" lon="5.18348">
        <ele>1138.6181640625</ele>
        <time>2011-05-25T15:19:12Z</time>
      </trkpt>
      <trkpt lat="44.91622" lon="5.1837">
        <ele>1147.2310791016</ele>
        <time>2011-05-25T15:19:18Z</time>
      </trkpt>
      <trkpt lat="44.91643" lon="5.18392">
        <ele>1153.6213378906</ele>
        <time>2011-05-25T15:19:26Z</time>
      </trkpt>
      <trkpt lat="44.91666" lon="5.18403">
        <ele>1168.2404785156</ele>
        <time>2011-05-25T15:19:33Z</time>
      </trkpt>
      <trkpt lat="44.91684" lon="5.18408">
        <ele>1183.4114990234</ele>
        <time>2011-05-25T15:19:39Z</time>
      </trkpt>
      <trkpt lat="44.91711" lon="5.18413">
        <ele>1194.5538330078</ele>
        <time>2011-05-25T15:19:48Z</time>
      </trkpt>
      <trkpt lat="44.91735" lon="5.18416">
        <ele>1194.7534179688</ele>
        <time>2011-05-25T15:19:56Z</time>
      </trkpt>
      <trkpt lat="44.91754" lon="5.18427">
        <ele>1189.5777587891</ele>
        <time>2011-05-25T15:20:03Z</time>
      </trkpt>
      <trkpt lat="44.91763" lon="5.18434">
        <ele>1186.4871826172</ele>
        <time>2011-05-25T15:20:07Z</time>
      </trkpt>
      <trkpt lat="44.91769" lon="5.18424">
        <ele>1188.0251464844</ele>
        <time>2011-05-25T15:20:11Z</time>
      </trkpt>
      <trkpt lat="44.91764" lon="5.18419">
        <ele>1189.9725341797</ele>
        <time>2011-05-25T15:20:13Z</time>
      </trkpt>
      <trkpt lat="44.91747" lon="5.18405">
        <ele>1195.3508300781</ele>
        <time>2011-05-25T15:20:18Z</time>
      </trkpt>
      <trkpt lat="44.91715" lon="5.18385">
        <ele>1200</ele>
        <time>2011-05-25T15:20:25Z</time>
      </trkpt>
      <trkpt lat="44.91686" lon="5.18372">
        <ele>1195.8452148438</ele>
        <time>2011-05-25T15:20:31Z</time>
      </trkpt>
      <trkpt lat="44.91685" lon="5.18358">
        <ele>1198.1778564453</ele>
        <time>2011-05-25T15:20:34Z</time>
      </trkpt>
      <trkpt lat="44.91695" lon="5.18362">
        <ele>1200</ele>
        <time>2011-05-25T15:20:36Z</time>
      </trkpt>
      <trkpt lat="44.91729" lon="5.18378">
        <ele>1199.6856689453</ele>
        <time>2011-05-25T15:20:42Z</time>
      </trkpt>
      <trkpt lat="44.91774" lon="5.18399">
        <ele>1190.1198730469</ele>
        <time>2011-05-25T15:20:49Z</time>
      </trkpt>
      <trkpt lat="44.918" lon="5.18413">
        <ele>1181.6743164062</ele>
        <time>2011-05-25T15:20:54Z</time>
      </trkpt>
      <trkpt lat="44.91823" lon="5.18426">
        <ele>1161.3627929688</ele>
        <time>2011-05-25T15:21:00Z</time>
      </trkpt>
      <trkpt lat="44.91837" lon="5.18435">
        <ele>1149.3364257812</ele>
        <time>2011-05-25T15:21:05Z</time>
      </trkpt>
      <trkpt lat="44.91844" lon="5.18441">
        <ele>1141.9007568359</ele>
        <time>2011-05-25T15:21:10Z</time>
      </trkpt>
      <trkpt lat="44.91845" lon="5.18443">
        <ele>1141.9165039062</ele>
        <time>2011-05-25T15:21:13Z</time>
      </trkpt>
      <trkpt lat="44.91845" lon="5.1845">
        <ele>1142.5241699219</ele>
        <time>2011-05-25T15:23:53Z</time>
      </trkpt>
      <trkpt lat="44.91847" lon="5.18451">
        <ele>1141.3004150391</ele>
        <time>2011-05-25T15:23:54Z</time>
      </trkpt>
      <trkpt lat="44.91866" lon="5.18458">
        <ele>1128.2523193359</ele>
        <time>2011-05-25T15:24:00Z</time>
      </trkpt>
      <trkpt lat="44.91887" lon="5.18467">
        <ele>1122.40625</ele>
        <time>2011-05-25T15:24:04Z</time>
      </trkpt>
      <trkpt lat="44.91912" lon="5.18487">
        <ele>1119.5024414062</ele>
        <time>2011-05-25T15:24:08Z</time>
      </trkpt>
      <trkpt lat="44.91926" lon="5.185">
        <ele>1116.30859375</ele>
        <time>2011-05-25T15:24:10Z</time>
      </trkpt>
      <trkpt lat="44.91961" lon="5.18514">
        <ele>1110.7193603516</ele>
        <time>2011-05-25T15:24:14Z</time>
      </trkpt>
      <trkpt lat="44.92016" lon="5.18524">
        <ele>1105.4973144531</ele>
        <time>2011-05-25T15:24:19Z</time>
      </trkpt>
      <trkpt lat="44.92064" lon="5.18531">
        <ele>1105.0587158203</ele>
        <time>2011-05-25T15:24:23Z</time>
      </trkpt>
      <trkpt lat="44.92127" lon="5.18537">
        <ele>1098.8752441406</ele>
        <time>2011-05-25T15:24:28Z</time>
      </trkpt>
      <trkpt lat="44.9217" lon="5.18541">
        <ele>1094.2746582031</ele>
        <time>2011-05-25T15:24:31Z</time>
      </trkpt>
      <trkpt lat="44.92239" lon="5.18557">
        <ele>1100.8901367188</ele>
        <time>2011-05-25T15:24:36Z</time>
      </trkpt>
      <trkpt lat="44.92297" lon="5.18557">
        <ele>1096.8538818359</ele>
        <time>2011-05-25T15:24:40Z</time>
      </trkpt>
      <trkpt lat="44.92385" lon="5.18559">
        <ele>1086.3986816406</ele>
        <time>2011-05-25T15:24:46Z</time>
      </trkpt>
      <trkpt lat="44.924" lon="5.18561">
        <ele>1084.6202392578</ele>
        <time>2011-05-25T15:24:47Z</time>
      </trkpt>
      <trkpt lat="44.92429" lon="5.18569">
        <ele>1085.7397460938</ele>
        <time>2011-05-25T15:24:49Z</time>
      </trkpt>
      <trkpt lat="44.92488" lon="5.1857">
        <ele>1078.6374511719</ele>
        <time>2011-05-25T15:24:53Z</time>
      </trkpt>
      <trkpt lat="44.92532" lon="5.18577">
        <ele>1070.1752929688</ele>
        <time>2011-05-25T15:24:56Z</time>
      </trkpt>
      <trkpt lat="44.92568" lon="5.18592">
        <ele>1064.9627685547</ele>
        <time>2011-05-25T15:24:59Z</time>
      </trkpt>
      <trkpt lat="44.92589" lon="5.18604">
        <ele>1062.7443847656</ele>
        <time>2011-05-25T15:25:02Z</time>
      </trkpt>
      <trkpt lat="44.92588" lon="5.18593">
        <ele>1057.7811279297</ele>
        <time>2011-05-25T15:25:04Z</time>
      </trkpt>
      <trkpt lat="44.92578" lon="5.18587">
        <ele>1057.9383544922</ele>
        <time>2011-05-25T15:25:06Z</time>
      </trkpt>
      <trkpt lat="44.92537" lon="5.18566">
        <ele>1062.8391113281</ele>
        <time>2011-05-25T15:25:12Z</time>
      </trkpt>
      <trkpt lat="44.92491" lon="5.18543">
        <ele>1064.8403320312</ele>
        <time>2011-05-25T15:25:17Z</time>
      </trkpt>
      <trkpt lat="44.92448" lon="5.18528">
        <ele>1067.4780273438</ele>
        <time>2011-05-25T15:25:21Z</time>
      </trkpt>
      <trkpt lat="44.92393" lon="5.18498">
        <ele>1055.482421875</ele>
        <time>2011-05-25T15:25:26Z</time>
      </trkpt>
      <trkpt lat="44.92331" lon="5.18475">
        <ele>1056.3034667969</ele>
        <time>2011-05-25T15:25:31Z</time>
      </trkpt>
      <trkpt lat="44.92252" lon="5.1845">
        <ele>1049.7271728516</ele>
        <time>2011-05-25T15:25:37Z</time>
      </trkpt>
      <trkpt lat="44.92233" lon="5.18445">
        <ele>1047.1363525391</ele>
        <time>2011-05-25T15:25:39Z</time>
      </trkpt>
      <trkpt lat="44.92226" lon="5.18431">
        <ele>1039.4733886719</ele>
        <time>2011-05-25T15:25:42Z</time>
      </trkpt>
      <trkpt lat="44.9224" lon="5.18434">
        <ele>1041.2586669922</ele>
        <time>2011-05-25T15:25:44Z</time>
      </trkpt>
      <trkpt lat="44.92261" lon="5.18439">
        <ele>1042.9133300781</ele>
        <time>2011-05-25T15:25:47Z</time>
      </trkpt>
      <trkpt lat="44.92316" lon="5.18441">
        <ele>1038.2623291016</ele>
        <time>2011-05-25T15:25:53Z</time>
      </trkpt>
      <trkpt lat="44.92381" lon="5.18441">
        <ele>1029.7543945312</ele>
        <time>2011-05-25T15:25:59Z</time>
      </trkpt>
      <trkpt lat="44.92392" lon="5.18442">
        <ele>1029.0029296875</ele>
        <time>2011-05-25T15:26:00Z</time>
      </trkpt>
      <trkpt lat="44.92467" lon="5.18455">
        <ele>1027.5955810547</ele>
        <time>2011-05-25T15:26:06Z</time>
      </trkpt>
      <trkpt lat="44.92544" lon="5.18473">
        <ele>1021.6913452148</ele>
        <time>2011-05-25T15:26:12Z</time>
      </trkpt>
      <trkpt lat="44.92622" lon="5.18496">
        <ele>1008.1126708984</ele>
        <time>2011-05-25T15:26:18Z</time>
      </trkpt>
      <trkpt lat="44.9264" lon="5.18504">
        <ele>1005.4752197266</ele>
        <time>2011-05-25T15:26:20Z</time>
      </trkpt>
      <trkpt lat="44.92646" lon="5.18496">
        <ele>999.53973388672</ele>
        <time>2011-05-25T15:26:23Z</time>
      </trkpt>
      <trkpt lat="44.92635" lon="5.18489">
        <ele>1001.9235229492</ele>
        <time>2011-05-25T15:26:25Z</time>
      </trkpt>
      <trkpt lat="44.92628" lon="5.18486">
        <ele>1003.2163696289</ele>
        <time>2011-05-25T15:26:26Z</time>
      </trkpt>
      <trkpt lat="44.92584" lon="5.18464">
        <ele>1004.3149414062</ele>
        <time>2011-05-25T15:26:31Z</time>
      </trkpt>
      <trkpt lat="44.92543" lon="5.1844">
        <ele>1004.0678710938</ele>
        <time>2011-05-25T15:26:35Z</time>
      </trkpt>
      <trkpt lat="44.92476" lon="5.18395">
        <ele>995.50158691406</ele>
        <time>2011-05-25T15:26:41Z</time>
      </trkpt>
      <trkpt lat="44.92425" lon="5.18369">
        <ele>989.30786132812</ele>
        <time>2011-05-25T15:26:45Z</time>
      </trkpt>
      <trkpt lat="44.92356" lon="5.18343">
        <ele>984.26708984375</ele>
        <time>2011-05-25T15:26:50Z</time>
      </trkpt>
      <trkpt lat="44.92257" lon="5.18306">
        <ele>980.76043701172</ele>
        <time>2011-05-25T15:26:57Z</time>
      </trkpt>
      <trkpt lat="44.92189" lon="5.18275">
        <ele>964.61151123047</ele>
        <time>2011-05-25T15:27:02Z</time>
      </trkpt>
      <trkpt lat="44.92178" lon="5.18271">
        <ele>964.83142089844</ele>
        <time>2011-05-25T15:27:03Z</time>
      </trkpt>
      <trkpt lat="44.92155" lon="5.18268">
        <ele>965.31140136719</ele>
        <time>2011-05-25T15:27:06Z</time>
      </trkpt>
      <trkpt lat="44.92157" lon="5.18258">
        <ele>961.416015625</ele>
        <time>2011-05-25T15:27:08Z</time>
      </trkpt>
      <trkpt lat="44.92168" lon="5.18256">
        <ele>960.17755126953</ele>
        <time>2011-05-25T15:27:10Z</time>
      </trkpt>
      <trkpt lat="44.92191" lon="5.1826">
        <ele>959.24572753906</ele>
        <time>2011-05-25T15:27:13Z</time>
      </trkpt>
      <trkpt lat="44.92229" lon="5.18264">
        <ele>961.24566650391</ele>
        <time>2011-05-25T15:27:17Z</time>
      </trkpt>
      <trkpt lat="44.92284" lon="5.1827">
        <ele>958.21209716797</ele>
        <time>2011-05-25T15:27:22Z</time>
      </trkpt>
      <trkpt lat="44.92332" lon="5.18275">
        <ele>955.982421875</ele>
        <time>2011-05-25T15:27:26Z</time>
      </trkpt>
      <trkpt lat="44.92422" lon="5.18273">
        <ele>944.55035400391</ele>
        <time>2011-05-25T15:27:33Z</time>
      </trkpt>
      <trkpt lat="44.92461" lon="5.18269">
        <ele>935.16784667969</ele>
        <time>2011-05-25T15:27:36Z</time>
      </trkpt>
      <trkpt lat="44.92516" lon="5.18285">
        <ele>928.52239990234</ele>
        <time>2011-05-25T15:27:40Z</time>
      </trkpt>
      <trkpt lat="44.92583" lon="5.18316">
        <ele>928.32312011719</ele>
        <time>2011-05-25T15:27:45Z</time>
      </trkpt>
      <trkpt lat="44.92666" lon="5.18337">
        <ele>925.38391113281</ele>
        <time>2011-05-25T15:27:51Z</time>
      </trkpt>
      <trkpt lat="44.92733" lon="5.18336">
        <ele>914.36273193359</ele>
        <time>2011-05-25T15:27:56Z</time>
      </trkpt>
      <trkpt lat="44.92751" lon="5.18335">
        <ele>910.97924804688</ele>
        <time>2011-05-25T15:27:58Z</time>
      </trkpt>
      <trkpt lat="44.92755" lon="5.18321">
        <ele>908.90167236328</ele>
        <time>2011-05-25T15:28:01Z</time>
      </trkpt>
      <trkpt lat="44.92743" lon="5.18317">
        <ele>910.90588378906</ele>
        <time>2011-05-25T15:28:03Z</time>
      </trkpt>
      <trkpt lat="44.92693" lon="5.18309">
        <ele>916.88165283203</ele>
        <time>2011-05-25T15:28:09Z</time>
      </trkpt>
      <trkpt lat="44.92642" lon="5.18287">
        <ele>912.86669921875</ele>
        <time>2011-05-25T15:28:14Z</time>
      </trkpt>
      <trkpt lat="44.92588" lon="5.18252">
        <ele>899.03063964844</ele>
        <time>2011-05-25T15:28:19Z</time>
      </trkpt>
      <trkpt lat="44.92545" lon="5.18215">
        <ele>895.03649902344</ele>
        <time>2011-05-25T15:28:23Z</time>
      </trkpt>
      <trkpt lat="44.92503" lon="5.18164">
        <ele>889.29949951172</ele>
        <time>2011-05-25T15:28:27Z</time>
      </trkpt>
      <trkpt lat="44.9245" lon="5.18143">
        <ele>887.99517822266</ele>
        <time>2011-05-25T15:28:31Z</time>
      </trkpt>
      <trkpt lat="44.92364" lon="5.18132">
        <ele>890.99627685547</ele>
        <time>2011-05-25T15:28:37Z</time>
      </trkpt>
      <trkpt lat="44.92295" lon="5.18094">
        <ele>881.40545654297</ele>
        <time>2011-05-25T15:28:42Z</time>
      </trkpt>
      <trkpt lat="44.92262" lon="5.18078">
        <ele>881.14776611328</ele>
        <time>2011-05-25T15:28:45Z</time>
      </trkpt>
      <trkpt lat="44.92253" lon="5.18076">
        <ele>881.59320068359</ele>
        <time>2011-05-25T15:28:46Z</time>
      </trkpt>
      <trkpt lat="44.92248" lon="5.18064">
        <ele>880.90362548828</ele>
        <time>2011-05-25T15:28:49Z</time>
      </trkpt>
      <trkpt lat="44.9226" lon="5.18064">
        <ele>879.68597412109</ele>
        <time>2011-05-25T15:28:51Z</time>
      </trkpt>
      <trkpt lat="44.92266" lon="5.18067">
        <ele>879.63366699219</ele>
        <time>2011-05-25T15:28:52Z</time>
      </trkpt>
      <trkpt lat="44.92279" lon="5.18071">
        <ele>878.93139648438</ele>
        <time>2011-05-25T15:28:54Z</time>
      </trkpt>
      <trkpt lat="44.92322" lon="5.18078">
        <ele>876.97338867188</ele>
        <time>2011-05-25T15:28:59Z</time>
      </trkpt>
      <trkpt lat="44.92342" lon="5.18081">
        <ele>877.70294189453</ele>
        <time>2011-05-25T15:29:01Z</time>
      </trkpt>
      <trkpt lat="44.92396" lon="5.18077">
        <ele>872.87164306641</ele>
        <time>2011-05-25T15:29:06Z</time>
      </trkpt>
      <trkpt lat="44.9242" lon="5.18074">
        <ele>871.23956298828</ele>
        <time>2011-05-25T15:29:08Z</time>
      </trkpt>
      <trkpt lat="44.92456" lon="5.18065">
        <ele>865.38549804688</ele>
        <time>2011-05-25T15:29:11Z</time>
      </trkpt>
      <trkpt lat="44.92505" lon="5.18038">
        <ele>851.56982421875</ele>
        <time>2011-05-25T15:29:15Z</time>
      </trkpt>
      <trkpt lat="44.92546" lon="5.18037">
        <ele>847.77172851562</ele>
        <time>2011-05-25T15:29:18Z</time>
      </trkpt>
      <trkpt lat="44.92575" lon="5.18066">
        <ele>858.57604980469</ele>
        <time>2011-05-25T15:29:21Z</time>
      </trkpt>
      <trkpt lat="44.92581" lon="5.18077">
        <ele>860.75012207031</ele>
        <time>2011-05-25T15:29:22Z</time>
      </trkpt>
      <trkpt lat="44.92628" lon="5.18091">
        <ele>862.72961425781</ele>
        <time>2011-05-25T15:29:26Z</time>
      </trkpt>
      <trkpt lat="44.92664" lon="5.18103">
        <ele>876.14819335938</ele>
        <time>2011-05-25T15:29:29Z</time>
      </trkpt>
      <trkpt lat="44.92688" lon="5.181">
        <ele>882.01452636719</ele>
        <time>2011-05-25T15:29:31Z</time>
      </trkpt>
      <trkpt lat="44.92704" lon="5.18075">
        <ele>882.66949462891</ele>
        <time>2011-05-25T15:29:33Z</time>
      </trkpt>
      <trkpt lat="44.92748" lon="5.17982">
        <ele>881.48327636719</ele>
        <time>2011-05-25T15:29:39Z</time>
      </trkpt>
      <trkpt lat="44.92755" lon="5.17966">
        <ele>882.64660644531</ele>
        <time>2011-05-25T15:29:40Z</time>
      </trkpt>
      <trkpt lat="44.92768" lon="5.17894">
        <ele>877.28485107422</ele>
        <time>2011-05-25T15:29:44Z</time>
      </trkpt>
      <trkpt lat="44.92767" lon="5.17839">
        <ele>865.62469482422</ele>
        <time>2011-05-25T15:29:47Z</time>
      </trkpt>
      <trkpt lat="44.92775" lon="5.17809">
        <ele>861.91491699219</ele>
        <time>2011-05-25T15:29:49Z</time>
      </trkpt>
      <trkpt lat="44.92791" lon="5.17787">
        <ele>863.71563720703</ele>
        <time>2011-05-25T15:29:51Z</time>
      </trkpt>
      <trkpt lat="44.92796" lon="5.17757">
        <ele>858.81414794922</ele>
        <time>2011-05-25T15:29:53Z</time>
      </trkpt>
      <trkpt lat="44.92793" lon="5.17741">
        <ele>853.98010253906</ele>
        <time>2011-05-25T15:29:54Z</time>
      </trkpt>
      <trkpt lat="44.92799" lon="5.17678">
        <ele>839.01098632812</ele>
        <time>2011-05-25T15:29:58Z</time>
      </trkpt>
      <trkpt lat="44.92821" lon="5.17663">
        <ele>839.02124023438</ele>
        <time>2011-05-25T15:30:00Z</time>
      </trkpt>
      <trkpt lat="44.92833" lon="5.17657">
        <ele>839.22723388672</ele>
        <time>2011-05-25T15:30:01Z</time>
      </trkpt>
      <trkpt lat="44.92892" lon="5.17635">
        <ele>839.74853515625</ele>
        <time>2011-05-25T15:30:06Z</time>
      </trkpt>
      <trkpt lat="44.92954" lon="5.17611">
        <ele>835.25469970703</ele>
        <time>2011-05-25T15:30:11Z</time>
      </trkpt>
      <trkpt lat="44.93028" lon="5.17565">
        <ele>821.37298583984</ele>
        <time>2011-05-25T15:30:17Z</time>
      </trkpt>
      <trkpt lat="44.9309" lon="5.17489">
        <ele>818.82067871094</ele>
        <time>2011-05-25T15:30:23Z</time>
      </trkpt>
      <trkpt lat="44.9312" lon="5.17422">
        <ele>815.72088623047</ele>
        <time>2011-05-25T15:30:27Z</time>
      </trkpt>
      <trkpt lat="44.9315" lon="5.17381">
        <ele>812.83215332031</ele>
        <time>2011-05-25T15:30:30Z</time>
      </trkpt>
      <trkpt lat="44.93164" lon="5.17377">
        <ele>816.10510253906</ele>
        <time>2011-05-25T15:30:31Z</time>
      </trkpt>
      <trkpt lat="44.93214" lon="5.17348">
        <ele>818.96624755859</ele>
        <time>2011-05-25T15:30:35Z</time>
      </trkpt>
      <trkpt lat="44.93228" lon="5.17293">
        <ele>814.69061279297</ele>
        <time>2011-05-25T15:30:38Z</time>
      </trkpt>
      <trkpt lat="44.93246" lon="5.17199">
        <ele>803.544921875</ele>
        <time>2011-05-25T15:30:43Z</time>
      </trkpt>
      <trkpt lat="44.93273" lon="5.17127">
        <ele>786.73785400391</ele>
        <time>2011-05-25T15:30:47Z</time>
      </trkpt>
      <trkpt lat="44.93288" lon="5.17096">
        <ele>780.89886474609</ele>
        <time>2011-05-25T15:30:49Z</time>
      </trkpt>
      <trkpt lat="44.93316" lon="5.17086">
        <ele>784.04168701172</ele>
        <time>2011-05-25T15:30:52Z</time>
      </trkpt>
      <trkpt lat="44.93325" lon="5.17093">
        <ele>786.56512451172</ele>
        <time>2011-05-25T15:30:53Z</time>
      </trkpt>
      <trkpt lat="44.93344" lon="5.17103">
        <ele>791.96734619141</ele>
        <time>2011-05-25T15:30:55Z</time>
      </trkpt>
      <trkpt lat="44.93372" lon="5.17083">
        <ele>793.38745117188</ele>
        <time>2011-05-25T15:30:58Z</time>
      </trkpt>
      <trkpt lat="44.93383" lon="5.17055">
        <ele>788.3779296875</ele>
        <time>2011-05-25T15:31:00Z</time>
      </trkpt>
      <trkpt lat="44.93387" lon="5.1704">
        <ele>785.40130615234</ele>
        <time>2011-05-25T15:31:01Z</time>
      </trkpt>
      <trkpt lat="44.93417" lon="5.16909">
        <ele>775.43041992188</ele>
        <time>2011-05-25T15:31:09Z</time>
      </trkpt>
      <trkpt lat="44.93432" lon="5.16842">
        <ele>775.19415283203</ele>
        <time>2011-05-25T15:31:13Z</time>
      </trkpt>
      <trkpt lat="44.93433" lon="5.16789">
        <ele>773.74432373047</ele>
        <time>2011-05-25T15:31:16Z</time>
      </trkpt>
      <trkpt lat="44.93428" lon="5.16772">
        <ele>771.44860839844</ele>
        <time>2011-05-25T15:31:17Z</time>
      </trkpt>
      <trkpt lat="44.93421" lon="5.16738">
        <ele>767.42797851562</ele>
        <time>2011-05-25T15:31:19Z</time>
      </trkpt>
      <trkpt lat="44.93428" lon="5.16704">
        <ele>767.99395751953</ele>
        <time>2011-05-25T15:31:21Z</time>
      </trkpt>
      <trkpt lat="44.93434" lon="5.1665">
        <ele>762.31744384766</ele>
        <time>2011-05-25T15:31:24Z</time>
      </trkpt>
      <trkpt lat="44.93428" lon="5.16596">
        <ele>741.97137451172</ele>
        <time>2011-05-25T15:31:27Z</time>
      </trkpt>
      <trkpt lat="44.93433" lon="5.16565">
        <ele>734.82897949219</ele>
        <time>2011-05-25T15:31:29Z</time>
      </trkpt>
      <trkpt lat="44.93451" lon="5.16545">
        <ele>740.31427001953</ele>
        <time>2011-05-25T15:31:31Z</time>
      </trkpt>
      <trkpt lat="44.93486" lon="5.16505">
        <ele>753.46942138672</ele>
        <time>2011-05-25T15:31:35Z</time>
      </trkpt>
      <trkpt lat="44.93504" lon="5.16446">
        <ele>762.09106445312</ele>
        <time>2011-05-25T15:31:39Z</time>
      </trkpt>
      <trkpt lat="44.93506" lon="5.16397">
        <ele>753.50213623047</ele>
        <time>2011-05-25T15:31:42Z</time>
      </trkpt>
      <trkpt lat="44.93496" lon="5.16331">
        <ele>730.47174072266</ele>
        <time>2011-05-25T15:31:46Z</time>
      </trkpt>
      <trkpt lat="44.93484" lon="5.16282">
        <ele>714.95758056641</ele>
        <time>2011-05-25T15:31:49Z</time>
      </trkpt>
      <trkpt lat="44.93488" lon="5.16238">
        <ele>711.16479492188</ele>
        <time>2011-05-25T15:31:52Z</time>
      </trkpt>
      <trkpt lat="44.9351" lon="5.16233">
        <ele>717.55474853516</ele>
        <time>2011-05-25T15:31:54Z</time>
      </trkpt>
      <trkpt lat="44.9356" lon="5.16204">
        <ele>725.69317626953</ele>
        <time>2011-05-25T15:31:59Z</time>
      </trkpt>
      <trkpt lat="44.93585" lon="5.16171">
        <ele>723.00988769531</ele>
        <time>2011-05-25T15:32:02Z</time>
      </trkpt>
      <trkpt lat="44.93599" lon="5.16144">
        <ele>717.27789306641</ele>
        <time>2011-05-25T15:32:04Z</time>
      </trkpt>
      <trkpt lat="44.93631" lon="5.16128">
        <ele>718.67095947266</ele>
        <time>2011-05-25T15:32:07Z</time>
      </trkpt>
      <trkpt lat="44.93678" lon="5.16121">
        <ele>721.28076171875</ele>
        <time>2011-05-25T15:32:11Z</time>
      </trkpt>
      <trkpt lat="44.93731" lon="5.16082">
        <ele>713.18597412109</ele>
        <time>2011-05-25T15:32:16Z</time>
      </trkpt>
      <trkpt lat="44.93781" lon="5.16035">
        <ele>703.6142578125</ele>
        <time>2011-05-25T15:32:21Z</time>
      </trkpt>
      <trkpt lat="44.93814" lon="5.16024">
        <ele>700.69921875</ele>
        <time>2011-05-25T15:32:24Z</time>
      </trkpt>
      <trkpt lat="44.93831" lon="5.16045">
        <ele>700.28833007812</ele>
        <time>2011-05-25T15:32:26Z</time>
      </trkpt>
      <trkpt lat="44.93842" lon="5.16088">
        <ele>699.96746826172</ele>
        <time>2011-05-25T15:32:29Z</time>
      </trkpt>
      <trkpt lat="44.93843" lon="5.16105">
        <ele>701.71960449219</ele>
        <time>2011-05-25T15:32:30Z</time>
      </trkpt>
      <trkpt lat="44.93847" lon="5.16184">
        <ele>699.54327392578</ele>
        <time>2011-05-25T15:32:35Z</time>
      </trkpt>
      <trkpt lat="44.93835" lon="5.16249">
        <ele>699.43951416016</ele>
        <time>2011-05-25T15:32:39Z</time>
      </trkpt>
      <trkpt lat="44.938" lon="5.16283">
        <ele>702.20806884766</ele>
        <time>2011-05-25T15:32:43Z</time>
      </trkpt>
      <trkpt lat="44.93778" lon="5.16281">
        <ele>706.60162353516</ele>
        <time>2011-05-25T15:32:45Z</time>
      </trkpt>
      <trkpt lat="44.93762" lon="5.1629">
        <ele>707.32073974609</ele>
        <time>2011-05-25T15:32:49Z</time>
      </trkpt>
      <trkpt lat="44.93772" lon="5.16297">
        <ele>705.62133789062</ele>
        <time>2011-05-25T15:32:51Z</time>
      </trkpt>
      <trkpt lat="44.93785" lon="5.16297">
        <ele>703.51312255859</ele>
        <time>2011-05-25T15:32:53Z</time>
      </trkpt>
      <trkpt lat="44.93806" lon="5.16299">
        <ele>698.72424316406</ele>
        <time>2011-05-25T15:32:56Z</time>
      </trkpt>
      <trkpt lat="44.93823" lon="5.16296">
        <ele>695.57629394531</ele>
        <time>2011-05-25T15:32:58Z</time>
      </trkpt>
      <trkpt lat="44.93846" lon="5.16278">
        <ele>692.32287597656</ele>
        <time>2011-05-25T15:33:01Z</time>
      </trkpt>
      <trkpt lat="44.93858" lon="5.16257">
        <ele>688.65991210938</ele>
        <time>2011-05-25T15:33:03Z</time>
      </trkpt>
      <trkpt lat="44.93884" lon="5.16201">
        <ele>678.78833007812</ele>
        <time>2011-05-25T15:33:08Z</time>
      </trkpt>
      <trkpt lat="44.93895" lon="5.16147">
        <ele>674.96276855469</ele>
        <time>2011-05-25T15:33:12Z</time>
      </trkpt>
      <trkpt lat="44.93894" lon="5.16132">
        <ele>676.18634033203</ele>
        <time>2011-05-25T15:33:13Z</time>
      </trkpt>
      <trkpt lat="44.93884" lon="5.16028">
        <ele>667.00354003906</ele>
        <time>2011-05-25T15:33:20Z</time>
      </trkpt>
      <trkpt lat="44.93882" lon="5.16013">
        <ele>665.54638671875</ele>
        <time>2011-05-25T15:33:21Z</time>
      </trkpt>
      <trkpt lat="44.93882" lon="5.15967">
        <ele>658.50665283203</ele>
        <time>2011-05-25T15:33:24Z</time>
      </trkpt>
      <trkpt lat="44.9389" lon="5.15921">
        <ele>649.37878417969</ele>
        <time>2011-05-25T15:33:27Z</time>
      </trkpt>
      <trkpt lat="44.93884" lon="5.15879">
        <ele>645.25415039062</ele>
        <time>2011-05-25T15:33:30Z</time>
      </trkpt>
      <trkpt lat="44.93868" lon="5.15866">
        <ele>645.07299804688</ele>
        <time>2011-05-25T15:33:32Z</time>
      </trkpt>
      <trkpt lat="44.93848" lon="5.15873">
        <ele>648.68811035156</ele>
        <time>2011-05-25T15:33:34Z</time>
      </trkpt>
      <trkpt lat="44.9384" lon="5.1588">
        <ele>651.10687255859</ele>
        <time>2011-05-25T15:33:35Z</time>
      </trkpt>
      <trkpt lat="44.93816" lon="5.15887">
        <ele>655.49047851562</ele>
        <time>2011-05-25T15:33:39Z</time>
      </trkpt>
      <trkpt lat="44.93818" lon="5.1587">
        <ele>651.28558349609</ele>
        <time>2011-05-25T15:33:41Z</time>
      </trkpt>
      <trkpt lat="44.9383" lon="5.15862">
        <ele>648.46728515625</ele>
        <time>2011-05-25T15:33:43Z</time>
      </trkpt>
      <trkpt lat="44.93845" lon="5.15857">
        <ele>646.13305664062</ele>
        <time>2011-05-25T15:33:45Z</time>
      </trkpt>
      <trkpt lat="44.93888" lon="5.15846">
        <ele>641.00134277344</ele>
        <time>2011-05-25T15:33:50Z</time>
      </trkpt>
      <trkpt lat="44.93916" lon="5.15868">
        <ele>633.76495361328</ele>
        <time>2011-05-25T15:33:53Z</time>
      </trkpt>
      <trkpt lat="44.93913" lon="5.1591">
        <ele>641.39990234375</ele>
        <time>2011-05-25T15:33:56Z</time>
      </trkpt>
      <trkpt lat="44.93905" lon="5.15955">
        <ele>648.94207763672</ele>
        <time>2011-05-25T15:33:59Z</time>
      </trkpt>
      <trkpt lat="44.939" lon="5.15981">
        <ele>653.95776367188</ele>
        <time>2011-05-25T15:34:01Z</time>
      </trkpt>
      <trkpt lat="44.93894" lon="5.16004">
        <ele>658.78918457031</ele>
        <time>2011-05-25T15:34:03Z</time>
      </trkpt>
      <trkpt lat="44.93895" lon="5.16061">
        <ele>666.14392089844</ele>
        <time>2011-05-25T15:34:07Z</time>
      </trkpt>
      <trkpt lat="44.93924" lon="5.16138">
        <ele>658.68872070312</ele>
        <time>2011-05-25T15:34:11Z</time>
      </trkpt>
      <trkpt lat="44.93935" lon="5.16169">
        <ele>652.58386230469</ele>
        <time>2011-05-25T15:34:13Z</time>
      </trkpt>
      <trkpt lat="44.93945" lon="5.16205">
        <ele>648.54254150391</ele>
        <time>2011-05-25T15:34:16Z</time>
      </trkpt>
      <trkpt lat="44.93963" lon="5.16208">
        <ele>637.5625</ele>
        <time>2011-05-25T15:34:19Z</time>
      </trkpt>
      <trkpt lat="44.93968" lon="5.16188">
        <ele>634.46118164062</ele>
        <time>2011-05-25T15:34:21Z</time>
      </trkpt>
      <trkpt lat="44.93963" lon="5.16168">
        <ele>637.49615478516</ele>
        <time>2011-05-25T15:34:23Z</time>
      </trkpt>
      <trkpt lat="44.93948" lon="5.16088">
        <ele>646.05493164062</ele>
        <time>2011-05-25T15:34:29Z</time>
      </trkpt>
      <trkpt lat="44.93941" lon="5.16028">
        <ele>644.36682128906</ele>
        <time>2011-05-25T15:34:33Z</time>
      </trkpt>
      <trkpt lat="44.93939" lon="5.15946">
        <ele>637.88342285156</ele>
        <time>2011-05-25T15:34:38Z</time>
      </trkpt>
      <trkpt lat="44.9394" lon="5.15914">
        <ele>633.02838134766</ele>
        <time>2011-05-25T15:34:40Z</time>
      </trkpt>
      <trkpt lat="44.93944" lon="5.15811">
        <ele>617.78753662109</ele>
        <time>2011-05-25T15:34:46Z</time>
      </trkpt>
      <trkpt lat="44.93909" lon="5.15765">
        <ele>614.98315429688</ele>
        <time>2011-05-25T15:34:50Z</time>
      </trkpt>
      <trkpt lat="44.93896" lon="5.15759">
        <ele>616.52807617188</ele>
        <time>2011-05-25T15:34:51Z</time>
      </trkpt>
      <trkpt lat="44.93872" lon="5.15745">
        <ele>616.69769287109</ele>
        <time>2011-05-25T15:34:53Z</time>
      </trkpt>
      <trkpt lat="44.93806" lon="5.15727">
        <ele>617.52124023438</ele>
        <time>2011-05-25T15:34:58Z</time>
      </trkpt>
      <trkpt lat="44.93779" lon="5.1572">
        <ele>616.48010253906</ele>
        <time>2011-05-25T15:35:00Z</time>
      </trkpt>
      <trkpt lat="44.93742" lon="5.15725">
        <ele>616.70770263672</ele>
        <time>2011-05-25T15:35:03Z</time>
      </trkpt>
      <trkpt lat="44.93725" lon="5.15747">
        <ele>619.67230224609</ele>
        <time>2011-05-25T15:35:05Z</time>
      </trkpt>
      <trkpt lat="44.93715" lon="5.15767">
        <ele>621.8779296875</ele>
        <time>2011-05-25T15:35:07Z</time>
      </trkpt>
      <trkpt lat="44.93707" lon="5.15764">
        <ele>620.09539794922</ele>
        <time>2011-05-25T15:35:09Z</time>
      </trkpt>
      <trkpt lat="44.93709" lon="5.15749">
        <ele>617.76983642578</ele>
        <time>2011-05-25T15:35:11Z</time>
      </trkpt>
      <trkpt lat="44.93713" lon="5.15741">
        <ele>616.58813476562</ele>
        <time>2011-05-25T15:35:12Z</time>
      </trkpt>
      <trkpt lat="44.93732" lon="5.15706">
        <ele>611.2939453125</ele>
        <time>2011-05-25T15:35:16Z</time>
      </trkpt>
      <trkpt lat="44.93753" lon="5.15685">
        <ele>607.87371826172</ele>
        <time>2011-05-25T15:35:19Z</time>
      </trkpt>
      <trkpt lat="44.93773" lon="5.15683">
        <ele>607.13214111328</ele>
        <time>2011-05-25T15:35:21Z</time>
      </trkpt>
      <trkpt lat="44.93826" lon="5.15682">
        <ele>603.10308837891</ele>
        <time>2011-05-25T15:35:26Z</time>
      </trkpt>
      <trkpt lat="44.93884" lon="5.1569">
        <ele>599.11987304688</ele>
        <time>2011-05-25T15:35:31Z</time>
      </trkpt>
      <trkpt lat="44.93929" lon="5.15702">
        <ele>594.3125</ele>
        <time>2011-05-25T15:35:35Z</time>
      </trkpt>
      <trkpt lat="44.93941" lon="5.15707">
        <ele>592.80187988281</ele>
        <time>2011-05-25T15:35:36Z</time>
      </trkpt>
      <trkpt lat="44.9399" lon="5.15739">
        <ele>588.39599609375</ele>
        <time>2011-05-25T15:35:40Z</time>
      </trkpt>
      <trkpt lat="44.94019" lon="5.15782">
        <ele>585.36505126953</ele>
        <time>2011-05-25T15:35:43Z</time>
      </trkpt>
      <trkpt lat="44.94035" lon="5.15835">
        <ele>586.66357421875</ele>
        <time>2011-05-25T15:35:46Z</time>
      </trkpt>
      <trkpt lat="44.94042" lon="5.15881">
        <ele>589.25549316406</ele>
        <time>2011-05-25T15:35:49Z</time>
      </trkpt>
      <trkpt lat="44.94044" lon="5.15898">
        <ele>590.38793945312</ele>
        <time>2011-05-25T15:35:51Z</time>
      </trkpt>
      <trkpt lat="44.94051" lon="5.15896">
        <ele>587.51708984375</ele>
        <time>2011-05-25T15:35:53Z</time>
      </trkpt>
      <trkpt lat="44.94057" lon="5.15868">
        <ele>581.54858398438</ele>
        <time>2011-05-25T15:35:56Z</time>
      </trkpt>
      <trkpt lat="44.94046" lon="5.15808">
        <ele>579.44281005859</ele>
        <time>2011-05-25T15:36:02Z</time>
      </trkpt>
      <trkpt lat="44.94026" lon="5.15743">
        <ele>579.27447509766</ele>
        <time>2011-05-25T15:36:08Z</time>
      </trkpt>
      <trkpt lat="44.94013" lon="5.15711">
        <ele>577.29699707031</ele>
        <time>2011-05-25T15:36:11Z</time>
      </trkpt>
      <trkpt lat="44.93989" lon="5.15669">
        <ele>573.86016845703</ele>
        <time>2011-05-25T15:36:15Z</time>
      </trkpt>
      <trkpt lat="44.93939" lon="5.1562">
        <ele>572.44854736328</ele>
        <time>2011-05-25T15:36:21Z</time>
      </trkpt>
      <trkpt lat="44.93924" lon="5.15611">
        <ele>572.85534667969</ele>
        <time>2011-05-25T15:36:23Z</time>
      </trkpt>
      <trkpt lat="44.93917" lon="5.15597">
        <ele>569.39233398438</ele>
        <time>2011-05-25T15:36:26Z</time>
      </trkpt>
      <trkpt lat="44.93926" lon="5.15592">
        <ele>566.71307373047</ele>
        <time>2011-05-25T15:36:29Z</time>
      </trkpt>
      <trkpt lat="44.93929" lon="5.15593">
        <ele>566.73315429688</ele>
        <time>2011-05-25T15:36:30Z</time>
      </trkpt>
      <trkpt lat="44.9394" lon="5.15603">
        <ele>568.40637207031</ele>
        <time>2011-05-25T15:36:36Z</time>
      </trkpt>
      <trkpt lat="44.93956" lon="5.15619">
        <ele>568.75103759766</ele>
        <time>2011-05-25T15:36:43Z</time>
      </trkpt>
      <trkpt lat="44.93987" lon="5.15646">
        <ele>568.68267822266</ele>
        <time>2011-05-25T15:36:53Z</time>
      </trkpt>
      <trkpt lat="44.93999" lon="5.15658">
        <ele>570.1982421875</ele>
        <time>2011-05-25T15:36:56Z</time>
      </trkpt>
      <trkpt lat="44.94025" lon="5.15682">
        <ele>570.44165039062</ele>
        <time>2011-05-25T15:37:01Z</time>
      </trkpt>
      <trkpt lat="44.94035" lon="5.15694">
        <ele>569.68951416016</ele>
        <time>2011-05-25T15:37:03Z</time>
      </trkpt>
      <trkpt lat="44.9408" lon="5.15734">
        <ele>563.05023193359</ele>
        <time>2011-05-25T15:37:10Z</time>
      </trkpt>
      <trkpt lat="44.9411" lon="5.15763">
        <ele>555.79577636719</ele>
        <time>2011-05-25T15:37:14Z</time>
      </trkpt>
      <trkpt lat="44.94136" lon="5.15787">
        <ele>548.29907226562</ele>
        <time>2011-05-25T15:37:17Z</time>
      </trkpt>
      <trkpt lat="44.94157" lon="5.15824">
        <ele>543.13983154297</ele>
        <time>2011-05-25T15:37:20Z</time>
      </trkpt>
      <trkpt lat="44.94158" lon="5.15874">
        <ele>543.50665283203</ele>
        <time>2011-05-25T15:37:23Z</time>
      </trkpt>
      <trkpt lat="44.94157" lon="5.15891">
        <ele>544.19293212891</ele>
        <time>2011-05-25T15:37:24Z</time>
      </trkpt>
      <trkpt lat="44.94167" lon="5.15975">
        <ele>541.01385498047</ele>
        <time>2011-05-25T15:37:29Z</time>
      </trkpt>
      <trkpt lat="44.94172" lon="5.15993">
        <ele>540.99908447266</ele>
        <time>2011-05-25T15:37:30Z</time>
      </trkpt>
      <trkpt lat="44.9418" lon="5.1609">
        <ele>545.13140869141</ele>
        <time>2011-05-25T15:37:35Z</time>
      </trkpt>
      <trkpt lat="44.94187" lon="5.16186">
        <ele>545.40661621094</ele>
        <time>2011-05-25T15:37:40Z</time>
      </trkpt>
      <trkpt lat="44.94185" lon="5.16213">
        <ele>547.41607666016</ele>
        <time>2011-05-25T15:37:42Z</time>
      </trkpt>
      <trkpt lat="44.94204" lon="5.1623">
        <ele>545.91668701172</ele>
        <time>2011-05-25T15:37:45Z</time>
      </trkpt>
      <trkpt lat="44.94223" lon="5.16221">
        <ele>546.29858398438</ele>
        <time>2011-05-25T15:37:47Z</time>
      </trkpt>
      <trkpt lat="44.94235" lon="5.162">
        <ele>550.23858642578</ele>
        <time>2011-05-25T15:37:49Z</time>
      </trkpt>
      <trkpt lat="44.94254" lon="5.16156">
        <ele>551.34228515625</ele>
        <time>2011-05-25T15:37:53Z</time>
      </trkpt>
      <trkpt lat="44.94276" lon="5.16099">
        <ele>553.50189208984</ele>
        <time>2011-05-25T15:37:58Z</time>
      </trkpt>
      <trkpt lat="44.94294" lon="5.16035">
        <ele>551.07049560547</ele>
        <time>2011-05-25T15:38:03Z</time>
      </trkpt>
      <trkpt lat="44.9431" lon="5.15951">
        <ele>541.32800292969</ele>
        <time>2011-05-25T15:38:09Z</time>
      </trkpt>
      <trkpt lat="44.94335" lon="5.15834">
        <ele>530.55633544922</ele>
        <time>2011-05-25T15:38:17Z</time>
      </trkpt>
      <trkpt lat="44.94358" lon="5.15721">
        <ele>521.23327636719</ele>
        <time>2011-05-25T15:38:24Z</time>
      </trkpt>
      <trkpt lat="44.9439" lon="5.15565">
        <ele>509.41690063477</ele>
        <time>2011-05-25T15:38:33Z</time>
      </trkpt>
      <trkpt lat="44.9442" lon="5.15444">
        <ele>504.74838256836</ele>
        <time>2011-05-25T15:38:40Z</time>
      </trkpt>
      <trkpt lat="44.94447" lon="5.15348">
        <ele>503.65148925781</ele>
        <time>2011-05-25T15:38:46Z</time>
      </trkpt>
      <trkpt lat="44.9446" lon="5.1525">
        <ele>497.39083862305</ele>
        <time>2011-05-25T15:38:52Z</time>
      </trkpt>
      <trkpt lat="44.94474" lon="5.15122">
        <ele>483.47772216797</ele>
        <time>2011-05-25T15:39:00Z</time>
      </trkpt>
      <trkpt lat="44.94479" lon="5.1509">
        <ele>478.84408569336</ele>
        <time>2011-05-25T15:39:02Z</time>
      </trkpt>
      <trkpt lat="44.94504" lon="5.15038">
        <ele>476.01617431641</ele>
        <time>2011-05-25T15:39:06Z</time>
      </trkpt>
      <trkpt lat="44.94558" lon="5.14955">
        <ele>463.58645629883</ele>
        <time>2011-05-25T15:39:13Z</time>
      </trkpt>
      <trkpt lat="44.94581" lon="5.14921">
        <ele>460.49319458008</ele>
        <time>2011-05-25T15:39:16Z</time>
      </trkpt>
      <trkpt lat="44.94629" lon="5.14852">
        <ele>446.21337890625</ele>
        <time>2011-05-25T15:39:22Z</time>
      </trkpt>
      <trkpt lat="44.94672" lon="5.14826">
        <ele>440</ele>
        <time>2011-05-25T15:39:26Z</time>
      </trkpt>
      <trkpt lat="44.94733" lon="5.14816">
        <ele>440.75140380859</ele>
        <time>2011-05-25T15:39:31Z</time>
      </trkpt>
      <trkpt lat="44.94779" lon="5.1479">
        <ele>440</ele>
        <time>2011-05-25T15:39:35Z</time>
      </trkpt>
      <trkpt lat="44.9482" lon="5.14749">
        <ele>440</ele>
        <time>2011-05-25T15:39:39Z</time>
      </trkpt>
      <trkpt lat="44.94867" lon="5.14721">
        <ele>440</ele>
        <time>2011-05-25T15:39:43Z</time>
      </trkpt>
      <trkpt lat="44.94902" lon="5.14709">
        <ele>440</ele>
        <time>2011-05-25T15:39:46Z</time>
      </trkpt>
      <trkpt lat="44.94944" lon="5.14679">
        <ele>440</ele>
        <time>2011-05-25T15:39:50Z</time>
      </trkpt>
      <trkpt lat="44.95004" lon="5.14626">
        <ele>440</ele>
        <time>2011-05-25T15:39:56Z</time>
      </trkpt>
      <trkpt lat="44.9505" lon="5.14601">
        <ele>440</ele>
        <time>2011-05-25T15:40:00Z</time>
      </trkpt>
      <trkpt lat="44.95099" lon="5.14577">
        <ele>440</ele>
        <time>2011-05-25T15:40:04Z</time>
      </trkpt>
      <trkpt lat="44.95143" lon="5.14534">
        <ele>440</ele>
        <time>2011-05-25T15:40:08Z</time>
      </trkpt>
      <trkpt lat="44.95151" lon="5.14519">
        <ele>440</ele>
        <time>2011-05-25T15:40:09Z</time>
      </trkpt>
      <trkpt lat="44.95199" lon="5.14439">
        <ele>438.82153320312</ele>
        <time>2011-05-25T15:40:15Z</time>
      </trkpt>
      <trkpt lat="44.95226" lon="5.14414">
        <ele>437.90316772461</ele>
        <time>2011-05-25T15:40:18Z</time>
      </trkpt>
      <trkpt lat="44.95254" lon="5.14407">
        <ele>438.14422607422</ele>
        <time>2011-05-25T15:40:21Z</time>
      </trkpt>
      <trkpt lat="44.95271" lon="5.14386">
        <ele>436.79876708984</ele>
        <time>2011-05-25T15:40:24Z</time>
      </trkpt>
      <trkpt lat="44.953" lon="5.14359">
        <ele>438.48617553711</ele>
        <time>2011-05-25T15:40:30Z</time>
      </trkpt>
      <trkpt lat="44.95304" lon="5.14357">
        <ele>438.35424804688</ele>
        <time>2011-05-25T15:40:31Z</time>
      </trkpt>
      <trkpt lat="44.95317" lon="5.14347">
        <ele>436.17993164062</ele>
        <time>2011-05-25T15:40:35Z</time>
      </trkpt>
      <trkpt lat="44.9533" lon="5.14342">
        <ele>434.14431762695</ele>
        <time>2011-05-25T15:40:38Z</time>
      </trkpt>
      <trkpt lat="44.95346" lon="5.14332">
        <ele>434.10797119141</ele>
        <time>2011-05-25T15:40:42Z</time>
      </trkpt>
      <trkpt lat="44.9537" lon="5.14323">
        <ele>437.75128173828</ele>
        <time>2011-05-25T15:40:48Z</time>
      </trkpt>
      <trkpt lat="44.95382" lon="5.14314">
        <ele>437.28076171875</ele>
        <time>2011-05-25T15:40:51Z</time>
      </trkpt>
      <trkpt lat="44.95406" lon="5.14299">
        <ele>437.34411621094</ele>
        <time>2011-05-25T15:40:57Z</time>
      </trkpt>
      <trkpt lat="44.95412" lon="5.14294">
        <ele>437.38854980469</ele>
        <time>2011-05-25T15:41:00Z</time>
      </trkpt>
      <trkpt lat="44.95413" lon="5.14295">
        <ele>437.84033203125</ele>
        <time>2011-05-25T15:41:02Z</time>
      </trkpt>
      <trkpt lat="44.95415" lon="5.14286">
        <ele>435.04272460938</ele>
        <time>2011-05-25T15:43:18Z</time>
      </trkpt>
      <trkpt lat="44.9543" lon="5.14278">
        <ele>435.90841674805</ele>
        <time>2011-05-25T15:43:25Z</time>
      </trkpt>
      <trkpt lat="44.95441" lon="5.14271">
        <ele>437.22720336914</ele>
        <time>2011-05-25T15:43:29Z</time>
      </trkpt>
      <trkpt lat="44.95444" lon="5.14269">
        <ele>437.62298583984</ele>
        <time>2011-05-25T15:43:30Z</time>
      </trkpt>
      <trkpt lat="44.95452" lon="5.14264">
        <ele>437.5576171875</ele>
        <time>2011-05-25T15:43:32Z</time>
      </trkpt>
      <trkpt lat="44.95472" lon="5.14253">
        <ele>438.56915283203</ele>
        <time>2011-05-25T15:43:37Z</time>
      </trkpt>
      <trkpt lat="44.95503" lon="5.14233">
        <ele>442.75936889648</ele>
        <time>2011-05-25T15:43:45Z</time>
      </trkpt>
      <trkpt lat="44.95521" lon="5.14226">
        <ele>449.44198608398</ele>
        <time>2011-05-25T15:43:50Z</time>
      </trkpt>
      <trkpt lat="44.95538" lon="5.14222">
        <ele>453.45275878906</ele>
        <time>2011-05-25T15:43:54Z</time>
      </trkpt>
      <trkpt lat="44.95555" lon="5.14211">
        <ele>455.08508300781</ele>
        <time>2011-05-25T15:43:58Z</time>
      </trkpt>
      <trkpt lat="44.95582" lon="5.14176">
        <ele>454.23022460938</ele>
        <time>2011-05-25T15:44:05Z</time>
      </trkpt>
      <trkpt lat="44.95602" lon="5.14142">
        <ele>453.52166748047</ele>
        <time>2011-05-25T15:44:10Z</time>
      </trkpt>
      <trkpt lat="44.95619" lon="5.14079">
        <ele>451.35131835938</ele>
        <time>2011-05-25T15:44:17Z</time>
      </trkpt>
      <trkpt lat="44.95635" lon="5.14012">
        <ele>449.18795776367</ele>
        <time>2011-05-25T15:44:24Z</time>
      </trkpt>
      <trkpt lat="44.95644" lon="5.13962">
        <ele>446.63482666016</ele>
        <time>2011-05-25T15:44:29Z</time>
      </trkpt>
      <trkpt lat="44.9565" lon="5.13891">
        <ele>444.06503295898</ele>
        <time>2011-05-25T15:44:36Z</time>
      </trkpt>
      <trkpt lat="44.95654" lon="5.13827">
        <ele>440.76135253906</ele>
        <time>2011-05-25T15:44:42Z</time>
      </trkpt>
      <trkpt lat="44.95654" lon="5.13771">
        <ele>436.04901123047</ele>
        <time>2011-05-25T15:44:47Z</time>
      </trkpt>
      <trkpt lat="44.95664" lon="5.13729">
        <ele>434.88409423828</ele>
        <time>2011-05-25T15:44:51Z</time>
      </trkpt>
      <trkpt lat="44.95672" lon="5.13709">
        <ele>434.90783691406</ele>
        <time>2011-05-25T15:44:53Z</time>
      </trkpt>
      <trkpt lat="44.95715" lon="5.13631">
        <ele>434.51028442383</ele>
        <time>2011-05-25T15:45:02Z</time>
      </trkpt>
      <trkpt lat="44.95755" lon="5.1356">
        <ele>431.02117919922</ele>
        <time>2011-05-25T15:45:10Z</time>
      </trkpt>
      <trkpt lat="44.95792" lon="5.13495">
        <ele>427.91226196289</ele>
        <time>2011-05-25T15:45:17Z</time>
      </trkpt>
      <trkpt lat="44.95858" lon="5.13377">
        <ele>419.82330322266</ele>
        <time>2011-05-25T15:45:29Z</time>
      </trkpt>
      <trkpt lat="44.9588" lon="5.13337">
        <ele>415.20971679688</ele>
        <time>2011-05-25T15:45:33Z</time>
      </trkpt>
      <trkpt lat="44.95916" lon="5.13265">
        <ele>405.58749389648</ele>
        <time>2011-05-25T15:45:40Z</time>
      </trkpt>
      <trkpt lat="44.95944" lon="5.13234">
        <ele>400.84710693359</ele>
        <time>2011-05-25T15:45:44Z</time>
      </trkpt>
      <trkpt lat="44.95954" lon="5.13209">
        <ele>399.19961547852</ele>
        <time>2011-05-25T15:45:46Z</time>
      </trkpt>
      <trkpt lat="44.95975" lon="5.13146">
        <ele>395.16290283203</ele>
        <time>2011-05-25T15:45:51Z</time>
      </trkpt>
      <trkpt lat="44.95982" lon="5.13135">
        <ele>394.66247558594</ele>
        <time>2011-05-25T15:45:52Z</time>
      </trkpt>
      <trkpt lat="44.9603" lon="5.13058">
        <ele>390.91839599609</ele>
        <time>2011-05-25T15:45:59Z</time>
      </trkpt>
      <trkpt lat="44.96093" lon="5.12962">
        <ele>387.29846191406</ele>
        <time>2011-05-25T15:46:08Z</time>
      </trkpt>
      <trkpt lat="44.96108" lon="5.12942">
        <ele>386.11688232422</ele>
        <time>2011-05-25T15:46:10Z</time>
      </trkpt>
      <trkpt lat="44.96166" lon="5.12878">
        <ele>383.04708862305</ele>
        <time>2011-05-25T15:46:17Z</time>
      </trkpt>
      <trkpt lat="44.96192" lon="5.12852">
        <ele>382.08190917969</ele>
        <time>2011-05-25T15:46:20Z</time>
      </trkpt>
      <trkpt lat="44.96242" lon="5.12795">
        <ele>380</ele>
        <time>2011-05-25T15:46:26Z</time>
      </trkpt>
      <trkpt lat="44.96279" lon="5.12767">
        <ele>379.55526733398</ele>
        <time>2011-05-25T15:46:30Z</time>
      </trkpt>
      <trkpt lat="44.96352" lon="5.12731">
        <ele>374.44805908203</ele>
        <time>2011-05-25T15:46:37Z</time>
      </trkpt>
      <trkpt lat="44.96362" lon="5.12725">
        <ele>373.95703125</ele>
        <time>2011-05-25T15:46:38Z</time>
      </trkpt>
      <trkpt lat="44.96456" lon="5.12669">
        <ele>369.59246826172</ele>
        <time>2011-05-25T15:46:47Z</time>
      </trkpt>
      <trkpt lat="44.96492" lon="5.12631">
        <ele>366.54821777344</ele>
        <time>2011-05-25T15:46:51Z</time>
      </trkpt>
      <trkpt lat="44.96501" lon="5.12619">
        <ele>365.97198486328</ele>
        <time>2011-05-25T15:46:52Z</time>
      </trkpt>
      <trkpt lat="44.96585" lon="5.12515">
        <ele>361.49542236328</ele>
        <time>2011-05-25T15:47:02Z</time>
      </trkpt>
      <trkpt lat="44.96652" lon="5.12452">
        <ele>360</ele>
        <time>2011-05-25T15:47:09Z</time>
      </trkpt>
      <trkpt lat="44.96724" lon="5.12386">
        <ele>355.84899902344</ele>
        <time>2011-05-25T15:47:16Z</time>
      </trkpt>
      <trkpt lat="44.96753" lon="5.12353">
        <ele>353.52764892578</ele>
        <time>2011-05-25T15:47:19Z</time>
      </trkpt>
      <trkpt lat="44.96812" lon="5.12269">
        <ele>348.45751953125</ele>
        <time>2011-05-25T15:47:26Z</time>
      </trkpt>
      <trkpt lat="44.96873" lon="5.12182">
        <ele>344.10339355469</ele>
        <time>2011-05-25T15:47:33Z</time>
      </trkpt>
      <trkpt lat="44.96917" lon="5.12117">
        <ele>341.22348022461</ele>
        <time>2011-05-25T15:47:38Z</time>
      </trkpt>
      <trkpt lat="44.96983" lon="5.12033">
        <ele>337.81137084961</ele>
        <time>2011-05-25T15:47:45Z</time>
      </trkpt>
      <trkpt lat="44.97028" lon="5.12002">
        <ele>336.94888305664</ele>
        <time>2011-05-25T15:47:49Z</time>
      </trkpt>
      <trkpt lat="44.97118" lon="5.11949">
        <ele>334.51669311523</ele>
        <time>2011-05-25T15:47:57Z</time>
      </trkpt>
      <trkpt lat="44.97197" lon="5.11902">
        <ele>328.90942382812</ele>
        <time>2011-05-25T15:48:04Z</time>
      </trkpt>
      <trkpt lat="44.97208" lon="5.11895">
        <ele>328.49743652344</ele>
        <time>2011-05-25T15:48:05Z</time>
      </trkpt>
      <trkpt lat="44.97253" lon="5.11869">
        <ele>326.79098510742</ele>
        <time>2011-05-25T15:48:09Z</time>
      </trkpt>
      <trkpt lat="44.97265" lon="5.11863">
        <ele>325.96984863281</ele>
        <time>2011-05-25T15:48:10Z</time>
      </trkpt>
      <trkpt lat="44.97347" lon="5.11827">
        <ele>322.26348876953</ele>
        <time>2011-05-25T15:48:17Z</time>
      </trkpt>
      <trkpt lat="44.97409" lon="5.11809">
        <ele>320.37683105469</ele>
        <time>2011-05-25T15:48:22Z</time>
      </trkpt>
      <trkpt lat="44.97433" lon="5.11802">
        <ele>320</ele>
        <time>2011-05-25T15:48:24Z</time>
      </trkpt>
      <trkpt lat="44.9747" lon="5.11791">
        <ele>319.52618408203</ele>
        <time>2011-05-25T15:48:27Z</time>
      </trkpt>
      <trkpt lat="44.97512" lon="5.11758">
        <ele>316.82290649414</ele>
        <time>2011-05-25T15:48:31Z</time>
      </trkpt>
      <trkpt lat="44.97521" lon="5.11745">
        <ele>316.23645019531</ele>
        <time>2011-05-25T15:48:32Z</time>
      </trkpt>
      <trkpt lat="44.97583" lon="5.11646">
        <ele>311.27059936523</ele>
        <time>2011-05-25T15:48:40Z</time>
      </trkpt>
      <trkpt lat="44.97653" lon="5.11535">
        <ele>305.75433349609</ele>
        <time>2011-05-25T15:48:49Z</time>
      </trkpt>
      <trkpt lat="44.97729" lon="5.11422">
        <ele>302.19250488281</ele>
        <time>2011-05-25T15:48:58Z</time>
      </trkpt>
      <trkpt lat="44.97749" lon="5.114">
        <ele>302</ele>
        <time>2011-05-25T15:49:00Z</time>
      </trkpt>
      <trkpt lat="44.97804" lon="5.1136">
        <ele>300.05770874023</ele>
        <time>2011-05-25T15:49:05Z</time>
      </trkpt>
      <trkpt lat="44.97847" lon="5.11332">
        <ele>300</ele>
        <time>2011-05-25T15:49:09Z</time>
      </trkpt>
      <trkpt lat="44.97891" lon="5.11303">
        <ele>300</ele>
        <time>2011-05-25T15:49:13Z</time>
      </trkpt>
      <trkpt lat="44.97959" lon="5.11258">
        <ele>299.47106933594</ele>
        <time>2011-05-25T15:49:19Z</time>
      </trkpt>
      <trkpt lat="44.9797" lon="5.11249">
        <ele>299.08654785156</ele>
        <time>2011-05-25T15:49:20Z</time>
      </trkpt>
      <trkpt lat="44.98016" lon="5.11191">
        <ele>296.43859863281</ele>
        <time>2011-05-25T15:49:25Z</time>
      </trkpt>
      <trkpt lat="44.98095" lon="5.11084">
        <ele>292.58215332031</ele>
        <time>2011-05-25T15:49:34Z</time>
      </trkpt>
      <trkpt lat="44.98126" lon="5.11055">
        <ele>291.44128417969</ele>
        <time>2011-05-25T15:49:37Z</time>
      </trkpt>
      <trkpt lat="44.98137" lon="5.11045">
        <ele>290.72280883789</ele>
        <time>2011-05-25T15:49:38Z</time>
      </trkpt>
      <trkpt lat="44.98168" lon="5.11014">
        <ele>289.44204711914</ele>
        <time>2011-05-25T15:49:41Z</time>
      </trkpt>
      <trkpt lat="44.98187" lon="5.10991">
        <ele>288.2587890625</ele>
        <time>2011-05-25T15:49:43Z</time>
      </trkpt>
      <trkpt lat="44.98252" lon="5.10908">
        <ele>283.91046142578</ele>
        <time>2011-05-25T15:49:50Z</time>
      </trkpt>
      <trkpt lat="44.98293" lon="5.10872">
        <ele>282.45477294922</ele>
        <time>2011-05-25T15:49:54Z</time>
      </trkpt>
      <trkpt lat="44.98361" lon="5.10832">
        <ele>277.99984741211</ele>
        <time>2011-05-25T15:50:00Z</time>
      </trkpt>
      <trkpt lat="44.98406" lon="5.10805">
        <ele>276.37609863281</ele>
        <time>2011-05-25T15:50:04Z</time>
      </trkpt>
      <trkpt lat="44.9845" lon="5.1078">
        <ele>274.86996459961</ele>
        <time>2011-05-25T15:50:08Z</time>
      </trkpt>
      <trkpt lat="44.98526" lon="5.10734">
        <ele>272.07769775391</ele>
        <time>2011-05-25T15:50:15Z</time>
      </trkpt>
      <trkpt lat="44.98607" lon="5.1067">
        <ele>269.13885498047</ele>
        <time>2011-05-25T15:50:23Z</time>
      </trkpt>
      <trkpt lat="44.98686" lon="5.10608">
        <ele>266.1877746582</ele>
        <time>2011-05-25T15:50:31Z</time>
      </trkpt>
      <trkpt lat="44.98756" lon="5.10556">
        <ele>262.99963378906</ele>
        <time>2011-05-25T15:50:38Z</time>
      </trkpt>
      <trkpt lat="44.98795" lon="5.10501">
        <ele>261.40032958984</ele>
        <time>2011-05-25T15:50:43Z</time>
      </trkpt>
      <trkpt lat="44.98848" lon="5.10397">
        <ele>260</ele>
        <time>2011-05-25T15:50:51Z</time>
      </trkpt>
      <trkpt lat="44.98908" lon="5.10274">
        <ele>256.15316772461</ele>
        <time>2011-05-25T15:51:00Z</time>
      </trkpt>
      <trkpt lat="44.98935" lon="5.1025">
        <ele>255.00672912598</ele>
        <time>2011-05-25T15:51:03Z</time>
      </trkpt>
      <trkpt lat="44.98968" lon="5.10249">
        <ele>254.16125488281</ele>
        <time>2011-05-25T15:51:06Z</time>
      </trkpt>
      <trkpt lat="44.98979" lon="5.10247">
        <ele>253.76300048828</ele>
        <time>2011-05-25T15:51:07Z</time>
      </trkpt>
      <trkpt lat="44.99076" lon="5.10217">
        <ele>251.80509948731</ele>
        <time>2011-05-25T15:51:16Z</time>
      </trkpt>
      <trkpt lat="44.99152" lon="5.10193">
        <ele>249</ele>
        <time>2011-05-25T15:51:23Z</time>
      </trkpt>
      <trkpt lat="44.99203" lon="5.10166">
        <ele>248</ele>
        <time>2011-05-25T15:51:28Z</time>
      </trkpt>
      <trkpt lat="44.99278" lon="5.10104">
        <ele>245</ele>
        <time>2011-05-25T15:51:36Z</time>
      </trkpt>
      <trkpt lat="44.99374" lon="5.10027">
        <ele>243.50965881348</ele>
        <time>2011-05-25T15:51:46Z</time>
      </trkpt>
      <trkpt lat="44.99448" lon="5.09967">
        <ele>241.71557617188</ele>
        <time>2011-05-25T15:51:54Z</time>
      </trkpt>
      <trkpt lat="44.99524" lon="5.09903">
        <ele>240.12493896484</ele>
        <time>2011-05-25T15:52:02Z</time>
      </trkpt>
      <trkpt lat="44.99543" lon="5.09887">
        <ele>240</ele>
        <time>2011-05-25T15:52:04Z</time>
      </trkpt>
      <trkpt lat="44.99621" lon="5.09818">
        <ele>240</ele>
        <time>2011-05-25T15:52:12Z</time>
      </trkpt>
      <trkpt lat="44.9972" lon="5.09734">
        <ele>240</ele>
        <time>2011-05-25T15:52:22Z</time>
      </trkpt>
      <trkpt lat="44.99823" lon="5.0967">
        <ele>238</ele>
        <time>2011-05-25T15:52:32Z</time>
      </trkpt>
      <trkpt lat="44.99897" lon="5.09635">
        <ele>235.95579528809</ele>
        <time>2011-05-25T15:52:39Z</time>
      </trkpt>
      <trkpt lat="44.99947" lon="5.09607">
        <ele>233.37084960938</ele>
        <time>2011-05-25T15:52:44Z</time>
      </trkpt>
      <trkpt lat="45.00012" lon="5.09553">
        <ele>225.560546875</ele>
        <time>2011-05-25T15:52:51Z</time>
      </trkpt>
      <trkpt lat="45.00085" lon="5.09492">
        <ele>223</ele>
        <time>2011-05-25T15:52:59Z</time>
      </trkpt>
      <trkpt lat="45.00157" lon="5.09431">
        <ele>221.69328308106</ele>
        <time>2011-05-25T15:53:07Z</time>
      </trkpt>
      <trkpt lat="45.00237" lon="5.0936">
        <ele>220</ele>
        <time>2011-05-25T15:53:16Z</time>
      </trkpt>
      <trkpt lat="45.00297" lon="5.09306">
        <ele>220</ele>
        <time>2011-05-25T15:53:23Z</time>
      </trkpt>
      <trkpt lat="45.00357" lon="5.09272">
        <ele>220</ele>
        <time>2011-05-25T15:53:30Z</time>
      </trkpt>
      <trkpt lat="45.00375" lon="5.09265">
        <ele>220</ele>
        <time>2011-05-25T15:53:32Z</time>
      </trkpt>
      <trkpt lat="45.00436" lon="5.09228">
        <ele>218.45182800293</ele>
        <time>2011-05-25T15:53:39Z</time>
      </trkpt>
      <trkpt lat="45.00498" lon="5.09181">
        <ele>218</ele>
        <time>2011-05-25T15:53:46Z</time>
      </trkpt>
      <trkpt lat="45.00543" lon="5.09148">
        <ele>218</ele>
        <time>2011-05-25T15:53:51Z</time>
      </trkpt>
      <trkpt lat="45.00604" lon="5.09108">
        <ele>218</ele>
        <time>2011-05-25T15:53:58Z</time>
      </trkpt>
      <trkpt lat="45.00661" lon="5.09077">
        <ele>218</ele>
        <time>2011-05-25T15:54:05Z</time>
      </trkpt>
      <trkpt lat="45.00688" lon="5.09065">
        <ele>218</ele>
        <time>2011-05-25T15:54:09Z</time>
      </trkpt>
      <trkpt lat="45.00692" lon="5.09063">
        <ele>218</ele>
        <time>2011-05-25T15:54:10Z</time>
      </trkpt>
      <trkpt lat="45.00696" lon="5.09061">
        <ele>218</ele>
        <time>2011-05-25T15:54:13Z</time>
      </trkpt>
      <trkpt lat="45.00697" lon="5.0906">
        <ele>218</ele>
        <time>2011-05-25T15:54:15Z</time>
      </trkpt>
      <trkpt lat="45.00696" lon="5.09043">
        <ele>218</ele>
        <time>2011-05-25T15:54:20Z</time>
      </trkpt>
      <trkpt lat="45.00695" lon="5.09038">
        <ele>218</ele>
        <time>2011-05-25T15:54:21Z</time>
      </trkpt>
      <trkpt lat="45.0069" lon="5.09002">
        <ele>218</ele>
        <time>2011-05-25T15:54:26Z</time>
      </trkpt>
      <trkpt lat="45.00687" lon="5.08985">
        <ele>218</ele>
        <time>2011-05-25T15:54:28Z</time>
      </trkpt>
      <trkpt lat="45.00674" lon="5.0892">
        <ele>218</ele>
        <time>2011-05-25T15:54:35Z</time>
      </trkpt>
      <trkpt lat="45.00666" lon="5.08891">
        <ele>218</ele>
        <time>2011-05-25T15:54:38Z</time>
      </trkpt>
      <trkpt lat="45.00649" lon="5.08813">
        <ele>217</ele>
        <time>2011-05-25T15:54:46Z</time>
      </trkpt>
      <trkpt lat="45.00648" lon="5.08766">
        <ele>217</ele>
        <time>2011-05-25T15:54:51Z</time>
      </trkpt>
      <trkpt lat="45.00648" lon="5.08728">
        <ele>219.39880371094</ele>
        <time>2011-05-25T15:54:55Z</time>
      </trkpt>
      <trkpt lat="45.00655" lon="5.08712">
        <ele>220</ele>
        <time>2011-05-25T15:54:57Z</time>
      </trkpt>
      <trkpt lat="45.00671" lon="5.0868">
        <ele>220</ele>
        <time>2011-05-25T15:55:01Z</time>
      </trkpt>
      <trkpt lat="45.00685" lon="5.08647">
        <ele>220</ele>
        <time>2011-05-25T15:55:05Z</time>
      </trkpt>
      <trkpt lat="45.00689" lon="5.08639">
        <ele>220</ele>
        <time>2011-05-25T15:55:06Z</time>
      </trkpt>
      <trkpt lat="45.00695" lon="5.08616">
        <ele>221.69360351562</ele>
        <time>2011-05-25T15:55:09Z</time>
      </trkpt>
      <trkpt lat="45.00684" lon="5.08597">
        <ele>221.86679077148</ele>
        <time>2011-05-25T15:55:12Z</time>
      </trkpt>
      <trkpt lat="45.00658" lon="5.08571">
        <ele>220.29750061035</ele>
        <time>2011-05-25T15:55:17Z</time>
      </trkpt>
      <trkpt lat="45.00621" lon="5.08532">
        <ele>220</ele>
        <time>2011-05-25T15:55:24Z</time>
      </trkpt>
      <trkpt lat="45.00584" lon="5.08486">
        <ele>220</ele>
        <time>2011-05-25T15:55:31Z</time>
      </trkpt>
      <trkpt lat="45.00545" lon="5.08432">
        <ele>220</ele>
        <time>2011-05-25T15:55:39Z</time>
      </trkpt>
      <trkpt lat="45.00507" lon="5.08365">
        <ele>220</ele>
        <time>2011-05-25T15:55:48Z</time>
      </trkpt>
      <trkpt lat="45.0048" lon="5.08315">
        <ele>220</ele>
        <time>2011-05-25T15:55:55Z</time>
      </trkpt>
      <trkpt lat="45.00457" lon="5.08277">
        <ele>220</ele>
        <time>2011-05-25T15:56:01Z</time>
      </trkpt>
      <trkpt lat="45.00457" lon="5.08251">
        <ele>220</ele>
        <time>2011-05-25T15:56:05Z</time>
      </trkpt>
      <trkpt lat="45.00464" lon="5.08241">
        <ele>220</ele>
        <time>2011-05-25T15:56:07Z</time>
      </trkpt>
      <trkpt lat="45.00496" lon="5.08203">
        <ele>220.58116149902</ele>
        <time>2011-05-25T15:56:14Z</time>
      </trkpt>
      <trkpt lat="45.00541" lon="5.08145">
        <ele>221</ele>
        <time>2011-05-25T15:56:23Z</time>
      </trkpt>
      <trkpt lat="45.00584" lon="5.08087">
        <ele>221.00366210938</ele>
        <time>2011-05-25T15:56:31Z</time>
      </trkpt>
      <trkpt lat="45.00618" lon="5.08044">
        <ele>219.59790039062</ele>
        <time>2011-05-25T15:56:37Z</time>
      </trkpt>
      <trkpt lat="45.0063" lon="5.08031">
        <ele>219.0983581543</ele>
        <time>2011-05-25T15:56:39Z</time>
      </trkpt>
      <trkpt lat="45.00661" lon="5.07985">
        <ele>217.02047729492</ele>
        <time>2011-05-25T15:56:45Z</time>
      </trkpt>
      <trkpt lat="45.00667" lon="5.07978">
        <ele>216.40473937988</ele>
        <time>2011-05-25T15:56:46Z</time>
      </trkpt>
      <trkpt lat="45.00702" lon="5.07951">
        <ele>213.47229003906</ele>
        <time>2011-05-25T15:56:51Z</time>
      </trkpt>
      <trkpt lat="45.00742" lon="5.07932">
        <ele>208.89349365234</ele>
        <time>2011-05-25T15:56:56Z</time>
      </trkpt>
      <trkpt lat="45.00767" lon="5.07919">
        <ele>206.65846252441</ele>
        <time>2011-05-25T15:56:59Z</time>
      </trkpt>
      <trkpt lat="45.00784" lon="5.07906">
        <ele>205.12071228027</ele>
        <time>2011-05-25T15:57:01Z</time>
      </trkpt>
      <trkpt lat="45.00798" lon="5.07887">
        <ele>203.83010864258</ele>
        <time>2011-05-25T15:57:03Z</time>
      </trkpt>
      <trkpt lat="45.00842" lon="5.07814">
        <ele>199</ele>
        <time>2011-05-25T15:57:09Z</time>
      </trkpt>
      <trkpt lat="45.00858" lon="5.07788">
        <ele>199</ele>
        <time>2011-05-25T15:57:11Z</time>
      </trkpt>
      <trkpt lat="45.00916" lon="5.07729">
        <ele>199</ele>
        <time>2011-05-25T15:57:17Z</time>
      </trkpt>
      <trkpt lat="45.00968" lon="5.07674">
        <ele>199</ele>
        <time>2011-05-25T15:57:23Z</time>
      </trkpt>
      <trkpt lat="45.01017" lon="5.07616">
        <ele>199</ele>
        <time>2011-05-25T15:57:30Z</time>
      </trkpt>
      <trkpt lat="45.01064" lon="5.07567">
        <ele>198</ele>
        <time>2011-05-25T15:57:37Z</time>
      </trkpt>
      <trkpt lat="45.01091" lon="5.0754">
        <ele>198</ele>
        <time>2011-05-25T15:57:41Z</time>
      </trkpt>
      <trkpt lat="45.01146" lon="5.07487">
        <ele>197.52038574219</ele>
        <time>2011-05-25T15:57:49Z</time>
      </trkpt>
      <trkpt lat="45.01181" lon="5.07456">
        <ele>197</ele>
        <time>2011-05-25T15:57:54Z</time>
      </trkpt>
      <trkpt lat="45.01214" lon="5.07426">
        <ele>197</ele>
        <time>2011-05-25T15:57:59Z</time>
      </trkpt>
      <trkpt lat="45.01262" lon="5.07388">
        <ele>197</ele>
        <time>2011-05-25T15:58:06Z</time>
      </trkpt>
      <trkpt lat="45.01314" lon="5.07332">
        <ele>196</ele>
        <time>2011-05-25T15:58:14Z</time>
      </trkpt>
      <trkpt lat="45.01366" lon="5.0726">
        <ele>195.37161254883</ele>
        <time>2011-05-25T15:58:23Z</time>
      </trkpt>
      <trkpt lat="45.01415" lon="5.07188">
        <ele>195</ele>
        <time>2011-05-25T15:58:32Z</time>
      </trkpt>
      <trkpt lat="45.01489" lon="5.071">
        <ele>194.38671875</ele>
        <time>2011-05-25T15:58:44Z</time>
      </trkpt>
      <trkpt lat="45.0156" lon="5.07014">
        <ele>193.50358581543</ele>
        <time>2011-05-25T15:58:56Z</time>
      </trkpt>
      <trkpt lat="45.01615" lon="5.06945">
        <ele>193</ele>
        <time>2011-05-25T15:59:05Z</time>
      </trkpt>
      <trkpt lat="45.0167" lon="5.06874">
        <ele>192.89105224609</ele>
        <time>2011-05-25T15:59:14Z</time>
      </trkpt>
      <trkpt lat="45.0173" lon="5.06793">
        <ele>192</ele>
        <time>2011-05-25T15:59:24Z</time>
      </trkpt>
      <trkpt lat="45.01775" lon="5.06736">
        <ele>192</ele>
        <time>2011-05-25T15:59:31Z</time>
      </trkpt>
      <trkpt lat="45.01818" lon="5.06683">
        <ele>191.5954284668</ele>
        <time>2011-05-25T15:59:38Z</time>
      </trkpt>
      <trkpt lat="45.0186" lon="5.06648">
        <ele>191</ele>
        <time>2011-05-25T15:59:44Z</time>
      </trkpt>
      <trkpt lat="45.01907" lon="5.06603">
        <ele>191</ele>
        <time>2011-05-25T15:59:51Z</time>
      </trkpt>
      <trkpt lat="45.0195" lon="5.0656">
        <ele>191</ele>
        <time>2011-05-25T15:59:58Z</time>
      </trkpt>
      <trkpt lat="45.01977" lon="5.06533">
        <ele>191</ele>
        <time>2011-05-25T16:00:04Z</time>
      </trkpt>
      <trkpt lat="45.01989" lon="5.06523">
        <ele>191</ele>
        <time>2011-05-25T16:00:07Z</time>
      </trkpt>
      <trkpt lat="45.02003" lon="5.06518">
        <ele>191</ele>
        <time>2011-05-25T16:00:11Z</time>
      </trkpt>
      <trkpt lat="45.02005" lon="5.06516">
        <ele>191</ele>
        <time>2011-05-25T16:00:14Z</time>
      </trkpt>
      <trkpt lat="45.01999" lon="5.06514">
        <ele>191</ele>
        <time>2011-05-25T16:00:17Z</time>
      </trkpt>
      <trkpt lat="45.01992" lon="5.06518">
        <ele>191</ele>
        <time>2011-05-25T16:00:19Z</time>
      </trkpt>
      <trkpt lat="45.0196" lon="5.06548">
        <ele>191</ele>
        <time>2011-05-25T16:00:27Z</time>
      </trkpt>
      <trkpt lat="45.01921" lon="5.06585">
        <ele>191</ele>
        <time>2011-05-25T16:00:35Z</time>
      </trkpt>
      <trkpt lat="45.0188" lon="5.06629">
        <ele>191</ele>
        <time>2011-05-25T16:00:44Z</time>
      </trkpt>
      <trkpt lat="45.01848" lon="5.06656">
        <ele>191</ele>
        <time>2011-05-25T16:00:51Z</time>
      </trkpt>
      <trkpt lat="45.01832" lon="5.06655">
        <ele>191</ele>
        <time>2011-05-25T16:00:55Z</time>
      </trkpt>
      <trkpt lat="45.01831" lon="5.06642">
        <ele>191</ele>
        <time>2011-05-25T16:00:57Z</time>
      </trkpt>
      <trkpt lat="45.01827" lon="5.06576">
        <ele>191</ele>
        <time>2011-05-25T16:01:05Z</time>
      </trkpt>
      <trkpt lat="45.01823" lon="5.06519">
        <ele>191</ele>
        <time>2011-05-25T16:01:12Z</time>
      </trkpt>
      <trkpt lat="45.01818" lon="5.06448">
        <ele>191</ele>
        <time>2011-05-25T16:01:20Z</time>
      </trkpt>
      <trkpt lat="45.01813" lon="5.06366">
        <ele>190.18682861328</ele>
        <time>2011-05-25T16:01:29Z</time>
      </trkpt>
      <trkpt lat="45.01809" lon="5.06299">
        <ele>190</ele>
        <time>2011-05-25T16:01:36Z</time>
      </trkpt>
      <trkpt lat="45.01806" lon="5.0623">
        <ele>190</ele>
        <time>2011-05-25T16:01:43Z</time>
      </trkpt>
      <trkpt lat="45.01803" lon="5.06173">
        <ele>190</ele>
        <time>2011-05-25T16:01:49Z</time>
      </trkpt>
      <trkpt lat="45.01801" lon="5.06121">
        <ele>190</ele>
        <time>2011-05-25T16:01:55Z</time>
      </trkpt>
      <trkpt lat="45.018" lon="5.06093">
        <ele>190</ele>
        <time>2011-05-25T16:01:59Z</time>
      </trkpt>
      <trkpt lat="45.01808" lon="5.06083">
        <ele>190</ele>
        <time>2011-05-25T16:02:03Z</time>
      </trkpt>
      <trkpt lat="45.01821" lon="5.0608">
        <ele>190</ele>
        <time>2011-05-25T16:02:06Z</time>
      </trkpt>
      <trkpt lat="45.01866" lon="5.06075">
        <ele>190</ele>
        <time>2011-05-25T16:02:14Z</time>
      </trkpt>
      <trkpt lat="45.0191" lon="5.06068">
        <ele>190</ele>
        <time>2011-05-25T16:02:21Z</time>
      </trkpt>
      <trkpt lat="45.01956" lon="5.06061">
        <ele>190</ele>
        <time>2011-05-25T16:02:28Z</time>
      </trkpt>
      <trkpt lat="45.02008" lon="5.06051">
        <ele>190</ele>
        <time>2011-05-25T16:02:37Z</time>
      </trkpt>
      <trkpt lat="45.02013" lon="5.0605">
        <ele>190</ele>
        <time>2011-05-25T16:02:38Z</time>
      </trkpt>
      <trkpt lat="45.02063" lon="5.0604">
        <ele>190</ele>
        <time>2011-05-25T16:02:47Z</time>
      </trkpt>
      <trkpt lat="45.02097" lon="5.06033">
        <ele>190</ele>
        <time>2011-05-25T16:02:53Z</time>
      </trkpt>
      <trkpt lat="45.02127" lon="5.06026">
        <ele>190</ele>
        <time>2011-05-25T16:02:58Z</time>
      </trkpt>
      <trkpt lat="45.02174" lon="5.06015">
        <ele>190</ele>
        <time>2011-05-25T16:03:05Z</time>
      </trkpt>
      <trkpt lat="45.02206" lon="5.06008">
        <ele>190</ele>
        <time>2011-05-25T16:03:09Z</time>
      </trkpt>
      <trkpt lat="45.02271" lon="5.05993">
        <ele>190</ele>
        <time>2011-05-25T16:03:17Z</time>
      </trkpt>
      <trkpt lat="45.02318" lon="5.05982">
        <ele>190</ele>
        <time>2011-05-25T16:03:23Z</time>
      </trkpt>
      <trkpt lat="45.02368" lon="5.05972">
        <ele>187.74279785156</ele>
        <time>2011-05-25T16:03:30Z</time>
      </trkpt>
      <trkpt lat="45.02413" lon="5.05965">
        <ele>185.27868652344</ele>
        <time>2011-05-25T16:03:36Z</time>
      </trkpt>
      <trkpt lat="45.02459" lon="5.05977">
        <ele>182.40667724609</ele>
        <time>2011-05-25T16:03:42Z</time>
      </trkpt>
      <trkpt lat="45.02502" lon="5.06001">
        <ele>180</ele>
        <time>2011-05-25T16:03:48Z</time>
      </trkpt>
      <trkpt lat="45.02538" lon="5.06021">
        <ele>180</ele>
        <time>2011-05-25T16:03:53Z</time>
      </trkpt>
      <trkpt lat="45.02555" lon="5.06037">
        <ele>180</ele>
        <time>2011-05-25T16:03:56Z</time>
      </trkpt>
      <trkpt lat="45.02571" lon="5.06032">
        <ele>179.44018554688</ele>
        <time>2011-05-25T16:04:00Z</time>
      </trkpt>
      <trkpt lat="45.02589" lon="5.06">
        <ele>179</ele>
        <time>2011-05-25T16:04:05Z</time>
      </trkpt>
      <trkpt lat="45.02591" lon="5.05992">
        <ele>179</ele>
        <time>2011-05-25T16:04:06Z</time>
      </trkpt>
      <trkpt lat="45.02595" lon="5.05977">
        <ele>179</ele>
        <time>2011-05-25T16:04:08Z</time>
      </trkpt>
      <trkpt lat="45.02599" lon="5.0595">
        <ele>179</ele>
        <time>2011-05-25T16:04:12Z</time>
      </trkpt>
      <trkpt lat="45.02604" lon="5.05909">
        <ele>179.06930541992</ele>
        <time>2011-05-25T16:04:17Z</time>
      </trkpt>
      <trkpt lat="45.02609" lon="5.05868">
        <ele>179.78280639648</ele>
        <time>2011-05-25T16:04:22Z</time>
      </trkpt>
      <trkpt lat="45.02618" lon="5.05844">
        <ele>179.9016418457</ele>
        <time>2011-05-25T16:04:25Z</time>
      </trkpt>
      <trkpt lat="45.02644" lon="5.0577">
        <ele>179.2138671875</ele>
        <time>2011-05-25T16:04:34Z</time>
      </trkpt>
      <trkpt lat="45.02669" lon="5.05701">
        <ele>175.75389099121</ele>
        <time>2011-05-25T16:04:42Z</time>
      </trkpt>
      <trkpt lat="45.02691" lon="5.05642">
        <ele>173.34295654297</ele>
        <time>2011-05-25T16:04:49Z</time>
      </trkpt>
      <trkpt lat="45.02718" lon="5.05585">
        <ele>169.6669921875</ele>
        <time>2011-05-25T16:04:56Z</time>
      </trkpt>
      <trkpt lat="45.02729" lon="5.0555">
        <ele>169.41195678711</ele>
        <time>2011-05-25T16:05:00Z</time>
      </trkpt>
      <trkpt lat="45.0273" lon="5.05502">
        <ele>172.97724914551</ele>
        <time>2011-05-25T16:05:05Z</time>
      </trkpt>
      <trkpt lat="45.02729" lon="5.05492">
        <ele>174.06283569336</ele>
        <time>2011-05-25T16:05:06Z</time>
      </trkpt>
      <trkpt lat="45.02707" lon="5.05389">
        <ele>180.99192810059</ele>
        <time>2011-05-25T16:05:17Z</time>
      </trkpt>
      <trkpt lat="45.02687" lon="5.05301">
        <ele>182</ele>
        <time>2011-05-25T16:05:26Z</time>
      </trkpt>
      <trkpt lat="45.02666" lon="5.052">
        <ele>181.03442382812</ele>
        <time>2011-05-25T16:05:36Z</time>
      </trkpt>
      <trkpt lat="45.0264" lon="5.0508">
        <ele>181.85485839844</ele>
        <time>2011-05-25T16:05:48Z</time>
      </trkpt>
      <trkpt lat="45.02615" lon="5.04969">
        <ele>181</ele>
        <time>2011-05-25T16:05:59Z</time>
      </trkpt>
      <trkpt lat="45.02608" lon="5.04916">
        <ele>181</ele>
        <time>2011-05-25T16:06:04Z</time>
      </trkpt>
      <trkpt lat="45.02601" lon="5.04854">
        <ele>180.84185791016</ele>
        <time>2011-05-25T16:06:10Z</time>
      </trkpt>
      <trkpt lat="45.026" lon="5.04846">
        <ele>180.67999267578</ele>
        <time>2011-05-25T16:06:11Z</time>
      </trkpt>
      <trkpt lat="45.02605" lon="5.04821">
        <ele>180.20422363281</ele>
        <time>2011-05-25T16:06:15Z</time>
      </trkpt>
      <trkpt lat="45.02607" lon="5.04794">
        <ele>180.13555908203</ele>
        <time>2011-05-25T16:06:19Z</time>
      </trkpt>
      <trkpt lat="45.02608" lon="5.04733">
        <ele>180</ele>
        <time>2011-05-25T16:06:26Z</time>
      </trkpt>
      <trkpt lat="45.02607" lon="5.04676">
        <ele>180</ele>
        <time>2011-05-25T16:06:32Z</time>
      </trkpt>
      <trkpt lat="45.02604" lon="5.04623">
        <ele>178.66497802734</ele>
        <time>2011-05-25T16:06:38Z</time>
      </trkpt>
      <trkpt lat="45.02601" lon="5.04559">
        <ele>173.10235595703</ele>
        <time>2011-05-25T16:06:45Z</time>
      </trkpt>
      <trkpt lat="45.02599" lon="5.04508">
        <ele>168.76539611816</ele>
        <time>2011-05-25T16:06:50Z</time>
      </trkpt>
      <trkpt lat="45.02599" lon="5.04499">
        <ele>167.81755065918</ele>
        <time>2011-05-25T16:06:51Z</time>
      </trkpt>
      <trkpt lat="45.02606" lon="5.04474">
        <ele>165.50355529785</ele>
        <time>2011-05-25T16:06:54Z</time>
      </trkpt>
      <trkpt lat="45.02626" lon="5.04459">
        <ele>162.71681213379</ele>
        <time>2011-05-25T16:06:57Z</time>
      </trkpt>
      <trkpt lat="45.02634" lon="5.04457">
        <ele>161.89649963379</ele>
        <time>2011-05-25T16:06:58Z</time>
      </trkpt>
      <trkpt lat="45.02642" lon="5.04454">
        <ele>160.82951354981</ele>
        <time>2011-05-25T16:06:59Z</time>
      </trkpt>
      <trkpt lat="45.02658" lon="5.04452">
        <ele>157.95736694336</ele>
        <time>2011-05-25T16:07:01Z</time>
      </trkpt>
      <trkpt lat="45.02684" lon="5.04471">
        <ele>156.68605041504</ele>
        <time>2011-05-25T16:07:04Z</time>
      </trkpt>
      <trkpt lat="45.0269" lon="5.04482">
        <ele>156.92752075195</ele>
        <time>2011-05-25T16:07:05Z</time>
      </trkpt>
      <trkpt lat="45.0271" lon="5.04514">
        <ele>157.33757019043</ele>
        <time>2011-05-25T16:07:08Z</time>
      </trkpt>
      <trkpt lat="45.0276" lon="5.04592">
        <ele>159.47694396973</ele>
        <time>2011-05-25T16:07:15Z</time>
      </trkpt>
      <trkpt lat="45.02775" lon="5.04614">
        <ele>160.20120239258</ele>
        <time>2011-05-25T16:07:17Z</time>
      </trkpt>
      <trkpt lat="45.02826" lon="5.04675">
        <ele>156.20558166504</ele>
        <time>2011-05-25T16:07:23Z</time>
      </trkpt>
      <trkpt lat="45.02871" lon="5.04714">
        <ele>151.60758972168</ele>
        <time>2011-05-25T16:07:28Z</time>
      </trkpt>
      <trkpt lat="45.0289" lon="5.04724">
        <ele>148.93621826172</ele>
        <time>2011-05-25T16:07:31Z</time>
      </trkpt>
      <trkpt lat="45.02906" lon="5.04729">
        <ele>146.35600280762</ele>
        <time>2011-05-25T16:07:35Z</time>
      </trkpt>
      <trkpt lat="45.02927" lon="5.04731">
        <ele>143.37506103516</ele>
        <time>2011-05-25T16:07:39Z</time>
      </trkpt>
      <trkpt lat="45.02961" lon="5.04741">
        <ele>140.48634338379</ele>
        <time>2011-05-25T16:07:44Z</time>
      </trkpt>
      <trkpt lat="45.02969" lon="5.04742">
        <ele>139.96963500977</ele>
        <time>2011-05-25T16:07:45Z</time>
      </trkpt>
      <trkpt lat="45.02986" lon="5.04741">
        <ele>139.68290710449</ele>
        <time>2011-05-25T16:07:47Z</time>
      </trkpt>
      <trkpt lat="45.03006" lon="5.04741">
        <ele>139.90167236328</ele>
        <time>2011-05-25T16:07:49Z</time>
      </trkpt>
      <trkpt lat="45.03016" lon="5.04741">
        <ele>140.26559448242</ele>
        <time>2011-05-25T16:07:50Z</time>
      </trkpt>
      <trkpt lat="45.03066" lon="5.0474">
        <ele>141.64343261719</ele>
        <time>2011-05-25T16:07:55Z</time>
      </trkpt>
      <trkpt lat="45.03102" lon="5.04757">
        <ele>142.18148803711</ele>
        <time>2011-05-25T16:07:59Z</time>
      </trkpt>
      <trkpt lat="45.0313" lon="5.04776">
        <ele>144.87074279785</ele>
        <time>2011-05-25T16:08:03Z</time>
      </trkpt>
      <trkpt lat="45.03141" lon="5.04768">
        <ele>145.32618713379</ele>
        <time>2011-05-25T16:08:06Z</time>
      </trkpt>
      <trkpt lat="45.03144" lon="5.04763">
        <ele>144.9141998291</ele>
        <time>2011-05-25T16:08:07Z</time>
      </trkpt>
      <trkpt lat="45.03166" lon="5.04718">
        <ele>142.70413208008</ele>
        <time>2011-05-25T16:08:13Z</time>
      </trkpt>
      <trkpt lat="45.03197" lon="5.04692">
        <ele>141.80212402344</ele>
        <time>2011-05-25T16:08:18Z</time>
      </trkpt>
      <trkpt lat="45.03257" lon="5.04671">
        <ele>140.28463745117</ele>
        <time>2011-05-25T16:08:26Z</time>
      </trkpt>
      <trkpt lat="45.03315" lon="5.04657">
        <ele>140.66339111328</ele>
        <time>2011-05-25T16:08:33Z</time>
      </trkpt>
      <trkpt lat="45.03339" lon="5.04653">
        <ele>140.50373840332</ele>
        <time>2011-05-25T16:08:36Z</time>
      </trkpt>
      <trkpt lat="45.03351" lon="5.0465">
        <ele>140.40760803223</ele>
        <time>2011-05-25T16:08:38Z</time>
      </trkpt>
      <trkpt lat="45.03355" lon="5.04635">
        <ele>139.81678771973</ele>
        <time>2011-05-25T16:08:41Z</time>
      </trkpt>
      <trkpt lat="45.03353" lon="5.04627">
        <ele>139.43510437012</ele>
        <time>2011-05-25T16:08:42Z</time>
      </trkpt>
      <trkpt lat="45.03347" lon="5.04595">
        <ele>137.88142395019</ele>
        <time>2011-05-25T16:08:46Z</time>
      </trkpt>
      <trkpt lat="45.03344" lon="5.04586">
        <ele>137.47286987305</ele>
        <time>2011-05-25T16:08:48Z</time>
      </trkpt>
      <trkpt lat="45.03338" lon="5.0457">
        <ele>136.60504150391</ele>
        <time>2011-05-25T16:08:53Z</time>
      </trkpt>
      <trkpt lat="45.03329" lon="5.04565">
        <ele>136.29270935059</ele>
        <time>2011-05-25T16:08:57Z</time>
      </trkpt>
      <trkpt lat="45.03326" lon="5.04565">
        <ele>136.25276184082</ele>
        <time>2011-05-25T16:08:58Z</time>
      </trkpt>
      <trkpt lat="45.03304" lon="5.04572">
        <ele>136</ele>
        <time>2011-05-25T16:09:04Z</time>
      </trkpt>
      <trkpt lat="45.03296" lon="5.04562">
        <ele>136</ele>
        <time>2011-05-25T16:09:08Z</time>
      </trkpt>
      <trkpt lat="45.03293" lon="5.04538">
        <ele>136</ele>
        <time>2011-05-25T16:09:14Z</time>
      </trkpt>
      <trkpt lat="45.03292" lon="5.04528">
        <ele>136</ele>
        <time>2011-05-25T16:09:16Z</time>
      </trkpt>
      <trkpt lat="45.03285" lon="5.04487">
        <ele>136</ele>
        <time>2011-05-25T16:09:24Z</time>
      </trkpt>
      <trkpt lat="45.03281" lon="5.0446">
        <ele>136</ele>
        <time>2011-05-25T16:09:29Z</time>
      </trkpt>
      <trkpt lat="45.03275" lon="5.04421">
        <ele>136.08586120606</ele>
        <time>2011-05-25T16:09:36Z</time>
      </trkpt>
      <trkpt lat="45.03269" lon="5.04384">
        <ele>137.61280822754</ele>
        <time>2011-05-25T16:09:42Z</time>
      </trkpt>
      <trkpt lat="45.03264" lon="5.04352">
        <ele>139.31436157227</ele>
        <time>2011-05-25T16:09:47Z</time>
      </trkpt>
      <trkpt lat="45.03253" lon="5.0434">
        <ele>139.75724792481</ele>
        <time>2011-05-25T16:09:50Z</time>
      </trkpt>
      <trkpt lat="45.03238" lon="5.04347">
        <ele>139.50491333008</ele>
        <time>2011-05-25T16:09:53Z</time>
      </trkpt>
      <trkpt lat="45.03228" lon="5.04356">
        <ele>139.19763183594</ele>
        <time>2011-05-25T16:09:55Z</time>
      </trkpt>
      <trkpt lat="45.03202" lon="5.04378">
        <ele>138.3770904541</ele>
        <time>2011-05-25T16:10:00Z</time>
      </trkpt>
      <trkpt lat="45.03186" lon="5.04386">
        <ele>138.09042358398</ele>
        <time>2011-05-25T16:10:04Z</time>
      </trkpt>
      <trkpt lat="45.03182" lon="5.04377">
        <ele>138.44575500488</ele>
        <time>2011-05-25T16:10:08Z</time>
      </trkpt>
      <trkpt lat="45.03187" lon="5.04366">
        <ele>138.83200073242</ele>
        <time>2011-05-25T16:10:13Z</time>
      </trkpt>
      <trkpt lat="45.0319" lon="5.04358">
        <ele>139.10836791992</ele>
        <time>2011-05-25T16:10:16Z</time>
      </trkpt>
      <trkpt lat="45.03194" lon="5.04346">
        <ele>139.55125427246</ele>
        <time>2011-05-25T16:10:20Z</time>
      </trkpt>
      <trkpt lat="45.03203" lon="5.04322">
        <ele>140.68688964844</ele>
        <time>2011-05-25T16:10:27Z</time>
      </trkpt>
      <trkpt lat="45.03213" lon="5.04305">
        <ele>141.34852600098</ele>
        <time>2011-05-25T16:10:33Z</time>
      </trkpt>
      <trkpt lat="45.03218" lon="5.04289">
        <ele>141.65643310547</ele>
        <time>2011-05-25T16:10:38Z</time>
      </trkpt>
      <trkpt lat="45.03226" lon="5.04266">
        <ele>142.4162902832</ele>
        <time>2011-05-25T16:10:45Z</time>
      </trkpt>
      <trkpt lat="45.03224" lon="5.04248">
        <ele>143.05828857422</ele>
        <time>2011-05-25T16:10:50Z</time>
      </trkpt>
      <trkpt lat="45.03221" lon="5.04233">
        <ele>143.62992858887</ele>
        <time>2011-05-25T16:10:55Z</time>
      </trkpt>
      <trkpt lat="45.03213" lon="5.04207">
        <ele>144.5517578125</ele>
        <time>2011-05-25T16:11:03Z</time>
      </trkpt>
      <trkpt lat="45.03214" lon="5.04187">
        <ele>145.25041198731</ele>
        <time>2011-05-25T16:11:07Z</time>
      </trkpt>
      <trkpt lat="45.03218" lon="5.04177">
        <ele>145.63493347168</ele>
        <time>2011-05-25T16:11:09Z</time>
      </trkpt>
      <trkpt lat="45.03238" lon="5.04153">
        <ele>146.4846496582</ele>
        <time>2011-05-25T16:11:15Z</time>
      </trkpt>
      <trkpt lat="45.03247" lon="5.04148">
        <ele>146.68206787109</ele>
        <time>2011-05-25T16:11:18Z</time>
      </trkpt>
      <trkpt lat="45.03263" lon="5.04134">
        <ele>147.64947509766</ele>
        <time>2011-05-25T16:11:23Z</time>
      </trkpt>
      <trkpt lat="45.03291" lon="5.0412">
        <ele>150.88142395019</ele>
        <time>2011-05-25T16:11:30Z</time>
      </trkpt>
      <trkpt lat="45.03308" lon="5.04107">
        <ele>154.40121459961</ele>
        <time>2011-05-25T16:11:36Z</time>
      </trkpt>
      <trkpt lat="45.03311" lon="5.04093">
        <ele>155.33306884766</ele>
        <time>2011-05-25T16:11:39Z</time>
      </trkpt>
      <trkpt lat="45.03307" lon="5.04055">
        <ele>158.10375976562</ele>
        <time>2011-05-25T16:11:46Z</time>
      </trkpt>
      <trkpt lat="45.03301" lon="5.04007">
        <ele>158.55358886719</ele>
        <time>2011-05-25T16:11:54Z</time>
      </trkpt>
      <trkpt lat="45.03297" lon="5.03956">
        <ele>158.44770812988</ele>
        <time>2011-05-25T16:12:01Z</time>
      </trkpt>
      <trkpt lat="45.03292" lon="5.03895">
        <ele>158.95872497559</ele>
        <time>2011-05-25T16:12:08Z</time>
      </trkpt>
      <trkpt lat="45.03292" lon="5.03832">
        <ele>159.98474121094</ele>
        <time>2011-05-25T16:12:14Z</time>
      </trkpt>
      <trkpt lat="45.03304" lon="5.03775">
        <ele>158.85363769531</ele>
        <time>2011-05-25T16:12:20Z</time>
      </trkpt>
      <trkpt lat="45.03326" lon="5.03711">
        <ele>158.33615112305</ele>
        <time>2011-05-25T16:12:27Z</time>
      </trkpt>
      <trkpt lat="45.03369" lon="5.03628">
        <ele>156.88388061523</ele>
        <time>2011-05-25T16:12:37Z</time>
      </trkpt>
      <trkpt lat="45.03395" lon="5.03599">
        <ele>156.78260803223</ele>
        <time>2011-05-25T16:12:42Z</time>
      </trkpt>
      <trkpt lat="45.03455" lon="5.0356">
        <ele>158.82904052734</ele>
        <time>2011-05-25T16:12:51Z</time>
      </trkpt>
      <trkpt lat="45.03501" lon="5.03533">
        <ele>160</ele>
        <time>2011-05-25T16:12:58Z</time>
      </trkpt>
      <trkpt lat="45.03561" lon="5.03497">
        <ele>160</ele>
        <time>2011-05-25T16:13:07Z</time>
      </trkpt>
      <trkpt lat="45.03598" lon="5.03483">
        <ele>160</ele>
        <time>2011-05-25T16:13:13Z</time>
      </trkpt>
      <trkpt lat="45.03654" lon="5.03465">
        <ele>160</ele>
        <time>2011-05-25T16:13:22Z</time>
      </trkpt>
      <trkpt lat="45.03701" lon="5.03451">
        <ele>160</ele>
        <time>2011-05-25T16:13:29Z</time>
      </trkpt>
      <trkpt lat="45.03741" lon="5.0344">
        <ele>160</ele>
        <time>2011-05-25T16:13:35Z</time>
      </trkpt>
      <trkpt lat="45.03762" lon="5.03434">
        <ele>160</ele>
        <time>2011-05-25T16:13:38Z</time>
      </trkpt>
      <trkpt lat="45.03799" lon="5.03433">
        <ele>160</ele>
        <time>2011-05-25T16:13:43Z</time>
      </trkpt>
      <trkpt lat="45.03844" lon="5.0344">
        <ele>160</ele>
        <time>2011-05-25T16:13:49Z</time>
      </trkpt>
      <trkpt lat="45.03893" lon="5.03454">
        <ele>160</ele>
        <time>2011-05-25T16:13:56Z</time>
      </trkpt>
      <trkpt lat="45.03957" lon="5.03472">
        <ele>160</ele>
        <time>2011-05-25T16:14:05Z</time>
      </trkpt>
      <trkpt lat="45.04013" lon="5.03489">
        <ele>160</ele>
        <time>2011-05-25T16:14:13Z</time>
      </trkpt>
      <trkpt lat="45.04038" lon="5.03499">
        <ele>160</ele>
        <time>2011-05-25T16:14:17Z</time>
      </trkpt>
      <trkpt lat="45.04052" lon="5.035">
        <ele>160</ele>
        <time>2011-05-25T16:14:19Z</time>
      </trkpt>
      <trkpt lat="45.04115" lon="5.03513">
        <ele>160</ele>
        <time>2011-05-25T16:14:28Z</time>
      </trkpt>
      <trkpt lat="45.04137" lon="5.03516">
        <ele>160</ele>
        <time>2011-05-25T16:14:31Z</time>
      </trkpt>
      <trkpt lat="45.04187" lon="5.03526">
        <ele>160</ele>
        <time>2011-05-25T16:14:38Z</time>
      </trkpt>
      <trkpt lat="45.04213" lon="5.03527">
        <ele>160</ele>
        <time>2011-05-25T16:14:42Z</time>
      </trkpt>
      <trkpt lat="45.04226" lon="5.03525">
        <ele>160</ele>
        <time>2011-05-25T16:14:44Z</time>
      </trkpt>
      <trkpt lat="45.04253" lon="5.03515">
        <ele>160</ele>
        <time>2011-05-25T16:14:48Z</time>
      </trkpt>
      <trkpt lat="45.04282" lon="5.03509">
        <ele>160</ele>
        <time>2011-05-25T16:14:52Z</time>
      </trkpt>
      <trkpt lat="45.04325" lon="5.03509">
        <ele>160</ele>
        <time>2011-05-25T16:14:58Z</time>
      </trkpt>
      <trkpt lat="45.04371" lon="5.03506">
        <ele>160</ele>
        <time>2011-05-25T16:15:05Z</time>
      </trkpt>
      <trkpt lat="45.04401" lon="5.03503">
        <ele>160</ele>
        <time>2011-05-25T16:15:10Z</time>
      </trkpt>
      <trkpt lat="45.04418" lon="5.03503">
        <ele>160</ele>
        <time>2011-05-25T16:15:14Z</time>
      </trkpt>
      <trkpt lat="45.04425" lon="5.03498">
        <ele>160</ele>
        <time>2011-05-25T16:15:18Z</time>
      </trkpt>
      <trkpt lat="45.04421" lon="5.03476">
        <ele>160</ele>
        <time>2011-05-25T16:15:21Z</time>
      </trkpt>
      <trkpt lat="45.04408" lon="5.03441">
        <ele>160</ele>
        <time>2011-05-25T16:15:25Z</time>
      </trkpt>
      <trkpt lat="45.04395" lon="5.03384">
        <ele>161</ele>
        <time>2011-05-25T16:15:31Z</time>
      </trkpt>
      <trkpt lat="45.04382" lon="5.03319">
        <ele>161</ele>
        <time>2011-05-25T16:15:38Z</time>
      </trkpt>
      <trkpt lat="45.04378" lon="5.03279">
        <ele>161</ele>
        <time>2011-05-25T16:15:43Z</time>
      </trkpt>
      <trkpt lat="45.04377" lon="5.03274">
        <ele>161</ele>
        <time>2011-05-25T16:15:45Z</time>
      </trkpt>
      <trkpt lat="45.04387" lon="5.03272">
        <ele>161</ele>
        <time>2011-05-25T16:15:49Z</time>
      </trkpt>
      <trkpt lat="45.0439" lon="5.03275">
        <ele>161</ele>
        <time>2011-05-25T16:15:50Z</time>
      </trkpt>
      <trkpt lat="45.0441" lon="5.03288">
        <ele>161</ele>
        <time>2011-05-25T16:15:54Z</time>
      </trkpt>
      <trkpt lat="45.04446" lon="5.03308">
        <ele>161</ele>
        <time>2011-05-25T16:16:00Z</time>
      </trkpt>
      <trkpt lat="45.0449" lon="5.03335">
        <ele>161</ele>
        <time>2011-05-25T16:16:07Z</time>
      </trkpt>
      <trkpt lat="45.04524" lon="5.03359">
        <ele>161</ele>
        <time>2011-05-25T16:16:13Z</time>
      </trkpt>
      <trkpt lat="45.04547" lon="5.03373">
        <ele>161</ele>
        <time>2011-05-25T16:16:18Z</time>
      </trkpt>
      <trkpt lat="45.04554" lon="5.03371">
        <ele>161</ele>
        <time>2011-05-25T16:16:21Z</time>
      </trkpt>
      <trkpt lat="45.04554" lon="5.03354">
        <ele>161</ele>
        <time>2011-05-25T16:16:25Z</time>
      </trkpt>
      <trkpt lat="45.04551" lon="5.03347">
        <ele>161</ele>
        <time>2011-05-25T16:16:26Z</time>
      </trkpt>
      <trkpt lat="45.04541" lon="5.0332">
        <ele>161</ele>
        <time>2011-05-25T16:16:30Z</time>
      </trkpt>
      <trkpt lat="45.04543" lon="5.03301">
        <ele>161</ele>
        <time>2011-05-25T16:16:33Z</time>
      </trkpt>
      <trkpt lat="45.04548" lon="5.03309">
        <ele>161</ele>
        <time>2011-05-25T16:16:35Z</time>
      </trkpt>
      <trkpt lat="45.04552" lon="5.03333">
        <ele>161</ele>
        <time>2011-05-25T16:16:38Z</time>
      </trkpt>
      <trkpt lat="45.04568" lon="5.03363">
        <ele>161</ele>
        <time>2011-05-25T16:16:43Z</time>
      </trkpt>
      <trkpt lat="45.0458" lon="5.03357">
        <ele>161</ele>
        <time>2011-05-25T16:16:45Z</time>
      </trkpt>
      <trkpt lat="45.04589" lon="5.03343">
        <ele>161</ele>
        <time>2011-05-25T16:16:47Z</time>
      </trkpt>
      <trkpt lat="45.04612" lon="5.03292">
        <ele>161</ele>
        <time>2011-05-25T16:16:53Z</time>
      </trkpt>
      <trkpt lat="45.04633" lon="5.03248">
        <ele>161</ele>
        <time>2011-05-25T16:16:58Z</time>
      </trkpt>
      <trkpt lat="45.04663" lon="5.03175">
        <ele>161</ele>
        <time>2011-05-25T16:17:06Z</time>
      </trkpt>
      <trkpt lat="45.04688" lon="5.03116">
        <ele>161</ele>
        <time>2011-05-25T16:17:13Z</time>
      </trkpt>
      <trkpt lat="45.04714" lon="5.03056">
        <ele>161</ele>
        <time>2011-05-25T16:17:20Z</time>
      </trkpt>
      <trkpt lat="45.04752" lon="5.02985">
        <ele>161</ele>
        <time>2011-05-25T16:17:29Z</time>
      </trkpt>
      <trkpt lat="45.04783" lon="5.02925">
        <ele>161</ele>
        <time>2011-05-25T16:17:37Z</time>
      </trkpt>
      <trkpt lat="45.04789" lon="5.02888">
        <ele>161</ele>
        <time>2011-05-25T16:17:41Z</time>
      </trkpt>
      <trkpt lat="45.04782" lon="5.0282">
        <ele>161</ele>
        <time>2011-05-25T16:17:48Z</time>
      </trkpt>
      <trkpt lat="45.04776" lon="5.02715">
        <ele>161</ele>
        <time>2011-05-25T16:17:59Z</time>
      </trkpt>
      <trkpt lat="45.04776" lon="5.02649">
        <ele>161</ele>
        <time>2011-05-25T16:18:06Z</time>
      </trkpt>
      <trkpt lat="45.04783" lon="5.0256">
        <ele>161</ele>
        <time>2011-05-25T16:18:15Z</time>
      </trkpt>
      <trkpt lat="45.04782" lon="5.02484">
        <ele>161</ele>
        <time>2011-05-25T16:18:22Z</time>
      </trkpt>
      <trkpt lat="45.04778" lon="5.02407">
        <ele>161</ele>
        <time>2011-05-25T16:18:30Z</time>
      </trkpt>
      <trkpt lat="45.04774" lon="5.02341">
        <ele>161</ele>
        <time>2011-05-25T16:18:37Z</time>
      </trkpt>
      <trkpt lat="45.04773" lon="5.02252">
        <ele>161</ele>
        <time>2011-05-25T16:18:46Z</time>
      </trkpt>
      <trkpt lat="45.04779" lon="5.02175">
        <ele>161</ele>
        <time>2011-05-25T16:18:54Z</time>
      </trkpt>
      <trkpt lat="45.04785" lon="5.02111">
        <ele>161</ele>
        <time>2011-05-25T16:19:01Z</time>
      </trkpt>
      <trkpt lat="45.04787" lon="5.02041">
        <ele>161</ele>
        <time>2011-05-25T16:19:09Z</time>
      </trkpt>
      <trkpt lat="45.04784" lon="5.01986">
        <ele>161</ele>
        <time>2011-05-25T16:19:16Z</time>
      </trkpt>
      <trkpt lat="45.04782" lon="5.01972">
        <ele>161</ele>
        <time>2011-05-25T16:19:18Z</time>
      </trkpt>
      <trkpt lat="45.04786" lon="5.01934">
        <ele>161</ele>
        <time>2011-05-25T16:19:23Z</time>
      </trkpt>
      <trkpt lat="45.04796" lon="5.01915">
        <ele>161</ele>
        <time>2011-05-25T16:19:26Z</time>
      </trkpt>
      <trkpt lat="45.04833" lon="5.01873">
        <ele>161</ele>
        <time>2011-05-25T16:19:34Z</time>
      </trkpt>
      <trkpt lat="45.04883" lon="5.01817">
        <ele>160.41156005859</ele>
        <time>2011-05-25T16:19:44Z</time>
      </trkpt>
      <trkpt lat="45.0491" lon="5.01787">
        <ele>160</ele>
        <time>2011-05-25T16:19:50Z</time>
      </trkpt>
      <trkpt lat="45.0494" lon="5.01747">
        <ele>160.84118652344</ele>
        <time>2011-05-25T16:19:57Z</time>
      </trkpt>
      <trkpt lat="45.04963" lon="5.01705">
        <ele>161</ele>
        <time>2011-05-25T16:20:03Z</time>
      </trkpt>
      <trkpt lat="45.04992" lon="5.01656">
        <ele>161</ele>
        <time>2011-05-25T16:20:10Z</time>
      </trkpt>
      <trkpt lat="45.04998" lon="5.0165">
        <ele>161</ele>
        <time>2011-05-25T16:20:11Z</time>
      </trkpt>
      <trkpt lat="45.05033" lon="5.0163">
        <ele>161</ele>
        <time>2011-05-25T16:20:16Z</time>
      </trkpt>
      <trkpt lat="45.05048" lon="5.01623">
        <ele>161</ele>
        <time>2011-05-25T16:20:18Z</time>
      </trkpt>
      <trkpt lat="45.05083" lon="5.01594">
        <ele>161</ele>
        <time>2011-05-25T16:20:23Z</time>
      </trkpt>
      <trkpt lat="45.05088" lon="5.01586">
        <ele>161.18328857422</ele>
        <time>2011-05-25T16:20:24Z</time>
      </trkpt>
      <trkpt lat="45.0513" lon="5.01511">
        <ele>162</ele>
        <time>2011-05-25T16:20:33Z</time>
      </trkpt>
      <trkpt lat="45.05166" lon="5.01443">
        <ele>161.96533203125</ele>
        <time>2011-05-25T16:20:41Z</time>
      </trkpt>
      <trkpt lat="45.05209" lon="5.01358">
        <ele>161</ele>
        <time>2011-05-25T16:20:51Z</time>
      </trkpt>
      <trkpt lat="45.05246" lon="5.01285">
        <ele>161.84124755859</ele>
        <time>2011-05-25T16:21:00Z</time>
      </trkpt>
      <trkpt lat="45.05256" lon="5.01265">
        <ele>161.91015625</ele>
        <time>2011-05-25T16:21:03Z</time>
      </trkpt>
      <trkpt lat="45.05275" lon="5.01258">
        <ele>161.35948181152</ele>
        <time>2011-05-25T16:21:07Z</time>
      </trkpt>
      <trkpt lat="45.05287" lon="5.01262">
        <ele>161.62547302246</ele>
        <time>2011-05-25T16:21:09Z</time>
      </trkpt>
      <trkpt lat="45.05335" lon="5.01275">
        <ele>162</ele>
        <time>2011-05-25T16:21:17Z</time>
      </trkpt>
      <trkpt lat="45.05386" lon="5.01287">
        <ele>162</ele>
        <time>2011-05-25T16:21:25Z</time>
      </trkpt>
      <trkpt lat="45.0543" lon="5.01293">
        <ele>163</ele>
        <time>2011-05-25T16:21:32Z</time>
      </trkpt>
      <trkpt lat="45.05481" lon="5.01283">
        <ele>163</ele>
        <time>2011-05-25T16:21:40Z</time>
      </trkpt>
      <trkpt lat="45.05529" lon="5.01273">
        <ele>163.84170532227</ele>
        <time>2011-05-25T16:21:47Z</time>
      </trkpt>
      <trkpt lat="45.05577" lon="5.0126">
        <ele>164.78887939453</ele>
        <time>2011-05-25T16:21:54Z</time>
      </trkpt>
      <trkpt lat="45.0562" lon="5.01249">
        <ele>164.97006225586</ele>
        <time>2011-05-25T16:22:01Z</time>
      </trkpt>
      <trkpt lat="45.05639" lon="5.0125">
        <ele>164.99984741211</ele>
        <time>2011-05-25T16:22:05Z</time>
      </trkpt>
      <trkpt lat="45.05642" lon="5.0125">
        <ele>165.10974121094</ele>
        <time>2011-05-25T16:22:06Z</time>
      </trkpt>
      <trkpt lat="45.05667" lon="5.01238">
        <ele>166</ele>
        <time>2011-05-25T16:22:12Z</time>
      </trkpt>
      <trkpt lat="45.05707" lon="5.01229">
        <ele>166</ele>
        <time>2011-05-25T16:22:20Z</time>
      </trkpt>
      <trkpt lat="45.05746" lon="5.0122">
        <ele>166</ele>
        <time>2011-05-25T16:22:27Z</time>
      </trkpt>
      <trkpt lat="45.05803" lon="5.01208">
        <ele>166.89129638672</ele>
        <time>2011-05-25T16:22:36Z</time>
      </trkpt>
      <trkpt lat="45.05872" lon="5.01195">
        <ele>168</ele>
        <time>2011-05-25T16:22:47Z</time>
      </trkpt>
      <trkpt lat="45.05941" lon="5.0118">
        <ele>169</ele>
        <time>2011-05-25T16:22:58Z</time>
      </trkpt>
      <trkpt lat="45.06005" lon="5.01163">
        <ele>169</ele>
        <time>2011-05-25T16:23:08Z</time>
      </trkpt>
      <trkpt lat="45.06058" lon="5.01149">
        <ele>169.10813903809</ele>
        <time>2011-05-25T16:23:17Z</time>
      </trkpt>
      <trkpt lat="45.06097" lon="5.01141">
        <ele>171.08193969727</ele>
        <time>2011-05-25T16:23:25Z</time>
      </trkpt>
      <trkpt lat="45.06102" lon="5.0114">
        <ele>171.34802246094</ele>
        <time>2011-05-25T16:23:26Z</time>
      </trkpt>
      <trkpt lat="45.06136" lon="5.01124">
        <ele>172.35787963867</ele>
        <time>2011-05-25T16:23:34Z</time>
      </trkpt>
      <trkpt lat="45.06171" lon="5.01107">
        <ele>174.13485717773</ele>
        <time>2011-05-25T16:23:42Z</time>
      </trkpt>
      <trkpt lat="45.06207" lon="5.01091">
        <ele>176.15875244141</ele>
        <time>2011-05-25T16:23:50Z</time>
      </trkpt>
      <trkpt lat="45.06248" lon="5.01081">
        <ele>178.75770568848</ele>
        <time>2011-05-25T16:23:59Z</time>
      </trkpt>
      <trkpt lat="45.06283" lon="5.01084">
        <ele>179</ele>
        <time>2011-05-25T16:24:06Z</time>
      </trkpt>
      <trkpt lat="45.06316" lon="5.01095">
        <ele>179.36206054688</ele>
        <time>2011-05-25T16:24:12Z</time>
      </trkpt>
      <trkpt lat="45.06372" lon="5.01116">
        <ele>180.72135925293</ele>
        <time>2011-05-25T16:24:22Z</time>
      </trkpt>
      <trkpt lat="45.0643" lon="5.01137">
        <ele>180</ele>
        <time>2011-05-25T16:24:32Z</time>
      </trkpt>
      <trkpt lat="45.06484" lon="5.01157">
        <ele>182.11070251465</ele>
        <time>2011-05-25T16:24:41Z</time>
      </trkpt>
      <trkpt lat="45.0653" lon="5.01181">
        <ele>192.21621704102</ele>
        <time>2011-05-25T16:24:49Z</time>
      </trkpt>
      <trkpt lat="45.06566" lon="5.01213">
        <ele>196.02777099609</ele>
        <time>2011-05-25T16:24:56Z</time>
      </trkpt>
      <trkpt lat="45.06614" lon="5.01266">
        <ele>199.08746337891</ele>
        <time>2011-05-25T16:25:06Z</time>
      </trkpt>
      <trkpt lat="45.06657" lon="5.01314">
        <ele>200</ele>
        <time>2011-05-25T16:25:15Z</time>
      </trkpt>
      <trkpt lat="45.06692" lon="5.01329">
        <ele>200</ele>
        <time>2011-05-25T16:25:21Z</time>
      </trkpt>
      <trkpt lat="45.06732" lon="5.01329">
        <ele>200</ele>
        <time>2011-05-25T16:25:28Z</time>
      </trkpt>
      <trkpt lat="45.06788" lon="5.01325">
        <ele>200</ele>
        <time>2011-05-25T16:25:38Z</time>
      </trkpt>
      <trkpt lat="45.06828" lon="5.01323">
        <ele>200</ele>
        <time>2011-05-25T16:25:46Z</time>
      </trkpt>
      <trkpt lat="45.06861" lon="5.0132">
        <ele>200</ele>
        <time>2011-05-25T16:25:54Z</time>
      </trkpt>
      <trkpt lat="45.06878" lon="5.01317">
        <ele>200</ele>
        <time>2011-05-25T16:25:59Z</time>
      </trkpt>
      <trkpt lat="45.06899" lon="5.01316">
        <ele>200</ele>
        <time>2011-05-25T16:26:05Z</time>
      </trkpt>
      <trkpt lat="45.0692" lon="5.01314">
        <ele>200</ele>
        <time>2011-05-25T16:26:11Z</time>
      </trkpt>
      <trkpt lat="45.06939" lon="5.01308">
        <ele>200</ele>
        <time>2011-05-25T16:26:17Z</time>
      </trkpt>
      <trkpt lat="45.06961" lon="5.013">
        <ele>200.33810424805</ele>
        <time>2011-05-25T16:26:23Z</time>
      </trkpt>
      <trkpt lat="45.06988" lon="5.01288">
        <ele>200</ele>
        <time>2011-05-25T16:26:31Z</time>
      </trkpt>
      <trkpt lat="45.0701" lon="5.0128">
        <ele>200</ele>
        <time>2011-05-25T16:26:37Z</time>
      </trkpt>
      <trkpt lat="45.07026" lon="5.01276">
        <ele>200.50486755371</ele>
        <time>2011-05-25T16:26:42Z</time>
      </trkpt>
      <trkpt lat="45.07046" lon="5.0127">
        <ele>202.51612854004</ele>
        <time>2011-05-25T16:26:49Z</time>
      </trkpt>
      <trkpt lat="45.07072" lon="5.01257">
        <ele>206.38726806641</ele>
        <time>2011-05-25T16:26:57Z</time>
      </trkpt>
      <trkpt lat="45.07092" lon="5.01243">
        <ele>209.50366210938</ele>
        <time>2011-05-25T16:27:04Z</time>
      </trkpt>
      <trkpt lat="45.07114" lon="5.01224">
        <ele>212.91545104981</ele>
        <time>2011-05-25T16:27:12Z</time>
      </trkpt>
      <trkpt lat="45.07133" lon="5.01204">
        <ele>216.75971984863</ele>
        <time>2011-05-25T16:27:19Z</time>
      </trkpt>
      <trkpt lat="45.07152" lon="5.0118">
        <ele>219.06881713867</ele>
        <time>2011-05-25T16:27:27Z</time>
      </trkpt>
      <trkpt lat="45.07169" lon="5.01158">
        <ele>221.54695129394</ele>
        <time>2011-05-25T16:27:34Z</time>
      </trkpt>
      <trkpt lat="45.07189" lon="5.0114">
        <ele>224.08335876465</ele>
        <time>2011-05-25T16:27:41Z</time>
      </trkpt>
      <trkpt lat="45.07211" lon="5.01125">
        <ele>226.41381835938</ele>
        <time>2011-05-25T16:27:48Z</time>
      </trkpt>
      <trkpt lat="45.07235" lon="5.0111">
        <ele>228.6886138916</ele>
        <time>2011-05-25T16:27:56Z</time>
      </trkpt>
      <trkpt lat="45.07256" lon="5.01095">
        <ele>229.95230102539</ele>
        <time>2011-05-25T16:28:03Z</time>
      </trkpt>
      <trkpt lat="45.07277" lon="5.01081">
        <ele>234.01574707031</ele>
        <time>2011-05-25T16:28:10Z</time>
      </trkpt>
      <trkpt lat="45.07296" lon="5.01066">
        <ele>236.56491088867</ele>
        <time>2011-05-25T16:28:17Z</time>
      </trkpt>
      <trkpt lat="45.0731" lon="5.01056">
        <ele>238.15936279297</ele>
        <time>2011-05-25T16:28:22Z</time>
      </trkpt>
      <trkpt lat="45.07328" lon="5.01043">
        <ele>239.24626159668</ele>
        <time>2011-05-25T16:28:28Z</time>
      </trkpt>
      <trkpt lat="45.0735" lon="5.01028">
        <ele>240.00413513184</ele>
        <time>2011-05-25T16:28:35Z</time>
      </trkpt>
      <trkpt lat="45.0737" lon="5.01015">
        <ele>240.44985961914</ele>
        <time>2011-05-25T16:28:41Z</time>
      </trkpt>
      <trkpt lat="45.07402" lon="5.00995">
        <ele>241.47338867188</ele>
        <time>2011-05-25T16:28:50Z</time>
      </trkpt>
      <trkpt lat="45.07426" lon="5.00983">
        <ele>243.05688476562</ele>
        <time>2011-05-25T16:28:57Z</time>
      </trkpt>
      <trkpt lat="45.07447" lon="5.00979">
        <ele>245.32281494141</ele>
        <time>2011-05-25T16:29:03Z</time>
      </trkpt>
      <trkpt lat="45.0747" lon="5.00977">
        <ele>247.71234130859</ele>
        <time>2011-05-25T16:29:09Z</time>
      </trkpt>
      <trkpt lat="45.07491" lon="5.00976">
        <ele>250.54824829102</ele>
        <time>2011-05-25T16:29:15Z</time>
      </trkpt>
      <trkpt lat="45.07515" lon="5.00976">
        <ele>253.48963928223</ele>
        <time>2011-05-25T16:29:21Z</time>
      </trkpt>
      <trkpt lat="45.07531" lon="5.00974">
        <ele>255.16323852539</ele>
        <time>2011-05-25T16:29:25Z</time>
      </trkpt>
      <trkpt lat="45.07558" lon="5.00974">
        <ele>257.1064453125</ele>
        <time>2011-05-25T16:29:31Z</time>
      </trkpt>
      <trkpt lat="45.07597" lon="5.00977">
        <ele>259.35009765625</ele>
        <time>2011-05-25T16:29:40Z</time>
      </trkpt>
      <trkpt lat="45.07606" lon="5.00977">
        <ele>259.63507080078</ele>
        <time>2011-05-25T16:29:42Z</time>
      </trkpt>
      <trkpt lat="45.07642" lon="5.00983">
        <ele>260</ele>
        <time>2011-05-25T16:29:50Z</time>
      </trkpt>
      <trkpt lat="45.07679" lon="5.00992">
        <ele>260</ele>
        <time>2011-05-25T16:29:58Z</time>
      </trkpt>
      <trkpt lat="45.07718" lon="5.01002">
        <ele>260</ele>
        <time>2011-05-25T16:30:07Z</time>
      </trkpt>
      <trkpt lat="45.07754" lon="5.01011">
        <ele>260.05889892578</ele>
        <time>2011-05-25T16:30:15Z</time>
      </trkpt>
      <trkpt lat="45.07797" lon="5.01021">
        <ele>261.09649658203</ele>
        <time>2011-05-25T16:30:25Z</time>
      </trkpt>
      <trkpt lat="45.07834" lon="5.0103">
        <ele>262.03277587891</ele>
        <time>2011-05-25T16:30:34Z</time>
      </trkpt>
      <trkpt lat="45.07838" lon="5.01031">
        <ele>262.18383789062</ele>
        <time>2011-05-25T16:30:35Z</time>
      </trkpt>
      <trkpt lat="45.07866" lon="5.01039">
        <ele>263.34521484375</ele>
        <time>2011-05-25T16:30:42Z</time>
      </trkpt>
      <trkpt lat="45.07895" lon="5.01047">
        <ele>265.20257568359</ele>
        <time>2011-05-25T16:30:49Z</time>
      </trkpt>
      <trkpt lat="45.07925" lon="5.01054">
        <ele>266.30120849609</ele>
        <time>2011-05-25T16:30:56Z</time>
      </trkpt>
      <trkpt lat="45.0795" lon="5.01053">
        <ele>267.19384765625</ele>
        <time>2011-05-25T16:31:01Z</time>
      </trkpt>
      <trkpt lat="45.07981" lon="5.01042">
        <ele>268.66735839844</ele>
        <time>2011-05-25T16:31:07Z</time>
      </trkpt>
      <trkpt lat="45.08" lon="5.01033">
        <ele>270.00112915039</ele>
        <time>2011-05-25T16:31:11Z</time>
      </trkpt>
      <trkpt lat="45.08031" lon="5.01016">
        <ele>270.11895751953</ele>
        <time>2011-05-25T16:31:16Z</time>
      </trkpt>
      <trkpt lat="45.08067" lon="5.00998">
        <ele>270.95199584961</ele>
        <time>2011-05-25T16:31:22Z</time>
      </trkpt>
      <trkpt lat="45.08102" lon="5.0098">
        <ele>270.51513671875</ele>
        <time>2011-05-25T16:31:27Z</time>
      </trkpt>
      <trkpt lat="45.08144" lon="5.00959">
        <ele>269.97561645508</ele>
        <time>2011-05-25T16:31:32Z</time>
      </trkpt>
      <trkpt lat="45.08152" lon="5.00955">
        <ele>269.45098876953</ele>
        <time>2011-05-25T16:31:33Z</time>
      </trkpt>
      <trkpt lat="45.08199" lon="5.00916">
        <ele>266.9387512207</ele>
        <time>2011-05-25T16:31:39Z</time>
      </trkpt>
      <trkpt lat="45.08213" lon="5.00904">
        <ele>265.59979248047</ele>
        <time>2011-05-25T16:31:41Z</time>
      </trkpt>
      <trkpt lat="45.08258" lon="5.0088">
        <ele>262.21499633789</ele>
        <time>2011-05-25T16:31:47Z</time>
      </trkpt>
      <trkpt lat="45.08298" lon="5.00874">
        <ele>261.86898803711</ele>
        <time>2011-05-25T16:31:52Z</time>
      </trkpt>
      <trkpt lat="45.08345" lon="5.00876">
        <ele>260.68829345703</ele>
        <time>2011-05-25T16:31:58Z</time>
      </trkpt>
      <trkpt lat="45.08382" lon="5.00874">
        <ele>259.16754150391</ele>
        <time>2011-05-25T16:32:03Z</time>
      </trkpt>
      <trkpt lat="45.08425" lon="5.00868">
        <ele>258.39947509766</ele>
        <time>2011-05-25T16:32:09Z</time>
      </trkpt>
      <trkpt lat="45.08439" lon="5.00865">
        <ele>258.16732788086</ele>
        <time>2011-05-25T16:32:11Z</time>
      </trkpt>
      <trkpt lat="45.0848" lon="5.00856">
        <ele>256.82696533203</ele>
        <time>2011-05-25T16:32:17Z</time>
      </trkpt>
      <trkpt lat="45.0854" lon="5.00844">
        <ele>254.9248046875</ele>
        <time>2011-05-25T16:32:25Z</time>
      </trkpt>
      <trkpt lat="45.08597" lon="5.00831">
        <ele>253.35629272461</ele>
        <time>2011-05-25T16:32:32Z</time>
      </trkpt>
      <trkpt lat="45.08669" lon="5.00817">
        <ele>251.40559387207</ele>
        <time>2011-05-25T16:32:40Z</time>
      </trkpt>
      <trkpt lat="45.08725" lon="5.00808">
        <ele>251</ele>
        <time>2011-05-25T16:32:46Z</time>
      </trkpt>
      <trkpt lat="45.08787" lon="5.00803">
        <ele>250</ele>
        <time>2011-05-25T16:32:52Z</time>
      </trkpt>
      <trkpt lat="45.08798" lon="5.00804">
        <ele>250</ele>
        <time>2011-05-25T16:32:53Z</time>
      </trkpt>
      <trkpt lat="45.08875" lon="5.00834">
        <ele>247.45095825195</ele>
        <time>2011-05-25T16:33:00Z</time>
      </trkpt>
      <trkpt lat="45.08908" lon="5.00849">
        <ele>247.20625305176</ele>
        <time>2011-05-25T16:33:03Z</time>
      </trkpt>
      <trkpt lat="45.08963" lon="5.00872">
        <ele>244.56838989258</ele>
        <time>2011-05-25T16:33:08Z</time>
      </trkpt>
      <trkpt lat="45.08995" lon="5.00885">
        <ele>240.97235107422</ele>
        <time>2011-05-25T16:33:11Z</time>
      </trkpt>
      <trkpt lat="45.0905" lon="5.00887">
        <ele>238.49884033203</ele>
        <time>2011-05-25T16:33:16Z</time>
      </trkpt>
      <trkpt lat="45.09143" lon="5.00877">
        <ele>237.16462707519</ele>
        <time>2011-05-25T16:33:25Z</time>
      </trkpt>
      <trkpt lat="45.09208" lon="5.00867">
        <ele>236.20503234863</ele>
        <time>2011-05-25T16:33:32Z</time>
      </trkpt>
      <trkpt lat="45.09264" lon="5.00844">
        <ele>235.93702697754</ele>
        <time>2011-05-25T16:33:39Z</time>
      </trkpt>
      <trkpt lat="45.09315" lon="5.00816">
        <ele>235.92041015625</ele>
        <time>2011-05-25T16:33:46Z</time>
      </trkpt>
      <trkpt lat="45.09376" lon="5.00783">
        <ele>235.2960357666</ele>
        <time>2011-05-25T16:33:54Z</time>
      </trkpt>
      <trkpt lat="45.09426" lon="5.00757">
        <ele>235.439453125</ele>
        <time>2011-05-25T16:34:01Z</time>
      </trkpt>
      <trkpt lat="45.09441" lon="5.00749">
        <ele>235.11047363281</ele>
        <time>2011-05-25T16:34:04Z</time>
      </trkpt>
      <trkpt lat="45.09446" lon="5.00746">
        <ele>234.93194580078</ele>
        <time>2011-05-25T16:34:05Z</time>
      </trkpt>
      <trkpt lat="45.09481" lon="5.00729">
        <ele>234</ele>
        <time>2011-05-25T16:34:11Z</time>
      </trkpt>
      <trkpt lat="45.095" lon="5.00719">
        <ele>234.19602966309</ele>
        <time>2011-05-25T16:34:14Z</time>
      </trkpt>
      <trkpt lat="45.09506" lon="5.00716">
        <ele>234.38441467285</ele>
        <time>2011-05-25T16:34:15Z</time>
      </trkpt>
      <trkpt lat="45.09526" lon="5.00704">
        <ele>234.69436645508</ele>
        <time>2011-05-25T16:34:18Z</time>
      </trkpt>
      <trkpt lat="45.09571" lon="5.00682">
        <ele>234</ele>
        <time>2011-05-25T16:34:25Z</time>
      </trkpt>
      <trkpt lat="45.09618" lon="5.00658">
        <ele>234.22817993164</ele>
        <time>2011-05-25T16:34:33Z</time>
      </trkpt>
      <trkpt lat="45.09672" lon="5.00631">
        <ele>234.2317199707</ele>
        <time>2011-05-25T16:34:42Z</time>
      </trkpt>
      <trkpt lat="45.09727" lon="5.00607">
        <ele>233</ele>
        <time>2011-05-25T16:34:51Z</time>
      </trkpt>
      <trkpt lat="45.09774" lon="5.00595">
        <ele>233</ele>
        <time>2011-05-25T16:34:58Z</time>
      </trkpt>
      <trkpt lat="45.09829" lon="5.00586">
        <ele>223.20098876953</ele>
        <time>2011-05-25T16:35:05Z</time>
      </trkpt>
      <trkpt lat="45.09875" lon="5.00591">
        <ele>220.49615478516</ele>
        <time>2011-05-25T16:35:11Z</time>
      </trkpt>
      <trkpt lat="45.09929" lon="5.00596">
        <ele>218</ele>
        <time>2011-05-25T16:35:18Z</time>
      </trkpt>
      <trkpt lat="45.09958" lon="5.00582">
        <ele>217.48210144043</ele>
        <time>2011-05-25T16:35:22Z</time>
      </trkpt>
      <trkpt lat="45.09988" lon="5.00578">
        <ele>217.44606018066</ele>
        <time>2011-05-25T16:35:26Z</time>
      </trkpt>
      <trkpt lat="45.09995" lon="5.00581">
        <ele>217.7467956543</ele>
        <time>2011-05-25T16:35:27Z</time>
      </trkpt>
      <trkpt lat="45.10043" lon="5.00607">
        <ele>218.86965942383</ele>
        <time>2011-05-25T16:35:34Z</time>
      </trkpt>
      <trkpt lat="45.10104" lon="5.00627">
        <ele>219.13542175293</ele>
        <time>2011-05-25T16:35:43Z</time>
      </trkpt>
      <trkpt lat="45.10162" lon="5.00652">
        <ele>220</ele>
        <time>2011-05-25T16:35:52Z</time>
      </trkpt>
      <trkpt lat="45.10201" lon="5.00668">
        <ele>220</ele>
        <time>2011-05-25T16:35:58Z</time>
      </trkpt>
      <trkpt lat="45.10244" lon="5.00685">
        <ele>220.51405334473</ele>
        <time>2011-05-25T16:36:05Z</time>
      </trkpt>
      <trkpt lat="45.10303" lon="5.00712">
        <ele>222.1883392334</ele>
        <time>2011-05-25T16:36:16Z</time>
      </trkpt>
      <trkpt lat="45.10347" lon="5.00735">
        <ele>222.92387390137</ele>
        <time>2011-05-25T16:36:24Z</time>
      </trkpt>
      <trkpt lat="45.10389" lon="5.00756">
        <ele>223.42916870117</ele>
        <time>2011-05-25T16:36:32Z</time>
      </trkpt>
      <trkpt lat="45.1041" lon="5.00768">
        <ele>224.58152770996</ele>
        <time>2011-05-25T16:36:37Z</time>
      </trkpt>
      <trkpt lat="45.10428" lon="5.00778">
        <ele>225.0186920166</ele>
        <time>2011-05-25T16:36:43Z</time>
      </trkpt>
      <trkpt lat="45.10436" lon="5.0078">
        <ele>225.11416625977</ele>
        <time>2011-05-25T16:36:48Z</time>
      </trkpt>
      <trkpt lat="45.1044" lon="5.00779">
        <ele>225.03302001953</ele>
        <time>2011-05-25T16:36:52Z</time>
      </trkpt>
      <trkpt lat="45.10443" lon="5.00776">
        <ele>224.94647216797</ele>
        <time>2011-05-25T16:36:58Z</time>
      </trkpt>
      <trkpt lat="45.1045" lon="5.00778">
        <ele>224.80892944336</ele>
        <time>2011-05-25T16:37:19Z</time>
      </trkpt>
      <trkpt lat="45.1046" lon="5.00774">
        <ele>224.38787841797</ele>
        <time>2011-05-25T16:37:23Z</time>
      </trkpt>
      <trkpt lat="45.10482" lon="5.00756">
        <ele>224.36663818359</ele>
        <time>2011-05-25T16:37:30Z</time>
      </trkpt>
      <trkpt lat="45.10511" lon="5.00731">
        <ele>226.76400756836</ele>
        <time>2011-05-25T16:37:38Z</time>
      </trkpt>
      <trkpt lat="45.1053" lon="5.00715">
        <ele>230.10104370117</ele>
        <time>2011-05-25T16:37:43Z</time>
      </trkpt>
      <trkpt lat="45.10563" lon="5.00689">
        <ele>235.89782714844</ele>
        <time>2011-05-25T16:37:52Z</time>
      </trkpt>
      <trkpt lat="45.1058" lon="5.00674">
        <ele>238.19465637207</ele>
        <time>2011-05-25T16:37:57Z</time>
      </trkpt>
      <trkpt lat="45.10598" lon="5.00659">
        <ele>239.84979248047</ele>
        <time>2011-05-25T16:38:02Z</time>
      </trkpt>
      <trkpt lat="45.1062" lon="5.00641">
        <ele>242.65467834473</ele>
        <time>2011-05-25T16:38:08Z</time>
      </trkpt>
      <trkpt lat="45.10649" lon="5.00621">
        <ele>250.15631103516</ele>
        <time>2011-05-25T16:38:16Z</time>
      </trkpt>
      <trkpt lat="45.10664" lon="5.00613">
        <ele>252.44970703125</ele>
        <time>2011-05-25T16:38:20Z</time>
      </trkpt>
      <trkpt lat="45.10681" lon="5.00604">
        <ele>254.63568115234</ele>
        <time>2011-05-25T16:38:25Z</time>
      </trkpt>
      <trkpt lat="45.10703" lon="5.00596">
        <ele>256.75723266602</ele>
        <time>2011-05-25T16:38:31Z</time>
      </trkpt>
      <trkpt lat="45.1073" lon="5.0059">
        <ele>259.71035766602</ele>
        <time>2011-05-25T16:38:38Z</time>
      </trkpt>
      <trkpt lat="45.10762" lon="5.00586">
        <ele>262.5227355957</ele>
        <time>2011-05-25T16:38:46Z</time>
      </trkpt>
      <trkpt lat="45.10798" lon="5.00583">
        <ele>264.74536132812</ele>
        <time>2011-05-25T16:38:55Z</time>
      </trkpt>
      <trkpt lat="45.10833" lon="5.00579">
        <ele>267.65649414062</ele>
        <time>2011-05-25T16:39:04Z</time>
      </trkpt>
      <trkpt lat="45.10869" lon="5.00573">
        <ele>269.80447387695</ele>
        <time>2011-05-25T16:39:13Z</time>
      </trkpt>
      <trkpt lat="45.10905" lon="5.00562">
        <ele>268.95370483398</ele>
        <time>2011-05-25T16:39:22Z</time>
      </trkpt>
      <trkpt lat="45.10929" lon="5.00551">
        <ele>267.06549072266</ele>
        <time>2011-05-25T16:39:28Z</time>
      </trkpt>
      <trkpt lat="45.10963" lon="5.0053">
        <ele>264.42034912109</ele>
        <time>2011-05-25T16:39:36Z</time>
      </trkpt>
      <trkpt lat="45.10992" lon="5.00507">
        <ele>260.31259155273</ele>
        <time>2011-05-25T16:39:42Z</time>
      </trkpt>
      <trkpt lat="45.1103" lon="5.00481">
        <ele>254.18182373047</ele>
        <time>2011-05-25T16:39:48Z</time>
      </trkpt>
      <trkpt lat="45.11059" lon="5.00462">
        <ele>250.98921203613</ele>
        <time>2011-05-25T16:39:52Z</time>
      </trkpt>
      <trkpt lat="45.11095" lon="5.00437">
        <ele>246.64961242676</ele>
        <time>2011-05-25T16:39:57Z</time>
      </trkpt>
      <trkpt lat="45.1112" lon="5.00422">
        <ele>243.98152160644</ele>
        <time>2011-05-25T16:40:01Z</time>
      </trkpt>
      <trkpt lat="45.11155" lon="5.00404">
        <ele>240.37046813965</ele>
        <time>2011-05-25T16:40:05Z</time>
      </trkpt>
      <trkpt lat="45.11215" lon="5.00373">
        <ele>238</ele>
        <time>2011-05-25T16:40:11Z</time>
      </trkpt>
      <trkpt lat="45.11273" lon="5.00339">
        <ele>238</ele>
        <time>2011-05-25T16:40:17Z</time>
      </trkpt>
      <trkpt lat="45.11345" lon="5.00285">
        <ele>237</ele>
        <time>2011-05-25T16:40:25Z</time>
      </trkpt>
      <trkpt lat="45.11385" lon="5.00251">
        <ele>237</ele>
        <time>2011-05-25T16:40:30Z</time>
      </trkpt>
      <trkpt lat="45.11444" lon="5.00196">
        <ele>237</ele>
        <time>2011-05-25T16:40:38Z</time>
      </trkpt>
      <trkpt lat="45.11479" lon="5.00164">
        <ele>237.08522033691</ele>
        <time>2011-05-25T16:40:43Z</time>
      </trkpt>
      <trkpt lat="45.11551" lon="5.00096">
        <ele>241.29759216309</ele>
        <time>2011-05-25T16:40:54Z</time>
      </trkpt>
      <trkpt lat="45.11599" lon="5.0004">
        <ele>242.01438903809</ele>
        <time>2011-05-25T16:41:02Z</time>
      </trkpt>
      <trkpt lat="45.11645" lon="4.99976">
        <ele>235.25148010254</ele>
        <time>2011-05-25T16:41:10Z</time>
      </trkpt>
      <trkpt lat="45.11683" lon="4.99939">
        <ele>235.2873840332</ele>
        <time>2011-05-25T16:41:15Z</time>
      </trkpt>
      <trkpt lat="45.1173" lon="4.99912">
        <ele>234.81065368652</ele>
        <time>2011-05-25T16:41:20Z</time>
      </trkpt>
      <trkpt lat="45.11781" lon="4.99888">
        <ele>232.28045654297</ele>
        <time>2011-05-25T16:41:25Z</time>
      </trkpt>
      <trkpt lat="45.11863" lon="4.99854">
        <ele>221.85443115234</ele>
        <time>2011-05-25T16:41:32Z</time>
      </trkpt>
      <trkpt lat="45.11915" lon="4.99809">
        <ele>212.0627746582</ele>
        <time>2011-05-25T16:41:37Z</time>
      </trkpt>
      <trkpt lat="45.11934" lon="4.99787">
        <ele>210.28590393066</ele>
        <time>2011-05-25T16:41:39Z</time>
      </trkpt>
      <trkpt lat="45.11951" lon="4.99763">
        <ele>209.01843261719</ele>
        <time>2011-05-25T16:41:41Z</time>
      </trkpt>
      <trkpt lat="45.11985" lon="4.99703">
        <ele>207.77685546875</ele>
        <time>2011-05-25T16:41:46Z</time>
      </trkpt>
      <trkpt lat="45.12026" lon="4.99628">
        <ele>208.02494812012</ele>
        <time>2011-05-25T16:41:53Z</time>
      </trkpt>
      <trkpt lat="45.12048" lon="4.99589">
        <ele>207.50164794922</ele>
        <time>2011-05-25T16:41:57Z</time>
      </trkpt>
      <trkpt lat="45.12092" lon="4.99508">
        <ele>207.09579467773</ele>
        <time>2011-05-25T16:42:05Z</time>
      </trkpt>
      <trkpt lat="45.1212" lon="4.99455">
        <ele>207.91636657715</ele>
        <time>2011-05-25T16:42:10Z</time>
      </trkpt>
      <trkpt lat="45.12143" lon="4.99399">
        <ele>208.91676330566</ele>
        <time>2011-05-25T16:42:15Z</time>
      </trkpt>
      <trkpt lat="45.12167" lon="4.99311">
        <ele>208.74119567871</ele>
        <time>2011-05-25T16:42:23Z</time>
      </trkpt>
      <trkpt lat="45.12189" lon="4.99229">
        <ele>209.19075012207</ele>
        <time>2011-05-25T16:42:31Z</time>
      </trkpt>
      <trkpt lat="45.12208" lon="4.99154">
        <ele>210.98750305176</ele>
        <time>2011-05-25T16:42:39Z</time>
      </trkpt>
      <trkpt lat="45.12222" lon="4.99102">
        <ele>212.52726745606</ele>
        <time>2011-05-25T16:42:45Z</time>
      </trkpt>
      <trkpt lat="45.12236" lon="4.99079">
        <ele>214.49703979492</ele>
        <time>2011-05-25T16:42:49Z</time>
      </trkpt>
      <trkpt lat="45.12247" lon="4.99063">
        <ele>216.59996032715</ele>
        <time>2011-05-25T16:42:53Z</time>
      </trkpt>
      <trkpt lat="45.12241" lon="4.99043">
        <ele>216.65739440918</ele>
        <time>2011-05-25T16:42:57Z</time>
      </trkpt>
      <trkpt lat="45.12231" lon="4.99039">
        <ele>215.56584167481</ele>
        <time>2011-05-25T16:42:59Z</time>
      </trkpt>
      <trkpt lat="45.1222" lon="4.99037">
        <ele>214.08453369141</ele>
        <time>2011-05-25T16:43:01Z</time>
      </trkpt>
      <trkpt lat="45.12189" lon="4.99015">
        <ele>210.11552429199</ele>
        <time>2011-05-25T16:43:06Z</time>
      </trkpt>
      <trkpt lat="45.12149" lon="4.98969">
        <ele>206.28678894043</ele>
        <time>2011-05-25T16:43:12Z</time>
      </trkpt>
      <trkpt lat="45.12143" lon="4.9896">
        <ele>205.9931640625</ele>
        <time>2011-05-25T16:43:13Z</time>
      </trkpt>
      <trkpt lat="45.12119" lon="4.98922">
        <ele>204.72718811035</ele>
        <time>2011-05-25T16:43:17Z</time>
      </trkpt>
      <trkpt lat="45.12108" lon="4.98903">
        <ele>204.24572753906</ele>
        <time>2011-05-25T16:43:19Z</time>
      </trkpt>
      <trkpt lat="45.12103" lon="4.98893">
        <ele>204.08927917481</ele>
        <time>2011-05-25T16:43:20Z</time>
      </trkpt>
      <trkpt lat="45.12072" lon="4.98825">
        <ele>203.93466186523</ele>
        <time>2011-05-25T16:43:27Z</time>
      </trkpt>
      <trkpt lat="45.12047" lon="4.98749">
        <ele>203.69271850586</ele>
        <time>2011-05-25T16:43:34Z</time>
      </trkpt>
      <trkpt lat="45.12035" lon="4.98694">
        <ele>203.66345214844</ele>
        <time>2011-05-25T16:43:39Z</time>
      </trkpt>
      <trkpt lat="45.12026" lon="4.98626">
        <ele>203.80824279785</ele>
        <time>2011-05-25T16:43:45Z</time>
      </trkpt>
      <trkpt lat="45.12024" lon="4.98548">
        <ele>204.54405212402</ele>
        <time>2011-05-25T16:43:52Z</time>
      </trkpt>
      <trkpt lat="45.12027" lon="4.98483">
        <ele>205.32830810547</ele>
        <time>2011-05-25T16:43:58Z</time>
      </trkpt>
      <trkpt lat="45.12035" lon="4.98453">
        <ele>205.42443847656</ele>
        <time>2011-05-25T16:44:01Z</time>
      </trkpt>
      <trkpt lat="45.12049" lon="4.98427">
        <ele>205.58923339844</ele>
        <time>2011-05-25T16:44:04Z</time>
      </trkpt>
      <trkpt lat="45.12056" lon="4.98389">
        <ele>205.00776672363</ele>
        <time>2011-05-25T16:44:08Z</time>
      </trkpt>
      <trkpt lat="45.12058" lon="4.98356">
        <ele>204.23872375488</ele>
        <time>2011-05-25T16:44:11Z</time>
      </trkpt>
      <trkpt lat="45.12074" lon="4.98264">
        <ele>204.81707763672</ele>
        <time>2011-05-25T16:44:19Z</time>
      </trkpt>
      <trkpt lat="45.12077" lon="4.98195">
        <ele>205.71630859375</ele>
        <time>2011-05-25T16:44:25Z</time>
      </trkpt>
      <trkpt lat="45.1207" lon="4.98127">
        <ele>205.04740905762</ele>
        <time>2011-05-25T16:44:31Z</time>
      </trkpt>
      <trkpt lat="45.1205" lon="4.9804">
        <ele>202.88145446777</ele>
        <time>2011-05-25T16:44:39Z</time>
      </trkpt>
      <trkpt lat="45.12035" lon="4.97983">
        <ele>201.49781799316</ele>
        <time>2011-05-25T16:44:45Z</time>
      </trkpt>
      <trkpt lat="45.12017" lon="4.97909">
        <ele>199.53160095215</ele>
        <time>2011-05-25T16:44:52Z</time>
      </trkpt>
      <trkpt lat="45.12" lon="4.97817">
        <ele>198.0138092041</ele>
        <time>2011-05-25T16:45:00Z</time>
      </trkpt>
      <trkpt lat="45.11973" lon="4.97661">
        <ele>196.81729125977</ele>
        <time>2011-05-25T16:45:13Z</time>
      </trkpt>
      <trkpt lat="45.11962" lon="4.97593">
        <ele>197.54444885254</ele>
        <time>2011-05-25T16:45:19Z</time>
      </trkpt>
      <trkpt lat="45.11946" lon="4.97502">
        <ele>197.03729248047</ele>
        <time>2011-05-25T16:45:27Z</time>
      </trkpt>
      <trkpt lat="45.11921" lon="4.97361">
        <ele>196.14868164062</ele>
        <time>2011-05-25T16:45:39Z</time>
      </trkpt>
      <trkpt lat="45.119" lon="4.97234">
        <ele>196.73846435547</ele>
        <time>2011-05-25T16:45:50Z</time>
      </trkpt>
      <trkpt lat="45.11887" lon="4.97159">
        <ele>196.94941711426</ele>
        <time>2011-05-25T16:45:57Z</time>
      </trkpt>
      <trkpt lat="45.11888" lon="4.97119">
        <ele>197.15882873535</ele>
        <time>2011-05-25T16:46:01Z</time>
      </trkpt>
      <trkpt lat="45.11899" lon="4.97094">
        <ele>197.55284118652</ele>
        <time>2011-05-25T16:46:04Z</time>
      </trkpt>
      <trkpt lat="45.1191" lon="4.97072">
        <ele>197.9952545166</ele>
        <time>2011-05-25T16:46:07Z</time>
      </trkpt>
      <trkpt lat="45.11903" lon="4.97057">
        <ele>198.09626770019</ele>
        <time>2011-05-25T16:46:09Z</time>
      </trkpt>
      <trkpt lat="45.11897" lon="4.97053">
        <ele>198.07302856445</ele>
        <time>2011-05-25T16:46:10Z</time>
      </trkpt>
      <trkpt lat="45.11853" lon="4.9701">
        <ele>198.69515991211</ele>
        <time>2011-05-25T16:46:17Z</time>
      </trkpt>
      <trkpt lat="45.11802" lon="4.96936">
        <ele>197.29309082031</ele>
        <time>2011-05-25T16:46:26Z</time>
      </trkpt>
      <trkpt lat="45.11774" lon="4.96893">
        <ele>196.67381286621</ele>
        <time>2011-05-25T16:46:31Z</time>
      </trkpt>
      <trkpt lat="45.11763" lon="4.96854">
        <ele>195.85688781738</ele>
        <time>2011-05-25T16:46:35Z</time>
      </trkpt>
      <trkpt lat="45.11758" lon="4.96824">
        <ele>195.39735412598</ele>
        <time>2011-05-25T16:46:38Z</time>
      </trkpt>
      <trkpt lat="45.11759" lon="4.96794">
        <ele>195.68710327148</ele>
        <time>2011-05-25T16:46:41Z</time>
      </trkpt>
      <trkpt lat="45.11771" lon="4.96782">
        <ele>196.0530090332</ele>
        <time>2011-05-25T16:46:43Z</time>
      </trkpt>
      <trkpt lat="45.11803" lon="4.9676">
        <ele>196.67509460449</ele>
        <time>2011-05-25T16:46:48Z</time>
      </trkpt>
      <trkpt lat="45.11824" lon="4.96733">
        <ele>197.45185852051</ele>
        <time>2011-05-25T16:46:52Z</time>
      </trkpt>
      <trkpt lat="45.11854" lon="4.96661">
        <ele>201.78741455078</ele>
        <time>2011-05-25T16:47:01Z</time>
      </trkpt>
      <trkpt lat="45.11876" lon="4.96586">
        <ele>204.87474060059</ele>
        <time>2011-05-25T16:47:11Z</time>
      </trkpt>
      <trkpt lat="45.11882" lon="4.96548">
        <ele>206.21620178223</ele>
        <time>2011-05-25T16:47:16Z</time>
      </trkpt>
      <trkpt lat="45.11888" lon="4.96517">
        <ele>207.29023742676</ele>
        <time>2011-05-25T16:47:20Z</time>
      </trkpt>
      <trkpt lat="45.11888" lon="4.96477">
        <ele>208.9619140625</ele>
        <time>2011-05-25T16:47:26Z</time>
      </trkpt>
      <trkpt lat="45.11884" lon="4.96464">
        <ele>209.54826354981</ele>
        <time>2011-05-25T16:47:28Z</time>
      </trkpt>
      <trkpt lat="45.11852" lon="4.9641">
        <ele>212.01852416992</ele>
        <time>2011-05-25T16:47:38Z</time>
      </trkpt>
      <trkpt lat="45.11843" lon="4.96366">
        <ele>213.78604125977</ele>
        <time>2011-05-25T16:47:46Z</time>
      </trkpt>
      <trkpt lat="45.11839" lon="4.96336">
        <ele>214.89910888672</ele>
        <time>2011-05-25T16:47:52Z</time>
      </trkpt>
      <trkpt lat="45.11835" lon="4.96302">
        <ele>215.41474914551</ele>
        <time>2011-05-25T16:47:59Z</time>
      </trkpt>
      <trkpt lat="45.11827" lon="4.96273">
        <ele>215.72180175781</ele>
        <time>2011-05-25T16:48:05Z</time>
      </trkpt>
      <trkpt lat="45.1182" lon="4.96242">
        <ele>216.43827819824</ele>
        <time>2011-05-25T16:48:11Z</time>
      </trkpt>
      <trkpt lat="45.11818" lon="4.96209">
        <ele>218.26826477051</ele>
        <time>2011-05-25T16:48:17Z</time>
      </trkpt>
      <trkpt lat="45.11814" lon="4.9617">
        <ele>220.35905456543</ele>
        <time>2011-05-25T16:48:24Z</time>
      </trkpt>
      <trkpt lat="45.1181" lon="4.96119">
        <ele>221.58157348633</ele>
        <time>2011-05-25T16:48:33Z</time>
      </trkpt>
      <trkpt lat="45.11803" lon="4.96081">
        <ele>222.4354095459</ele>
        <time>2011-05-25T16:48:40Z</time>
      </trkpt>
      <trkpt lat="45.11789" lon="4.96077">
        <ele>222.36674499512</ele>
        <time>2011-05-25T16:48:44Z</time>
      </trkpt>
      <trkpt lat="45.1176" lon="4.96084">
        <ele>221.21536254883</ele>
        <time>2011-05-25T16:48:50Z</time>
      </trkpt>
      <trkpt lat="45.11755" lon="4.96086">
        <ele>221.07460021973</ele>
        <time>2011-05-25T16:48:51Z</time>
      </trkpt>
      <trkpt lat="45.11726" lon="4.96091">
        <ele>221.34838867188</ele>
        <time>2011-05-25T16:48:57Z</time>
      </trkpt>
      <trkpt lat="45.11709" lon="4.9608">
        <ele>222.22290039062</ele>
        <time>2011-05-25T16:49:01Z</time>
      </trkpt>
      <trkpt lat="45.11696" lon="4.96061">
        <ele>223.73376464844</ele>
        <time>2011-05-25T16:49:05Z</time>
      </trkpt>
      <trkpt lat="45.11676" lon="4.96063">
        <ele>224.05458068848</ele>
        <time>2011-05-25T16:49:09Z</time>
      </trkpt>
      <trkpt lat="45.11634" lon="4.96069">
        <ele>225.34439086914</ele>
        <time>2011-05-25T16:49:17Z</time>
      </trkpt>
      <trkpt lat="45.11615" lon="4.96077">
        <ele>225.44371032715</ele>
        <time>2011-05-25T16:49:22Z</time>
      </trkpt>
      <trkpt lat="45.11612" lon="4.9608">
        <ele>225.28089904785</ele>
        <time>2011-05-25T16:49:23Z</time>
      </trkpt>
      <trkpt lat="45.11606" lon="4.96101">
        <ele>223.88491821289</ele>
        <time>2011-05-25T16:49:27Z</time>
      </trkpt>
      <trkpt lat="45.11596" lon="4.96148">
        <ele>220.49914550781</ele>
        <time>2011-05-25T16:49:33Z</time>
      </trkpt>
      <trkpt lat="45.11578" lon="4.96175">
        <ele>218.23480224609</ele>
        <time>2011-05-25T16:49:37Z</time>
      </trkpt>
      <trkpt lat="45.11571" lon="4.96178">
        <ele>217.75071716309</ele>
        <time>2011-05-25T16:49:38Z</time>
      </trkpt>
      <trkpt lat="45.11534" lon="4.96185">
        <ele>215.87274169922</ele>
        <time>2011-05-25T16:49:43Z</time>
      </trkpt>
      <trkpt lat="45.11522" lon="4.96189">
        <ele>215.22386169434</ele>
        <time>2011-05-25T16:49:45Z</time>
      </trkpt>
      <trkpt lat="45.11503" lon="4.9618">
        <ele>215.14833068848</ele>
        <time>2011-05-25T16:49:49Z</time>
      </trkpt>
      <trkpt lat="45.11496" lon="4.96172">
        <ele>215.17443847656</ele>
        <time>2011-05-25T16:49:51Z</time>
      </trkpt>
      <trkpt lat="45.11474" lon="4.96149">
        <ele>214.99423217773</ele>
        <time>2011-05-25T16:49:57Z</time>
      </trkpt>
      <trkpt lat="45.11464" lon="4.96134">
        <ele>215.5393371582</ele>
        <time>2011-05-25T16:50:00Z</time>
      </trkpt>
      <trkpt lat="45.11455" lon="4.96117">
        <ele>216.52359008789</ele>
        <time>2011-05-25T16:50:03Z</time>
      </trkpt>
      <trkpt lat="45.11446" lon="4.96099">
        <ele>217.95451354981</ele>
        <time>2011-05-25T16:50:06Z</time>
      </trkpt>
      <trkpt lat="45.11435" lon="4.9608">
        <ele>219.15930175781</ele>
        <time>2011-05-25T16:50:10Z</time>
      </trkpt>
      <trkpt lat="45.11425" lon="4.96076">
        <ele>218.74293518066</ele>
        <time>2011-05-25T16:50:16Z</time>
      </trkpt>
      <trkpt lat="45.11424" lon="4.96076">
        <ele>218.76119995117</ele>
        <time>2011-05-25T16:50:18Z</time>
      </trkpt>
      <trkpt lat="45.11419" lon="4.96072">
        <ele>218.84326171875</ele>
        <time>2011-05-25T16:50:25Z</time>
      </trkpt>
      <trkpt lat="45.11418" lon="4.96071">
        <ele>218.89302062988</ele>
        <time>2011-05-25T16:50:26Z</time>
      </trkpt>
      <trkpt lat="45.11416" lon="4.96068">
        <ele>219.16897583008</ele>
        <time>2011-05-25T16:50:30Z</time>
      </trkpt>
    </trkseg>
  </trk>
</gpx>